<?xml version="1.0" encoding="UTF-8" standalone="no" ?>
<gpx xmlns="http://www.topografix.com/GPX/1/1" xmlns:xsi="http://www.w3.org/2001/XMLSchema-instance" xsi:schemaLocation="http://www.topografix.com/GPX/1/1 http://www.topografix.com/GPX/1/1/gpx.xsd" version="1.1" creator="VisuGPX - https://www.visugpx.com">
  <metadata>
    <name>Boucle du dimanche</name>
    <desc><![CDATA[Accompagné d'un VTC ]]></desc>
  </metadata>
  <trk>
    <name><![CDATA[2023 07 30 boucle du dimanche]]></name>
    <trkseg>
      <trkpt lat="45.83334" lon="4.70889">
        <ele>364.90973</ele>
        <time>2023-07-30T13:20:39.000Z</time>
      </trkpt>
      <trkpt lat="45.83334" lon="4.70886">
        <ele>364.54303</ele>
        <time>2023-07-30T13:20:58.000Z</time>
      </trkpt>
      <trkpt lat="45.83333" lon="4.70882">
        <ele>364.40585</ele>
        <time>2023-07-30T13:21:13.000Z</time>
      </trkpt>
      <trkpt lat="45.83333" lon="4.70879">
        <ele>364.14331</ele>
        <time>2023-07-30T13:21:14.000Z</time>
      </trkpt>
      <trkpt lat="45.83333" lon="4.70875">
        <ele>363.94785</ele>
        <time>2023-07-30T13:21:15.000Z</time>
      </trkpt>
      <trkpt lat="45.83333" lon="4.70872">
        <ele>363.83035</ele>
        <time>2023-07-30T13:21:16.000Z</time>
      </trkpt>
      <trkpt lat="45.83334" lon="4.70868">
        <ele>363.77295</ele>
        <time>2023-07-30T13:21:17.000Z</time>
      </trkpt>
      <trkpt lat="45.83335" lon="4.70863">
        <ele>363.74689</ele>
        <time>2023-07-30T13:21:18.000Z</time>
      </trkpt>
      <trkpt lat="45.83336" lon="4.70859">
        <ele>363.69055</ele>
        <time>2023-07-30T13:21:19.000Z</time>
      </trkpt>
      <trkpt lat="45.83336" lon="4.70854">
        <ele>363.67807</ele>
        <time>2023-07-30T13:21:20.000Z</time>
      </trkpt>
      <trkpt lat="45.83337" lon="4.70849">
        <ele>363.66364</ele>
        <time>2023-07-30T13:21:21.000Z</time>
      </trkpt>
      <trkpt lat="45.83337" lon="4.70844">
        <ele>363.69214</ele>
        <time>2023-07-30T13:21:22.000Z</time>
      </trkpt>
      <trkpt lat="45.83338" lon="4.70839">
        <ele>363.70477</ele>
        <time>2023-07-30T13:21:23.000Z</time>
      </trkpt>
      <trkpt lat="45.83338" lon="4.70834">
        <ele>363.71658</ele>
        <time>2023-07-30T13:21:24.000Z</time>
      </trkpt>
      <trkpt lat="45.83339" lon="4.7083">
        <ele>363.73352</ele>
        <time>2023-07-30T13:21:25.000Z</time>
      </trkpt>
      <trkpt lat="45.83339" lon="4.70825">
        <ele>363.74533</ele>
        <time>2023-07-30T13:21:26.000Z</time>
      </trkpt>
      <trkpt lat="45.83339" lon="4.70819">
        <ele>363.76569</ele>
        <time>2023-07-30T13:21:27.000Z</time>
      </trkpt>
      <trkpt lat="45.8334" lon="4.70814">
        <ele>363.78201</ele>
        <time>2023-07-30T13:21:28.000Z</time>
      </trkpt>
      <trkpt lat="45.8334" lon="4.70809">
        <ele>363.76572</ele>
        <time>2023-07-30T13:21:29.000Z</time>
      </trkpt>
      <trkpt lat="45.83341" lon="4.70804">
        <ele>363.74213</ele>
        <time>2023-07-30T13:21:30.000Z</time>
      </trkpt>
      <trkpt lat="45.83342" lon="4.70799">
        <ele>363.6749</ele>
        <time>2023-07-30T13:21:31.000Z</time>
      </trkpt>
      <trkpt lat="45.83342" lon="4.70795">
        <ele>363.64624</ele>
        <time>2023-07-30T13:21:32.000Z</time>
      </trkpt>
      <trkpt lat="45.83343" lon="4.70789">
        <ele>363.60849</ele>
        <time>2023-07-30T13:21:33.000Z</time>
      </trkpt>
      <trkpt lat="45.83343" lon="4.70784">
        <ele>363.60516</ele>
        <time>2023-07-30T13:21:34.000Z</time>
      </trkpt>
      <trkpt lat="45.83343" lon="4.70778">
        <ele>363.59174</ele>
        <time>2023-07-30T13:21:35.000Z</time>
      </trkpt>
      <trkpt lat="45.83344" lon="4.70772">
        <ele>363.59406</ele>
        <time>2023-07-30T13:21:36.000Z</time>
      </trkpt>
      <trkpt lat="45.83345" lon="4.70766">
        <ele>363.57874</ele>
        <time>2023-07-30T13:21:37.000Z</time>
      </trkpt>
      <trkpt lat="45.83346" lon="4.70761">
        <ele>363.58673</ele>
        <time>2023-07-30T13:21:38.000Z</time>
      </trkpt>
      <trkpt lat="45.83346" lon="4.70755">
        <ele>363.60297</ele>
        <time>2023-07-30T13:21:39.000Z</time>
      </trkpt>
      <trkpt lat="45.83347" lon="4.70749">
        <ele>363.61871</ele>
        <time>2023-07-30T13:21:40.000Z</time>
      </trkpt>
      <trkpt lat="45.83348" lon="4.70743">
        <ele>363.64886</ele>
        <time>2023-07-30T13:21:41.000Z</time>
      </trkpt>
      <trkpt lat="45.83348" lon="4.70738">
        <ele>363.65259</ele>
        <time>2023-07-30T13:21:42.000Z</time>
      </trkpt>
      <trkpt lat="45.83347" lon="4.70733">
        <ele>363.68018</ele>
        <time>2023-07-30T13:21:43.000Z</time>
      </trkpt>
      <trkpt lat="45.83347" lon="4.70728">
        <ele>363.75192</ele>
        <time>2023-07-30T13:21:44.000Z</time>
      </trkpt>
      <trkpt lat="45.83347" lon="4.70723">
        <ele>363.82697</ele>
        <time>2023-07-30T13:21:45.000Z</time>
      </trkpt>
      <trkpt lat="45.83348" lon="4.70717">
        <ele>363.89453</ele>
        <time>2023-07-30T13:21:46.000Z</time>
      </trkpt>
      <trkpt lat="45.83348" lon="4.70712">
        <ele>363.93219</ele>
        <time>2023-07-30T13:21:47.000Z</time>
      </trkpt>
      <trkpt lat="45.83349" lon="4.70707">
        <ele>363.97552</ele>
        <time>2023-07-30T13:21:48.000Z</time>
      </trkpt>
      <trkpt lat="45.83349" lon="4.70701">
        <ele>364.04944</ele>
        <time>2023-07-30T13:21:49.000Z</time>
      </trkpt>
      <trkpt lat="45.8335" lon="4.70696">
        <ele>364.14096</ele>
        <time>2023-07-30T13:21:50.000Z</time>
      </trkpt>
      <trkpt lat="45.8335" lon="4.7069">
        <ele>364.21808</ele>
        <time>2023-07-30T13:21:51.000Z</time>
      </trkpt>
      <trkpt lat="45.8335" lon="4.70683">
        <ele>364.27472</ele>
        <time>2023-07-30T13:21:52.000Z</time>
      </trkpt>
      <trkpt lat="45.8335" lon="4.70676">
        <ele>364.3291</ele>
        <time>2023-07-30T13:21:53.000Z</time>
      </trkpt>
      <trkpt lat="45.83351" lon="4.70669">
        <ele>364.40543</ele>
        <time>2023-07-30T13:21:54.000Z</time>
      </trkpt>
      <trkpt lat="45.83351" lon="4.70661">
        <ele>364.48502</ele>
        <time>2023-07-30T13:21:55.000Z</time>
      </trkpt>
      <trkpt lat="45.83352" lon="4.70654">
        <ele>364.54507</ele>
        <time>2023-07-30T13:21:56.000Z</time>
      </trkpt>
      <trkpt lat="45.83352" lon="4.70647">
        <ele>364.61102</ele>
        <time>2023-07-30T13:21:57.000Z</time>
      </trkpt>
      <trkpt lat="45.83353" lon="4.70638">
        <ele>364.6188</ele>
        <time>2023-07-30T13:21:58.000Z</time>
      </trkpt>
      <trkpt lat="45.83353" lon="4.70631">
        <ele>364.5965</ele>
        <time>2023-07-30T13:21:59.000Z</time>
      </trkpt>
      <trkpt lat="45.83353" lon="4.70623">
        <ele>364.54434</ele>
        <time>2023-07-30T13:22:00.000Z</time>
      </trkpt>
      <trkpt lat="45.83355" lon="4.70616">
        <ele>364.44934</ele>
        <time>2023-07-30T13:22:01.000Z</time>
      </trkpt>
      <trkpt lat="45.83359" lon="4.7061">
        <ele>364.33401</ele>
        <time>2023-07-30T13:22:02.000Z</time>
      </trkpt>
      <trkpt lat="45.83364" lon="4.70607">
        <ele>364.19012</ele>
        <time>2023-07-30T13:22:03.000Z</time>
      </trkpt>
      <trkpt lat="45.8337" lon="4.70606">
        <ele>363.97742</ele>
        <time>2023-07-30T13:22:04.000Z</time>
      </trkpt>
      <trkpt lat="45.83376" lon="4.70607">
        <ele>363.73672</ele>
        <time>2023-07-30T13:22:05.000Z</time>
      </trkpt>
      <trkpt lat="45.83382" lon="4.70608">
        <ele>363.48117</ele>
        <time>2023-07-30T13:22:06.000Z</time>
      </trkpt>
      <trkpt lat="45.83388" lon="4.70609">
        <ele>363.25302</ele>
        <time>2023-07-30T13:22:07.000Z</time>
      </trkpt>
      <trkpt lat="45.83395" lon="4.7061">
        <ele>363.01752</ele>
        <time>2023-07-30T13:22:08.000Z</time>
      </trkpt>
      <trkpt lat="45.83401" lon="4.7061">
        <ele>362.76917</ele>
        <time>2023-07-30T13:22:09.000Z</time>
      </trkpt>
      <trkpt lat="45.83407" lon="4.70611">
        <ele>362.46954</ele>
        <time>2023-07-30T13:22:10.000Z</time>
      </trkpt>
      <trkpt lat="45.83413" lon="4.70612">
        <ele>362.19302</ele>
        <time>2023-07-30T13:22:11.000Z</time>
      </trkpt>
      <trkpt lat="45.83419" lon="4.70613">
        <ele>361.93027</ele>
        <time>2023-07-30T13:22:12.000Z</time>
      </trkpt>
      <trkpt lat="45.83426" lon="4.70614">
        <ele>361.67316</ele>
        <time>2023-07-30T13:22:13.000Z</time>
      </trkpt>
      <trkpt lat="45.83432" lon="4.70615">
        <ele>361.41083</ele>
        <time>2023-07-30T13:22:14.000Z</time>
      </trkpt>
      <trkpt lat="45.83438" lon="4.70616">
        <ele>361.1492</ele>
        <time>2023-07-30T13:22:15.000Z</time>
      </trkpt>
      <trkpt lat="45.83444" lon="4.70617">
        <ele>360.89471</ele>
        <time>2023-07-30T13:22:16.000Z</time>
      </trkpt>
      <trkpt lat="45.8345" lon="4.70617">
        <ele>360.62454</ele>
        <time>2023-07-30T13:22:17.000Z</time>
      </trkpt>
      <trkpt lat="45.83456" lon="4.70618">
        <ele>360.37637</ele>
        <time>2023-07-30T13:22:18.000Z</time>
      </trkpt>
      <trkpt lat="45.83462" lon="4.70619">
        <ele>360.17072</ele>
        <time>2023-07-30T13:22:19.000Z</time>
      </trkpt>
      <trkpt lat="45.83468" lon="4.70618">
        <ele>359.97357</ele>
        <time>2023-07-30T13:22:20.000Z</time>
      </trkpt>
      <trkpt lat="45.83474" lon="4.70618">
        <ele>359.82037</ele>
        <time>2023-07-30T13:22:21.000Z</time>
      </trkpt>
      <trkpt lat="45.83479" lon="4.70617">
        <ele>359.59689</ele>
        <time>2023-07-30T13:22:22.000Z</time>
      </trkpt>
      <trkpt lat="45.83486" lon="4.70617">
        <ele>359.38705</ele>
        <time>2023-07-30T13:22:23.000Z</time>
      </trkpt>
      <trkpt lat="45.83492" lon="4.70616">
        <ele>359.15741</ele>
        <time>2023-07-30T13:22:24.000Z</time>
      </trkpt>
      <trkpt lat="45.83499" lon="4.70616">
        <ele>358.92041</ele>
        <time>2023-07-30T13:22:25.000Z</time>
      </trkpt>
      <trkpt lat="45.83505" lon="4.70615">
        <ele>358.71228</ele>
        <time>2023-07-30T13:22:26.000Z</time>
      </trkpt>
      <trkpt lat="45.83512" lon="4.70615">
        <ele>358.48151</ele>
        <time>2023-07-30T13:22:27.000Z</time>
      </trkpt>
      <trkpt lat="45.83519" lon="4.70615">
        <ele>358.23361</ele>
        <time>2023-07-30T13:22:28.000Z</time>
      </trkpt>
      <trkpt lat="45.83525" lon="4.70615">
        <ele>357.9848</ele>
        <time>2023-07-30T13:22:29.000Z</time>
      </trkpt>
      <trkpt lat="45.83532" lon="4.70614">
        <ele>357.76785</ele>
        <time>2023-07-30T13:22:30.000Z</time>
      </trkpt>
      <trkpt lat="45.83538" lon="4.70614">
        <ele>357.52264</ele>
        <time>2023-07-30T13:22:31.000Z</time>
      </trkpt>
      <trkpt lat="45.83545" lon="4.70613">
        <ele>357.2897</ele>
        <time>2023-07-30T13:22:32.000Z</time>
      </trkpt>
      <trkpt lat="45.83552" lon="4.70613">
        <ele>357.05789</ele>
        <time>2023-07-30T13:22:33.000Z</time>
      </trkpt>
      <trkpt lat="45.83559" lon="4.70613">
        <ele>356.81015</ele>
        <time>2023-07-30T13:22:34.000Z</time>
      </trkpt>
      <trkpt lat="45.83565" lon="4.70613">
        <ele>356.58771</ele>
        <time>2023-07-30T13:22:35.000Z</time>
      </trkpt>
      <trkpt lat="45.83571" lon="4.70614">
        <ele>356.35712</ele>
        <time>2023-07-30T13:22:36.000Z</time>
      </trkpt>
      <trkpt lat="45.83577" lon="4.70615">
        <ele>356.13394</ele>
        <time>2023-07-30T13:22:37.000Z</time>
      </trkpt>
      <trkpt lat="45.83583" lon="4.70616">
        <ele>355.91748</ele>
        <time>2023-07-30T13:22:38.000Z</time>
      </trkpt>
      <trkpt lat="45.83589" lon="4.70616">
        <ele>355.68533</ele>
        <time>2023-07-30T13:22:39.000Z</time>
      </trkpt>
      <trkpt lat="45.83595" lon="4.70618">
        <ele>355.43759</ele>
        <time>2023-07-30T13:22:40.000Z</time>
      </trkpt>
      <trkpt lat="45.83601" lon="4.7062">
        <ele>355.16916</ele>
        <time>2023-07-30T13:22:41.000Z</time>
      </trkpt>
      <trkpt lat="45.83606" lon="4.70622">
        <ele>354.99484</ele>
        <time>2023-07-30T13:22:42.000Z</time>
      </trkpt>
      <trkpt lat="45.83612" lon="4.70625">
        <ele>354.82681</ele>
        <time>2023-07-30T13:22:43.000Z</time>
      </trkpt>
      <trkpt lat="45.83617" lon="4.70626">
        <ele>354.6756</ele>
        <time>2023-07-30T13:22:44.000Z</time>
      </trkpt>
      <trkpt lat="45.83622" lon="4.70627">
        <ele>354.50546</ele>
        <time>2023-07-30T13:22:45.000Z</time>
      </trkpt>
      <trkpt lat="45.83628" lon="4.70627">
        <ele>354.33881</ele>
        <time>2023-07-30T13:22:46.000Z</time>
      </trkpt>
      <trkpt lat="45.83633" lon="4.70625">
        <ele>354.17926</ele>
        <time>2023-07-30T13:22:47.000Z</time>
      </trkpt>
      <trkpt lat="45.83639" lon="4.70622">
        <ele>354.02289</ele>
        <time>2023-07-30T13:22:48.000Z</time>
      </trkpt>
      <trkpt lat="45.83644" lon="4.7062">
        <ele>353.86298</ele>
        <time>2023-07-30T13:22:49.000Z</time>
      </trkpt>
      <trkpt lat="45.8365" lon="4.70616">
        <ele>353.70444</ele>
        <time>2023-07-30T13:22:50.000Z</time>
      </trkpt>
      <trkpt lat="45.83656" lon="4.70613">
        <ele>353.54425</ele>
        <time>2023-07-30T13:22:51.000Z</time>
      </trkpt>
      <trkpt lat="45.83661" lon="4.7061">
        <ele>353.36615</ele>
        <time>2023-07-30T13:22:52.000Z</time>
      </trkpt>
      <trkpt lat="45.83667" lon="4.70607">
        <ele>353.20459</ele>
        <time>2023-07-30T13:22:53.000Z</time>
      </trkpt>
      <trkpt lat="45.83674" lon="4.70604">
        <ele>353.03094</ele>
        <time>2023-07-30T13:22:54.000Z</time>
      </trkpt>
      <trkpt lat="45.8368" lon="4.70602">
        <ele>352.84219</ele>
        <time>2023-07-30T13:22:55.000Z</time>
      </trkpt>
      <trkpt lat="45.83686" lon="4.70599">
        <ele>352.66745</ele>
        <time>2023-07-30T13:22:56.000Z</time>
      </trkpt>
      <trkpt lat="45.83692" lon="4.70597">
        <ele>352.50055</ele>
        <time>2023-07-30T13:22:57.000Z</time>
      </trkpt>
      <trkpt lat="45.83697" lon="4.70595">
        <ele>352.32709</ele>
        <time>2023-07-30T13:22:58.000Z</time>
      </trkpt>
      <trkpt lat="45.83704" lon="4.70594">
        <ele>352.23724</ele>
        <time>2023-07-30T13:22:59.000Z</time>
      </trkpt>
      <trkpt lat="45.8371" lon="4.70593">
        <ele>352.22092</ele>
        <time>2023-07-30T13:23:00.000Z</time>
      </trkpt>
      <trkpt lat="45.83716" lon="4.70591">
        <ele>352.1994</ele>
        <time>2023-07-30T13:23:01.000Z</time>
      </trkpt>
      <trkpt lat="45.83723" lon="4.70591">
        <ele>352.01245</ele>
        <time>2023-07-30T13:23:02.000Z</time>
      </trkpt>
      <trkpt lat="45.83729" lon="4.7059">
        <ele>351.88522</ele>
        <time>2023-07-30T13:23:03.000Z</time>
      </trkpt>
      <trkpt lat="45.83735" lon="4.70589">
        <ele>351.79083</ele>
        <time>2023-07-30T13:23:04.000Z</time>
      </trkpt>
      <trkpt lat="45.83741" lon="4.70586">
        <ele>351.72919</ele>
        <time>2023-07-30T13:23:05.000Z</time>
      </trkpt>
      <trkpt lat="45.83748" lon="4.70583">
        <ele>351.66837</ele>
        <time>2023-07-30T13:23:06.000Z</time>
      </trkpt>
      <trkpt lat="45.83754" lon="4.70579">
        <ele>351.6214</ele>
        <time>2023-07-30T13:23:07.000Z</time>
      </trkpt>
      <trkpt lat="45.8376" lon="4.70577">
        <ele>351.54773</ele>
        <time>2023-07-30T13:23:08.000Z</time>
      </trkpt>
      <trkpt lat="45.83767" lon="4.70573">
        <ele>351.47632</ele>
        <time>2023-07-30T13:23:09.000Z</time>
      </trkpt>
      <trkpt lat="45.83774" lon="4.70571">
        <ele>351.40588</ele>
        <time>2023-07-30T13:23:10.000Z</time>
      </trkpt>
      <trkpt lat="45.8378" lon="4.70566">
        <ele>351.3255</ele>
        <time>2023-07-30T13:23:11.000Z</time>
      </trkpt>
      <trkpt lat="45.83786" lon="4.70562">
        <ele>351.24133</ele>
        <time>2023-07-30T13:23:12.000Z</time>
      </trkpt>
      <trkpt lat="45.83792" lon="4.70559">
        <ele>351.13901</ele>
        <time>2023-07-30T13:23:13.000Z</time>
      </trkpt>
      <trkpt lat="45.83798" lon="4.70555">
        <ele>351.05444</ele>
        <time>2023-07-30T13:23:14.000Z</time>
      </trkpt>
      <trkpt lat="45.83804" lon="4.7055">
        <ele>350.96381</ele>
        <time>2023-07-30T13:23:15.000Z</time>
      </trkpt>
      <trkpt lat="45.8381" lon="4.70546">
        <ele>350.82074</ele>
        <time>2023-07-30T13:23:16.000Z</time>
      </trkpt>
      <trkpt lat="45.83816" lon="4.70541">
        <ele>350.67438</ele>
        <time>2023-07-30T13:23:17.000Z</time>
      </trkpt>
      <trkpt lat="45.83823" lon="4.70537">
        <ele>350.5368</ele>
        <time>2023-07-30T13:23:18.000Z</time>
      </trkpt>
      <trkpt lat="45.83829" lon="4.70533">
        <ele>350.31744</ele>
        <time>2023-07-30T13:23:19.000Z</time>
      </trkpt>
      <trkpt lat="45.83835" lon="4.7053">
        <ele>350.03802</ele>
        <time>2023-07-30T13:23:20.000Z</time>
      </trkpt>
      <trkpt lat="45.83841" lon="4.70524">
        <ele>349.77509</ele>
        <time>2023-07-30T13:23:21.000Z</time>
      </trkpt>
      <trkpt lat="45.83847" lon="4.7052">
        <ele>349.67755</ele>
        <time>2023-07-30T13:23:22.000Z</time>
      </trkpt>
      <trkpt lat="45.83852" lon="4.70516">
        <ele>349.51001</ele>
        <time>2023-07-30T13:23:23.000Z</time>
      </trkpt>
      <trkpt lat="45.83857" lon="4.70513">
        <ele>349.31665</ele>
        <time>2023-07-30T13:23:24.000Z</time>
      </trkpt>
      <trkpt lat="45.83862" lon="4.70511">
        <ele>349.14017</ele>
        <time>2023-07-30T13:23:25.000Z</time>
      </trkpt>
      <trkpt lat="45.83865" lon="4.70506">
        <ele>348.97565</ele>
        <time>2023-07-30T13:23:26.000Z</time>
      </trkpt>
      <trkpt lat="45.83865" lon="4.70502">
        <ele>348.78992</ele>
        <time>2023-07-30T13:23:27.000Z</time>
      </trkpt>
      <trkpt lat="45.83865" lon="4.70496">
        <ele>348.63419</ele>
        <time>2023-07-30T13:23:28.000Z</time>
      </trkpt>
      <trkpt lat="45.83864" lon="4.70491">
        <ele>348.50052</ele>
        <time>2023-07-30T13:23:29.000Z</time>
      </trkpt>
      <trkpt lat="45.83863" lon="4.70486">
        <ele>348.16666</ele>
        <time>2023-07-30T13:23:30.000Z</time>
      </trkpt>
      <trkpt lat="45.83862" lon="4.70481">
        <ele>347.82077</ele>
        <time>2023-07-30T13:23:31.000Z</time>
      </trkpt>
      <trkpt lat="45.83861" lon="4.70476">
        <ele>347.43121</ele>
        <time>2023-07-30T13:23:32.000Z</time>
      </trkpt>
      <trkpt lat="45.8386" lon="4.70471">
        <ele>347.06094</ele>
        <time>2023-07-30T13:23:33.000Z</time>
      </trkpt>
      <trkpt lat="45.8386" lon="4.70467">
        <ele>346.63132</ele>
        <time>2023-07-30T13:23:34.000Z</time>
      </trkpt>
      <trkpt lat="45.83859" lon="4.70464">
        <ele>346.23718</ele>
        <time>2023-07-30T13:23:36.000Z</time>
      </trkpt>
      <trkpt lat="45.83858" lon="4.70462">
        <ele>345.94867</ele>
        <time>2023-07-30T13:23:58.000Z</time>
      </trkpt>
      <trkpt lat="45.83856" lon="4.70457">
        <ele>345.65359</ele>
        <time>2023-07-30T13:24:00.000Z</time>
      </trkpt>
      <trkpt lat="45.83855" lon="4.70455">
        <ele>345.36395</ele>
        <time>2023-07-30T13:24:01.000Z</time>
      </trkpt>
      <trkpt lat="45.83855" lon="4.70451">
        <ele>345.07645</ele>
        <time>2023-07-30T13:24:02.000Z</time>
      </trkpt>
      <trkpt lat="45.83854" lon="4.70448">
        <ele>344.78006</ele>
        <time>2023-07-30T13:24:03.000Z</time>
      </trkpt>
      <trkpt lat="45.83853" lon="4.70444">
        <ele>344.46469</ele>
        <time>2023-07-30T13:24:04.000Z</time>
      </trkpt>
      <trkpt lat="45.83852" lon="4.7044">
        <ele>344.14386</ele>
        <time>2023-07-30T13:24:05.000Z</time>
      </trkpt>
      <trkpt lat="45.83852" lon="4.70436">
        <ele>343.82114</ele>
        <time>2023-07-30T13:24:06.000Z</time>
      </trkpt>
      <trkpt lat="45.83851" lon="4.70432">
        <ele>343.51117</ele>
        <time>2023-07-30T13:24:07.000Z</time>
      </trkpt>
      <trkpt lat="45.8385" lon="4.70428">
        <ele>343.18915</ele>
        <time>2023-07-30T13:24:08.000Z</time>
      </trkpt>
      <trkpt lat="45.83849" lon="4.70423">
        <ele>342.8515</ele>
        <time>2023-07-30T13:24:09.000Z</time>
      </trkpt>
      <trkpt lat="45.83848" lon="4.70419">
        <ele>342.54474</ele>
        <time>2023-07-30T13:24:10.000Z</time>
      </trkpt>
      <trkpt lat="45.83847" lon="4.70414">
        <ele>342.24091</ele>
        <time>2023-07-30T13:24:11.000Z</time>
      </trkpt>
      <trkpt lat="45.83846" lon="4.7041">
        <ele>341.90469</ele>
        <time>2023-07-30T13:24:12.000Z</time>
      </trkpt>
      <trkpt lat="45.83845" lon="4.70405">
        <ele>341.7648</ele>
        <time>2023-07-30T13:24:13.000Z</time>
      </trkpt>
      <trkpt lat="45.83844" lon="4.704">
        <ele>341.64844</ele>
        <time>2023-07-30T13:24:14.000Z</time>
      </trkpt>
      <trkpt lat="45.83843" lon="4.70395">
        <ele>341.58447</ele>
        <time>2023-07-30T13:24:15.000Z</time>
      </trkpt>
      <trkpt lat="45.83842" lon="4.70389">
        <ele>341.50177</ele>
        <time>2023-07-30T13:24:16.000Z</time>
      </trkpt>
      <trkpt lat="45.83841" lon="4.70384">
        <ele>341.50333</ele>
        <time>2023-07-30T13:24:17.000Z</time>
      </trkpt>
      <trkpt lat="45.8384" lon="4.70378">
        <ele>341.45517</ele>
        <time>2023-07-30T13:24:18.000Z</time>
      </trkpt>
      <trkpt lat="45.83839" lon="4.70372">
        <ele>341.32947</ele>
        <time>2023-07-30T13:24:19.000Z</time>
      </trkpt>
      <trkpt lat="45.83838" lon="4.70366">
        <ele>341.20856</ele>
        <time>2023-07-30T13:24:20.000Z</time>
      </trkpt>
      <trkpt lat="45.83837" lon="4.70361">
        <ele>341.08331</ele>
        <time>2023-07-30T13:24:21.000Z</time>
      </trkpt>
      <trkpt lat="45.83836" lon="4.70356">
        <ele>340.96109</ele>
        <time>2023-07-30T13:24:22.000Z</time>
      </trkpt>
      <trkpt lat="45.83835" lon="4.70351">
        <ele>340.84387</ele>
        <time>2023-07-30T13:24:23.000Z</time>
      </trkpt>
      <trkpt lat="45.83833" lon="4.70348">
        <ele>340.71365</ele>
        <time>2023-07-30T13:24:24.000Z</time>
      </trkpt>
      <trkpt lat="45.83832" lon="4.70345">
        <ele>340.56482</ele>
        <time>2023-07-30T13:24:26.000Z</time>
      </trkpt>
      <trkpt lat="45.83832" lon="4.70342">
        <ele>340.35358</ele>
        <time>2023-07-30T13:25:01.000Z</time>
      </trkpt>
      <trkpt lat="45.83831" lon="4.70338">
        <ele>340.14651</ele>
        <time>2023-07-30T13:25:04.000Z</time>
      </trkpt>
      <trkpt lat="45.83831" lon="4.70335">
        <ele>339.91617</ele>
        <time>2023-07-30T13:25:13.000Z</time>
      </trkpt>
      <trkpt lat="45.8383" lon="4.70331">
        <ele>339.68048</ele>
        <time>2023-07-30T13:25:15.000Z</time>
      </trkpt>
      <trkpt lat="45.8383" lon="4.70328">
        <ele>339.42059</ele>
        <time>2023-07-30T13:25:16.000Z</time>
      </trkpt>
      <trkpt lat="45.83829" lon="4.70325">
        <ele>339.18439</ele>
        <time>2023-07-30T13:25:17.000Z</time>
      </trkpt>
      <trkpt lat="45.83828" lon="4.70322">
        <ele>338.96881</ele>
        <time>2023-07-30T13:25:18.000Z</time>
      </trkpt>
      <trkpt lat="45.83827" lon="4.70318">
        <ele>338.78418</ele>
        <time>2023-07-30T13:25:19.000Z</time>
      </trkpt>
      <trkpt lat="45.83826" lon="4.70315">
        <ele>338.58295</ele>
        <time>2023-07-30T13:25:20.000Z</time>
      </trkpt>
      <trkpt lat="45.83824" lon="4.70311">
        <ele>338.41949</ele>
        <time>2023-07-30T13:25:21.000Z</time>
      </trkpt>
      <trkpt lat="45.83823" lon="4.70306">
        <ele>338.26605</ele>
        <time>2023-07-30T13:25:22.000Z</time>
      </trkpt>
      <trkpt lat="45.83822" lon="4.70301">
        <ele>338.07648</ele>
        <time>2023-07-30T13:25:23.000Z</time>
      </trkpt>
      <trkpt lat="45.8382" lon="4.70293">
        <ele>337.90781</ele>
        <time>2023-07-30T13:25:24.000Z</time>
      </trkpt>
      <trkpt lat="45.83819" lon="4.70286">
        <ele>337.6777</ele>
        <time>2023-07-30T13:25:25.000Z</time>
      </trkpt>
      <trkpt lat="45.83818" lon="4.70279">
        <ele>337.94458</ele>
        <time>2023-07-30T13:25:26.000Z</time>
      </trkpt>
      <trkpt lat="45.83816" lon="4.70273">
        <ele>338.04803</ele>
        <time>2023-07-30T13:25:27.000Z</time>
      </trkpt>
      <trkpt lat="45.83814" lon="4.70267">
        <ele>338.13248</ele>
        <time>2023-07-30T13:25:28.000Z</time>
      </trkpt>
      <trkpt lat="45.83813" lon="4.70261">
        <ele>338.22455</ele>
        <time>2023-07-30T13:25:29.000Z</time>
      </trkpt>
      <trkpt lat="45.8381" lon="4.70255">
        <ele>338.32001</ele>
        <time>2023-07-30T13:25:30.000Z</time>
      </trkpt>
      <trkpt lat="45.83808" lon="4.70249">
        <ele>338.42944</ele>
        <time>2023-07-30T13:25:31.000Z</time>
      </trkpt>
      <trkpt lat="45.83807" lon="4.70242">
        <ele>338.70258</ele>
        <time>2023-07-30T13:25:32.000Z</time>
      </trkpt>
      <trkpt lat="45.83805" lon="4.70232">
        <ele>338.92593</ele>
        <time>2023-07-30T13:25:33.000Z</time>
      </trkpt>
      <trkpt lat="45.83804" lon="4.70224">
        <ele>339.13434</ele>
        <time>2023-07-30T13:25:34.000Z</time>
      </trkpt>
      <trkpt lat="45.83802" lon="4.70215">
        <ele>339.31302</ele>
        <time>2023-07-30T13:25:35.000Z</time>
      </trkpt>
      <trkpt lat="45.83801" lon="4.70207">
        <ele>339.52307</ele>
        <time>2023-07-30T13:25:36.000Z</time>
      </trkpt>
      <trkpt lat="45.83801" lon="4.70201">
        <ele>339.6904</ele>
        <time>2023-07-30T13:25:37.000Z</time>
      </trkpt>
      <trkpt lat="45.83802" lon="4.70198">
        <ele>340.00986</ele>
        <time>2023-07-30T13:25:38.000Z</time>
      </trkpt>
      <trkpt lat="45.83803" lon="4.70195">
        <ele>340.38788</ele>
        <time>2023-07-30T13:25:39.000Z</time>
      </trkpt>
      <trkpt lat="45.83807" lon="4.70194">
        <ele>340.84027</ele>
        <time>2023-07-30T13:25:40.000Z</time>
      </trkpt>
      <trkpt lat="45.8381" lon="4.70192">
        <ele>341.21173</ele>
        <time>2023-07-30T13:25:41.000Z</time>
      </trkpt>
      <trkpt lat="45.83813" lon="4.7019">
        <ele>341.27029</ele>
        <time>2023-07-30T13:25:42.000Z</time>
      </trkpt>
      <trkpt lat="45.83817" lon="4.70187">
        <ele>341.39337</ele>
        <time>2023-07-30T13:25:43.000Z</time>
      </trkpt>
      <trkpt lat="45.8382" lon="4.70183">
        <ele>341.55789</ele>
        <time>2023-07-30T13:25:44.000Z</time>
      </trkpt>
      <trkpt lat="45.83823" lon="4.70179">
        <ele>341.81757</ele>
        <time>2023-07-30T13:25:45.000Z</time>
      </trkpt>
      <trkpt lat="45.83825" lon="4.70176">
        <ele>341.56854</ele>
        <time>2023-07-30T13:25:46.000Z</time>
      </trkpt>
      <trkpt lat="45.83828" lon="4.70172">
        <ele>341.50656</ele>
        <time>2023-07-30T13:25:47.000Z</time>
      </trkpt>
      <trkpt lat="45.83831" lon="4.70167">
        <ele>341.41296</ele>
        <time>2023-07-30T13:25:48.000Z</time>
      </trkpt>
      <trkpt lat="45.83834" lon="4.70163">
        <ele>341.33551</ele>
        <time>2023-07-30T13:25:49.000Z</time>
      </trkpt>
      <trkpt lat="45.83836" lon="4.70158">
        <ele>341.19427</ele>
        <time>2023-07-30T13:25:50.000Z</time>
      </trkpt>
      <trkpt lat="45.83839" lon="4.70154">
        <ele>340.99408</ele>
        <time>2023-07-30T13:25:51.000Z</time>
      </trkpt>
      <trkpt lat="45.83841" lon="4.70149">
        <ele>340.66931</ele>
        <time>2023-07-30T13:25:52.000Z</time>
      </trkpt>
      <trkpt lat="45.83843" lon="4.70145">
        <ele>340.4212</ele>
        <time>2023-07-30T13:25:53.000Z</time>
      </trkpt>
      <trkpt lat="45.83844" lon="4.7014">
        <ele>340.21219</ele>
        <time>2023-07-30T13:25:54.000Z</time>
      </trkpt>
      <trkpt lat="45.83846" lon="4.70134">
        <ele>340.09467</ele>
        <time>2023-07-30T13:25:55.000Z</time>
      </trkpt>
      <trkpt lat="45.83848" lon="4.70129">
        <ele>339.90808</ele>
        <time>2023-07-30T13:25:56.000Z</time>
      </trkpt>
      <trkpt lat="45.8385" lon="4.70124">
        <ele>339.87781</ele>
        <time>2023-07-30T13:25:57.000Z</time>
      </trkpt>
      <trkpt lat="45.83851" lon="4.70119">
        <ele>339.84186</ele>
        <time>2023-07-30T13:25:58.000Z</time>
      </trkpt>
      <trkpt lat="45.83853" lon="4.70113">
        <ele>339.75214</ele>
        <time>2023-07-30T13:25:59.000Z</time>
      </trkpt>
      <trkpt lat="45.83854" lon="4.70107">
        <ele>339.30219</ele>
        <time>2023-07-30T13:26:00.000Z</time>
      </trkpt>
      <trkpt lat="45.83855" lon="4.70102">
        <ele>338.92401</ele>
        <time>2023-07-30T13:26:01.000Z</time>
      </trkpt>
      <trkpt lat="45.83856" lon="4.70096">
        <ele>338.88184</ele>
        <time>2023-07-30T13:26:02.000Z</time>
      </trkpt>
      <trkpt lat="45.83857" lon="4.70091">
        <ele>338.92377</ele>
        <time>2023-07-30T13:26:03.000Z</time>
      </trkpt>
      <trkpt lat="45.83858" lon="4.70085">
        <ele>339.00388</ele>
        <time>2023-07-30T13:26:04.000Z</time>
      </trkpt>
      <trkpt lat="45.83859" lon="4.70079">
        <ele>339.09927</ele>
        <time>2023-07-30T13:26:05.000Z</time>
      </trkpt>
      <trkpt lat="45.8386" lon="4.70074">
        <ele>339.19928</ele>
        <time>2023-07-30T13:26:06.000Z</time>
      </trkpt>
      <trkpt lat="45.83861" lon="4.70069">
        <ele>338.93091</ele>
        <time>2023-07-30T13:26:07.000Z</time>
      </trkpt>
      <trkpt lat="45.83862" lon="4.70065">
        <ele>338.77386</ele>
        <time>2023-07-30T13:26:08.000Z</time>
      </trkpt>
      <trkpt lat="45.83862" lon="4.70061">
        <ele>338.59204</ele>
        <time>2023-07-30T13:26:09.000Z</time>
      </trkpt>
      <trkpt lat="45.83863" lon="4.70058">
        <ele>338.49045</ele>
        <time>2023-07-30T13:26:10.000Z</time>
      </trkpt>
      <trkpt lat="45.83864" lon="4.70055">
        <ele>338.4606</ele>
        <time>2023-07-30T13:26:11.000Z</time>
      </trkpt>
      <trkpt lat="45.83865" lon="4.70051">
        <ele>338.44104</ele>
        <time>2023-07-30T13:26:12.000Z</time>
      </trkpt>
      <trkpt lat="45.83866" lon="4.70047">
        <ele>338.43149</ele>
        <time>2023-07-30T13:26:13.000Z</time>
      </trkpt>
      <trkpt lat="45.83867" lon="4.70041">
        <ele>338.45038</ele>
        <time>2023-07-30T13:26:14.000Z</time>
      </trkpt>
      <trkpt lat="45.83868" lon="4.70036">
        <ele>338.40399</ele>
        <time>2023-07-30T13:26:15.000Z</time>
      </trkpt>
      <trkpt lat="45.83869" lon="4.70032">
        <ele>338.07928</ele>
        <time>2023-07-30T13:26:16.000Z</time>
      </trkpt>
      <trkpt lat="45.8387" lon="4.70028">
        <ele>337.65186</ele>
        <time>2023-07-30T13:26:17.000Z</time>
      </trkpt>
      <trkpt lat="45.83872" lon="4.70024">
        <ele>337.07727</ele>
        <time>2023-07-30T13:26:18.000Z</time>
      </trkpt>
      <trkpt lat="45.83875" lon="4.70019">
        <ele>336.48624</ele>
        <time>2023-07-30T13:26:19.000Z</time>
      </trkpt>
      <trkpt lat="45.83877" lon="4.70015">
        <ele>336.19815</ele>
        <time>2023-07-30T13:26:20.000Z</time>
      </trkpt>
      <trkpt lat="45.8388" lon="4.7001">
        <ele>335.89908</ele>
        <time>2023-07-30T13:26:21.000Z</time>
      </trkpt>
      <trkpt lat="45.83883" lon="4.70006">
        <ele>335.57416</ele>
        <time>2023-07-30T13:26:22.000Z</time>
      </trkpt>
      <trkpt lat="45.83885" lon="4.70002">
        <ele>335.10172</ele>
        <time>2023-07-30T13:26:23.000Z</time>
      </trkpt>
      <trkpt lat="45.83888" lon="4.69997">
        <ele>334.60443</ele>
        <time>2023-07-30T13:26:24.000Z</time>
      </trkpt>
      <trkpt lat="45.8389" lon="4.69993">
        <ele>334.08505</ele>
        <time>2023-07-30T13:26:25.000Z</time>
      </trkpt>
      <trkpt lat="45.83893" lon="4.69988">
        <ele>333.58218</ele>
        <time>2023-07-30T13:26:26.000Z</time>
      </trkpt>
      <trkpt lat="45.83896" lon="4.69983">
        <ele>333.41919</ele>
        <time>2023-07-30T13:26:27.000Z</time>
      </trkpt>
      <trkpt lat="45.83898" lon="4.69979">
        <ele>333.20132</ele>
        <time>2023-07-30T13:26:28.000Z</time>
      </trkpt>
      <trkpt lat="45.83901" lon="4.69974">
        <ele>332.98175</ele>
        <time>2023-07-30T13:26:29.000Z</time>
      </trkpt>
      <trkpt lat="45.83904" lon="4.6997">
        <ele>332.61676</ele>
        <time>2023-07-30T13:26:30.000Z</time>
      </trkpt>
      <trkpt lat="45.83907" lon="4.69965">
        <ele>332.27618</ele>
        <time>2023-07-30T13:26:31.000Z</time>
      </trkpt>
      <trkpt lat="45.83911" lon="4.6996">
        <ele>331.9516</ele>
        <time>2023-07-30T13:26:32.000Z</time>
      </trkpt>
      <trkpt lat="45.83914" lon="4.69955">
        <ele>331.58646</ele>
        <time>2023-07-30T13:26:33.000Z</time>
      </trkpt>
      <trkpt lat="45.83917" lon="4.6995">
        <ele>331.2182</ele>
        <time>2023-07-30T13:26:34.000Z</time>
      </trkpt>
      <trkpt lat="45.83921" lon="4.69946">
        <ele>330.83643</ele>
        <time>2023-07-30T13:26:35.000Z</time>
      </trkpt>
      <trkpt lat="45.83924" lon="4.6994">
        <ele>330.75851</ele>
        <time>2023-07-30T13:26:36.000Z</time>
      </trkpt>
      <trkpt lat="45.83927" lon="4.69935">
        <ele>330.64478</ele>
        <time>2023-07-30T13:26:37.000Z</time>
      </trkpt>
      <trkpt lat="45.8393" lon="4.6993">
        <ele>330.52353</ele>
        <time>2023-07-30T13:26:38.000Z</time>
      </trkpt>
      <trkpt lat="45.83933" lon="4.69927">
        <ele>330.45374</ele>
        <time>2023-07-30T13:26:39.000Z</time>
      </trkpt>
      <trkpt lat="45.83936" lon="4.69922">
        <ele>330.39554</ele>
        <time>2023-07-30T13:26:40.000Z</time>
      </trkpt>
      <trkpt lat="45.8394" lon="4.69916">
        <ele>330.28778</ele>
        <time>2023-07-30T13:26:41.000Z</time>
      </trkpt>
      <trkpt lat="45.83943" lon="4.6991">
        <ele>330.17789</ele>
        <time>2023-07-30T13:26:42.000Z</time>
      </trkpt>
      <trkpt lat="45.83946" lon="4.69906">
        <ele>330.09134</ele>
        <time>2023-07-30T13:26:43.000Z</time>
      </trkpt>
      <trkpt lat="45.83949" lon="4.699">
        <ele>329.96603</ele>
        <time>2023-07-30T13:26:44.000Z</time>
      </trkpt>
      <trkpt lat="45.83952" lon="4.69894">
        <ele>329.83319</ele>
        <time>2023-07-30T13:26:45.000Z</time>
      </trkpt>
      <trkpt lat="45.83955" lon="4.69889">
        <ele>329.71609</ele>
        <time>2023-07-30T13:26:46.000Z</time>
      </trkpt>
      <trkpt lat="45.83957" lon="4.69884">
        <ele>329.6062</ele>
        <time>2023-07-30T13:26:47.000Z</time>
      </trkpt>
      <trkpt lat="45.8396" lon="4.69879">
        <ele>329.50897</ele>
        <time>2023-07-30T13:26:48.000Z</time>
      </trkpt>
      <trkpt lat="45.83962" lon="4.69874">
        <ele>329.41293</ele>
        <time>2023-07-30T13:26:49.000Z</time>
      </trkpt>
      <trkpt lat="45.83964" lon="4.6987">
        <ele>329.48773</ele>
        <time>2023-07-30T13:26:50.000Z</time>
      </trkpt>
      <trkpt lat="45.83967" lon="4.69865">
        <ele>329.54324</ele>
        <time>2023-07-30T13:26:51.000Z</time>
      </trkpt>
      <trkpt lat="45.83969" lon="4.69861">
        <ele>329.59906</ele>
        <time>2023-07-30T13:26:52.000Z</time>
      </trkpt>
      <trkpt lat="45.83971" lon="4.69856">
        <ele>329.68842</ele>
        <time>2023-07-30T13:26:53.000Z</time>
      </trkpt>
      <trkpt lat="45.83974" lon="4.69852">
        <ele>329.79697</ele>
        <time>2023-07-30T13:26:54.000Z</time>
      </trkpt>
      <trkpt lat="45.83977" lon="4.69847">
        <ele>329.91211</ele>
        <time>2023-07-30T13:26:55.000Z</time>
      </trkpt>
      <trkpt lat="45.8398" lon="4.69843">
        <ele>330.05118</ele>
        <time>2023-07-30T13:26:56.000Z</time>
      </trkpt>
      <trkpt lat="45.83983" lon="4.69838">
        <ele>330.06537</ele>
        <time>2023-07-30T13:26:57.000Z</time>
      </trkpt>
      <trkpt lat="45.83985" lon="4.69833">
        <ele>330.11639</ele>
        <time>2023-07-30T13:26:58.000Z</time>
      </trkpt>
      <trkpt lat="45.83988" lon="4.69828">
        <ele>330.06989</ele>
        <time>2023-07-30T13:26:59.000Z</time>
      </trkpt>
      <trkpt lat="45.8399" lon="4.69824">
        <ele>330.00922</ele>
        <time>2023-07-30T13:27:00.000Z</time>
      </trkpt>
      <trkpt lat="45.83993" lon="4.69819">
        <ele>329.98102</ele>
        <time>2023-07-30T13:27:01.000Z</time>
      </trkpt>
      <trkpt lat="45.83995" lon="4.69813">
        <ele>330.03345</ele>
        <time>2023-07-30T13:27:02.000Z</time>
      </trkpt>
      <trkpt lat="45.83998" lon="4.69808">
        <ele>330.07187</ele>
        <time>2023-07-30T13:27:03.000Z</time>
      </trkpt>
      <trkpt lat="45.84002" lon="4.69803">
        <ele>330.10294</ele>
        <time>2023-07-30T13:27:04.000Z</time>
      </trkpt>
      <trkpt lat="45.84005" lon="4.69798">
        <ele>330.1225</ele>
        <time>2023-07-30T13:27:05.000Z</time>
      </trkpt>
      <trkpt lat="45.84008" lon="4.69792">
        <ele>330.11536</ele>
        <time>2023-07-30T13:27:06.000Z</time>
      </trkpt>
      <trkpt lat="45.8401" lon="4.69786">
        <ele>330.08102</ele>
        <time>2023-07-30T13:27:07.000Z</time>
      </trkpt>
      <trkpt lat="45.84014" lon="4.69781">
        <ele>330.01862</ele>
        <time>2023-07-30T13:27:08.000Z</time>
      </trkpt>
      <trkpt lat="45.84017" lon="4.69775">
        <ele>329.95822</ele>
        <time>2023-07-30T13:27:09.000Z</time>
      </trkpt>
      <trkpt lat="45.84021" lon="4.6977">
        <ele>329.85248</ele>
        <time>2023-07-30T13:27:10.000Z</time>
      </trkpt>
      <trkpt lat="45.84024" lon="4.69764">
        <ele>329.73529</ele>
        <time>2023-07-30T13:27:11.000Z</time>
      </trkpt>
      <trkpt lat="45.84028" lon="4.69757">
        <ele>329.61353</ele>
        <time>2023-07-30T13:27:12.000Z</time>
      </trkpt>
      <trkpt lat="45.84031" lon="4.69752">
        <ele>329.46558</ele>
        <time>2023-07-30T13:27:13.000Z</time>
      </trkpt>
      <trkpt lat="45.84035" lon="4.69747">
        <ele>329.27094</ele>
        <time>2023-07-30T13:27:14.000Z</time>
      </trkpt>
      <trkpt lat="45.84038" lon="4.69741">
        <ele>329.466</ele>
        <time>2023-07-30T13:27:15.000Z</time>
      </trkpt>
      <trkpt lat="45.84041" lon="4.69737">
        <ele>329.64154</ele>
        <time>2023-07-30T13:27:16.000Z</time>
      </trkpt>
      <trkpt lat="45.84043" lon="4.69732">
        <ele>329.94696</ele>
        <time>2023-07-30T13:27:17.000Z</time>
      </trkpt>
      <trkpt lat="45.84045" lon="4.69728">
        <ele>330.20474</ele>
        <time>2023-07-30T13:27:18.000Z</time>
      </trkpt>
      <trkpt lat="45.84047" lon="4.69725">
        <ele>330.51746</ele>
        <time>2023-07-30T13:27:19.000Z</time>
      </trkpt>
      <trkpt lat="45.84049" lon="4.69723">
        <ele>330.91806</ele>
        <time>2023-07-30T13:27:20.000Z</time>
      </trkpt>
      <trkpt lat="45.8405" lon="4.6972">
        <ele>331.36292</ele>
        <time>2023-07-30T13:27:21.000Z</time>
      </trkpt>
      <trkpt lat="45.84051" lon="4.69716">
        <ele>331.33292</ele>
        <time>2023-07-30T13:27:22.000Z</time>
      </trkpt>
      <trkpt lat="45.84053" lon="4.69714">
        <ele>331.34448</ele>
        <time>2023-07-30T13:27:23.000Z</time>
      </trkpt>
      <trkpt lat="45.84055" lon="4.69712">
        <ele>331.36676</ele>
        <time>2023-07-30T13:27:24.000Z</time>
      </trkpt>
      <trkpt lat="45.84057" lon="4.69709">
        <ele>331.41046</ele>
        <time>2023-07-30T13:27:25.000Z</time>
      </trkpt>
      <trkpt lat="45.84059" lon="4.69707">
        <ele>331.44083</ele>
        <time>2023-07-30T13:27:26.000Z</time>
      </trkpt>
      <trkpt lat="45.84062" lon="4.69704">
        <ele>331.49896</ele>
        <time>2023-07-30T13:27:27.000Z</time>
      </trkpt>
      <trkpt lat="45.84064" lon="4.69701">
        <ele>331.5455</ele>
        <time>2023-07-30T13:27:28.000Z</time>
      </trkpt>
      <trkpt lat="45.84067" lon="4.69698">
        <ele>331.59668</ele>
        <time>2023-07-30T13:27:29.000Z</time>
      </trkpt>
      <trkpt lat="45.84069" lon="4.69695">
        <ele>331.71234</ele>
        <time>2023-07-30T13:27:30.000Z</time>
      </trkpt>
      <trkpt lat="45.84071" lon="4.69691">
        <ele>331.83835</ele>
        <time>2023-07-30T13:27:31.000Z</time>
      </trkpt>
      <trkpt lat="45.84074" lon="4.69688">
        <ele>331.99478</ele>
        <time>2023-07-30T13:27:32.000Z</time>
      </trkpt>
      <trkpt lat="45.84076" lon="4.69685">
        <ele>332.15277</ele>
        <time>2023-07-30T13:27:33.000Z</time>
      </trkpt>
      <trkpt lat="45.84079" lon="4.69683">
        <ele>332.3284</ele>
        <time>2023-07-30T13:27:34.000Z</time>
      </trkpt>
      <trkpt lat="45.84081" lon="4.69681">
        <ele>332.13675</ele>
        <time>2023-07-30T13:27:35.000Z</time>
      </trkpt>
      <trkpt lat="45.84084" lon="4.6968">
        <ele>331.94901</ele>
        <time>2023-07-30T13:27:36.000Z</time>
      </trkpt>
      <trkpt lat="45.84086" lon="4.69679">
        <ele>331.70245</ele>
        <time>2023-07-30T13:27:37.000Z</time>
      </trkpt>
      <trkpt lat="45.84089" lon="4.69678">
        <ele>331.46448</ele>
        <time>2023-07-30T13:27:38.000Z</time>
      </trkpt>
      <trkpt lat="45.84092" lon="4.69678">
        <ele>331.17776</ele>
        <time>2023-07-30T13:27:39.000Z</time>
      </trkpt>
      <trkpt lat="45.84094" lon="4.69678">
        <ele>330.82339</ele>
        <time>2023-07-30T13:27:40.000Z</time>
      </trkpt>
      <trkpt lat="45.84097" lon="4.69677">
        <ele>330.39777</ele>
        <time>2023-07-30T13:27:41.000Z</time>
      </trkpt>
      <trkpt lat="45.841" lon="4.69676">
        <ele>330.41559</ele>
        <time>2023-07-30T13:27:42.000Z</time>
      </trkpt>
      <trkpt lat="45.84103" lon="4.69676">
        <ele>330.40298</ele>
        <time>2023-07-30T13:27:43.000Z</time>
      </trkpt>
      <trkpt lat="45.84106" lon="4.69677">
        <ele>330.3884</ele>
        <time>2023-07-30T13:27:44.000Z</time>
      </trkpt>
      <trkpt lat="45.84109" lon="4.69678">
        <ele>330.35864</ele>
        <time>2023-07-30T13:27:45.000Z</time>
      </trkpt>
      <trkpt lat="45.84113" lon="4.69678">
        <ele>330.53265</ele>
        <time>2023-07-30T13:27:46.000Z</time>
      </trkpt>
      <trkpt lat="45.84117" lon="4.69679">
        <ele>330.8475</ele>
        <time>2023-07-30T13:27:47.000Z</time>
      </trkpt>
      <trkpt lat="45.84121" lon="4.6968">
        <ele>331.22409</ele>
        <time>2023-07-30T13:27:48.000Z</time>
      </trkpt>
      <trkpt lat="45.84125" lon="4.69681">
        <ele>331.18524</ele>
        <time>2023-07-30T13:27:49.000Z</time>
      </trkpt>
      <trkpt lat="45.84129" lon="4.69682">
        <ele>331.16937</ele>
        <time>2023-07-30T13:27:50.000Z</time>
      </trkpt>
      <trkpt lat="45.84133" lon="4.69683">
        <ele>331.14948</ele>
        <time>2023-07-30T13:27:51.000Z</time>
      </trkpt>
      <trkpt lat="45.84138" lon="4.69684">
        <ele>331.10498</ele>
        <time>2023-07-30T13:27:52.000Z</time>
      </trkpt>
      <trkpt lat="45.84142" lon="4.69685">
        <ele>331.06009</ele>
        <time>2023-07-30T13:27:53.000Z</time>
      </trkpt>
      <trkpt lat="45.84146" lon="4.69686">
        <ele>331.02002</ele>
        <time>2023-07-30T13:27:54.000Z</time>
      </trkpt>
      <trkpt lat="45.8415" lon="4.69687">
        <ele>330.9559</ele>
        <time>2023-07-30T13:27:55.000Z</time>
      </trkpt>
      <trkpt lat="45.84154" lon="4.69687">
        <ele>330.5845</ele>
        <time>2023-07-30T13:27:56.000Z</time>
      </trkpt>
      <trkpt lat="45.84158" lon="4.69686">
        <ele>330.26605</ele>
        <time>2023-07-30T13:27:57.000Z</time>
      </trkpt>
      <trkpt lat="45.84162" lon="4.69686">
        <ele>329.98254</ele>
        <time>2023-07-30T13:27:58.000Z</time>
      </trkpt>
      <trkpt lat="45.84167" lon="4.69686">
        <ele>329.80948</ele>
        <time>2023-07-30T13:27:59.000Z</time>
      </trkpt>
      <trkpt lat="45.84172" lon="4.69686">
        <ele>329.69647</ele>
        <time>2023-07-30T13:28:00.000Z</time>
      </trkpt>
      <trkpt lat="45.84176" lon="4.69687">
        <ele>329.64035</ele>
        <time>2023-07-30T13:28:01.000Z</time>
      </trkpt>
      <trkpt lat="45.8418" lon="4.69688">
        <ele>329.34506</ele>
        <time>2023-07-30T13:28:02.000Z</time>
      </trkpt>
      <trkpt lat="45.84184" lon="4.69689">
        <ele>329.06958</ele>
        <time>2023-07-30T13:28:03.000Z</time>
      </trkpt>
      <trkpt lat="45.84188" lon="4.6969">
        <ele>328.74878</ele>
        <time>2023-07-30T13:28:04.000Z</time>
      </trkpt>
      <trkpt lat="45.84193" lon="4.69692">
        <ele>328.43182</ele>
        <time>2023-07-30T13:28:05.000Z</time>
      </trkpt>
      <trkpt lat="45.84196" lon="4.69691">
        <ele>327.96649</ele>
        <time>2023-07-30T13:28:06.000Z</time>
      </trkpt>
      <trkpt lat="45.842" lon="4.6969">
        <ele>327.34882</ele>
        <time>2023-07-30T13:28:07.000Z</time>
      </trkpt>
      <trkpt lat="45.84203" lon="4.69691">
        <ele>326.81522</ele>
        <time>2023-07-30T13:28:08.000Z</time>
      </trkpt>
      <trkpt lat="45.84207" lon="4.6969">
        <ele>326.82059</ele>
        <time>2023-07-30T13:28:09.000Z</time>
      </trkpt>
      <trkpt lat="45.8421" lon="4.69691">
        <ele>326.51306</ele>
        <time>2023-07-30T13:28:10.000Z</time>
      </trkpt>
      <trkpt lat="45.84213" lon="4.69692">
        <ele>326.23276</ele>
        <time>2023-07-30T13:28:11.000Z</time>
      </trkpt>
      <trkpt lat="45.84216" lon="4.69692">
        <ele>325.93616</ele>
        <time>2023-07-30T13:28:12.000Z</time>
      </trkpt>
      <trkpt lat="45.84218" lon="4.69692">
        <ele>325.63269</ele>
        <time>2023-07-30T13:28:13.000Z</time>
      </trkpt>
      <trkpt lat="45.84221" lon="4.69692">
        <ele>325.31366</ele>
        <time>2023-07-30T13:28:14.000Z</time>
      </trkpt>
      <trkpt lat="45.84224" lon="4.69691">
        <ele>325.29187</ele>
        <time>2023-07-30T13:28:15.000Z</time>
      </trkpt>
      <trkpt lat="45.84228" lon="4.69692">
        <ele>325.52972</ele>
        <time>2023-07-30T13:28:16.000Z</time>
      </trkpt>
      <trkpt lat="45.84231" lon="4.69692">
        <ele>325.78381</ele>
        <time>2023-07-30T13:28:17.000Z</time>
      </trkpt>
      <trkpt lat="45.84235" lon="4.69692">
        <ele>326.10538</ele>
        <time>2023-07-30T13:28:18.000Z</time>
      </trkpt>
      <trkpt lat="45.84239" lon="4.69692">
        <ele>326.33603</ele>
        <time>2023-07-30T13:28:19.000Z</time>
      </trkpt>
      <trkpt lat="45.84242" lon="4.69692">
        <ele>326.5827</ele>
        <time>2023-07-30T13:28:20.000Z</time>
      </trkpt>
      <trkpt lat="45.84245" lon="4.69692">
        <ele>326.86163</ele>
        <time>2023-07-30T13:28:21.000Z</time>
      </trkpt>
      <trkpt lat="45.84248" lon="4.69691">
        <ele>327.18573</ele>
        <time>2023-07-30T13:28:22.000Z</time>
      </trkpt>
      <trkpt lat="45.8425" lon="4.69691">
        <ele>327.54764</ele>
        <time>2023-07-30T13:28:23.000Z</time>
      </trkpt>
      <trkpt lat="45.84253" lon="4.6969">
        <ele>328.01215</ele>
        <time>2023-07-30T13:28:24.000Z</time>
      </trkpt>
      <trkpt lat="45.84256" lon="4.69688">
        <ele>328.44574</ele>
        <time>2023-07-30T13:28:25.000Z</time>
      </trkpt>
      <trkpt lat="45.8426" lon="4.69687">
        <ele>328.83514</ele>
        <time>2023-07-30T13:28:26.000Z</time>
      </trkpt>
      <trkpt lat="45.84264" lon="4.69686">
        <ele>329.25757</ele>
        <time>2023-07-30T13:28:27.000Z</time>
      </trkpt>
      <trkpt lat="45.84268" lon="4.69685">
        <ele>329.57605</ele>
        <time>2023-07-30T13:28:28.000Z</time>
      </trkpt>
      <trkpt lat="45.84272" lon="4.69684">
        <ele>329.83154</ele>
        <time>2023-07-30T13:28:29.000Z</time>
      </trkpt>
      <trkpt lat="45.84275" lon="4.69683">
        <ele>330.21902</ele>
        <time>2023-07-30T13:28:30.000Z</time>
      </trkpt>
      <trkpt lat="45.84278" lon="4.69682">
        <ele>330.62912</ele>
        <time>2023-07-30T13:28:31.000Z</time>
      </trkpt>
      <trkpt lat="45.84281" lon="4.69681">
        <ele>331.03568</ele>
        <time>2023-07-30T13:28:32.000Z</time>
      </trkpt>
      <trkpt lat="45.84285" lon="4.69679">
        <ele>331.43341</ele>
        <time>2023-07-30T13:28:33.000Z</time>
      </trkpt>
      <trkpt lat="45.84289" lon="4.69677">
        <ele>331.83734</ele>
        <time>2023-07-30T13:28:34.000Z</time>
      </trkpt>
      <trkpt lat="45.84293" lon="4.69675">
        <ele>331.95966</ele>
        <time>2023-07-30T13:28:35.000Z</time>
      </trkpt>
      <trkpt lat="45.84297" lon="4.69673">
        <ele>332.14423</ele>
        <time>2023-07-30T13:28:36.000Z</time>
      </trkpt>
      <trkpt lat="45.84301" lon="4.6967">
        <ele>332.31573</ele>
        <time>2023-07-30T13:28:37.000Z</time>
      </trkpt>
      <trkpt lat="45.84307" lon="4.69667">
        <ele>332.38541</ele>
        <time>2023-07-30T13:28:38.000Z</time>
      </trkpt>
      <trkpt lat="45.84311" lon="4.69665">
        <ele>332.44623</ele>
        <time>2023-07-30T13:28:39.000Z</time>
      </trkpt>
      <trkpt lat="45.84316" lon="4.69664">
        <ele>332.38785</ele>
        <time>2023-07-30T13:28:40.000Z</time>
      </trkpt>
      <trkpt lat="45.8432" lon="4.69661">
        <ele>332.25409</ele>
        <time>2023-07-30T13:28:41.000Z</time>
      </trkpt>
      <trkpt lat="45.84324" lon="4.69659">
        <ele>332.27264</ele>
        <time>2023-07-30T13:28:42.000Z</time>
      </trkpt>
      <trkpt lat="45.84329" lon="4.69657">
        <ele>332.22757</ele>
        <time>2023-07-30T13:28:43.000Z</time>
      </trkpt>
      <trkpt lat="45.84334" lon="4.69655">
        <ele>332.11032</ele>
        <time>2023-07-30T13:28:44.000Z</time>
      </trkpt>
      <trkpt lat="45.84339" lon="4.69652">
        <ele>331.99887</ele>
        <time>2023-07-30T13:28:45.000Z</time>
      </trkpt>
      <trkpt lat="45.84343" lon="4.69649">
        <ele>331.91968</ele>
        <time>2023-07-30T13:28:46.000Z</time>
      </trkpt>
      <trkpt lat="45.84347" lon="4.69646">
        <ele>331.58041</ele>
        <time>2023-07-30T13:28:47.000Z</time>
      </trkpt>
      <trkpt lat="45.84352" lon="4.69644">
        <ele>331.26056</ele>
        <time>2023-07-30T13:28:48.000Z</time>
      </trkpt>
      <trkpt lat="45.84357" lon="4.69643">
        <ele>330.89935</ele>
        <time>2023-07-30T13:28:49.000Z</time>
      </trkpt>
      <trkpt lat="45.84362" lon="4.69641">
        <ele>330.62598</ele>
        <time>2023-07-30T13:28:50.000Z</time>
      </trkpt>
      <trkpt lat="45.84366" lon="4.69639">
        <ele>330.33853</ele>
        <time>2023-07-30T13:28:51.000Z</time>
      </trkpt>
      <trkpt lat="45.84371" lon="4.69637">
        <ele>330.05792</ele>
        <time>2023-07-30T13:28:52.000Z</time>
      </trkpt>
      <trkpt lat="45.84375" lon="4.69635">
        <ele>329.77133</ele>
        <time>2023-07-30T13:28:53.000Z</time>
      </trkpt>
      <trkpt lat="45.84381" lon="4.69631">
        <ele>329.46002</ele>
        <time>2023-07-30T13:28:54.000Z</time>
      </trkpt>
      <trkpt lat="45.84385" lon="4.69627">
        <ele>329.14902</ele>
        <time>2023-07-30T13:28:55.000Z</time>
      </trkpt>
      <trkpt lat="45.84388" lon="4.69622">
        <ele>329.31696</ele>
        <time>2023-07-30T13:28:56.000Z</time>
      </trkpt>
      <trkpt lat="45.84388" lon="4.69617">
        <ele>329.73917</ele>
        <time>2023-07-30T13:28:57.000Z</time>
      </trkpt>
      <trkpt lat="45.84388" lon="4.69613">
        <ele>330.38141</ele>
        <time>2023-07-30T13:28:58.000Z</time>
      </trkpt>
      <trkpt lat="45.84387" lon="4.69606">
        <ele>331.03113</ele>
        <time>2023-07-30T13:28:59.000Z</time>
      </trkpt>
      <trkpt lat="45.84387" lon="4.69602">
        <ele>331.38684</ele>
        <time>2023-07-30T13:29:00.000Z</time>
      </trkpt>
      <trkpt lat="45.84386" lon="4.69594">
        <ele>331.79193</ele>
        <time>2023-07-30T13:29:01.000Z</time>
      </trkpt>
      <trkpt lat="45.84385" lon="4.69587">
        <ele>332.23065</ele>
        <time>2023-07-30T13:29:02.000Z</time>
      </trkpt>
      <trkpt lat="45.84382" lon="4.69578">
        <ele>332.64038</ele>
        <time>2023-07-30T13:29:03.000Z</time>
      </trkpt>
      <trkpt lat="45.84382" lon="4.69572">
        <ele>333.07156</ele>
        <time>2023-07-30T13:29:04.000Z</time>
      </trkpt>
      <trkpt lat="45.84382" lon="4.69565">
        <ele>333.65045</ele>
        <time>2023-07-30T13:29:05.000Z</time>
      </trkpt>
      <trkpt lat="45.84382" lon="4.69558">
        <ele>334.33319</ele>
        <time>2023-07-30T13:29:06.000Z</time>
      </trkpt>
      <trkpt lat="45.8438" lon="4.69551">
        <ele>335.23257</ele>
        <time>2023-07-30T13:29:07.000Z</time>
      </trkpt>
      <trkpt lat="45.8438" lon="4.69545">
        <ele>335.71457</ele>
        <time>2023-07-30T13:29:08.000Z</time>
      </trkpt>
      <trkpt lat="45.84379" lon="4.69541">
        <ele>336.18784</ele>
        <time>2023-07-30T13:29:09.000Z</time>
      </trkpt>
      <trkpt lat="45.84381" lon="4.69537">
        <ele>336.58411</ele>
        <time>2023-07-30T13:29:10.000Z</time>
      </trkpt>
      <trkpt lat="45.84383" lon="4.69534">
        <ele>336.92487</ele>
        <time>2023-07-30T13:29:11.000Z</time>
      </trkpt>
      <trkpt lat="45.84385" lon="4.69532">
        <ele>337.28265</ele>
        <time>2023-07-30T13:29:12.000Z</time>
      </trkpt>
      <trkpt lat="45.84389" lon="4.69531">
        <ele>337.65924</ele>
        <time>2023-07-30T13:29:13.000Z</time>
      </trkpt>
      <trkpt lat="45.84393" lon="4.6953">
        <ele>337.71893</ele>
        <time>2023-07-30T13:29:14.000Z</time>
      </trkpt>
      <trkpt lat="45.84397" lon="4.69529">
        <ele>337.75812</ele>
        <time>2023-07-30T13:29:15.000Z</time>
      </trkpt>
      <trkpt lat="45.84402" lon="4.69528">
        <ele>337.30328</ele>
        <time>2023-07-30T13:29:16.000Z</time>
      </trkpt>
      <trkpt lat="45.84406" lon="4.69527">
        <ele>336.55536</ele>
        <time>2023-07-30T13:29:17.000Z</time>
      </trkpt>
      <trkpt lat="45.84411" lon="4.69525">
        <ele>335.67084</ele>
        <time>2023-07-30T13:29:18.000Z</time>
      </trkpt>
      <trkpt lat="45.84416" lon="4.69523">
        <ele>334.84747</ele>
        <time>2023-07-30T13:29:19.000Z</time>
      </trkpt>
      <trkpt lat="45.84421" lon="4.69521">
        <ele>334.32315</ele>
        <time>2023-07-30T13:29:20.000Z</time>
      </trkpt>
      <trkpt lat="45.84425" lon="4.69519">
        <ele>333.76996</ele>
        <time>2023-07-30T13:29:21.000Z</time>
      </trkpt>
      <trkpt lat="45.8443" lon="4.69517">
        <ele>332.96991</ele>
        <time>2023-07-30T13:29:22.000Z</time>
      </trkpt>
      <trkpt lat="45.84435" lon="4.69515">
        <ele>332.20831</ele>
        <time>2023-07-30T13:29:23.000Z</time>
      </trkpt>
      <trkpt lat="45.8444" lon="4.69514">
        <ele>331.40845</ele>
        <time>2023-07-30T13:29:24.000Z</time>
      </trkpt>
      <trkpt lat="45.84446" lon="4.69513">
        <ele>330.50195</ele>
        <time>2023-07-30T13:29:25.000Z</time>
      </trkpt>
      <trkpt lat="45.8445" lon="4.69511">
        <ele>329.44885</ele>
        <time>2023-07-30T13:29:26.000Z</time>
      </trkpt>
      <trkpt lat="45.84456" lon="4.69509">
        <ele>328.39087</ele>
        <time>2023-07-30T13:29:27.000Z</time>
      </trkpt>
      <trkpt lat="45.84461" lon="4.69507">
        <ele>327.72461</ele>
        <time>2023-07-30T13:29:28.000Z</time>
      </trkpt>
      <trkpt lat="45.84465" lon="4.69507">
        <ele>327.048</ele>
        <time>2023-07-30T13:29:29.000Z</time>
      </trkpt>
      <trkpt lat="45.8447" lon="4.69505">
        <ele>326.47412</ele>
        <time>2023-07-30T13:29:30.000Z</time>
      </trkpt>
      <trkpt lat="45.84474" lon="4.69503">
        <ele>325.91592</ele>
        <time>2023-07-30T13:29:31.000Z</time>
      </trkpt>
      <trkpt lat="45.84479" lon="4.695">
        <ele>325.36411</ele>
        <time>2023-07-30T13:29:32.000Z</time>
      </trkpt>
      <trkpt lat="45.84483" lon="4.69496">
        <ele>324.87527</ele>
        <time>2023-07-30T13:29:33.000Z</time>
      </trkpt>
      <trkpt lat="45.84486" lon="4.69492">
        <ele>324.82562</ele>
        <time>2023-07-30T13:29:34.000Z</time>
      </trkpt>
      <trkpt lat="45.84488" lon="4.69487">
        <ele>324.79028</ele>
        <time>2023-07-30T13:29:35.000Z</time>
      </trkpt>
      <trkpt lat="45.84491" lon="4.69483">
        <ele>324.80548</ele>
        <time>2023-07-30T13:29:36.000Z</time>
      </trkpt>
      <trkpt lat="45.84495" lon="4.69481">
        <ele>324.74622</ele>
        <time>2023-07-30T13:29:37.000Z</time>
      </trkpt>
      <trkpt lat="45.84498" lon="4.69482">
        <ele>324.61353</ele>
        <time>2023-07-30T13:29:38.000Z</time>
      </trkpt>
      <trkpt lat="45.845" lon="4.69482">
        <ele>324.48663</ele>
        <time>2023-07-30T13:29:39.000Z</time>
      </trkpt>
      <trkpt lat="45.84503" lon="4.6948">
        <ele>324.40912</ele>
        <time>2023-07-30T13:29:40.000Z</time>
      </trkpt>
      <trkpt lat="45.84506" lon="4.69478">
        <ele>324.3566</ele>
        <time>2023-07-30T13:29:41.000Z</time>
      </trkpt>
      <trkpt lat="45.84508" lon="4.69478">
        <ele>324.53583</ele>
        <time>2023-07-30T13:29:42.000Z</time>
      </trkpt>
      <trkpt lat="45.84511" lon="4.69477">
        <ele>324.73761</ele>
        <time>2023-07-30T13:29:43.000Z</time>
      </trkpt>
      <trkpt lat="45.84513" lon="4.69475">
        <ele>324.93781</ele>
        <time>2023-07-30T13:29:44.000Z</time>
      </trkpt>
      <trkpt lat="45.84516" lon="4.69473">
        <ele>325.09717</ele>
        <time>2023-07-30T13:29:45.000Z</time>
      </trkpt>
      <trkpt lat="45.8452" lon="4.69471">
        <ele>325.28262</ele>
        <time>2023-07-30T13:29:46.000Z</time>
      </trkpt>
      <trkpt lat="45.84525" lon="4.69467">
        <ele>325.52484</ele>
        <time>2023-07-30T13:29:47.000Z</time>
      </trkpt>
      <trkpt lat="45.84529" lon="4.69464">
        <ele>325.74826</ele>
        <time>2023-07-30T13:29:48.000Z</time>
      </trkpt>
      <trkpt lat="45.84532" lon="4.6946">
        <ele>326.04599</ele>
        <time>2023-07-30T13:29:49.000Z</time>
      </trkpt>
      <trkpt lat="45.84535" lon="4.69456">
        <ele>326.37167</ele>
        <time>2023-07-30T13:29:50.000Z</time>
      </trkpt>
      <trkpt lat="45.8454" lon="4.69453">
        <ele>326.64697</ele>
        <time>2023-07-30T13:29:51.000Z</time>
      </trkpt>
      <trkpt lat="45.84543" lon="4.69449">
        <ele>326.88177</ele>
        <time>2023-07-30T13:29:52.000Z</time>
      </trkpt>
      <trkpt lat="45.84546" lon="4.69446">
        <ele>327.05096</ele>
        <time>2023-07-30T13:29:53.000Z</time>
      </trkpt>
      <trkpt lat="45.8455" lon="4.69441">
        <ele>327.07819</ele>
        <time>2023-07-30T13:29:54.000Z</time>
      </trkpt>
      <trkpt lat="45.84555" lon="4.69436">
        <ele>327.17557</ele>
        <time>2023-07-30T13:29:55.000Z</time>
      </trkpt>
      <trkpt lat="45.84561" lon="4.69432">
        <ele>327.18869</ele>
        <time>2023-07-30T13:29:56.000Z</time>
      </trkpt>
      <trkpt lat="45.84567" lon="4.69427">
        <ele>327.29138</ele>
        <time>2023-07-30T13:29:57.000Z</time>
      </trkpt>
      <trkpt lat="45.84572" lon="4.69422">
        <ele>327.42325</ele>
        <time>2023-07-30T13:29:58.000Z</time>
      </trkpt>
      <trkpt lat="45.84578" lon="4.69419">
        <ele>327.48907</ele>
        <time>2023-07-30T13:29:59.000Z</time>
      </trkpt>
      <trkpt lat="45.84583" lon="4.69416">
        <ele>327.59991</ele>
        <time>2023-07-30T13:30:00.000Z</time>
      </trkpt>
      <trkpt lat="45.84589" lon="4.69411">
        <ele>327.70041</ele>
        <time>2023-07-30T13:30:01.000Z</time>
      </trkpt>
      <trkpt lat="45.84594" lon="4.69404">
        <ele>327.52777</ele>
        <time>2023-07-30T13:30:02.000Z</time>
      </trkpt>
      <trkpt lat="45.846" lon="4.69397">
        <ele>327.32532</ele>
        <time>2023-07-30T13:30:03.000Z</time>
      </trkpt>
      <trkpt lat="45.84606" lon="4.69392">
        <ele>327.16299</ele>
        <time>2023-07-30T13:30:04.000Z</time>
      </trkpt>
      <trkpt lat="45.84611" lon="4.69387">
        <ele>326.98862</ele>
        <time>2023-07-30T13:30:05.000Z</time>
      </trkpt>
      <trkpt lat="45.84617" lon="4.6938">
        <ele>326.80762</ele>
        <time>2023-07-30T13:30:06.000Z</time>
      </trkpt>
      <trkpt lat="45.84622" lon="4.69373">
        <ele>326.53543</ele>
        <time>2023-07-30T13:30:07.000Z</time>
      </trkpt>
      <trkpt lat="45.84627" lon="4.69368">
        <ele>326.17584</ele>
        <time>2023-07-30T13:30:08.000Z</time>
      </trkpt>
      <trkpt lat="45.84631" lon="4.69363">
        <ele>325.77435</ele>
        <time>2023-07-30T13:30:09.000Z</time>
      </trkpt>
      <trkpt lat="45.84635" lon="4.69357">
        <ele>325.40179</ele>
        <time>2023-07-30T13:30:10.000Z</time>
      </trkpt>
      <trkpt lat="45.84636" lon="4.69352">
        <ele>325.02319</ele>
        <time>2023-07-30T13:30:11.000Z</time>
      </trkpt>
      <trkpt lat="45.84639" lon="4.69345">
        <ele>324.71588</ele>
        <time>2023-07-30T13:30:12.000Z</time>
      </trkpt>
      <trkpt lat="45.84641" lon="4.69339">
        <ele>324.07922</ele>
        <time>2023-07-30T13:30:13.000Z</time>
      </trkpt>
      <trkpt lat="45.84643" lon="4.69331">
        <ele>323.55029</ele>
        <time>2023-07-30T13:30:14.000Z</time>
      </trkpt>
      <trkpt lat="45.84644" lon="4.69325">
        <ele>322.94577</ele>
        <time>2023-07-30T13:30:15.000Z</time>
      </trkpt>
      <trkpt lat="45.84646" lon="4.6932">
        <ele>322.40457</ele>
        <time>2023-07-30T13:30:16.000Z</time>
      </trkpt>
      <trkpt lat="45.84646" lon="4.69314">
        <ele>321.86377</ele>
        <time>2023-07-30T13:30:17.000Z</time>
      </trkpt>
      <trkpt lat="45.84647" lon="4.69308">
        <ele>321.18195</ele>
        <time>2023-07-30T13:30:18.000Z</time>
      </trkpt>
      <trkpt lat="45.84648" lon="4.69302">
        <ele>320.72357</ele>
        <time>2023-07-30T13:30:19.000Z</time>
      </trkpt>
      <trkpt lat="45.8465" lon="4.69295">
        <ele>320.26675</ele>
        <time>2023-07-30T13:30:20.000Z</time>
      </trkpt>
      <trkpt lat="45.84652" lon="4.69287">
        <ele>319.76328</ele>
        <time>2023-07-30T13:30:21.000Z</time>
      </trkpt>
      <trkpt lat="45.84654" lon="4.69279">
        <ele>319.16763</ele>
        <time>2023-07-30T13:30:22.000Z</time>
      </trkpt>
      <trkpt lat="45.84655" lon="4.69273">
        <ele>318.56476</ele>
        <time>2023-07-30T13:30:23.000Z</time>
      </trkpt>
      <trkpt lat="45.84657" lon="4.69264">
        <ele>317.94489</ele>
        <time>2023-07-30T13:30:24.000Z</time>
      </trkpt>
      <trkpt lat="45.84658" lon="4.69256">
        <ele>317.38388</ele>
        <time>2023-07-30T13:30:25.000Z</time>
      </trkpt>
      <trkpt lat="45.84659" lon="4.69248">
        <ele>316.80557</ele>
        <time>2023-07-30T13:30:26.000Z</time>
      </trkpt>
      <trkpt lat="45.84662" lon="4.69238">
        <ele>316.25446</ele>
        <time>2023-07-30T13:30:27.000Z</time>
      </trkpt>
      <trkpt lat="45.84664" lon="4.69231">
        <ele>315.77438</ele>
        <time>2023-07-30T13:30:28.000Z</time>
      </trkpt>
      <trkpt lat="45.84666" lon="4.69222">
        <ele>315.23773</ele>
        <time>2023-07-30T13:30:29.000Z</time>
      </trkpt>
      <trkpt lat="45.84667" lon="4.69215">
        <ele>314.80435</ele>
        <time>2023-07-30T13:30:30.000Z</time>
      </trkpt>
      <trkpt lat="45.84668" lon="4.69208">
        <ele>314.40689</ele>
        <time>2023-07-30T13:30:31.000Z</time>
      </trkpt>
      <trkpt lat="45.8467" lon="4.69201">
        <ele>314.0755</ele>
        <time>2023-07-30T13:30:32.000Z</time>
      </trkpt>
      <trkpt lat="45.8467" lon="4.69193">
        <ele>313.68567</ele>
        <time>2023-07-30T13:30:33.000Z</time>
      </trkpt>
      <trkpt lat="45.8467" lon="4.69186">
        <ele>313.23459</ele>
        <time>2023-07-30T13:30:34.000Z</time>
      </trkpt>
      <trkpt lat="45.8467" lon="4.69178">
        <ele>312.77109</ele>
        <time>2023-07-30T13:30:35.000Z</time>
      </trkpt>
      <trkpt lat="45.8467" lon="4.69171">
        <ele>312.30344</ele>
        <time>2023-07-30T13:30:36.000Z</time>
      </trkpt>
      <trkpt lat="45.8467" lon="4.69164">
        <ele>311.88022</ele>
        <time>2023-07-30T13:30:37.000Z</time>
      </trkpt>
      <trkpt lat="45.8467" lon="4.69155">
        <ele>311.55927</ele>
        <time>2023-07-30T13:30:38.000Z</time>
      </trkpt>
      <trkpt lat="45.84671" lon="4.69148">
        <ele>310.9903</ele>
        <time>2023-07-30T13:30:39.000Z</time>
      </trkpt>
      <trkpt lat="45.8467" lon="4.69141">
        <ele>310.36426</ele>
        <time>2023-07-30T13:30:40.000Z</time>
      </trkpt>
      <trkpt lat="45.8467" lon="4.69132">
        <ele>309.69574</ele>
        <time>2023-07-30T13:30:41.000Z</time>
      </trkpt>
      <trkpt lat="45.8467" lon="4.69124">
        <ele>309.35861</ele>
        <time>2023-07-30T13:30:42.000Z</time>
      </trkpt>
      <trkpt lat="45.8467" lon="4.69116">
        <ele>309.19943</ele>
        <time>2023-07-30T13:30:43.000Z</time>
      </trkpt>
      <trkpt lat="45.84671" lon="4.69109">
        <ele>309.15152</ele>
        <time>2023-07-30T13:30:44.000Z</time>
      </trkpt>
      <trkpt lat="45.84671" lon="4.69102">
        <ele>308.62372</ele>
        <time>2023-07-30T13:30:45.000Z</time>
      </trkpt>
      <trkpt lat="45.84672" lon="4.69092">
        <ele>308.19</ele>
        <time>2023-07-30T13:30:46.000Z</time>
      </trkpt>
      <trkpt lat="45.84673" lon="4.69085">
        <ele>307.75677</ele>
        <time>2023-07-30T13:30:47.000Z</time>
      </trkpt>
      <trkpt lat="45.84675" lon="4.69078">
        <ele>307.30719</ele>
        <time>2023-07-30T13:30:48.000Z</time>
      </trkpt>
      <trkpt lat="45.84677" lon="4.69073">
        <ele>306.88632</ele>
        <time>2023-07-30T13:30:49.000Z</time>
      </trkpt>
      <trkpt lat="45.84677" lon="4.69068">
        <ele>306.28238</ele>
        <time>2023-07-30T13:30:50.000Z</time>
      </trkpt>
      <trkpt lat="45.84679" lon="4.69062">
        <ele>305.9028</ele>
        <time>2023-07-30T13:30:51.000Z</time>
      </trkpt>
      <trkpt lat="45.84682" lon="4.69058">
        <ele>305.55109</ele>
        <time>2023-07-30T13:30:52.000Z</time>
      </trkpt>
      <trkpt lat="45.84683" lon="4.69056">
        <ele>305.08698</ele>
        <time>2023-07-30T13:30:53.000Z</time>
      </trkpt>
      <trkpt lat="45.84685" lon="4.69055">
        <ele>304.69623</ele>
        <time>2023-07-30T13:30:54.000Z</time>
      </trkpt>
      <trkpt lat="45.84687" lon="4.69054">
        <ele>304.28979</ele>
        <time>2023-07-30T13:30:55.000Z</time>
      </trkpt>
      <trkpt lat="45.84688" lon="4.69051">
        <ele>303.87735</ele>
        <time>2023-07-30T13:30:56.000Z</time>
      </trkpt>
      <trkpt lat="45.8469" lon="4.6905">
        <ele>303.42194</ele>
        <time>2023-07-30T13:30:57.000Z</time>
      </trkpt>
      <trkpt lat="45.84691" lon="4.69047">
        <ele>302.97852</ele>
        <time>2023-07-30T13:31:30.000Z</time>
      </trkpt>
      <trkpt lat="45.84694" lon="4.69045">
        <ele>302.54501</ele>
        <time>2023-07-30T13:31:31.000Z</time>
      </trkpt>
      <trkpt lat="45.84696" lon="4.69043">
        <ele>302.12646</ele>
        <time>2023-07-30T13:31:32.000Z</time>
      </trkpt>
      <trkpt lat="45.84699" lon="4.69041">
        <ele>301.76093</ele>
        <time>2023-07-30T13:31:33.000Z</time>
      </trkpt>
      <trkpt lat="45.84703" lon="4.6904">
        <ele>301.39386</ele>
        <time>2023-07-30T13:31:34.000Z</time>
      </trkpt>
      <trkpt lat="45.84707" lon="4.69038">
        <ele>300.81787</ele>
        <time>2023-07-30T13:31:35.000Z</time>
      </trkpt>
      <trkpt lat="45.84711" lon="4.69036">
        <ele>300.48157</ele>
        <time>2023-07-30T13:31:36.000Z</time>
      </trkpt>
      <trkpt lat="45.84716" lon="4.69035">
        <ele>300.09302</ele>
        <time>2023-07-30T13:31:37.000Z</time>
      </trkpt>
      <trkpt lat="45.84721" lon="4.69033">
        <ele>299.7579</ele>
        <time>2023-07-30T13:31:38.000Z</time>
      </trkpt>
      <trkpt lat="45.84725" lon="4.69031">
        <ele>299.40472</ele>
        <time>2023-07-30T13:31:39.000Z</time>
      </trkpt>
      <trkpt lat="45.8473" lon="4.69029">
        <ele>299.08014</ele>
        <time>2023-07-30T13:31:40.000Z</time>
      </trkpt>
      <trkpt lat="45.84735" lon="4.69027">
        <ele>298.78406</ele>
        <time>2023-07-30T13:31:41.000Z</time>
      </trkpt>
      <trkpt lat="45.84739" lon="4.69024">
        <ele>298.36182</ele>
        <time>2023-07-30T13:31:42.000Z</time>
      </trkpt>
      <trkpt lat="45.84744" lon="4.69021">
        <ele>298.12042</ele>
        <time>2023-07-30T13:31:43.000Z</time>
      </trkpt>
      <trkpt lat="45.84748" lon="4.69017">
        <ele>297.74042</ele>
        <time>2023-07-30T13:31:44.000Z</time>
      </trkpt>
      <trkpt lat="45.84753" lon="4.69013">
        <ele>297.85797</ele>
        <time>2023-07-30T13:31:45.000Z</time>
      </trkpt>
      <trkpt lat="45.84758" lon="4.69008">
        <ele>297.87811</ele>
        <time>2023-07-30T13:31:46.000Z</time>
      </trkpt>
      <trkpt lat="45.84763" lon="4.69004">
        <ele>297.92126</ele>
        <time>2023-07-30T13:31:47.000Z</time>
      </trkpt>
      <trkpt lat="45.84768" lon="4.68999">
        <ele>297.94244</ele>
        <time>2023-07-30T13:31:48.000Z</time>
      </trkpt>
      <trkpt lat="45.84773" lon="4.68994">
        <ele>297.97726</ele>
        <time>2023-07-30T13:31:49.000Z</time>
      </trkpt>
      <trkpt lat="45.84778" lon="4.68989">
        <ele>297.99017</ele>
        <time>2023-07-30T13:31:50.000Z</time>
      </trkpt>
      <trkpt lat="45.84783" lon="4.68983">
        <ele>298.00085</ele>
        <time>2023-07-30T13:31:51.000Z</time>
      </trkpt>
      <trkpt lat="45.84788" lon="4.68978">
        <ele>297.95721</ele>
        <time>2023-07-30T13:31:52.000Z</time>
      </trkpt>
      <trkpt lat="45.84794" lon="4.68972">
        <ele>297.91309</ele>
        <time>2023-07-30T13:31:53.000Z</time>
      </trkpt>
      <trkpt lat="45.848" lon="4.68968">
        <ele>297.86938</ele>
        <time>2023-07-30T13:31:54.000Z</time>
      </trkpt>
      <trkpt lat="45.84807" lon="4.68963">
        <ele>297.83871</ele>
        <time>2023-07-30T13:31:55.000Z</time>
      </trkpt>
      <trkpt lat="45.84813" lon="4.68958">
        <ele>297.43436</ele>
        <time>2023-07-30T13:31:56.000Z</time>
      </trkpt>
      <trkpt lat="45.8482" lon="4.68953">
        <ele>297.51422</ele>
        <time>2023-07-30T13:31:57.000Z</time>
      </trkpt>
      <trkpt lat="45.84826" lon="4.68949">
        <ele>297.45175</ele>
        <time>2023-07-30T13:31:58.000Z</time>
      </trkpt>
      <trkpt lat="45.84832" lon="4.68943">
        <ele>297.43777</ele>
        <time>2023-07-30T13:31:59.000Z</time>
      </trkpt>
      <trkpt lat="45.84838" lon="4.68937">
        <ele>297.41592</ele>
        <time>2023-07-30T13:32:00.000Z</time>
      </trkpt>
      <trkpt lat="45.84843" lon="4.6893">
        <ele>297.34958</ele>
        <time>2023-07-30T13:32:01.000Z</time>
      </trkpt>
      <trkpt lat="45.8485" lon="4.68926">
        <ele>297.4519</ele>
        <time>2023-07-30T13:32:02.000Z</time>
      </trkpt>
      <trkpt lat="45.84856" lon="4.68921">
        <ele>297.14069</ele>
        <time>2023-07-30T13:32:03.000Z</time>
      </trkpt>
      <trkpt lat="45.84862" lon="4.68916">
        <ele>296.83707</ele>
        <time>2023-07-30T13:32:04.000Z</time>
      </trkpt>
      <trkpt lat="45.84869" lon="4.68912">
        <ele>296.53046</ele>
        <time>2023-07-30T13:32:05.000Z</time>
      </trkpt>
      <trkpt lat="45.84876" lon="4.68907">
        <ele>296.24518</ele>
        <time>2023-07-30T13:32:06.000Z</time>
      </trkpt>
      <trkpt lat="45.84882" lon="4.68902">
        <ele>295.96771</ele>
        <time>2023-07-30T13:32:07.000Z</time>
      </trkpt>
      <trkpt lat="45.84888" lon="4.68898">
        <ele>295.70078</ele>
        <time>2023-07-30T13:32:08.000Z</time>
      </trkpt>
      <trkpt lat="45.84892" lon="4.68895">
        <ele>295.44376</ele>
        <time>2023-07-30T13:32:09.000Z</time>
      </trkpt>
      <trkpt lat="45.84896" lon="4.68892">
        <ele>295.2106</ele>
        <time>2023-07-30T13:32:10.000Z</time>
      </trkpt>
      <trkpt lat="45.849" lon="4.68889">
        <ele>295.01563</ele>
        <time>2023-07-30T13:32:11.000Z</time>
      </trkpt>
      <trkpt lat="45.84903" lon="4.68888">
        <ele>294.84546</ele>
        <time>2023-07-30T13:32:12.000Z</time>
      </trkpt>
      <trkpt lat="45.84906" lon="4.68887">
        <ele>294.70346</ele>
        <time>2023-07-30T13:32:13.000Z</time>
      </trkpt>
      <trkpt lat="45.84909" lon="4.68883">
        <ele>294.57504</ele>
        <time>2023-07-30T13:32:14.000Z</time>
      </trkpt>
      <trkpt lat="45.84912" lon="4.68879">
        <ele>294.46014</ele>
        <time>2023-07-30T13:32:15.000Z</time>
      </trkpt>
      <trkpt lat="45.84916" lon="4.68874">
        <ele>294.34897</ele>
        <time>2023-07-30T13:32:16.000Z</time>
      </trkpt>
      <trkpt lat="45.8492" lon="4.68871">
        <ele>294.24384</ele>
        <time>2023-07-30T13:32:17.000Z</time>
      </trkpt>
      <trkpt lat="45.84925" lon="4.68867">
        <ele>294.13226</ele>
        <time>2023-07-30T13:32:18.000Z</time>
      </trkpt>
      <trkpt lat="45.8493" lon="4.68864">
        <ele>294.03461</ele>
        <time>2023-07-30T13:32:19.000Z</time>
      </trkpt>
      <trkpt lat="45.84935" lon="4.68859">
        <ele>293.95428</ele>
        <time>2023-07-30T13:32:20.000Z</time>
      </trkpt>
      <trkpt lat="45.8494" lon="4.68855">
        <ele>293.89325</ele>
        <time>2023-07-30T13:32:21.000Z</time>
      </trkpt>
      <trkpt lat="45.84945" lon="4.68851">
        <ele>293.82706</ele>
        <time>2023-07-30T13:32:22.000Z</time>
      </trkpt>
      <trkpt lat="45.84949" lon="4.68846">
        <ele>293.79233</ele>
        <time>2023-07-30T13:32:23.000Z</time>
      </trkpt>
      <trkpt lat="45.84954" lon="4.68842">
        <ele>293.75076</ele>
        <time>2023-07-30T13:32:24.000Z</time>
      </trkpt>
      <trkpt lat="45.84959" lon="4.68838">
        <ele>293.71906</ele>
        <time>2023-07-30T13:32:25.000Z</time>
      </trkpt>
      <trkpt lat="45.84964" lon="4.68833">
        <ele>293.68698</ele>
        <time>2023-07-30T13:32:26.000Z</time>
      </trkpt>
      <trkpt lat="45.84968" lon="4.68827">
        <ele>293.66983</ele>
        <time>2023-07-30T13:32:27.000Z</time>
      </trkpt>
      <trkpt lat="45.84972" lon="4.68823">
        <ele>293.08945</ele>
        <time>2023-07-30T13:32:28.000Z</time>
      </trkpt>
      <trkpt lat="45.84977" lon="4.68818">
        <ele>292.7243</ele>
        <time>2023-07-30T13:32:29.000Z</time>
      </trkpt>
      <trkpt lat="45.84981" lon="4.68812">
        <ele>292.36075</ele>
        <time>2023-07-30T13:32:30.000Z</time>
      </trkpt>
      <trkpt lat="45.84986" lon="4.68807">
        <ele>291.93872</ele>
        <time>2023-07-30T13:32:31.000Z</time>
      </trkpt>
      <trkpt lat="45.8499" lon="4.68801">
        <ele>291.5719</ele>
        <time>2023-07-30T13:32:32.000Z</time>
      </trkpt>
      <trkpt lat="45.84994" lon="4.68795">
        <ele>291.25006</ele>
        <time>2023-07-30T13:32:33.000Z</time>
      </trkpt>
      <trkpt lat="45.84998" lon="4.6879">
        <ele>290.90463</ele>
        <time>2023-07-30T13:32:34.000Z</time>
      </trkpt>
      <trkpt lat="45.85002" lon="4.68783">
        <ele>290.59674</ele>
        <time>2023-07-30T13:32:35.000Z</time>
      </trkpt>
      <trkpt lat="45.85006" lon="4.68777">
        <ele>290.29736</ele>
        <time>2023-07-30T13:32:36.000Z</time>
      </trkpt>
      <trkpt lat="45.85009" lon="4.6877">
        <ele>290.03998</ele>
        <time>2023-07-30T13:32:37.000Z</time>
      </trkpt>
      <trkpt lat="45.85012" lon="4.68764">
        <ele>289.7645</ele>
        <time>2023-07-30T13:32:38.000Z</time>
      </trkpt>
      <trkpt lat="45.85015" lon="4.68758">
        <ele>289.487</ele>
        <time>2023-07-30T13:32:39.000Z</time>
      </trkpt>
      <trkpt lat="45.85019" lon="4.68751">
        <ele>289.21729</ele>
        <time>2023-07-30T13:32:40.000Z</time>
      </trkpt>
      <trkpt lat="45.85021" lon="4.68744">
        <ele>288.94601</ele>
        <time>2023-07-30T13:32:41.000Z</time>
      </trkpt>
      <trkpt lat="45.85024" lon="4.68738">
        <ele>288.69073</ele>
        <time>2023-07-30T13:32:42.000Z</time>
      </trkpt>
      <trkpt lat="45.85026" lon="4.68732">
        <ele>288.42166</ele>
        <time>2023-07-30T13:32:43.000Z</time>
      </trkpt>
      <trkpt lat="45.85029" lon="4.68725">
        <ele>288.17371</ele>
        <time>2023-07-30T13:32:44.000Z</time>
      </trkpt>
      <trkpt lat="45.85031" lon="4.68719">
        <ele>287.93399</ele>
        <time>2023-07-30T13:32:45.000Z</time>
      </trkpt>
      <trkpt lat="45.85033" lon="4.68713">
        <ele>287.70593</ele>
        <time>2023-07-30T13:32:46.000Z</time>
      </trkpt>
      <trkpt lat="45.85035" lon="4.68708">
        <ele>287.47491</ele>
        <time>2023-07-30T13:32:47.000Z</time>
      </trkpt>
      <trkpt lat="45.85038" lon="4.68702">
        <ele>287.82846</ele>
        <time>2023-07-30T13:32:48.000Z</time>
      </trkpt>
      <trkpt lat="45.8504" lon="4.68696">
        <ele>287.979</ele>
        <time>2023-07-30T13:32:49.000Z</time>
      </trkpt>
      <trkpt lat="45.85042" lon="4.68691">
        <ele>288.14093</ele>
        <time>2023-07-30T13:32:50.000Z</time>
      </trkpt>
      <trkpt lat="45.85044" lon="4.68687">
        <ele>288.37408</ele>
        <time>2023-07-30T13:32:51.000Z</time>
      </trkpt>
      <trkpt lat="45.85045" lon="4.68683">
        <ele>288.53867</ele>
        <time>2023-07-30T13:32:52.000Z</time>
      </trkpt>
      <trkpt lat="45.85047" lon="4.68679">
        <ele>288.6546</ele>
        <time>2023-07-30T13:32:53.000Z</time>
      </trkpt>
      <trkpt lat="45.85047" lon="4.68675">
        <ele>288.80215</ele>
        <time>2023-07-30T13:32:54.000Z</time>
      </trkpt>
      <trkpt lat="45.85049" lon="4.68673">
        <ele>288.89648</ele>
        <time>2023-07-30T13:32:55.000Z</time>
      </trkpt>
      <trkpt lat="45.85051" lon="4.68671">
        <ele>289.01907</ele>
        <time>2023-07-30T13:32:56.000Z</time>
      </trkpt>
      <trkpt lat="45.85052" lon="4.68669">
        <ele>289.12335</ele>
        <time>2023-07-30T13:32:57.000Z</time>
      </trkpt>
      <trkpt lat="45.85052" lon="4.68666">
        <ele>289.57129</ele>
        <time>2023-07-30T13:32:58.000Z</time>
      </trkpt>
      <trkpt lat="45.8505" lon="4.68663">
        <ele>289.99579</ele>
        <time>2023-07-30T13:32:59.000Z</time>
      </trkpt>
      <trkpt lat="45.85048" lon="4.68661">
        <ele>290.42972</ele>
        <time>2023-07-30T13:33:00.000Z</time>
      </trkpt>
      <trkpt lat="45.85046" lon="4.68662">
        <ele>290.85913</ele>
        <time>2023-07-30T13:33:01.000Z</time>
      </trkpt>
      <trkpt lat="45.85044" lon="4.68664">
        <ele>291.40741</ele>
        <time>2023-07-30T13:33:02.000Z</time>
      </trkpt>
      <trkpt lat="45.85042" lon="4.68667">
        <ele>292.11349</ele>
        <time>2023-07-30T13:33:03.000Z</time>
      </trkpt>
      <trkpt lat="45.85039" lon="4.68669">
        <ele>292.15387</ele>
        <time>2023-07-30T13:33:04.000Z</time>
      </trkpt>
      <trkpt lat="45.85036" lon="4.68672">
        <ele>292.24469</ele>
        <time>2023-07-30T13:33:05.000Z</time>
      </trkpt>
      <trkpt lat="45.85033" lon="4.68673">
        <ele>292.32745</ele>
        <time>2023-07-30T13:33:06.000Z</time>
      </trkpt>
      <trkpt lat="45.85029" lon="4.68674">
        <ele>292.40781</ele>
        <time>2023-07-30T13:33:07.000Z</time>
      </trkpt>
      <trkpt lat="45.85026" lon="4.68674">
        <ele>292.47659</ele>
        <time>2023-07-30T13:33:08.000Z</time>
      </trkpt>
      <trkpt lat="45.85023" lon="4.68673">
        <ele>292.54486</ele>
        <time>2023-07-30T13:33:09.000Z</time>
      </trkpt>
      <trkpt lat="45.8502" lon="4.68672">
        <ele>292.59753</ele>
        <time>2023-07-30T13:33:10.000Z</time>
      </trkpt>
      <trkpt lat="45.85016" lon="4.68671">
        <ele>292.63168</ele>
        <time>2023-07-30T13:33:11.000Z</time>
      </trkpt>
      <trkpt lat="45.85013" lon="4.6867">
        <ele>292.67346</ele>
        <time>2023-07-30T13:33:12.000Z</time>
      </trkpt>
      <trkpt lat="45.8501" lon="4.68669">
        <ele>292.71381</ele>
        <time>2023-07-30T13:33:13.000Z</time>
      </trkpt>
      <trkpt lat="45.85007" lon="4.68668">
        <ele>292.72897</ele>
        <time>2023-07-30T13:33:14.000Z</time>
      </trkpt>
      <trkpt lat="45.85003" lon="4.68668">
        <ele>292.80511</ele>
        <time>2023-07-30T13:33:15.000Z</time>
      </trkpt>
      <trkpt lat="45.85" lon="4.68668">
        <ele>292.86337</ele>
        <time>2023-07-30T13:33:16.000Z</time>
      </trkpt>
      <trkpt lat="45.84997" lon="4.68668">
        <ele>292.9057</ele>
        <time>2023-07-30T13:33:17.000Z</time>
      </trkpt>
      <trkpt lat="45.84994" lon="4.68668">
        <ele>292.6413</ele>
        <time>2023-07-30T13:33:18.000Z</time>
      </trkpt>
      <trkpt lat="45.84991" lon="4.68668">
        <ele>292.39526</ele>
        <time>2023-07-30T13:33:19.000Z</time>
      </trkpt>
      <trkpt lat="45.84989" lon="4.68668">
        <ele>292.14185</ele>
        <time>2023-07-30T13:33:20.000Z</time>
      </trkpt>
      <trkpt lat="45.84986" lon="4.68667">
        <ele>291.84814</ele>
        <time>2023-07-30T13:33:21.000Z</time>
      </trkpt>
      <trkpt lat="45.84984" lon="4.68666">
        <ele>291.44647</ele>
        <time>2023-07-30T13:33:22.000Z</time>
      </trkpt>
      <trkpt lat="45.8498" lon="4.68666">
        <ele>290.88004</ele>
        <time>2023-07-30T13:33:23.000Z</time>
      </trkpt>
      <trkpt lat="45.84976" lon="4.68667">
        <ele>290.96088</ele>
        <time>2023-07-30T13:33:24.000Z</time>
      </trkpt>
      <trkpt lat="45.84973" lon="4.68667">
        <ele>291.2623</ele>
        <time>2023-07-30T13:33:25.000Z</time>
      </trkpt>
      <trkpt lat="45.84968" lon="4.68667">
        <ele>291.55368</ele>
        <time>2023-07-30T13:33:26.000Z</time>
      </trkpt>
      <trkpt lat="45.84964" lon="4.68667">
        <ele>291.84375</ele>
        <time>2023-07-30T13:33:27.000Z</time>
      </trkpt>
      <trkpt lat="45.84959" lon="4.68668">
        <ele>292.11053</ele>
        <time>2023-07-30T13:33:28.000Z</time>
      </trkpt>
      <trkpt lat="45.84954" lon="4.68668">
        <ele>292.36636</ele>
        <time>2023-07-30T13:33:29.000Z</time>
      </trkpt>
      <trkpt lat="45.84949" lon="4.68667">
        <ele>292.63257</ele>
        <time>2023-07-30T13:33:30.000Z</time>
      </trkpt>
      <trkpt lat="45.84944" lon="4.68667">
        <ele>292.88629</ele>
        <time>2023-07-30T13:33:31.000Z</time>
      </trkpt>
      <trkpt lat="45.84939" lon="4.68667">
        <ele>293.13452</ele>
        <time>2023-07-30T13:33:32.000Z</time>
      </trkpt>
      <trkpt lat="45.84934" lon="4.68667">
        <ele>292.82669</ele>
        <time>2023-07-30T13:33:33.000Z</time>
      </trkpt>
      <trkpt lat="45.84928" lon="4.68667">
        <ele>292.75894</ele>
        <time>2023-07-30T13:33:34.000Z</time>
      </trkpt>
      <trkpt lat="45.84922" lon="4.68667">
        <ele>292.60959</ele>
        <time>2023-07-30T13:33:35.000Z</time>
      </trkpt>
      <trkpt lat="45.84915" lon="4.68667">
        <ele>292.44998</ele>
        <time>2023-07-30T13:33:36.000Z</time>
      </trkpt>
      <trkpt lat="45.84909" lon="4.68668">
        <ele>292.26227</ele>
        <time>2023-07-30T13:33:37.000Z</time>
      </trkpt>
      <trkpt lat="45.84902" lon="4.68667">
        <ele>292.03745</ele>
        <time>2023-07-30T13:33:38.000Z</time>
      </trkpt>
      <trkpt lat="45.84895" lon="4.68667">
        <ele>291.73227</ele>
        <time>2023-07-30T13:33:39.000Z</time>
      </trkpt>
      <trkpt lat="45.84888" lon="4.68668">
        <ele>291.45871</ele>
        <time>2023-07-30T13:33:40.000Z</time>
      </trkpt>
      <trkpt lat="45.8488" lon="4.68668">
        <ele>291.21188</ele>
        <time>2023-07-30T13:33:41.000Z</time>
      </trkpt>
      <trkpt lat="45.84873" lon="4.68671">
        <ele>290.90802</ele>
        <time>2023-07-30T13:33:42.000Z</time>
      </trkpt>
      <trkpt lat="45.84865" lon="4.68672">
        <ele>290.56195</ele>
        <time>2023-07-30T13:33:43.000Z</time>
      </trkpt>
      <trkpt lat="45.84858" lon="4.68675">
        <ele>290.22937</ele>
        <time>2023-07-30T13:33:44.000Z</time>
      </trkpt>
      <trkpt lat="45.84851" lon="4.68677">
        <ele>289.64786</ele>
        <time>2023-07-30T13:33:45.000Z</time>
      </trkpt>
      <trkpt lat="45.84844" lon="4.6868">
        <ele>289.07263</ele>
        <time>2023-07-30T13:33:46.000Z</time>
      </trkpt>
      <trkpt lat="45.84837" lon="4.68681">
        <ele>288.45734</ele>
        <time>2023-07-30T13:33:47.000Z</time>
      </trkpt>
      <trkpt lat="45.84831" lon="4.68683">
        <ele>287.87091</ele>
        <time>2023-07-30T13:33:48.000Z</time>
      </trkpt>
      <trkpt lat="45.84825" lon="4.68686">
        <ele>287.25278</ele>
        <time>2023-07-30T13:33:49.000Z</time>
      </trkpt>
      <trkpt lat="45.84819" lon="4.68689">
        <ele>286.66571</ele>
        <time>2023-07-30T13:33:50.000Z</time>
      </trkpt>
      <trkpt lat="45.84813" lon="4.68691">
        <ele>286.17233</ele>
        <time>2023-07-30T13:33:51.000Z</time>
      </trkpt>
      <trkpt lat="45.84807" lon="4.68694">
        <ele>285.67767</ele>
        <time>2023-07-30T13:33:52.000Z</time>
      </trkpt>
      <trkpt lat="45.84802" lon="4.68696">
        <ele>285.73502</ele>
        <time>2023-07-30T13:33:53.000Z</time>
      </trkpt>
      <trkpt lat="45.84796" lon="4.68698">
        <ele>285.57477</ele>
        <time>2023-07-30T13:33:54.000Z</time>
      </trkpt>
      <trkpt lat="45.84791" lon="4.68699">
        <ele>285.4986</ele>
        <time>2023-07-30T13:33:55.000Z</time>
      </trkpt>
      <trkpt lat="45.84786" lon="4.68701">
        <ele>285.40079</ele>
        <time>2023-07-30T13:33:56.000Z</time>
      </trkpt>
      <trkpt lat="45.8478" lon="4.68701">
        <ele>285.35455</ele>
        <time>2023-07-30T13:33:57.000Z</time>
      </trkpt>
      <trkpt lat="45.84776" lon="4.68702">
        <ele>285.35828</ele>
        <time>2023-07-30T13:33:58.000Z</time>
      </trkpt>
      <trkpt lat="45.8477" lon="4.68703">
        <ele>285.72968</ele>
        <time>2023-07-30T13:33:59.000Z</time>
      </trkpt>
      <trkpt lat="45.84767" lon="4.68705">
        <ele>286.09305</ele>
        <time>2023-07-30T13:34:00.000Z</time>
      </trkpt>
      <trkpt lat="45.84763" lon="4.68707">
        <ele>286.69318</ele>
        <time>2023-07-30T13:34:01.000Z</time>
      </trkpt>
      <trkpt lat="45.84759" lon="4.6871">
        <ele>286.68109</ele>
        <time>2023-07-30T13:34:02.000Z</time>
      </trkpt>
      <trkpt lat="45.84756" lon="4.68714">
        <ele>286.87024</ele>
        <time>2023-07-30T13:34:03.000Z</time>
      </trkpt>
      <trkpt lat="45.84754" lon="4.68717">
        <ele>287.09384</ele>
        <time>2023-07-30T13:34:04.000Z</time>
      </trkpt>
      <trkpt lat="45.84752" lon="4.68721">
        <ele>287.29791</ele>
        <time>2023-07-30T13:34:05.000Z</time>
      </trkpt>
      <trkpt lat="45.8475" lon="4.68726">
        <ele>287.48798</ele>
        <time>2023-07-30T13:34:06.000Z</time>
      </trkpt>
      <trkpt lat="45.84748" lon="4.6873">
        <ele>287.72534</ele>
        <time>2023-07-30T13:34:07.000Z</time>
      </trkpt>
      <trkpt lat="45.84747" lon="4.68734">
        <ele>287.95563</ele>
        <time>2023-07-30T13:34:08.000Z</time>
      </trkpt>
      <trkpt lat="45.84746" lon="4.68738">
        <ele>288.23993</ele>
        <time>2023-07-30T13:34:09.000Z</time>
      </trkpt>
      <trkpt lat="45.84744" lon="4.68742">
        <ele>288.78796</ele>
        <time>2023-07-30T13:34:10.000Z</time>
      </trkpt>
      <trkpt lat="45.84741" lon="4.68746">
        <ele>289.25568</ele>
        <time>2023-07-30T13:34:11.000Z</time>
      </trkpt>
      <trkpt lat="45.84739" lon="4.68749">
        <ele>289.74127</ele>
        <time>2023-07-30T13:34:12.000Z</time>
      </trkpt>
      <trkpt lat="45.84736" lon="4.68753">
        <ele>290.36639</ele>
        <time>2023-07-30T13:34:13.000Z</time>
      </trkpt>
      <trkpt lat="45.84733" lon="4.68756">
        <ele>291.00745</ele>
        <time>2023-07-30T13:34:14.000Z</time>
      </trkpt>
      <trkpt lat="45.84731" lon="4.6876">
        <ele>291.77563</ele>
        <time>2023-07-30T13:34:15.000Z</time>
      </trkpt>
      <trkpt lat="45.84728" lon="4.68764">
        <ele>291.94891</ele>
        <time>2023-07-30T13:34:16.000Z</time>
      </trkpt>
      <trkpt lat="45.84726" lon="4.68768">
        <ele>292.20004</ele>
        <time>2023-07-30T13:34:17.000Z</time>
      </trkpt>
      <trkpt lat="45.84723" lon="4.68772">
        <ele>292.42484</ele>
        <time>2023-07-30T13:34:18.000Z</time>
      </trkpt>
      <trkpt lat="45.84721" lon="4.68776">
        <ele>292.3576</ele>
        <time>2023-07-30T13:34:19.000Z</time>
      </trkpt>
      <trkpt lat="45.84718" lon="4.68779">
        <ele>292.26923</ele>
        <time>2023-07-30T13:34:20.000Z</time>
      </trkpt>
      <trkpt lat="45.84716" lon="4.68782">
        <ele>291.97528</ele>
        <time>2023-07-30T13:34:21.000Z</time>
      </trkpt>
      <trkpt lat="45.84713" lon="4.68785">
        <ele>292.33429</ele>
        <time>2023-07-30T13:34:22.000Z</time>
      </trkpt>
      <trkpt lat="45.8471" lon="4.68787">
        <ele>292.569</ele>
        <time>2023-07-30T13:34:23.000Z</time>
      </trkpt>
      <trkpt lat="45.84706" lon="4.68788">
        <ele>292.7395</ele>
        <time>2023-07-30T13:34:24.000Z</time>
      </trkpt>
      <trkpt lat="45.84703" lon="4.68788">
        <ele>292.93558</ele>
        <time>2023-07-30T13:34:25.000Z</time>
      </trkpt>
      <trkpt lat="45.84699" lon="4.68787">
        <ele>293.11871</ele>
        <time>2023-07-30T13:34:26.000Z</time>
      </trkpt>
      <trkpt lat="45.84696" lon="4.68785">
        <ele>293.31354</ele>
        <time>2023-07-30T13:34:27.000Z</time>
      </trkpt>
      <trkpt lat="45.84692" lon="4.68782">
        <ele>293.49902</ele>
        <time>2023-07-30T13:34:28.000Z</time>
      </trkpt>
      <trkpt lat="45.8469" lon="4.68779">
        <ele>293.67789</ele>
        <time>2023-07-30T13:34:29.000Z</time>
      </trkpt>
      <trkpt lat="45.84687" lon="4.68776">
        <ele>293.55405</ele>
        <time>2023-07-30T13:34:30.000Z</time>
      </trkpt>
      <trkpt lat="45.84684" lon="4.68773">
        <ele>293.69769</ele>
        <time>2023-07-30T13:34:31.000Z</time>
      </trkpt>
      <trkpt lat="45.84682" lon="4.6877">
        <ele>294.02518</ele>
        <time>2023-07-30T13:34:32.000Z</time>
      </trkpt>
      <trkpt lat="45.84679" lon="4.68767">
        <ele>294.21835</ele>
        <time>2023-07-30T13:34:33.000Z</time>
      </trkpt>
      <trkpt lat="45.84677" lon="4.68764">
        <ele>294.41837</ele>
        <time>2023-07-30T13:34:34.000Z</time>
      </trkpt>
      <trkpt lat="45.84675" lon="4.68761">
        <ele>293.9068</ele>
        <time>2023-07-30T13:34:35.000Z</time>
      </trkpt>
      <trkpt lat="45.84672" lon="4.68759">
        <ele>294.13019</ele>
        <time>2023-07-30T13:34:36.000Z</time>
      </trkpt>
      <trkpt lat="45.8467" lon="4.68757">
        <ele>294.26382</ele>
        <time>2023-07-30T13:34:37.000Z</time>
      </trkpt>
      <trkpt lat="45.84667" lon="4.68754">
        <ele>294.43039</ele>
        <time>2023-07-30T13:34:38.000Z</time>
      </trkpt>
      <trkpt lat="45.84665" lon="4.68753">
        <ele>294.59894</ele>
        <time>2023-07-30T13:34:39.000Z</time>
      </trkpt>
      <trkpt lat="45.84662" lon="4.68751">
        <ele>294.72635</ele>
        <time>2023-07-30T13:34:40.000Z</time>
      </trkpt>
      <trkpt lat="45.84659" lon="4.68749">
        <ele>294.89191</ele>
        <time>2023-07-30T13:34:41.000Z</time>
      </trkpt>
      <trkpt lat="45.84656" lon="4.68748">
        <ele>295.06195</ele>
        <time>2023-07-30T13:34:42.000Z</time>
      </trkpt>
      <trkpt lat="45.84653" lon="4.68746">
        <ele>295.23569</ele>
        <time>2023-07-30T13:34:43.000Z</time>
      </trkpt>
      <trkpt lat="45.8465" lon="4.68745">
        <ele>295.44641</ele>
        <time>2023-07-30T13:34:44.000Z</time>
      </trkpt>
      <trkpt lat="45.84647" lon="4.68743">
        <ele>295.62909</ele>
        <time>2023-07-30T13:34:45.000Z</time>
      </trkpt>
      <trkpt lat="45.84644" lon="4.68741">
        <ele>295.84015</ele>
        <time>2023-07-30T13:34:46.000Z</time>
      </trkpt>
      <trkpt lat="45.84642" lon="4.68739">
        <ele>296.05069</ele>
        <time>2023-07-30T13:34:47.000Z</time>
      </trkpt>
      <trkpt lat="45.84639" lon="4.68737">
        <ele>296.23868</ele>
        <time>2023-07-30T13:34:48.000Z</time>
      </trkpt>
      <trkpt lat="45.84637" lon="4.68734">
        <ele>296.47495</ele>
        <time>2023-07-30T13:34:49.000Z</time>
      </trkpt>
      <trkpt lat="45.84634" lon="4.68731">
        <ele>296.96725</ele>
        <time>2023-07-30T13:34:50.000Z</time>
      </trkpt>
      <trkpt lat="45.84632" lon="4.68728">
        <ele>297.2001</ele>
        <time>2023-07-30T13:34:51.000Z</time>
      </trkpt>
      <trkpt lat="45.84629" lon="4.68725">
        <ele>297.27457</ele>
        <time>2023-07-30T13:34:52.000Z</time>
      </trkpt>
      <trkpt lat="45.84627" lon="4.68722">
        <ele>297.36276</ele>
        <time>2023-07-30T13:34:53.000Z</time>
      </trkpt>
      <trkpt lat="45.84625" lon="4.68719">
        <ele>297.58649</ele>
        <time>2023-07-30T13:34:54.000Z</time>
      </trkpt>
      <trkpt lat="45.84622" lon="4.68716">
        <ele>298.37</ele>
        <time>2023-07-30T13:34:55.000Z</time>
      </trkpt>
      <trkpt lat="45.8462" lon="4.68713">
        <ele>298.57858</ele>
        <time>2023-07-30T13:34:56.000Z</time>
      </trkpt>
      <trkpt lat="45.84618" lon="4.6871">
        <ele>298.8847</ele>
        <time>2023-07-30T13:34:57.000Z</time>
      </trkpt>
      <trkpt lat="45.84615" lon="4.68707">
        <ele>299.17743</ele>
        <time>2023-07-30T13:34:58.000Z</time>
      </trkpt>
      <trkpt lat="45.84613" lon="4.68704">
        <ele>299.47208</ele>
        <time>2023-07-30T13:34:59.000Z</time>
      </trkpt>
      <trkpt lat="45.84611" lon="4.687">
        <ele>299.79437</ele>
        <time>2023-07-30T13:35:00.000Z</time>
      </trkpt>
      <trkpt lat="45.8461" lon="4.68697">
        <ele>300.13025</ele>
        <time>2023-07-30T13:35:01.000Z</time>
      </trkpt>
      <trkpt lat="45.84608" lon="4.68693">
        <ele>300.45807</ele>
        <time>2023-07-30T13:35:02.000Z</time>
      </trkpt>
      <trkpt lat="45.84606" lon="4.6869">
        <ele>300.7933</ele>
        <time>2023-07-30T13:35:03.000Z</time>
      </trkpt>
      <trkpt lat="45.84605" lon="4.68686">
        <ele>301.13669</ele>
        <time>2023-07-30T13:35:04.000Z</time>
      </trkpt>
      <trkpt lat="45.84604" lon="4.68682">
        <ele>301.48099</ele>
        <time>2023-07-30T13:35:05.000Z</time>
      </trkpt>
      <trkpt lat="45.84603" lon="4.68678">
        <ele>302.13812</ele>
        <time>2023-07-30T13:35:06.000Z</time>
      </trkpt>
      <trkpt lat="45.84601" lon="4.68675">
        <ele>302.83701</ele>
        <time>2023-07-30T13:35:07.000Z</time>
      </trkpt>
      <trkpt lat="45.84599" lon="4.68671">
        <ele>303.1456</ele>
        <time>2023-07-30T13:35:08.000Z</time>
      </trkpt>
      <trkpt lat="45.84598" lon="4.68668">
        <ele>303.50891</ele>
        <time>2023-07-30T13:35:09.000Z</time>
      </trkpt>
      <trkpt lat="45.84596" lon="4.68665">
        <ele>303.65372</ele>
        <time>2023-07-30T13:35:10.000Z</time>
      </trkpt>
      <trkpt lat="45.84593" lon="4.68662">
        <ele>303.80557</ele>
        <time>2023-07-30T13:35:11.000Z</time>
      </trkpt>
      <trkpt lat="45.84591" lon="4.6866">
        <ele>303.94803</ele>
        <time>2023-07-30T13:35:12.000Z</time>
      </trkpt>
      <trkpt lat="45.84588" lon="4.68658">
        <ele>304.08347</ele>
        <time>2023-07-30T13:35:13.000Z</time>
      </trkpt>
      <trkpt lat="45.84585" lon="4.68657">
        <ele>304.06546</ele>
        <time>2023-07-30T13:35:14.000Z</time>
      </trkpt>
      <trkpt lat="45.84583" lon="4.68656">
        <ele>304.01572</ele>
        <time>2023-07-30T13:35:15.000Z</time>
      </trkpt>
      <trkpt lat="45.8458" lon="4.68654">
        <ele>304.45721</ele>
        <time>2023-07-30T13:35:16.000Z</time>
      </trkpt>
      <trkpt lat="45.84577" lon="4.68653">
        <ele>304.80704</ele>
        <time>2023-07-30T13:35:17.000Z</time>
      </trkpt>
      <trkpt lat="45.84574" lon="4.6865">
        <ele>305.14899</ele>
        <time>2023-07-30T13:35:18.000Z</time>
      </trkpt>
      <trkpt lat="45.84571" lon="4.68648">
        <ele>305.49268</ele>
        <time>2023-07-30T13:35:19.000Z</time>
      </trkpt>
      <trkpt lat="45.84568" lon="4.68646">
        <ele>305.83154</ele>
        <time>2023-07-30T13:35:20.000Z</time>
      </trkpt>
      <trkpt lat="45.84565" lon="4.68644">
        <ele>306.12903</ele>
        <time>2023-07-30T13:35:21.000Z</time>
      </trkpt>
      <trkpt lat="45.84563" lon="4.68642">
        <ele>306.44699</ele>
        <time>2023-07-30T13:35:22.000Z</time>
      </trkpt>
      <trkpt lat="45.8456" lon="4.68639">
        <ele>306.74548</ele>
        <time>2023-07-30T13:35:23.000Z</time>
      </trkpt>
      <trkpt lat="45.84557" lon="4.68636">
        <ele>307.02606</ele>
        <time>2023-07-30T13:35:24.000Z</time>
      </trkpt>
      <trkpt lat="45.84554" lon="4.68633">
        <ele>307.2868</ele>
        <time>2023-07-30T13:35:25.000Z</time>
      </trkpt>
      <trkpt lat="45.84551" lon="4.68629">
        <ele>307.23578</ele>
        <time>2023-07-30T13:35:26.000Z</time>
      </trkpt>
      <trkpt lat="45.84549" lon="4.68625">
        <ele>307.13568</ele>
        <time>2023-07-30T13:35:27.000Z</time>
      </trkpt>
      <trkpt lat="45.84546" lon="4.68621">
        <ele>307.42102</ele>
        <time>2023-07-30T13:35:28.000Z</time>
      </trkpt>
      <trkpt lat="45.84543" lon="4.68617">
        <ele>307.59012</ele>
        <time>2023-07-30T13:35:29.000Z</time>
      </trkpt>
      <trkpt lat="45.8454" lon="4.68613">
        <ele>307.76263</ele>
        <time>2023-07-30T13:35:30.000Z</time>
      </trkpt>
      <trkpt lat="45.84537" lon="4.6861">
        <ele>307.91492</ele>
        <time>2023-07-30T13:35:31.000Z</time>
      </trkpt>
      <trkpt lat="45.84534" lon="4.68607">
        <ele>308.07843</ele>
        <time>2023-07-30T13:35:32.000Z</time>
      </trkpt>
      <trkpt lat="45.84531" lon="4.68605">
        <ele>308.2446</ele>
        <time>2023-07-30T13:35:33.000Z</time>
      </trkpt>
      <trkpt lat="45.84528" lon="4.68603">
        <ele>308.43033</ele>
        <time>2023-07-30T13:35:34.000Z</time>
      </trkpt>
      <trkpt lat="45.84524" lon="4.68601">
        <ele>308.59958</ele>
        <time>2023-07-30T13:35:35.000Z</time>
      </trkpt>
      <trkpt lat="45.84521" lon="4.68598">
        <ele>308.79288</ele>
        <time>2023-07-30T13:35:36.000Z</time>
      </trkpt>
      <trkpt lat="45.84518" lon="4.68596">
        <ele>308.97406</ele>
        <time>2023-07-30T13:35:37.000Z</time>
      </trkpt>
      <trkpt lat="45.84515" lon="4.68594">
        <ele>309.34995</ele>
        <time>2023-07-30T13:35:38.000Z</time>
      </trkpt>
      <trkpt lat="45.84511" lon="4.68592">
        <ele>309.7659</ele>
        <time>2023-07-30T13:35:39.000Z</time>
      </trkpt>
      <trkpt lat="45.84508" lon="4.6859">
        <ele>309.90945</ele>
        <time>2023-07-30T13:35:40.000Z</time>
      </trkpt>
      <trkpt lat="45.84505" lon="4.68588">
        <ele>310.11566</ele>
        <time>2023-07-30T13:35:41.000Z</time>
      </trkpt>
      <trkpt lat="45.84501" lon="4.68587">
        <ele>310.33017</ele>
        <time>2023-07-30T13:35:42.000Z</time>
      </trkpt>
      <trkpt lat="45.84498" lon="4.68585">
        <ele>310.52875</ele>
        <time>2023-07-30T13:35:43.000Z</time>
      </trkpt>
      <trkpt lat="45.84496" lon="4.68583">
        <ele>310.76416</ele>
        <time>2023-07-30T13:35:44.000Z</time>
      </trkpt>
      <trkpt lat="45.84494" lon="4.68581">
        <ele>311.16098</ele>
        <time>2023-07-30T13:35:45.000Z</time>
      </trkpt>
      <trkpt lat="45.84492" lon="4.68579">
        <ele>311.56778</ele>
        <time>2023-07-30T13:35:46.000Z</time>
      </trkpt>
      <trkpt lat="45.84489" lon="4.68576">
        <ele>311.95758</ele>
        <time>2023-07-30T13:35:47.000Z</time>
      </trkpt>
      <trkpt lat="45.84487" lon="4.68573">
        <ele>312.37094</ele>
        <time>2023-07-30T13:35:48.000Z</time>
      </trkpt>
      <trkpt lat="45.84484" lon="4.6857">
        <ele>312.80496</ele>
        <time>2023-07-30T13:35:49.000Z</time>
      </trkpt>
      <trkpt lat="45.84481" lon="4.68567">
        <ele>313.29721</ele>
        <time>2023-07-30T13:35:50.000Z</time>
      </trkpt>
      <trkpt lat="45.84479" lon="4.68564">
        <ele>313.50018</ele>
        <time>2023-07-30T13:35:51.000Z</time>
      </trkpt>
      <trkpt lat="45.84476" lon="4.68561">
        <ele>313.70801</ele>
        <time>2023-07-30T13:35:52.000Z</time>
      </trkpt>
      <trkpt lat="45.84474" lon="4.68558">
        <ele>313.89133</ele>
        <time>2023-07-30T13:35:53.000Z</time>
      </trkpt>
      <trkpt lat="45.84472" lon="4.68554">
        <ele>314.04181</ele>
        <time>2023-07-30T13:35:54.000Z</time>
      </trkpt>
      <trkpt lat="45.84469" lon="4.6855">
        <ele>314.24045</ele>
        <time>2023-07-30T13:35:55.000Z</time>
      </trkpt>
      <trkpt lat="45.84467" lon="4.68545">
        <ele>314.41382</ele>
        <time>2023-07-30T13:35:56.000Z</time>
      </trkpt>
      <trkpt lat="45.84465" lon="4.6854">
        <ele>314.5827</ele>
        <time>2023-07-30T13:35:57.000Z</time>
      </trkpt>
      <trkpt lat="45.84462" lon="4.68529">
        <ele>314.54962</ele>
        <time>2023-07-30T13:35:58.000Z</time>
      </trkpt>
      <trkpt lat="45.8446" lon="4.68521">
        <ele>314.45923</ele>
        <time>2023-07-30T13:35:59.000Z</time>
      </trkpt>
      <trkpt lat="45.84458" lon="4.68514">
        <ele>314.68317</ele>
        <time>2023-07-30T13:36:00.000Z</time>
      </trkpt>
      <trkpt lat="45.84454" lon="4.68507">
        <ele>314.82846</ele>
        <time>2023-07-30T13:36:01.000Z</time>
      </trkpt>
      <trkpt lat="45.8445" lon="4.68497">
        <ele>314.90094</ele>
        <time>2023-07-30T13:36:02.000Z</time>
      </trkpt>
      <trkpt lat="45.84447" lon="4.6849">
        <ele>315.00357</ele>
        <time>2023-07-30T13:36:03.000Z</time>
      </trkpt>
      <trkpt lat="45.84445" lon="4.68483">
        <ele>315.04526</ele>
        <time>2023-07-30T13:36:04.000Z</time>
      </trkpt>
      <trkpt lat="45.84441" lon="4.68473">
        <ele>314.88351</ele>
        <time>2023-07-30T13:36:05.000Z</time>
      </trkpt>
      <trkpt lat="45.84437" lon="4.6847">
        <ele>314.94684</ele>
        <time>2023-07-30T13:36:06.000Z</time>
      </trkpt>
      <trkpt lat="45.84433" lon="4.68463">
        <ele>315.06967</ele>
        <time>2023-07-30T13:36:07.000Z</time>
      </trkpt>
      <trkpt lat="45.84429" lon="4.68461">
        <ele>315.29648</ele>
        <time>2023-07-30T13:36:08.000Z</time>
      </trkpt>
      <trkpt lat="45.84424" lon="4.68456">
        <ele>315.56158</ele>
        <time>2023-07-30T13:36:09.000Z</time>
      </trkpt>
      <trkpt lat="45.84421" lon="4.68452">
        <ele>315.7547</ele>
        <time>2023-07-30T13:36:10.000Z</time>
      </trkpt>
      <trkpt lat="45.84416" lon="4.68448">
        <ele>315.91898</ele>
        <time>2023-07-30T13:36:11.000Z</time>
      </trkpt>
      <trkpt lat="45.84413" lon="4.68444">
        <ele>316.129</ele>
        <time>2023-07-30T13:36:12.000Z</time>
      </trkpt>
      <trkpt lat="45.84409" lon="4.68441">
        <ele>316.367</ele>
        <time>2023-07-30T13:36:13.000Z</time>
      </trkpt>
      <trkpt lat="45.84405" lon="4.68434">
        <ele>316.62772</ele>
        <time>2023-07-30T13:36:14.000Z</time>
      </trkpt>
      <trkpt lat="45.84402" lon="4.6843">
        <ele>316.87616</ele>
        <time>2023-07-30T13:36:15.000Z</time>
      </trkpt>
      <trkpt lat="45.84396" lon="4.68426">
        <ele>317.12759</ele>
        <time>2023-07-30T13:36:16.000Z</time>
      </trkpt>
      <trkpt lat="45.84391" lon="4.6842">
        <ele>317.35446</ele>
        <time>2023-07-30T13:36:17.000Z</time>
      </trkpt>
      <trkpt lat="45.84387" lon="4.68414">
        <ele>317.53351</ele>
        <time>2023-07-30T13:36:18.000Z</time>
      </trkpt>
      <trkpt lat="45.84383" lon="4.68409">
        <ele>317.7265</ele>
        <time>2023-07-30T13:36:19.000Z</time>
      </trkpt>
      <trkpt lat="45.84378" lon="4.68404">
        <ele>317.87766</ele>
        <time>2023-07-30T13:36:20.000Z</time>
      </trkpt>
      <trkpt lat="45.84374" lon="4.68401">
        <ele>317.93198</ele>
        <time>2023-07-30T13:36:21.000Z</time>
      </trkpt>
      <trkpt lat="45.8437" lon="4.68395">
        <ele>318.0856</ele>
        <time>2023-07-30T13:36:22.000Z</time>
      </trkpt>
      <trkpt lat="45.84363" lon="4.68389">
        <ele>318.1749</ele>
        <time>2023-07-30T13:36:23.000Z</time>
      </trkpt>
      <trkpt lat="45.84358" lon="4.68385">
        <ele>318.20435</ele>
        <time>2023-07-30T13:36:24.000Z</time>
      </trkpt>
      <trkpt lat="45.84355" lon="4.6838">
        <ele>318.27765</ele>
        <time>2023-07-30T13:36:25.000Z</time>
      </trkpt>
      <trkpt lat="45.8435" lon="4.68375">
        <ele>318.14886</ele>
        <time>2023-07-30T13:36:26.000Z</time>
      </trkpt>
      <trkpt lat="45.84346" lon="4.6837">
        <ele>317.90204</ele>
        <time>2023-07-30T13:36:27.000Z</time>
      </trkpt>
      <trkpt lat="45.84343" lon="4.68367">
        <ele>317.58868</ele>
        <time>2023-07-30T13:36:28.000Z</time>
      </trkpt>
      <trkpt lat="45.84339" lon="4.68364">
        <ele>317.42868</ele>
        <time>2023-07-30T13:36:29.000Z</time>
      </trkpt>
      <trkpt lat="45.84336" lon="4.68361">
        <ele>317.44147</ele>
        <time>2023-07-30T13:36:30.000Z</time>
      </trkpt>
      <trkpt lat="45.84334" lon="4.68357">
        <ele>317.38705</ele>
        <time>2023-07-30T13:36:31.000Z</time>
      </trkpt>
      <trkpt lat="45.84331" lon="4.68354">
        <ele>317.40811</ele>
        <time>2023-07-30T13:36:32.000Z</time>
      </trkpt>
      <trkpt lat="45.84328" lon="4.68351">
        <ele>317.35248</ele>
        <time>2023-07-30T13:36:33.000Z</time>
      </trkpt>
      <trkpt lat="45.84326" lon="4.68349">
        <ele>317.298</ele>
        <time>2023-07-30T13:36:34.000Z</time>
      </trkpt>
      <trkpt lat="45.84324" lon="4.68347">
        <ele>317.15921</ele>
        <time>2023-07-30T13:36:35.000Z</time>
      </trkpt>
      <trkpt lat="45.84322" lon="4.68345">
        <ele>317.01666</ele>
        <time>2023-07-30T13:36:37.000Z</time>
      </trkpt>
      <trkpt lat="45.8432" lon="4.68344">
        <ele>317.10294</ele>
        <time>2023-07-30T13:36:39.000Z</time>
      </trkpt>
      <trkpt lat="45.84318" lon="4.68343">
        <ele>316.81921</ele>
        <time>2023-07-30T13:36:41.000Z</time>
      </trkpt>
      <trkpt lat="45.84317" lon="4.68341">
        <ele>316.66248</ele>
        <time>2023-07-30T13:36:43.000Z</time>
      </trkpt>
      <trkpt lat="45.84315" lon="4.68338">
        <ele>316.63055</ele>
        <time>2023-07-30T13:36:46.000Z</time>
      </trkpt>
      <trkpt lat="45.84313" lon="4.68338">
        <ele>316.54919</ele>
        <time>2023-07-30T13:36:48.000Z</time>
      </trkpt>
      <trkpt lat="45.84311" lon="4.68339">
        <ele>316.56171</ele>
        <time>2023-07-30T13:36:51.000Z</time>
      </trkpt>
      <trkpt lat="45.84309" lon="4.68338">
        <ele>316.35089</ele>
        <time>2023-07-30T13:37:30.000Z</time>
      </trkpt>
      <trkpt lat="45.84307" lon="4.68334">
        <ele>316.30392</ele>
        <time>2023-07-30T13:37:32.000Z</time>
      </trkpt>
      <trkpt lat="45.84305" lon="4.68332">
        <ele>316.28326</ele>
        <time>2023-07-30T13:37:34.000Z</time>
      </trkpt>
      <trkpt lat="45.84303" lon="4.68329">
        <ele>316.26129</ele>
        <time>2023-07-30T13:37:36.000Z</time>
      </trkpt>
      <trkpt lat="45.84299" lon="4.68327">
        <ele>316.35898</ele>
        <time>2023-07-30T13:37:38.000Z</time>
      </trkpt>
      <trkpt lat="45.84296" lon="4.68326">
        <ele>316.44574</ele>
        <time>2023-07-30T13:37:40.000Z</time>
      </trkpt>
      <trkpt lat="45.84294" lon="4.68326">
        <ele>316.28653</ele>
        <time>2023-07-30T13:37:41.000Z</time>
      </trkpt>
      <trkpt lat="45.84292" lon="4.68326">
        <ele>316.00983</ele>
        <time>2023-07-30T13:37:42.000Z</time>
      </trkpt>
      <trkpt lat="45.8429" lon="4.68327">
        <ele>316.11984</ele>
        <time>2023-07-30T13:37:43.000Z</time>
      </trkpt>
      <trkpt lat="45.84287" lon="4.68328">
        <ele>316.10532</ele>
        <time>2023-07-30T13:37:44.000Z</time>
      </trkpt>
      <trkpt lat="45.84284" lon="4.68329">
        <ele>316.19528</ele>
        <time>2023-07-30T13:37:45.000Z</time>
      </trkpt>
      <trkpt lat="45.84281" lon="4.6833">
        <ele>316.27481</ele>
        <time>2023-07-30T13:37:46.000Z</time>
      </trkpt>
      <trkpt lat="45.84278" lon="4.6833">
        <ele>316.46524</ele>
        <time>2023-07-30T13:37:47.000Z</time>
      </trkpt>
      <trkpt lat="45.84275" lon="4.6833">
        <ele>316.63647</ele>
        <time>2023-07-30T13:37:48.000Z</time>
      </trkpt>
      <trkpt lat="45.84271" lon="4.6833">
        <ele>316.65479</ele>
        <time>2023-07-30T13:37:49.000Z</time>
      </trkpt>
      <trkpt lat="45.84267" lon="4.6833">
        <ele>317.04068</ele>
        <time>2023-07-30T13:37:50.000Z</time>
      </trkpt>
      <trkpt lat="45.84264" lon="4.68331">
        <ele>317.27759</ele>
        <time>2023-07-30T13:37:51.000Z</time>
      </trkpt>
      <trkpt lat="45.84261" lon="4.68332">
        <ele>317.33133</ele>
        <time>2023-07-30T13:37:52.000Z</time>
      </trkpt>
      <trkpt lat="45.84259" lon="4.68332">
        <ele>317.52115</ele>
        <time>2023-07-30T13:37:53.000Z</time>
      </trkpt>
      <trkpt lat="45.84256" lon="4.68333">
        <ele>317.57059</ele>
        <time>2023-07-30T13:37:54.000Z</time>
      </trkpt>
      <trkpt lat="45.84253" lon="4.68333">
        <ele>318.06735</ele>
        <time>2023-07-30T13:37:55.000Z</time>
      </trkpt>
      <trkpt lat="45.8425" lon="4.68334">
        <ele>318.56415</ele>
        <time>2023-07-30T13:37:56.000Z</time>
      </trkpt>
      <trkpt lat="45.84247" lon="4.68334">
        <ele>318.99356</ele>
        <time>2023-07-30T13:37:57.000Z</time>
      </trkpt>
      <trkpt lat="45.84243" lon="4.68333">
        <ele>319.42398</ele>
        <time>2023-07-30T13:37:58.000Z</time>
      </trkpt>
      <trkpt lat="45.8424" lon="4.68333">
        <ele>319.39352</ele>
        <time>2023-07-30T13:37:59.000Z</time>
      </trkpt>
      <trkpt lat="45.84237" lon="4.68333">
        <ele>319.45944</ele>
        <time>2023-07-30T13:38:00.000Z</time>
      </trkpt>
      <trkpt lat="45.84234" lon="4.68332">
        <ele>319.50555</ele>
        <time>2023-07-30T13:38:01.000Z</time>
      </trkpt>
      <trkpt lat="45.84231" lon="4.68331">
        <ele>319.46674</ele>
        <time>2023-07-30T13:38:02.000Z</time>
      </trkpt>
      <trkpt lat="45.84227" lon="4.6833">
        <ele>319.44281</ele>
        <time>2023-07-30T13:38:03.000Z</time>
      </trkpt>
      <trkpt lat="45.84223" lon="4.68328">
        <ele>319.36359</ele>
        <time>2023-07-30T13:38:04.000Z</time>
      </trkpt>
      <trkpt lat="45.8422" lon="4.68327">
        <ele>319.29828</ele>
        <time>2023-07-30T13:38:05.000Z</time>
      </trkpt>
      <trkpt lat="45.84216" lon="4.68326">
        <ele>319.17514</ele>
        <time>2023-07-30T13:38:06.000Z</time>
      </trkpt>
      <trkpt lat="45.84213" lon="4.68325">
        <ele>319.0358</ele>
        <time>2023-07-30T13:38:07.000Z</time>
      </trkpt>
      <trkpt lat="45.84209" lon="4.68324">
        <ele>318.89972</ele>
        <time>2023-07-30T13:38:08.000Z</time>
      </trkpt>
      <trkpt lat="45.84205" lon="4.68323">
        <ele>318.71365</ele>
        <time>2023-07-30T13:38:09.000Z</time>
      </trkpt>
      <trkpt lat="45.84201" lon="4.68322">
        <ele>318.56738</ele>
        <time>2023-07-30T13:38:10.000Z</time>
      </trkpt>
      <trkpt lat="45.84197" lon="4.6832">
        <ele>318.48917</ele>
        <time>2023-07-30T13:38:11.000Z</time>
      </trkpt>
      <trkpt lat="45.84194" lon="4.68318">
        <ele>318.07315</ele>
        <time>2023-07-30T13:38:12.000Z</time>
      </trkpt>
      <trkpt lat="45.8419" lon="4.68316">
        <ele>317.65952</ele>
        <time>2023-07-30T13:38:13.000Z</time>
      </trkpt>
      <trkpt lat="45.84187" lon="4.68314">
        <ele>317.23242</ele>
        <time>2023-07-30T13:38:14.000Z</time>
      </trkpt>
      <trkpt lat="45.84183" lon="4.6831">
        <ele>316.65045</ele>
        <time>2023-07-30T13:38:15.000Z</time>
      </trkpt>
      <trkpt lat="45.84179" lon="4.68306">
        <ele>315.97324</ele>
        <time>2023-07-30T13:38:16.000Z</time>
      </trkpt>
      <trkpt lat="45.84175" lon="4.68303">
        <ele>315.36414</ele>
        <time>2023-07-30T13:38:17.000Z</time>
      </trkpt>
      <trkpt lat="45.84171" lon="4.683">
        <ele>314.66333</ele>
        <time>2023-07-30T13:38:18.000Z</time>
      </trkpt>
      <trkpt lat="45.84167" lon="4.68298">
        <ele>314.31287</ele>
        <time>2023-07-30T13:38:19.000Z</time>
      </trkpt>
      <trkpt lat="45.84163" lon="4.68296">
        <ele>313.85776</ele>
        <time>2023-07-30T13:38:20.000Z</time>
      </trkpt>
      <trkpt lat="45.84159" lon="4.68293">
        <ele>313.42416</ele>
        <time>2023-07-30T13:38:21.000Z</time>
      </trkpt>
      <trkpt lat="45.84155" lon="4.68291">
        <ele>313.00308</ele>
        <time>2023-07-30T13:38:22.000Z</time>
      </trkpt>
      <trkpt lat="45.84152" lon="4.68289">
        <ele>312.5296</ele>
        <time>2023-07-30T13:38:23.000Z</time>
      </trkpt>
      <trkpt lat="45.84148" lon="4.68287">
        <ele>312.08826</ele>
        <time>2023-07-30T13:38:24.000Z</time>
      </trkpt>
      <trkpt lat="45.84144" lon="4.68285">
        <ele>311.57825</ele>
        <time>2023-07-30T13:38:25.000Z</time>
      </trkpt>
      <trkpt lat="45.8414" lon="4.68283">
        <ele>311.11588</ele>
        <time>2023-07-30T13:38:26.000Z</time>
      </trkpt>
      <trkpt lat="45.84136" lon="4.68281">
        <ele>310.64337</ele>
        <time>2023-07-30T13:38:27.000Z</time>
      </trkpt>
      <trkpt lat="45.84133" lon="4.6828">
        <ele>310.20563</ele>
        <time>2023-07-30T13:38:28.000Z</time>
      </trkpt>
      <trkpt lat="45.8413" lon="4.68278">
        <ele>309.59698</ele>
        <time>2023-07-30T13:38:29.000Z</time>
      </trkpt>
      <trkpt lat="45.84127" lon="4.68277">
        <ele>309.06006</ele>
        <time>2023-07-30T13:38:30.000Z</time>
      </trkpt>
      <trkpt lat="45.84124" lon="4.68276">
        <ele>308.43076</ele>
        <time>2023-07-30T13:38:31.000Z</time>
      </trkpt>
      <trkpt lat="45.84121" lon="4.68275">
        <ele>308.23932</ele>
        <time>2023-07-30T13:38:32.000Z</time>
      </trkpt>
      <trkpt lat="45.84117" lon="4.68275">
        <ele>308.05573</ele>
        <time>2023-07-30T13:38:33.000Z</time>
      </trkpt>
      <trkpt lat="45.84114" lon="4.68274">
        <ele>307.86432</ele>
        <time>2023-07-30T13:38:34.000Z</time>
      </trkpt>
      <trkpt lat="45.8411" lon="4.68273">
        <ele>307.64478</ele>
        <time>2023-07-30T13:38:35.000Z</time>
      </trkpt>
      <trkpt lat="45.84107" lon="4.68272">
        <ele>307.43549</ele>
        <time>2023-07-30T13:38:36.000Z</time>
      </trkpt>
      <trkpt lat="45.84104" lon="4.68271">
        <ele>307.26901</ele>
        <time>2023-07-30T13:38:37.000Z</time>
      </trkpt>
      <trkpt lat="45.841" lon="4.68271">
        <ele>307.1749</ele>
        <time>2023-07-30T13:38:38.000Z</time>
      </trkpt>
      <trkpt lat="45.84097" lon="4.6827">
        <ele>307.00385</ele>
        <time>2023-07-30T13:38:39.000Z</time>
      </trkpt>
      <trkpt lat="45.84093" lon="4.6827">
        <ele>306.84747</ele>
        <time>2023-07-30T13:38:40.000Z</time>
      </trkpt>
      <trkpt lat="45.8409" lon="4.6827">
        <ele>306.767</ele>
        <time>2023-07-30T13:38:41.000Z</time>
      </trkpt>
      <trkpt lat="45.84087" lon="4.6827">
        <ele>306.67572</ele>
        <time>2023-07-30T13:38:42.000Z</time>
      </trkpt>
      <trkpt lat="45.84084" lon="4.68269">
        <ele>306.62305</ele>
        <time>2023-07-30T13:38:43.000Z</time>
      </trkpt>
      <trkpt lat="45.8408" lon="4.68269">
        <ele>306.55966</ele>
        <time>2023-07-30T13:38:44.000Z</time>
      </trkpt>
      <trkpt lat="45.84077" lon="4.68268">
        <ele>306.995</ele>
        <time>2023-07-30T13:38:45.000Z</time>
      </trkpt>
      <trkpt lat="45.84073" lon="4.68267">
        <ele>307.42621</ele>
        <time>2023-07-30T13:38:46.000Z</time>
      </trkpt>
      <trkpt lat="45.8407" lon="4.68267">
        <ele>307.96149</ele>
        <time>2023-07-30T13:38:47.000Z</time>
      </trkpt>
      <trkpt lat="45.84067" lon="4.68267">
        <ele>308.34818</ele>
        <time>2023-07-30T13:38:48.000Z</time>
      </trkpt>
      <trkpt lat="45.84063" lon="4.68266">
        <ele>309.51074</ele>
        <time>2023-07-30T13:38:49.000Z</time>
      </trkpt>
      <trkpt lat="45.8406" lon="4.68266">
        <ele>310.45258</ele>
        <time>2023-07-30T13:38:50.000Z</time>
      </trkpt>
      <trkpt lat="45.84057" lon="4.68266">
        <ele>311.4043</ele>
        <time>2023-07-30T13:38:51.000Z</time>
      </trkpt>
      <trkpt lat="45.84053" lon="4.68265">
        <ele>312.51935</ele>
        <time>2023-07-30T13:38:52.000Z</time>
      </trkpt>
      <trkpt lat="45.84049" lon="4.68264">
        <ele>313.63995</ele>
        <time>2023-07-30T13:38:53.000Z</time>
      </trkpt>
      <trkpt lat="45.84045" lon="4.68263">
        <ele>314.25388</ele>
        <time>2023-07-30T13:38:54.000Z</time>
      </trkpt>
      <trkpt lat="45.84042" lon="4.68263">
        <ele>314.97589</ele>
        <time>2023-07-30T13:38:55.000Z</time>
      </trkpt>
      <trkpt lat="45.84038" lon="4.68262">
        <ele>315.67511</ele>
        <time>2023-07-30T13:38:56.000Z</time>
      </trkpt>
      <trkpt lat="45.84034" lon="4.68261">
        <ele>316.29218</ele>
        <time>2023-07-30T13:38:57.000Z</time>
      </trkpt>
      <trkpt lat="45.8403" lon="4.6826">
        <ele>316.5495</ele>
        <time>2023-07-30T13:38:58.000Z</time>
      </trkpt>
      <trkpt lat="45.84027" lon="4.68259">
        <ele>317.14337</ele>
        <time>2023-07-30T13:38:59.000Z</time>
      </trkpt>
      <trkpt lat="45.84023" lon="4.68257">
        <ele>317.72272</ele>
        <time>2023-07-30T13:39:00.000Z</time>
      </trkpt>
      <trkpt lat="45.84018" lon="4.68256">
        <ele>318.27118</ele>
        <time>2023-07-30T13:39:01.000Z</time>
      </trkpt>
      <trkpt lat="45.84014" lon="4.68255">
        <ele>318.81772</ele>
        <time>2023-07-30T13:39:02.000Z</time>
      </trkpt>
      <trkpt lat="45.84011" lon="4.68254">
        <ele>319.80411</ele>
        <time>2023-07-30T13:39:03.000Z</time>
      </trkpt>
      <trkpt lat="45.84007" lon="4.68254">
        <ele>320.78479</ele>
        <time>2023-07-30T13:39:04.000Z</time>
      </trkpt>
      <trkpt lat="45.84003" lon="4.68253">
        <ele>321.2706</ele>
        <time>2023-07-30T13:39:05.000Z</time>
      </trkpt>
      <trkpt lat="45.84" lon="4.68253">
        <ele>321.94803</ele>
        <time>2023-07-30T13:39:06.000Z</time>
      </trkpt>
      <trkpt lat="45.83996" lon="4.68253">
        <ele>321.99503</ele>
        <time>2023-07-30T13:39:07.000Z</time>
      </trkpt>
      <trkpt lat="45.83992" lon="4.68253">
        <ele>322.24847</ele>
        <time>2023-07-30T13:39:08.000Z</time>
      </trkpt>
      <trkpt lat="45.83987" lon="4.68253">
        <ele>321.9079</ele>
        <time>2023-07-30T13:39:09.000Z</time>
      </trkpt>
      <trkpt lat="45.83982" lon="4.68253">
        <ele>321.75262</ele>
        <time>2023-07-30T13:39:10.000Z</time>
      </trkpt>
      <trkpt lat="45.83978" lon="4.68252">
        <ele>321.61545</ele>
        <time>2023-07-30T13:39:11.000Z</time>
      </trkpt>
      <trkpt lat="45.83972" lon="4.68252">
        <ele>321.25192</ele>
        <time>2023-07-30T13:39:12.000Z</time>
      </trkpt>
      <trkpt lat="45.83967" lon="4.68253">
        <ele>320.86017</ele>
        <time>2023-07-30T13:39:13.000Z</time>
      </trkpt>
      <trkpt lat="45.83962" lon="4.68253">
        <ele>320.92175</ele>
        <time>2023-07-30T13:39:14.000Z</time>
      </trkpt>
      <trkpt lat="45.83957" lon="4.68253">
        <ele>320.93195</ele>
        <time>2023-07-30T13:39:15.000Z</time>
      </trkpt>
      <trkpt lat="45.83952" lon="4.68255">
        <ele>320.96613</ele>
        <time>2023-07-30T13:39:16.000Z</time>
      </trkpt>
      <trkpt lat="45.83947" lon="4.68255">
        <ele>321.03632</ele>
        <time>2023-07-30T13:39:17.000Z</time>
      </trkpt>
      <trkpt lat="45.83942" lon="4.68255">
        <ele>321.44785</ele>
        <time>2023-07-30T13:39:18.000Z</time>
      </trkpt>
      <trkpt lat="45.83937" lon="4.68255">
        <ele>321.88516</ele>
        <time>2023-07-30T13:39:19.000Z</time>
      </trkpt>
      <trkpt lat="45.83932" lon="4.68254">
        <ele>322.47198</ele>
        <time>2023-07-30T13:39:20.000Z</time>
      </trkpt>
      <trkpt lat="45.83928" lon="4.68253">
        <ele>322.55109</ele>
        <time>2023-07-30T13:39:21.000Z</time>
      </trkpt>
      <trkpt lat="45.83924" lon="4.68252">
        <ele>322.73248</ele>
        <time>2023-07-30T13:39:22.000Z</time>
      </trkpt>
      <trkpt lat="45.8392" lon="4.68253">
        <ele>322.51337</ele>
        <time>2023-07-30T13:39:23.000Z</time>
      </trkpt>
      <trkpt lat="45.83915" lon="4.68252">
        <ele>322.28674</ele>
        <time>2023-07-30T13:39:24.000Z</time>
      </trkpt>
      <trkpt lat="45.8391" lon="4.68252">
        <ele>322.08163</ele>
        <time>2023-07-30T13:39:25.000Z</time>
      </trkpt>
      <trkpt lat="45.83907" lon="4.68251">
        <ele>321.74103</ele>
        <time>2023-07-30T13:39:26.000Z</time>
      </trkpt>
      <trkpt lat="45.83902" lon="4.6825">
        <ele>321.87433</ele>
        <time>2023-07-30T13:39:27.000Z</time>
      </trkpt>
      <trkpt lat="45.83898" lon="4.68248">
        <ele>321.87537</ele>
        <time>2023-07-30T13:39:28.000Z</time>
      </trkpt>
      <trkpt lat="45.83894" lon="4.68248">
        <ele>321.85941</ele>
        <time>2023-07-30T13:39:29.000Z</time>
      </trkpt>
      <trkpt lat="45.83889" lon="4.68249">
        <ele>321.8656</ele>
        <time>2023-07-30T13:39:30.000Z</time>
      </trkpt>
      <trkpt lat="45.83885" lon="4.6825">
        <ele>321.89401</ele>
        <time>2023-07-30T13:39:31.000Z</time>
      </trkpt>
      <trkpt lat="45.8388" lon="4.6825">
        <ele>321.93375</ele>
        <time>2023-07-30T13:39:32.000Z</time>
      </trkpt>
      <trkpt lat="45.83876" lon="4.6825">
        <ele>322.02496</ele>
        <time>2023-07-30T13:39:33.000Z</time>
      </trkpt>
      <trkpt lat="45.83871" lon="4.6825">
        <ele>322.1853</ele>
        <time>2023-07-30T13:39:34.000Z</time>
      </trkpt>
      <trkpt lat="45.83867" lon="4.6825">
        <ele>322.285</ele>
        <time>2023-07-30T13:39:35.000Z</time>
      </trkpt>
      <trkpt lat="45.83863" lon="4.6825">
        <ele>322.38477</ele>
        <time>2023-07-30T13:39:36.000Z</time>
      </trkpt>
      <trkpt lat="45.83858" lon="4.6825">
        <ele>322.47354</ele>
        <time>2023-07-30T13:39:37.000Z</time>
      </trkpt>
      <trkpt lat="45.83854" lon="4.68251">
        <ele>322.5838</ele>
        <time>2023-07-30T13:39:38.000Z</time>
      </trkpt>
      <trkpt lat="45.8385" lon="4.68251">
        <ele>322.43378</ele>
        <time>2023-07-30T13:39:39.000Z</time>
      </trkpt>
      <trkpt lat="45.83846" lon="4.68251">
        <ele>322.16791</ele>
        <time>2023-07-30T13:39:40.000Z</time>
      </trkpt>
      <trkpt lat="45.83842" lon="4.68251">
        <ele>322.38824</ele>
        <time>2023-07-30T13:39:41.000Z</time>
      </trkpt>
      <trkpt lat="45.83837" lon="4.68251">
        <ele>322.53104</ele>
        <time>2023-07-30T13:39:42.000Z</time>
      </trkpt>
      <trkpt lat="45.83833" lon="4.68251">
        <ele>322.64813</ele>
        <time>2023-07-30T13:39:43.000Z</time>
      </trkpt>
      <trkpt lat="45.83829" lon="4.68252">
        <ele>322.76971</ele>
        <time>2023-07-30T13:39:44.000Z</time>
      </trkpt>
      <trkpt lat="45.83826" lon="4.68254">
        <ele>322.90436</ele>
        <time>2023-07-30T13:39:45.000Z</time>
      </trkpt>
      <trkpt lat="45.83822" lon="4.68255">
        <ele>323.02106</ele>
        <time>2023-07-30T13:39:46.000Z</time>
      </trkpt>
      <trkpt lat="45.83819" lon="4.68257">
        <ele>323.2038</ele>
        <time>2023-07-30T13:39:47.000Z</time>
      </trkpt>
      <trkpt lat="45.83816" lon="4.6826">
        <ele>323.42606</ele>
        <time>2023-07-30T13:39:48.000Z</time>
      </trkpt>
      <trkpt lat="45.83813" lon="4.68263">
        <ele>323.65329</ele>
        <time>2023-07-30T13:39:49.000Z</time>
      </trkpt>
      <trkpt lat="45.83811" lon="4.68266">
        <ele>323.84033</ele>
        <time>2023-07-30T13:39:50.000Z</time>
      </trkpt>
      <trkpt lat="45.83808" lon="4.68269">
        <ele>324.00906</ele>
        <time>2023-07-30T13:39:51.000Z</time>
      </trkpt>
      <trkpt lat="45.83805" lon="4.68273">
        <ele>324.20358</ele>
        <time>2023-07-30T13:39:52.000Z</time>
      </trkpt>
      <trkpt lat="45.83803" lon="4.68276">
        <ele>324.36362</ele>
        <time>2023-07-30T13:39:53.000Z</time>
      </trkpt>
      <trkpt lat="45.838" lon="4.6828">
        <ele>324.52994</ele>
        <time>2023-07-30T13:39:54.000Z</time>
      </trkpt>
      <trkpt lat="45.83797" lon="4.68284">
        <ele>324.70233</ele>
        <time>2023-07-30T13:39:55.000Z</time>
      </trkpt>
      <trkpt lat="45.83794" lon="4.68287">
        <ele>324.87601</ele>
        <time>2023-07-30T13:39:56.000Z</time>
      </trkpt>
      <trkpt lat="45.83792" lon="4.68291">
        <ele>325.35077</ele>
        <time>2023-07-30T13:39:57.000Z</time>
      </trkpt>
      <trkpt lat="45.83789" lon="4.68295">
        <ele>325.81985</ele>
        <time>2023-07-30T13:39:58.000Z</time>
      </trkpt>
      <trkpt lat="45.83787" lon="4.68299">
        <ele>326.37396</ele>
        <time>2023-07-30T13:39:59.000Z</time>
      </trkpt>
      <trkpt lat="45.83785" lon="4.68303">
        <ele>326.90167</ele>
        <time>2023-07-30T13:40:00.000Z</time>
      </trkpt>
      <trkpt lat="45.83783" lon="4.68306">
        <ele>327.00092</ele>
        <time>2023-07-30T13:40:01.000Z</time>
      </trkpt>
      <trkpt lat="45.8378" lon="4.6831">
        <ele>327.16327</ele>
        <time>2023-07-30T13:40:02.000Z</time>
      </trkpt>
      <trkpt lat="45.83778" lon="4.68314">
        <ele>327.31943</ele>
        <time>2023-07-30T13:40:03.000Z</time>
      </trkpt>
      <trkpt lat="45.83776" lon="4.68318">
        <ele>327.5</ele>
        <time>2023-07-30T13:40:04.000Z</time>
      </trkpt>
      <trkpt lat="45.83774" lon="4.68322">
        <ele>327.66293</ele>
        <time>2023-07-30T13:40:05.000Z</time>
      </trkpt>
      <trkpt lat="45.83772" lon="4.68326">
        <ele>327.79926</ele>
        <time>2023-07-30T13:40:06.000Z</time>
      </trkpt>
      <trkpt lat="45.83769" lon="4.6833">
        <ele>327.91763</ele>
        <time>2023-07-30T13:40:07.000Z</time>
      </trkpt>
      <trkpt lat="45.83767" lon="4.68333">
        <ele>328.05087</ele>
        <time>2023-07-30T13:40:08.000Z</time>
      </trkpt>
      <trkpt lat="45.83765" lon="4.68337">
        <ele>328.21756</ele>
        <time>2023-07-30T13:40:09.000Z</time>
      </trkpt>
      <trkpt lat="45.83762" lon="4.6834">
        <ele>328.38947</ele>
        <time>2023-07-30T13:40:10.000Z</time>
      </trkpt>
      <trkpt lat="45.8376" lon="4.68343">
        <ele>328.56027</ele>
        <time>2023-07-30T13:40:11.000Z</time>
      </trkpt>
      <trkpt lat="45.83758" lon="4.68347">
        <ele>328.73798</ele>
        <time>2023-07-30T13:40:12.000Z</time>
      </trkpt>
      <trkpt lat="45.83756" lon="4.6835">
        <ele>328.93637</ele>
        <time>2023-07-30T13:40:13.000Z</time>
      </trkpt>
      <trkpt lat="45.83754" lon="4.68354">
        <ele>328.77896</ele>
        <time>2023-07-30T13:40:14.000Z</time>
      </trkpt>
      <trkpt lat="45.83752" lon="4.68358">
        <ele>328.63174</ele>
        <time>2023-07-30T13:40:15.000Z</time>
      </trkpt>
      <trkpt lat="45.83749" lon="4.68362">
        <ele>328.62732</ele>
        <time>2023-07-30T13:40:16.000Z</time>
      </trkpt>
      <trkpt lat="45.83747" lon="4.68366">
        <ele>328.3576</ele>
        <time>2023-07-30T13:40:17.000Z</time>
      </trkpt>
      <trkpt lat="45.83744" lon="4.68371">
        <ele>328.08984</ele>
        <time>2023-07-30T13:40:18.000Z</time>
      </trkpt>
      <trkpt lat="45.83742" lon="4.68375">
        <ele>327.58954</ele>
        <time>2023-07-30T13:40:19.000Z</time>
      </trkpt>
      <trkpt lat="45.83739" lon="4.68379">
        <ele>327.12552</ele>
        <time>2023-07-30T13:40:20.000Z</time>
      </trkpt>
      <trkpt lat="45.83737" lon="4.68383">
        <ele>327.12555</ele>
        <time>2023-07-30T13:40:21.000Z</time>
      </trkpt>
      <trkpt lat="45.83734" lon="4.68387">
        <ele>327.0481</ele>
        <time>2023-07-30T13:40:22.000Z</time>
      </trkpt>
      <trkpt lat="45.83732" lon="4.68391">
        <ele>326.97049</ele>
        <time>2023-07-30T13:40:23.000Z</time>
      </trkpt>
      <trkpt lat="45.83729" lon="4.68395">
        <ele>326.87616</ele>
        <time>2023-07-30T13:40:24.000Z</time>
      </trkpt>
      <trkpt lat="45.83727" lon="4.68399">
        <ele>326.7785</ele>
        <time>2023-07-30T13:40:25.000Z</time>
      </trkpt>
      <trkpt lat="45.83725" lon="4.68403">
        <ele>326.67426</ele>
        <time>2023-07-30T13:40:26.000Z</time>
      </trkpt>
      <trkpt lat="45.83723" lon="4.68408">
        <ele>326.59601</ele>
        <time>2023-07-30T13:40:27.000Z</time>
      </trkpt>
      <trkpt lat="45.83721" lon="4.68412">
        <ele>326.51804</ele>
        <time>2023-07-30T13:40:28.000Z</time>
      </trkpt>
      <trkpt lat="45.83718" lon="4.68417">
        <ele>326.41235</ele>
        <time>2023-07-30T13:40:29.000Z</time>
      </trkpt>
      <trkpt lat="45.83716" lon="4.68421">
        <ele>326.31827</ele>
        <time>2023-07-30T13:40:30.000Z</time>
      </trkpt>
      <trkpt lat="45.83714" lon="4.68426">
        <ele>326.23492</ele>
        <time>2023-07-30T13:40:31.000Z</time>
      </trkpt>
      <trkpt lat="45.83713" lon="4.6843">
        <ele>326.16315</ele>
        <time>2023-07-30T13:40:32.000Z</time>
      </trkpt>
      <trkpt lat="45.83711" lon="4.68434">
        <ele>326.08344</ele>
        <time>2023-07-30T13:40:33.000Z</time>
      </trkpt>
      <trkpt lat="45.83709" lon="4.68438">
        <ele>326.35165</ele>
        <time>2023-07-30T13:40:34.000Z</time>
      </trkpt>
      <trkpt lat="45.83708" lon="4.68442">
        <ele>326.63861</ele>
        <time>2023-07-30T13:40:35.000Z</time>
      </trkpt>
      <trkpt lat="45.83707" lon="4.68446">
        <ele>326.78094</ele>
        <time>2023-07-30T13:40:36.000Z</time>
      </trkpt>
      <trkpt lat="45.83705" lon="4.68449">
        <ele>326.8772</ele>
        <time>2023-07-30T13:40:37.000Z</time>
      </trkpt>
      <trkpt lat="45.83703" lon="4.68452">
        <ele>327.01434</ele>
        <time>2023-07-30T13:40:38.000Z</time>
      </trkpt>
      <trkpt lat="45.83701" lon="4.68454">
        <ele>327.32922</ele>
        <time>2023-07-30T13:40:39.000Z</time>
      </trkpt>
      <trkpt lat="45.83698" lon="4.68455">
        <ele>327.63751</ele>
        <time>2023-07-30T13:40:40.000Z</time>
      </trkpt>
      <trkpt lat="45.83695" lon="4.68454">
        <ele>327.94125</ele>
        <time>2023-07-30T13:40:41.000Z</time>
      </trkpt>
      <trkpt lat="45.83692" lon="4.68452">
        <ele>328.11728</ele>
        <time>2023-07-30T13:40:42.000Z</time>
      </trkpt>
      <trkpt lat="45.8369" lon="4.68448">
        <ele>328.30991</ele>
        <time>2023-07-30T13:40:43.000Z</time>
      </trkpt>
      <trkpt lat="45.83687" lon="4.68444">
        <ele>328.50116</ele>
        <time>2023-07-30T13:40:44.000Z</time>
      </trkpt>
      <trkpt lat="45.83684" lon="4.6844">
        <ele>328.68256</ele>
        <time>2023-07-30T13:40:45.000Z</time>
      </trkpt>
      <trkpt lat="45.83682" lon="4.68436">
        <ele>328.86642</ele>
        <time>2023-07-30T13:40:46.000Z</time>
      </trkpt>
      <trkpt lat="45.83679" lon="4.68432">
        <ele>329.02829</ele>
        <time>2023-07-30T13:40:47.000Z</time>
      </trkpt>
      <trkpt lat="45.83676" lon="4.68428">
        <ele>329.16641</ele>
        <time>2023-07-30T13:40:48.000Z</time>
      </trkpt>
      <trkpt lat="45.83673" lon="4.68424">
        <ele>329.29782</ele>
        <time>2023-07-30T13:40:49.000Z</time>
      </trkpt>
      <trkpt lat="45.8367" lon="4.6842">
        <ele>329.42291</ele>
        <time>2023-07-30T13:40:50.000Z</time>
      </trkpt>
      <trkpt lat="45.83668" lon="4.68416">
        <ele>329.52203</ele>
        <time>2023-07-30T13:40:51.000Z</time>
      </trkpt>
      <trkpt lat="45.83665" lon="4.68411">
        <ele>329.61755</ele>
        <time>2023-07-30T13:40:52.000Z</time>
      </trkpt>
      <trkpt lat="45.83663" lon="4.68406">
        <ele>329.69916</ele>
        <time>2023-07-30T13:40:53.000Z</time>
      </trkpt>
      <trkpt lat="45.8366" lon="4.684">
        <ele>329.75595</ele>
        <time>2023-07-30T13:40:54.000Z</time>
      </trkpt>
      <trkpt lat="45.83658" lon="4.68395">
        <ele>329.80685</ele>
        <time>2023-07-30T13:40:55.000Z</time>
      </trkpt>
      <trkpt lat="45.83655" lon="4.6839">
        <ele>329.84692</ele>
        <time>2023-07-30T13:40:56.000Z</time>
      </trkpt>
      <trkpt lat="45.83653" lon="4.68385">
        <ele>329.8913</ele>
        <time>2023-07-30T13:40:57.000Z</time>
      </trkpt>
      <trkpt lat="45.8365" lon="4.6838">
        <ele>329.86441</ele>
        <time>2023-07-30T13:40:58.000Z</time>
      </trkpt>
      <trkpt lat="45.83647" lon="4.68376">
        <ele>329.82697</ele>
        <time>2023-07-30T13:40:59.000Z</time>
      </trkpt>
      <trkpt lat="45.83645" lon="4.68371">
        <ele>329.7428</ele>
        <time>2023-07-30T13:41:00.000Z</time>
      </trkpt>
      <trkpt lat="45.83642" lon="4.68366">
        <ele>329.60364</ele>
        <time>2023-07-30T13:41:01.000Z</time>
      </trkpt>
      <trkpt lat="45.83639" lon="4.68361">
        <ele>329.57965</ele>
        <time>2023-07-30T13:41:02.000Z</time>
      </trkpt>
      <trkpt lat="45.83637" lon="4.68356">
        <ele>329.53513</ele>
        <time>2023-07-30T13:41:03.000Z</time>
      </trkpt>
      <trkpt lat="45.83634" lon="4.68351">
        <ele>329.51505</ele>
        <time>2023-07-30T13:41:04.000Z</time>
      </trkpt>
      <trkpt lat="45.83631" lon="4.68346">
        <ele>329.48776</ele>
        <time>2023-07-30T13:41:05.000Z</time>
      </trkpt>
      <trkpt lat="45.83629" lon="4.68341">
        <ele>329.45782</ele>
        <time>2023-07-30T13:41:06.000Z</time>
      </trkpt>
      <trkpt lat="45.83626" lon="4.68336">
        <ele>329.51569</ele>
        <time>2023-07-30T13:41:07.000Z</time>
      </trkpt>
      <trkpt lat="45.83623" lon="4.68331">
        <ele>329.46564</ele>
        <time>2023-07-30T13:41:08.000Z</time>
      </trkpt>
      <trkpt lat="45.8362" lon="4.68326">
        <ele>329.4183</ele>
        <time>2023-07-30T13:41:09.000Z</time>
      </trkpt>
      <trkpt lat="45.83617" lon="4.68322">
        <ele>329.36719</ele>
        <time>2023-07-30T13:41:10.000Z</time>
      </trkpt>
      <trkpt lat="45.83614" lon="4.68317">
        <ele>329.34589</ele>
        <time>2023-07-30T13:41:11.000Z</time>
      </trkpt>
      <trkpt lat="45.83612" lon="4.68312">
        <ele>329.29782</ele>
        <time>2023-07-30T13:41:12.000Z</time>
      </trkpt>
      <trkpt lat="45.83609" lon="4.68307">
        <ele>329.23456</ele>
        <time>2023-07-30T13:41:13.000Z</time>
      </trkpt>
      <trkpt lat="45.83606" lon="4.68303">
        <ele>329.17682</ele>
        <time>2023-07-30T13:41:14.000Z</time>
      </trkpt>
      <trkpt lat="45.83604" lon="4.68299">
        <ele>329.09631</ele>
        <time>2023-07-30T13:41:15.000Z</time>
      </trkpt>
      <trkpt lat="45.83602" lon="4.68294">
        <ele>329.02341</ele>
        <time>2023-07-30T13:41:16.000Z</time>
      </trkpt>
      <trkpt lat="45.836" lon="4.68289">
        <ele>328.94943</ele>
        <time>2023-07-30T13:41:17.000Z</time>
      </trkpt>
      <trkpt lat="45.83599" lon="4.68284">
        <ele>328.8891</ele>
        <time>2023-07-30T13:41:18.000Z</time>
      </trkpt>
      <trkpt lat="45.83598" lon="4.68279">
        <ele>328.83847</ele>
        <time>2023-07-30T13:41:19.000Z</time>
      </trkpt>
      <trkpt lat="45.83598" lon="4.68275">
        <ele>328.78314</ele>
        <time>2023-07-30T13:41:20.000Z</time>
      </trkpt>
      <trkpt lat="45.83597" lon="4.68269">
        <ele>328.74493</ele>
        <time>2023-07-30T13:41:21.000Z</time>
      </trkpt>
      <trkpt lat="45.83597" lon="4.68264">
        <ele>328.71185</ele>
        <time>2023-07-30T13:41:22.000Z</time>
      </trkpt>
      <trkpt lat="45.83598" lon="4.68258">
        <ele>328.71216</ele>
        <time>2023-07-30T13:41:23.000Z</time>
      </trkpt>
      <trkpt lat="45.83599" lon="4.68251">
        <ele>328.67715</ele>
        <time>2023-07-30T13:41:24.000Z</time>
      </trkpt>
      <trkpt lat="45.83601" lon="4.68244">
        <ele>328.63806</ele>
        <time>2023-07-30T13:41:25.000Z</time>
      </trkpt>
      <trkpt lat="45.83603" lon="4.68237">
        <ele>328.56592</ele>
        <time>2023-07-30T13:41:26.000Z</time>
      </trkpt>
      <trkpt lat="45.83606" lon="4.6823">
        <ele>328.40683</ele>
        <time>2023-07-30T13:41:27.000Z</time>
      </trkpt>
      <trkpt lat="45.83609" lon="4.68222">
        <ele>328.44766</ele>
        <time>2023-07-30T13:41:28.000Z</time>
      </trkpt>
      <trkpt lat="45.83612" lon="4.68215">
        <ele>328.48029</ele>
        <time>2023-07-30T13:41:29.000Z</time>
      </trkpt>
      <trkpt lat="45.83615" lon="4.68207">
        <ele>328.53525</ele>
        <time>2023-07-30T13:41:30.000Z</time>
      </trkpt>
      <trkpt lat="45.83618" lon="4.682">
        <ele>328.3847</ele>
        <time>2023-07-30T13:41:31.000Z</time>
      </trkpt>
      <trkpt lat="45.83621" lon="4.68192">
        <ele>328.26233</ele>
        <time>2023-07-30T13:41:32.000Z</time>
      </trkpt>
      <trkpt lat="45.83624" lon="4.68185">
        <ele>328.14789</ele>
        <time>2023-07-30T13:41:33.000Z</time>
      </trkpt>
      <trkpt lat="45.83627" lon="4.68177">
        <ele>328.04346</ele>
        <time>2023-07-30T13:41:34.000Z</time>
      </trkpt>
      <trkpt lat="45.8363" lon="4.6817">
        <ele>327.92929</ele>
        <time>2023-07-30T13:41:35.000Z</time>
      </trkpt>
      <trkpt lat="45.83633" lon="4.68162">
        <ele>327.81717</ele>
        <time>2023-07-30T13:41:36.000Z</time>
      </trkpt>
      <trkpt lat="45.83636" lon="4.68155">
        <ele>327.70178</ele>
        <time>2023-07-30T13:41:37.000Z</time>
      </trkpt>
      <trkpt lat="45.83639" lon="4.68149">
        <ele>327.57883</ele>
        <time>2023-07-30T13:41:38.000Z</time>
      </trkpt>
      <trkpt lat="45.83642" lon="4.68142">
        <ele>327.43857</ele>
        <time>2023-07-30T13:41:39.000Z</time>
      </trkpt>
      <trkpt lat="45.83646" lon="4.68136">
        <ele>327.31247</ele>
        <time>2023-07-30T13:41:40.000Z</time>
      </trkpt>
      <trkpt lat="45.8365" lon="4.6813">
        <ele>327.19611</ele>
        <time>2023-07-30T13:41:41.000Z</time>
      </trkpt>
      <trkpt lat="45.83654" lon="4.68125">
        <ele>327.06647</ele>
        <time>2023-07-30T13:41:42.000Z</time>
      </trkpt>
      <trkpt lat="45.83658" lon="4.68119">
        <ele>326.90948</ele>
        <time>2023-07-30T13:41:43.000Z</time>
      </trkpt>
      <trkpt lat="45.83662" lon="4.68114">
        <ele>326.73553</ele>
        <time>2023-07-30T13:41:44.000Z</time>
      </trkpt>
      <trkpt lat="45.83667" lon="4.68108">
        <ele>326.58664</ele>
        <time>2023-07-30T13:41:45.000Z</time>
      </trkpt>
      <trkpt lat="45.83671" lon="4.68102">
        <ele>326.45721</ele>
        <time>2023-07-30T13:41:46.000Z</time>
      </trkpt>
      <trkpt lat="45.83676" lon="4.68097">
        <ele>326.3165</ele>
        <time>2023-07-30T13:41:47.000Z</time>
      </trkpt>
      <trkpt lat="45.8368" lon="4.68091">
        <ele>326.07147</ele>
        <time>2023-07-30T13:41:48.000Z</time>
      </trkpt>
      <trkpt lat="45.83685" lon="4.68086">
        <ele>325.83527</ele>
        <time>2023-07-30T13:41:49.000Z</time>
      </trkpt>
      <trkpt lat="45.83689" lon="4.68081">
        <ele>325.68784</ele>
        <time>2023-07-30T13:41:50.000Z</time>
      </trkpt>
      <trkpt lat="45.83693" lon="4.68076">
        <ele>325.59052</ele>
        <time>2023-07-30T13:41:51.000Z</time>
      </trkpt>
      <trkpt lat="45.83696" lon="4.68071">
        <ele>325.46158</ele>
        <time>2023-07-30T13:41:52.000Z</time>
      </trkpt>
      <trkpt lat="45.83697" lon="4.68064">
        <ele>325.33862</ele>
        <time>2023-07-30T13:41:53.000Z</time>
      </trkpt>
      <trkpt lat="45.83697" lon="4.68058">
        <ele>324.8912</ele>
        <time>2023-07-30T13:41:54.000Z</time>
      </trkpt>
      <trkpt lat="45.83696" lon="4.68052">
        <ele>324.46378</ele>
        <time>2023-07-30T13:41:55.000Z</time>
      </trkpt>
      <trkpt lat="45.83694" lon="4.68047">
        <ele>324.03522</ele>
        <time>2023-07-30T13:41:56.000Z</time>
      </trkpt>
      <trkpt lat="45.8369" lon="4.68043">
        <ele>323.59598</ele>
        <time>2023-07-30T13:41:57.000Z</time>
      </trkpt>
      <trkpt lat="45.83687" lon="4.68038">
        <ele>323.17261</ele>
        <time>2023-07-30T13:41:58.000Z</time>
      </trkpt>
      <trkpt lat="45.83685" lon="4.68034">
        <ele>322.77402</ele>
        <time>2023-07-30T13:41:59.000Z</time>
      </trkpt>
      <trkpt lat="45.83682" lon="4.6803">
        <ele>322.37234</ele>
        <time>2023-07-30T13:42:00.000Z</time>
      </trkpt>
      <trkpt lat="45.83679" lon="4.68026">
        <ele>321.99585</ele>
        <time>2023-07-30T13:42:01.000Z</time>
      </trkpt>
      <trkpt lat="45.83676" lon="4.68022">
        <ele>321.67334</ele>
        <time>2023-07-30T13:42:02.000Z</time>
      </trkpt>
      <trkpt lat="45.83672" lon="4.68018">
        <ele>321.37918</ele>
        <time>2023-07-30T13:42:03.000Z</time>
      </trkpt>
      <trkpt lat="45.8367" lon="4.68012">
        <ele>321.09564</ele>
        <time>2023-07-30T13:42:04.000Z</time>
      </trkpt>
      <trkpt lat="45.83666" lon="4.68008">
        <ele>320.80182</ele>
        <time>2023-07-30T13:42:05.000Z</time>
      </trkpt>
      <trkpt lat="45.83663" lon="4.68004">
        <ele>320.54428</ele>
        <time>2023-07-30T13:42:06.000Z</time>
      </trkpt>
      <trkpt lat="45.8366" lon="4.68">
        <ele>320.30649</ele>
        <time>2023-07-30T13:42:07.000Z</time>
      </trkpt>
      <trkpt lat="45.83657" lon="4.67998">
        <ele>320.11984</ele>
        <time>2023-07-30T13:42:08.000Z</time>
      </trkpt>
      <trkpt lat="45.83652" lon="4.67992">
        <ele>319.91479</ele>
        <time>2023-07-30T13:42:09.000Z</time>
      </trkpt>
      <trkpt lat="45.83649" lon="4.67986">
        <ele>319.56113</ele>
        <time>2023-07-30T13:42:10.000Z</time>
      </trkpt>
      <trkpt lat="45.83647" lon="4.67982">
        <ele>319.40558</ele>
        <time>2023-07-30T13:42:11.000Z</time>
      </trkpt>
      <trkpt lat="45.83642" lon="4.67979">
        <ele>319.28189</ele>
        <time>2023-07-30T13:42:12.000Z</time>
      </trkpt>
      <trkpt lat="45.83639" lon="4.67976">
        <ele>319.1481</ele>
        <time>2023-07-30T13:42:13.000Z</time>
      </trkpt>
      <trkpt lat="45.83636" lon="4.67972">
        <ele>319.31409</ele>
        <time>2023-07-30T13:42:14.000Z</time>
      </trkpt>
      <trkpt lat="45.83633" lon="4.67968">
        <ele>319.48248</ele>
        <time>2023-07-30T13:42:15.000Z</time>
      </trkpt>
      <trkpt lat="45.8363" lon="4.67963">
        <ele>319.59485</ele>
        <time>2023-07-30T13:42:16.000Z</time>
      </trkpt>
      <trkpt lat="45.83626" lon="4.67961">
        <ele>319.68958</ele>
        <time>2023-07-30T13:42:17.000Z</time>
      </trkpt>
      <trkpt lat="45.83622" lon="4.67957">
        <ele>319.79269</ele>
        <time>2023-07-30T13:42:18.000Z</time>
      </trkpt>
      <trkpt lat="45.83618" lon="4.67953">
        <ele>319.86725</ele>
        <time>2023-07-30T13:42:19.000Z</time>
      </trkpt>
      <trkpt lat="45.83614" lon="4.67949">
        <ele>319.94833</ele>
        <time>2023-07-30T13:42:20.000Z</time>
      </trkpt>
      <trkpt lat="45.8361" lon="4.67946">
        <ele>320.00458</ele>
        <time>2023-07-30T13:42:21.000Z</time>
      </trkpt>
      <trkpt lat="45.83606" lon="4.67943">
        <ele>320.01617</ele>
        <time>2023-07-30T13:42:22.000Z</time>
      </trkpt>
      <trkpt lat="45.83602" lon="4.67941">
        <ele>320.04538</ele>
        <time>2023-07-30T13:42:23.000Z</time>
      </trkpt>
      <trkpt lat="45.83598" lon="4.67938">
        <ele>320.08685</ele>
        <time>2023-07-30T13:42:24.000Z</time>
      </trkpt>
      <trkpt lat="45.83595" lon="4.67934">
        <ele>320.09256</ele>
        <time>2023-07-30T13:42:25.000Z</time>
      </trkpt>
      <trkpt lat="45.8359" lon="4.67932">
        <ele>320.07019</ele>
        <time>2023-07-30T13:42:26.000Z</time>
      </trkpt>
      <trkpt lat="45.83585" lon="4.67929">
        <ele>320.08124</ele>
        <time>2023-07-30T13:42:27.000Z</time>
      </trkpt>
      <trkpt lat="45.8358" lon="4.67926">
        <ele>320.08194</ele>
        <time>2023-07-30T13:42:28.000Z</time>
      </trkpt>
      <trkpt lat="45.83576" lon="4.67923">
        <ele>320.134</ele>
        <time>2023-07-30T13:42:29.000Z</time>
      </trkpt>
      <trkpt lat="45.8357" lon="4.6792">
        <ele>320.20599</ele>
        <time>2023-07-30T13:42:30.000Z</time>
      </trkpt>
      <trkpt lat="45.83565" lon="4.67916">
        <ele>320.21286</ele>
        <time>2023-07-30T13:42:31.000Z</time>
      </trkpt>
      <trkpt lat="45.8356" lon="4.67911">
        <ele>320.19135</ele>
        <time>2023-07-30T13:42:32.000Z</time>
      </trkpt>
      <trkpt lat="45.83555" lon="4.67907">
        <ele>320.21768</ele>
        <time>2023-07-30T13:42:33.000Z</time>
      </trkpt>
      <trkpt lat="45.8355" lon="4.67902">
        <ele>320.26532</ele>
        <time>2023-07-30T13:42:34.000Z</time>
      </trkpt>
      <trkpt lat="45.83547" lon="4.67896">
        <ele>320.27954</ele>
        <time>2023-07-30T13:42:35.000Z</time>
      </trkpt>
      <trkpt lat="45.83543" lon="4.67892">
        <ele>320.34802</ele>
        <time>2023-07-30T13:42:36.000Z</time>
      </trkpt>
      <trkpt lat="45.8354" lon="4.67886">
        <ele>320.5014</ele>
        <time>2023-07-30T13:42:37.000Z</time>
      </trkpt>
      <trkpt lat="45.83537" lon="4.67878">
        <ele>320.60681</ele>
        <time>2023-07-30T13:42:38.000Z</time>
      </trkpt>
      <trkpt lat="45.83533" lon="4.67872">
        <ele>320.73248</ele>
        <time>2023-07-30T13:42:39.000Z</time>
      </trkpt>
      <trkpt lat="45.8353" lon="4.67866">
        <ele>320.82281</ele>
        <time>2023-07-30T13:42:40.000Z</time>
      </trkpt>
      <trkpt lat="45.83528" lon="4.6786">
        <ele>320.9285</ele>
        <time>2023-07-30T13:42:41.000Z</time>
      </trkpt>
      <trkpt lat="45.83524" lon="4.67857">
        <ele>321.00824</ele>
        <time>2023-07-30T13:42:42.000Z</time>
      </trkpt>
      <trkpt lat="45.8352" lon="4.67852">
        <ele>321.05035</ele>
        <time>2023-07-30T13:42:43.000Z</time>
      </trkpt>
      <trkpt lat="45.83517" lon="4.67848">
        <ele>321.15204</ele>
        <time>2023-07-30T13:42:44.000Z</time>
      </trkpt>
      <trkpt lat="45.83513" lon="4.67844">
        <ele>321.25677</ele>
        <time>2023-07-30T13:42:45.000Z</time>
      </trkpt>
      <trkpt lat="45.83509" lon="4.6784">
        <ele>321.38876</ele>
        <time>2023-07-30T13:42:46.000Z</time>
      </trkpt>
      <trkpt lat="45.83505" lon="4.67837">
        <ele>321.48553</ele>
        <time>2023-07-30T13:42:47.000Z</time>
      </trkpt>
      <trkpt lat="45.83501" lon="4.67834">
        <ele>321.54413</ele>
        <time>2023-07-30T13:42:48.000Z</time>
      </trkpt>
      <trkpt lat="45.83497" lon="4.6783">
        <ele>321.586</ele>
        <time>2023-07-30T13:42:49.000Z</time>
      </trkpt>
      <trkpt lat="45.83493" lon="4.67828">
        <ele>321.65692</ele>
        <time>2023-07-30T13:42:50.000Z</time>
      </trkpt>
      <trkpt lat="45.83489" lon="4.67824">
        <ele>321.80948</ele>
        <time>2023-07-30T13:42:51.000Z</time>
      </trkpt>
      <trkpt lat="45.83484" lon="4.6782">
        <ele>321.91248</ele>
        <time>2023-07-30T13:42:52.000Z</time>
      </trkpt>
      <trkpt lat="45.83478" lon="4.67819">
        <ele>321.97775</ele>
        <time>2023-07-30T13:42:53.000Z</time>
      </trkpt>
      <trkpt lat="45.83472" lon="4.67815">
        <ele>322.04169</ele>
        <time>2023-07-30T13:42:54.000Z</time>
      </trkpt>
      <trkpt lat="45.83466" lon="4.67814">
        <ele>322.11676</ele>
        <time>2023-07-30T13:42:55.000Z</time>
      </trkpt>
      <trkpt lat="45.8346" lon="4.67812">
        <ele>322.17722</ele>
        <time>2023-07-30T13:42:56.000Z</time>
      </trkpt>
      <trkpt lat="45.83455" lon="4.67808">
        <ele>322.13034</ele>
        <time>2023-07-30T13:42:57.000Z</time>
      </trkpt>
      <trkpt lat="45.8345" lon="4.67801">
        <ele>322.08673</ele>
        <time>2023-07-30T13:42:58.000Z</time>
      </trkpt>
      <trkpt lat="45.83446" lon="4.67795">
        <ele>322.11957</ele>
        <time>2023-07-30T13:42:59.000Z</time>
      </trkpt>
      <trkpt lat="45.83444" lon="4.67787">
        <ele>322.15839</ele>
        <time>2023-07-30T13:43:00.000Z</time>
      </trkpt>
      <trkpt lat="45.83443" lon="4.67779">
        <ele>322.48114</ele>
        <time>2023-07-30T13:43:01.000Z</time>
      </trkpt>
      <trkpt lat="45.83441" lon="4.67771">
        <ele>322.83258</ele>
        <time>2023-07-30T13:43:02.000Z</time>
      </trkpt>
      <trkpt lat="45.83441" lon="4.67763">
        <ele>323.14536</ele>
        <time>2023-07-30T13:43:03.000Z</time>
      </trkpt>
      <trkpt lat="45.8344" lon="4.67756">
        <ele>323.10086</ele>
        <time>2023-07-30T13:43:04.000Z</time>
      </trkpt>
      <trkpt lat="45.83439" lon="4.67749">
        <ele>323.10757</ele>
        <time>2023-07-30T13:43:05.000Z</time>
      </trkpt>
      <trkpt lat="45.83437" lon="4.67743">
        <ele>323.10904</ele>
        <time>2023-07-30T13:43:06.000Z</time>
      </trkpt>
      <trkpt lat="45.83435" lon="4.67737">
        <ele>323.09729</ele>
        <time>2023-07-30T13:43:07.000Z</time>
      </trkpt>
      <trkpt lat="45.83433" lon="4.67731">
        <ele>323.11307</ele>
        <time>2023-07-30T13:43:08.000Z</time>
      </trkpt>
      <trkpt lat="45.8343" lon="4.67726">
        <ele>323.08569</ele>
        <time>2023-07-30T13:43:09.000Z</time>
      </trkpt>
      <trkpt lat="45.83427" lon="4.67721">
        <ele>323.11319</ele>
        <time>2023-07-30T13:43:10.000Z</time>
      </trkpt>
      <trkpt lat="45.83423" lon="4.67718">
        <ele>323.4165</ele>
        <time>2023-07-30T13:43:11.000Z</time>
      </trkpt>
      <trkpt lat="45.83419" lon="4.67713">
        <ele>323.7807</ele>
        <time>2023-07-30T13:43:12.000Z</time>
      </trkpt>
      <trkpt lat="45.83416" lon="4.67709">
        <ele>324.14108</ele>
        <time>2023-07-30T13:43:13.000Z</time>
      </trkpt>
      <trkpt lat="45.83412" lon="4.67706">
        <ele>324.52496</ele>
        <time>2023-07-30T13:43:14.000Z</time>
      </trkpt>
      <trkpt lat="45.83408" lon="4.67702">
        <ele>324.92767</ele>
        <time>2023-07-30T13:43:15.000Z</time>
      </trkpt>
      <trkpt lat="45.83405" lon="4.67698">
        <ele>325.42426</ele>
        <time>2023-07-30T13:43:16.000Z</time>
      </trkpt>
      <trkpt lat="45.834" lon="4.67695">
        <ele>325.9827</ele>
        <time>2023-07-30T13:43:17.000Z</time>
      </trkpt>
      <trkpt lat="45.83397" lon="4.67693">
        <ele>326.59512</ele>
        <time>2023-07-30T13:43:18.000Z</time>
      </trkpt>
      <trkpt lat="45.83392" lon="4.67692">
        <ele>327.13211</ele>
        <time>2023-07-30T13:43:19.000Z</time>
      </trkpt>
      <trkpt lat="45.83386" lon="4.6769">
        <ele>327.67328</ele>
        <time>2023-07-30T13:43:20.000Z</time>
      </trkpt>
      <trkpt lat="45.83383" lon="4.67687">
        <ele>327.81799</ele>
        <time>2023-07-30T13:43:21.000Z</time>
      </trkpt>
      <trkpt lat="45.83378" lon="4.67684">
        <ele>327.97968</ele>
        <time>2023-07-30T13:43:22.000Z</time>
      </trkpt>
      <trkpt lat="45.83374" lon="4.67681">
        <ele>328.1734</ele>
        <time>2023-07-30T13:43:23.000Z</time>
      </trkpt>
      <trkpt lat="45.83369" lon="4.67677">
        <ele>328.67471</ele>
        <time>2023-07-30T13:43:24.000Z</time>
      </trkpt>
      <trkpt lat="45.83364" lon="4.67675">
        <ele>329.1192</ele>
        <time>2023-07-30T13:43:25.000Z</time>
      </trkpt>
      <trkpt lat="45.8336" lon="4.67672">
        <ele>329.54861</ele>
        <time>2023-07-30T13:43:26.000Z</time>
      </trkpt>
      <trkpt lat="45.83356" lon="4.67669">
        <ele>329.98285</ele>
        <time>2023-07-30T13:43:27.000Z</time>
      </trkpt>
      <trkpt lat="45.83351" lon="4.67666">
        <ele>330.36972</ele>
        <time>2023-07-30T13:43:28.000Z</time>
      </trkpt>
      <trkpt lat="45.83347" lon="4.67663">
        <ele>330.81268</ele>
        <time>2023-07-30T13:43:29.000Z</time>
      </trkpt>
      <trkpt lat="45.83342" lon="4.6766">
        <ele>331.18292</ele>
        <time>2023-07-30T13:43:30.000Z</time>
      </trkpt>
      <trkpt lat="45.83337" lon="4.67657">
        <ele>331.23087</ele>
        <time>2023-07-30T13:43:31.000Z</time>
      </trkpt>
      <trkpt lat="45.83332" lon="4.67654">
        <ele>331.29022</ele>
        <time>2023-07-30T13:43:32.000Z</time>
      </trkpt>
      <trkpt lat="45.83328" lon="4.67652">
        <ele>331.35184</ele>
        <time>2023-07-30T13:43:33.000Z</time>
      </trkpt>
      <trkpt lat="45.83324" lon="4.6765">
        <ele>331.41882</ele>
        <time>2023-07-30T13:43:34.000Z</time>
      </trkpt>
      <trkpt lat="45.8332" lon="4.67649">
        <ele>331.46127</ele>
        <time>2023-07-30T13:43:35.000Z</time>
      </trkpt>
      <trkpt lat="45.83316" lon="4.67648">
        <ele>331.44635</ele>
        <time>2023-07-30T13:43:36.000Z</time>
      </trkpt>
      <trkpt lat="45.83312" lon="4.67645">
        <ele>331.44998</ele>
        <time>2023-07-30T13:43:37.000Z</time>
      </trkpt>
      <trkpt lat="45.83308" lon="4.67644">
        <ele>331.46927</ele>
        <time>2023-07-30T13:43:38.000Z</time>
      </trkpt>
      <trkpt lat="45.83304" lon="4.67642">
        <ele>331.37891</ele>
        <time>2023-07-30T13:43:39.000Z</time>
      </trkpt>
      <trkpt lat="45.833" lon="4.67641">
        <ele>331.36725</ele>
        <time>2023-07-30T13:43:40.000Z</time>
      </trkpt>
      <trkpt lat="45.83296" lon="4.67641">
        <ele>331.44525</ele>
        <time>2023-07-30T13:43:41.000Z</time>
      </trkpt>
      <trkpt lat="45.8329" lon="4.67639">
        <ele>331.52655</ele>
        <time>2023-07-30T13:43:42.000Z</time>
      </trkpt>
      <trkpt lat="45.83286" lon="4.67637">
        <ele>331.59616</ele>
        <time>2023-07-30T13:43:43.000Z</time>
      </trkpt>
      <trkpt lat="45.83281" lon="4.67637">
        <ele>331.6701</ele>
        <time>2023-07-30T13:43:44.000Z</time>
      </trkpt>
      <trkpt lat="45.83275" lon="4.67636">
        <ele>331.76178</ele>
        <time>2023-07-30T13:43:45.000Z</time>
      </trkpt>
      <trkpt lat="45.83269" lon="4.67635">
        <ele>331.89716</ele>
        <time>2023-07-30T13:43:46.000Z</time>
      </trkpt>
      <trkpt lat="45.83263" lon="4.67633">
        <ele>331.99313</ele>
        <time>2023-07-30T13:43:47.000Z</time>
      </trkpt>
      <trkpt lat="45.83257" lon="4.67632">
        <ele>332.1474</ele>
        <time>2023-07-30T13:43:48.000Z</time>
      </trkpt>
      <trkpt lat="45.83251" lon="4.67629">
        <ele>332.15146</ele>
        <time>2023-07-30T13:43:49.000Z</time>
      </trkpt>
      <trkpt lat="45.83245" lon="4.67624">
        <ele>332.18085</ele>
        <time>2023-07-30T13:43:50.000Z</time>
      </trkpt>
      <trkpt lat="45.83242" lon="4.67616">
        <ele>332.19156</ele>
        <time>2023-07-30T13:43:51.000Z</time>
      </trkpt>
      <trkpt lat="45.83239" lon="4.67607">
        <ele>332.16006</ele>
        <time>2023-07-30T13:43:52.000Z</time>
      </trkpt>
      <trkpt lat="45.83239" lon="4.67598">
        <ele>332.12494</ele>
        <time>2023-07-30T13:43:53.000Z</time>
      </trkpt>
      <trkpt lat="45.8324" lon="4.6759">
        <ele>332.04227</ele>
        <time>2023-07-30T13:43:54.000Z</time>
      </trkpt>
      <trkpt lat="45.83242" lon="4.67582">
        <ele>331.98535</ele>
        <time>2023-07-30T13:43:55.000Z</time>
      </trkpt>
      <trkpt lat="45.83243" lon="4.67576">
        <ele>331.92249</ele>
        <time>2023-07-30T13:43:56.000Z</time>
      </trkpt>
      <trkpt lat="45.83244" lon="4.6757">
        <ele>331.84341</ele>
        <time>2023-07-30T13:43:57.000Z</time>
      </trkpt>
      <trkpt lat="45.83245" lon="4.67564">
        <ele>331.74234</ele>
        <time>2023-07-30T13:43:58.000Z</time>
      </trkpt>
      <trkpt lat="45.83245" lon="4.67559">
        <ele>331.74921</ele>
        <time>2023-07-30T13:43:59.000Z</time>
      </trkpt>
      <trkpt lat="45.83245" lon="4.67553">
        <ele>331.68164</ele>
        <time>2023-07-30T13:44:00.000Z</time>
      </trkpt>
      <trkpt lat="45.83244" lon="4.67547">
        <ele>331.6333</ele>
        <time>2023-07-30T13:44:01.000Z</time>
      </trkpt>
      <trkpt lat="45.83241" lon="4.67542">
        <ele>331.59369</ele>
        <time>2023-07-30T13:44:02.000Z</time>
      </trkpt>
      <trkpt lat="45.83239" lon="4.67537">
        <ele>331.58771</ele>
        <time>2023-07-30T13:44:03.000Z</time>
      </trkpt>
      <trkpt lat="45.83235" lon="4.67532">
        <ele>331.22269</ele>
        <time>2023-07-30T13:44:04.000Z</time>
      </trkpt>
      <trkpt lat="45.83231" lon="4.67528">
        <ele>330.86139</ele>
        <time>2023-07-30T13:44:05.000Z</time>
      </trkpt>
      <trkpt lat="45.83228" lon="4.67524">
        <ele>330.48099</ele>
        <time>2023-07-30T13:44:06.000Z</time>
      </trkpt>
      <trkpt lat="45.83223" lon="4.6752">
        <ele>330.15631</ele>
        <time>2023-07-30T13:44:07.000Z</time>
      </trkpt>
      <trkpt lat="45.83219" lon="4.67517">
        <ele>329.82562</ele>
        <time>2023-07-30T13:44:08.000Z</time>
      </trkpt>
      <trkpt lat="45.83214" lon="4.67514">
        <ele>329.6145</ele>
        <time>2023-07-30T13:44:09.000Z</time>
      </trkpt>
      <trkpt lat="45.83209" lon="4.6751">
        <ele>329.39642</ele>
        <time>2023-07-30T13:44:10.000Z</time>
      </trkpt>
      <trkpt lat="45.83205" lon="4.67505">
        <ele>329.20868</ele>
        <time>2023-07-30T13:44:11.000Z</time>
      </trkpt>
      <trkpt lat="45.83202" lon="4.67502">
        <ele>329.05511</ele>
        <time>2023-07-30T13:44:12.000Z</time>
      </trkpt>
      <trkpt lat="45.83198" lon="4.67499">
        <ele>328.89911</ele>
        <time>2023-07-30T13:44:13.000Z</time>
      </trkpt>
      <trkpt lat="45.83194" lon="4.67494">
        <ele>328.75552</ele>
        <time>2023-07-30T13:44:14.000Z</time>
      </trkpt>
      <trkpt lat="45.8319" lon="4.67491">
        <ele>328.59271</ele>
        <time>2023-07-30T13:44:15.000Z</time>
      </trkpt>
      <trkpt lat="45.83186" lon="4.67485">
        <ele>328.41638</ele>
        <time>2023-07-30T13:44:16.000Z</time>
      </trkpt>
      <trkpt lat="45.83181" lon="4.6748">
        <ele>328.22452</ele>
        <time>2023-07-30T13:44:17.000Z</time>
      </trkpt>
      <trkpt lat="45.83176" lon="4.67477">
        <ele>328.02451</ele>
        <time>2023-07-30T13:44:18.000Z</time>
      </trkpt>
      <trkpt lat="45.83171" lon="4.67473">
        <ele>328.2431</ele>
        <time>2023-07-30T13:44:19.000Z</time>
      </trkpt>
      <trkpt lat="45.83166" lon="4.6747">
        <ele>328.48785</ele>
        <time>2023-07-30T13:44:20.000Z</time>
      </trkpt>
      <trkpt lat="45.8316" lon="4.6747">
        <ele>328.6416</ele>
        <time>2023-07-30T13:44:21.000Z</time>
      </trkpt>
      <trkpt lat="45.83155" lon="4.67471">
        <ele>328.78796</ele>
        <time>2023-07-30T13:44:22.000Z</time>
      </trkpt>
      <trkpt lat="45.83149" lon="4.67472">
        <ele>328.8996</ele>
        <time>2023-07-30T13:44:23.000Z</time>
      </trkpt>
      <trkpt lat="45.83144" lon="4.6747">
        <ele>329.34894</ele>
        <time>2023-07-30T13:44:24.000Z</time>
      </trkpt>
      <trkpt lat="45.83141" lon="4.67466">
        <ele>329.77994</ele>
        <time>2023-07-30T13:44:25.000Z</time>
      </trkpt>
      <trkpt lat="45.83139" lon="4.67463">
        <ele>330.18253</ele>
        <time>2023-07-30T13:44:26.000Z</time>
      </trkpt>
      <trkpt lat="45.83142" lon="4.67458">
        <ele>330.52777</ele>
        <time>2023-07-30T13:44:27.000Z</time>
      </trkpt>
      <trkpt lat="45.83143" lon="4.67454">
        <ele>330.95242</ele>
        <time>2023-07-30T13:44:28.000Z</time>
      </trkpt>
      <trkpt lat="45.83145" lon="4.67451">
        <ele>331.34024</ele>
        <time>2023-07-30T13:44:29.000Z</time>
      </trkpt>
      <trkpt lat="45.83147" lon="4.67448">
        <ele>331.71393</ele>
        <time>2023-07-30T13:44:30.000Z</time>
      </trkpt>
      <trkpt lat="45.8315" lon="4.67445">
        <ele>332.06033</ele>
        <time>2023-07-30T13:44:31.000Z</time>
      </trkpt>
      <trkpt lat="45.83153" lon="4.67442">
        <ele>332.3858</ele>
        <time>2023-07-30T13:44:32.000Z</time>
      </trkpt>
      <trkpt lat="45.83156" lon="4.6744">
        <ele>332.70502</ele>
        <time>2023-07-30T13:44:33.000Z</time>
      </trkpt>
      <trkpt lat="45.83159" lon="4.67439">
        <ele>333.06189</ele>
        <time>2023-07-30T13:44:34.000Z</time>
      </trkpt>
      <trkpt lat="45.83163" lon="4.67438">
        <ele>333.42078</ele>
        <time>2023-07-30T13:44:35.000Z</time>
      </trkpt>
      <trkpt lat="45.83166" lon="4.67436">
        <ele>333.68655</ele>
        <time>2023-07-30T13:44:36.000Z</time>
      </trkpt>
      <trkpt lat="45.8317" lon="4.67434">
        <ele>333.9809</ele>
        <time>2023-07-30T13:44:37.000Z</time>
      </trkpt>
      <trkpt lat="45.83173" lon="4.67432">
        <ele>334.2973</ele>
        <time>2023-07-30T13:44:38.000Z</time>
      </trkpt>
      <trkpt lat="45.83177" lon="4.6743">
        <ele>334.18106</ele>
        <time>2023-07-30T13:44:39.000Z</time>
      </trkpt>
      <trkpt lat="45.83181" lon="4.67429">
        <ele>334.05255</ele>
        <time>2023-07-30T13:44:40.000Z</time>
      </trkpt>
      <trkpt lat="45.83185" lon="4.67426">
        <ele>334.03098</ele>
        <time>2023-07-30T13:44:41.000Z</time>
      </trkpt>
      <trkpt lat="45.8319" lon="4.67423">
        <ele>333.98547</ele>
        <time>2023-07-30T13:44:42.000Z</time>
      </trkpt>
      <trkpt lat="45.83194" lon="4.67421">
        <ele>334.01913</ele>
        <time>2023-07-30T13:44:43.000Z</time>
      </trkpt>
      <trkpt lat="45.83197" lon="4.67418">
        <ele>334.06772</ele>
        <time>2023-07-30T13:44:44.000Z</time>
      </trkpt>
      <trkpt lat="45.832" lon="4.67415">
        <ele>334.17236</ele>
        <time>2023-07-30T13:44:45.000Z</time>
      </trkpt>
      <trkpt lat="45.83203" lon="4.67411">
        <ele>334.30679</ele>
        <time>2023-07-30T13:44:46.000Z</time>
      </trkpt>
      <trkpt lat="45.83207" lon="4.67407">
        <ele>334.49237</ele>
        <time>2023-07-30T13:44:47.000Z</time>
      </trkpt>
      <trkpt lat="45.8321" lon="4.67403">
        <ele>334.58868</ele>
        <time>2023-07-30T13:44:48.000Z</time>
      </trkpt>
      <trkpt lat="45.83213" lon="4.67399">
        <ele>334.73865</ele>
        <time>2023-07-30T13:44:49.000Z</time>
      </trkpt>
      <trkpt lat="45.83216" lon="4.67395">
        <ele>334.90521</ele>
        <time>2023-07-30T13:44:50.000Z</time>
      </trkpt>
      <trkpt lat="45.83219" lon="4.67392">
        <ele>335.05887</ele>
        <time>2023-07-30T13:44:51.000Z</time>
      </trkpt>
      <trkpt lat="45.83222" lon="4.67389">
        <ele>335.25522</ele>
        <time>2023-07-30T13:44:52.000Z</time>
      </trkpt>
      <trkpt lat="45.83225" lon="4.67388">
        <ele>335.49152</ele>
        <time>2023-07-30T13:44:53.000Z</time>
      </trkpt>
      <trkpt lat="45.83227" lon="4.67386">
        <ele>335.71713</ele>
        <time>2023-07-30T13:44:54.000Z</time>
      </trkpt>
      <trkpt lat="45.8323" lon="4.67384">
        <ele>336.00537</ele>
        <time>2023-07-30T13:44:55.000Z</time>
      </trkpt>
      <trkpt lat="45.83232" lon="4.67383">
        <ele>336.39844</ele>
        <time>2023-07-30T13:44:56.000Z</time>
      </trkpt>
      <trkpt lat="45.83234" lon="4.67383">
        <ele>336.78622</ele>
        <time>2023-07-30T13:44:57.000Z</time>
      </trkpt>
      <trkpt lat="45.83236" lon="4.67384">
        <ele>337.16632</ele>
        <time>2023-07-30T13:44:58.000Z</time>
      </trkpt>
      <trkpt lat="45.83239" lon="4.67387">
        <ele>337.53229</ele>
        <time>2023-07-30T13:44:59.000Z</time>
      </trkpt>
      <trkpt lat="45.83242" lon="4.67391">
        <ele>337.90399</ele>
        <time>2023-07-30T13:45:00.000Z</time>
      </trkpt>
      <trkpt lat="45.83245" lon="4.67396">
        <ele>338.23724</ele>
        <time>2023-07-30T13:45:01.000Z</time>
      </trkpt>
      <trkpt lat="45.83247" lon="4.67401">
        <ele>338.59418</ele>
        <time>2023-07-30T13:45:02.000Z</time>
      </trkpt>
      <trkpt lat="45.8325" lon="4.67407">
        <ele>338.86801</ele>
        <time>2023-07-30T13:45:03.000Z</time>
      </trkpt>
      <trkpt lat="45.83253" lon="4.67412">
        <ele>339.14554</ele>
        <time>2023-07-30T13:45:04.000Z</time>
      </trkpt>
      <trkpt lat="45.83255" lon="4.67418">
        <ele>339.41113</ele>
        <time>2023-07-30T13:45:05.000Z</time>
      </trkpt>
      <trkpt lat="45.83258" lon="4.67423">
        <ele>339.65915</ele>
        <time>2023-07-30T13:45:06.000Z</time>
      </trkpt>
      <trkpt lat="45.83261" lon="4.67427">
        <ele>339.91534</ele>
        <time>2023-07-30T13:45:07.000Z</time>
      </trkpt>
      <trkpt lat="45.83265" lon="4.67429">
        <ele>340.15143</ele>
        <time>2023-07-30T13:45:08.000Z</time>
      </trkpt>
      <trkpt lat="45.83269" lon="4.67431">
        <ele>340.38583</ele>
        <time>2023-07-30T13:45:09.000Z</time>
      </trkpt>
      <trkpt lat="45.83273" lon="4.67431">
        <ele>340.59772</ele>
        <time>2023-07-30T13:45:10.000Z</time>
      </trkpt>
      <trkpt lat="45.83277" lon="4.67431">
        <ele>340.79572</ele>
        <time>2023-07-30T13:45:11.000Z</time>
      </trkpt>
      <trkpt lat="45.83281" lon="4.67431">
        <ele>340.96936</ele>
        <time>2023-07-30T13:45:12.000Z</time>
      </trkpt>
      <trkpt lat="45.83284" lon="4.67431">
        <ele>341.11304</ele>
        <time>2023-07-30T13:45:13.000Z</time>
      </trkpt>
      <trkpt lat="45.83288" lon="4.67431">
        <ele>341.25598</ele>
        <time>2023-07-30T13:45:14.000Z</time>
      </trkpt>
      <trkpt lat="45.83292" lon="4.67431">
        <ele>341.32516</ele>
        <time>2023-07-30T13:45:15.000Z</time>
      </trkpt>
      <trkpt lat="45.83294" lon="4.67432">
        <ele>341.35803</ele>
        <time>2023-07-30T13:45:16.000Z</time>
      </trkpt>
      <trkpt lat="45.83297" lon="4.67432">
        <ele>341.38022</ele>
        <time>2023-07-30T13:45:17.000Z</time>
      </trkpt>
      <trkpt lat="45.833" lon="4.67432">
        <ele>341.34033</ele>
        <time>2023-07-30T13:45:18.000Z</time>
      </trkpt>
      <trkpt lat="45.83304" lon="4.67431">
        <ele>341.3429</ele>
        <time>2023-07-30T13:45:19.000Z</time>
      </trkpt>
      <trkpt lat="45.83307" lon="4.6743">
        <ele>341.39008</ele>
        <time>2023-07-30T13:45:20.000Z</time>
      </trkpt>
      <trkpt lat="45.83312" lon="4.67428">
        <ele>341.43292</ele>
        <time>2023-07-30T13:45:21.000Z</time>
      </trkpt>
      <trkpt lat="45.83316" lon="4.67427">
        <ele>341.45508</ele>
        <time>2023-07-30T13:45:22.000Z</time>
      </trkpt>
      <trkpt lat="45.8332" lon="4.67426">
        <ele>341.50708</ele>
        <time>2023-07-30T13:45:23.000Z</time>
      </trkpt>
      <trkpt lat="45.83324" lon="4.67426">
        <ele>341.54697</ele>
        <time>2023-07-30T13:45:24.000Z</time>
      </trkpt>
      <trkpt lat="45.83328" lon="4.67426">
        <ele>341.61676</ele>
        <time>2023-07-30T13:45:25.000Z</time>
      </trkpt>
      <trkpt lat="45.83332" lon="4.67426">
        <ele>341.70709</ele>
        <time>2023-07-30T13:45:26.000Z</time>
      </trkpt>
      <trkpt lat="45.83336" lon="4.67425">
        <ele>341.77557</ele>
        <time>2023-07-30T13:45:27.000Z</time>
      </trkpt>
      <trkpt lat="45.83339" lon="4.67425">
        <ele>341.86694</ele>
        <time>2023-07-30T13:45:28.000Z</time>
      </trkpt>
      <trkpt lat="45.83343" lon="4.67426">
        <ele>341.98129</ele>
        <time>2023-07-30T13:45:29.000Z</time>
      </trkpt>
      <trkpt lat="45.83346" lon="4.67427">
        <ele>342.10632</ele>
        <time>2023-07-30T13:45:30.000Z</time>
      </trkpt>
      <trkpt lat="45.83348" lon="4.67428">
        <ele>342.25439</ele>
        <time>2023-07-30T13:45:31.000Z</time>
      </trkpt>
      <trkpt lat="45.83349" lon="4.6743">
        <ele>342.40195</ele>
        <time>2023-07-30T13:45:33.000Z</time>
      </trkpt>
      <trkpt lat="45.83347" lon="4.6743">
        <ele>342.54819</ele>
        <time>2023-07-30T13:46:16.000Z</time>
      </trkpt>
      <trkpt lat="45.8335" lon="4.67431">
        <ele>342.70728</ele>
        <time>2023-07-30T13:47:19.000Z</time>
      </trkpt>
      <trkpt lat="45.83351" lon="4.67433">
        <ele>342.88153</ele>
        <time>2023-07-30T13:47:20.000Z</time>
      </trkpt>
      <trkpt lat="45.83352" lon="4.67436">
        <ele>343.04935</ele>
        <time>2023-07-30T13:47:21.000Z</time>
      </trkpt>
      <trkpt lat="45.83354" lon="4.67439">
        <ele>343.19907</ele>
        <time>2023-07-30T13:47:22.000Z</time>
      </trkpt>
      <trkpt lat="45.83356" lon="4.67443">
        <ele>343.38196</ele>
        <time>2023-07-30T13:47:23.000Z</time>
      </trkpt>
      <trkpt lat="45.83357" lon="4.67447">
        <ele>343.62576</ele>
        <time>2023-07-30T13:47:24.000Z</time>
      </trkpt>
      <trkpt lat="45.83359" lon="4.67451">
        <ele>343.82245</ele>
        <time>2023-07-30T13:47:25.000Z</time>
      </trkpt>
      <trkpt lat="45.83361" lon="4.67456">
        <ele>344.03482</ele>
        <time>2023-07-30T13:47:26.000Z</time>
      </trkpt>
      <trkpt lat="45.83363" lon="4.6746">
        <ele>344.27362</ele>
        <time>2023-07-30T13:47:27.000Z</time>
      </trkpt>
      <trkpt lat="45.83366" lon="4.67465">
        <ele>344.48773</ele>
        <time>2023-07-30T13:47:28.000Z</time>
      </trkpt>
      <trkpt lat="45.83368" lon="4.67469">
        <ele>344.69965</ele>
        <time>2023-07-30T13:47:29.000Z</time>
      </trkpt>
      <trkpt lat="45.8337" lon="4.67474">
        <ele>344.86493</ele>
        <time>2023-07-30T13:47:30.000Z</time>
      </trkpt>
      <trkpt lat="45.83373" lon="4.67479">
        <ele>344.97235</ele>
        <time>2023-07-30T13:47:31.000Z</time>
      </trkpt>
      <trkpt lat="45.83376" lon="4.67485">
        <ele>345.06528</ele>
        <time>2023-07-30T13:47:32.000Z</time>
      </trkpt>
      <trkpt lat="45.83379" lon="4.6749">
        <ele>345.13156</ele>
        <time>2023-07-30T13:47:33.000Z</time>
      </trkpt>
      <trkpt lat="45.83382" lon="4.67496">
        <ele>345.14966</ele>
        <time>2023-07-30T13:47:34.000Z</time>
      </trkpt>
      <trkpt lat="45.83385" lon="4.675">
        <ele>345.15591</ele>
        <time>2023-07-30T13:47:35.000Z</time>
      </trkpt>
      <trkpt lat="45.83388" lon="4.67505">
        <ele>345.09073</ele>
        <time>2023-07-30T13:47:36.000Z</time>
      </trkpt>
      <trkpt lat="45.83392" lon="4.6751">
        <ele>345.03122</ele>
        <time>2023-07-30T13:47:37.000Z</time>
      </trkpt>
      <trkpt lat="45.83395" lon="4.67515">
        <ele>344.97064</ele>
        <time>2023-07-30T13:47:38.000Z</time>
      </trkpt>
      <trkpt lat="45.83399" lon="4.67517">
        <ele>344.88422</ele>
        <time>2023-07-30T13:47:39.000Z</time>
      </trkpt>
      <trkpt lat="45.83402" lon="4.6752">
        <ele>344.78568</ele>
        <time>2023-07-30T13:47:40.000Z</time>
      </trkpt>
      <trkpt lat="45.83405" lon="4.67523">
        <ele>344.70792</ele>
        <time>2023-07-30T13:47:41.000Z</time>
      </trkpt>
      <trkpt lat="45.83409" lon="4.67525">
        <ele>344.64487</ele>
        <time>2023-07-30T13:47:42.000Z</time>
      </trkpt>
      <trkpt lat="45.83413" lon="4.67528">
        <ele>344.59393</ele>
        <time>2023-07-30T13:47:43.000Z</time>
      </trkpt>
      <trkpt lat="45.83417" lon="4.67531">
        <ele>344.45441</ele>
        <time>2023-07-30T13:47:44.000Z</time>
      </trkpt>
      <trkpt lat="45.83421" lon="4.67534">
        <ele>344.30853</ele>
        <time>2023-07-30T13:47:45.000Z</time>
      </trkpt>
      <trkpt lat="45.83426" lon="4.67536">
        <ele>344.15091</ele>
        <time>2023-07-30T13:47:46.000Z</time>
      </trkpt>
      <trkpt lat="45.8343" lon="4.67539">
        <ele>343.94733</ele>
        <time>2023-07-30T13:47:47.000Z</time>
      </trkpt>
      <trkpt lat="45.83434" lon="4.67541">
        <ele>343.74554</ele>
        <time>2023-07-30T13:47:48.000Z</time>
      </trkpt>
      <trkpt lat="45.83438" lon="4.67544">
        <ele>343.56927</ele>
        <time>2023-07-30T13:47:49.000Z</time>
      </trkpt>
      <trkpt lat="45.83443" lon="4.67546">
        <ele>343.39377</ele>
        <time>2023-07-30T13:47:50.000Z</time>
      </trkpt>
      <trkpt lat="45.83446" lon="4.67549">
        <ele>343.23016</ele>
        <time>2023-07-30T13:47:51.000Z</time>
      </trkpt>
      <trkpt lat="45.83451" lon="4.67551">
        <ele>343.08859</ele>
        <time>2023-07-30T13:47:52.000Z</time>
      </trkpt>
      <trkpt lat="45.83455" lon="4.67554">
        <ele>342.94785</ele>
        <time>2023-07-30T13:47:53.000Z</time>
      </trkpt>
      <trkpt lat="45.83459" lon="4.67556">
        <ele>342.84445</ele>
        <time>2023-07-30T13:47:54.000Z</time>
      </trkpt>
      <trkpt lat="45.83464" lon="4.67558">
        <ele>342.71704</ele>
        <time>2023-07-30T13:47:55.000Z</time>
      </trkpt>
      <trkpt lat="45.83468" lon="4.6756">
        <ele>342.64288</ele>
        <time>2023-07-30T13:47:56.000Z</time>
      </trkpt>
      <trkpt lat="45.83473" lon="4.67561">
        <ele>342.12656</ele>
        <time>2023-07-30T13:47:57.000Z</time>
      </trkpt>
      <trkpt lat="45.83477" lon="4.67563">
        <ele>341.60675</ele>
        <time>2023-07-30T13:47:58.000Z</time>
      </trkpt>
      <trkpt lat="45.83482" lon="4.67565">
        <ele>341.09381</ele>
        <time>2023-07-30T13:47:59.000Z</time>
      </trkpt>
      <trkpt lat="45.83486" lon="4.67568">
        <ele>340.5062</ele>
        <time>2023-07-30T13:48:00.000Z</time>
      </trkpt>
      <trkpt lat="45.83491" lon="4.67569">
        <ele>340.1088</ele>
        <time>2023-07-30T13:48:01.000Z</time>
      </trkpt>
      <trkpt lat="45.83495" lon="4.67572">
        <ele>339.68512</ele>
        <time>2023-07-30T13:48:02.000Z</time>
      </trkpt>
      <trkpt lat="45.835" lon="4.67575">
        <ele>339.22711</ele>
        <time>2023-07-30T13:48:03.000Z</time>
      </trkpt>
      <trkpt lat="45.83505" lon="4.67577">
        <ele>338.78369</ele>
        <time>2023-07-30T13:48:04.000Z</time>
      </trkpt>
      <trkpt lat="45.8351" lon="4.6758">
        <ele>338.31647</ele>
        <time>2023-07-30T13:48:05.000Z</time>
      </trkpt>
      <trkpt lat="45.83514" lon="4.67583">
        <ele>337.76791</ele>
        <time>2023-07-30T13:48:06.000Z</time>
      </trkpt>
      <trkpt lat="45.83519" lon="4.67585">
        <ele>337.23178</ele>
        <time>2023-07-30T13:48:07.000Z</time>
      </trkpt>
      <trkpt lat="45.83524" lon="4.67588">
        <ele>336.69226</ele>
        <time>2023-07-30T13:48:08.000Z</time>
      </trkpt>
      <trkpt lat="45.83529" lon="4.6759">
        <ele>336.13266</ele>
        <time>2023-07-30T13:48:09.000Z</time>
      </trkpt>
      <trkpt lat="45.83534" lon="4.67594">
        <ele>335.5907</ele>
        <time>2023-07-30T13:48:10.000Z</time>
      </trkpt>
      <trkpt lat="45.83539" lon="4.67597">
        <ele>335.0054</ele>
        <time>2023-07-30T13:48:11.000Z</time>
      </trkpt>
      <trkpt lat="45.83544" lon="4.676">
        <ele>334.59644</ele>
        <time>2023-07-30T13:48:12.000Z</time>
      </trkpt>
      <trkpt lat="45.83549" lon="4.67603">
        <ele>334.1499</ele>
        <time>2023-07-30T13:48:13.000Z</time>
      </trkpt>
      <trkpt lat="45.83554" lon="4.67605">
        <ele>333.64557</ele>
        <time>2023-07-30T13:48:14.000Z</time>
      </trkpt>
      <trkpt lat="45.83558" lon="4.67607">
        <ele>333.17169</ele>
        <time>2023-07-30T13:48:15.000Z</time>
      </trkpt>
      <trkpt lat="45.83563" lon="4.67611">
        <ele>332.7431</ele>
        <time>2023-07-30T13:48:16.000Z</time>
      </trkpt>
      <trkpt lat="45.83568" lon="4.67614">
        <ele>332.73828</ele>
        <time>2023-07-30T13:48:17.000Z</time>
      </trkpt>
      <trkpt lat="45.83572" lon="4.67618">
        <ele>332.73846</ele>
        <time>2023-07-30T13:48:18.000Z</time>
      </trkpt>
      <trkpt lat="45.83577" lon="4.67621">
        <ele>332.7243</ele>
        <time>2023-07-30T13:48:19.000Z</time>
      </trkpt>
      <trkpt lat="45.83581" lon="4.67622">
        <ele>332.80237</ele>
        <time>2023-07-30T13:48:20.000Z</time>
      </trkpt>
      <trkpt lat="45.83586" lon="4.67624">
        <ele>332.69281</ele>
        <time>2023-07-30T13:48:21.000Z</time>
      </trkpt>
      <trkpt lat="45.83592" lon="4.67627">
        <ele>332.6297</ele>
        <time>2023-07-30T13:48:22.000Z</time>
      </trkpt>
      <trkpt lat="45.83596" lon="4.67628">
        <ele>332.57941</ele>
        <time>2023-07-30T13:48:23.000Z</time>
      </trkpt>
      <trkpt lat="45.836" lon="4.67629">
        <ele>332.53806</ele>
        <time>2023-07-30T13:48:24.000Z</time>
      </trkpt>
      <trkpt lat="45.83606" lon="4.67629">
        <ele>332.52505</ele>
        <time>2023-07-30T13:48:25.000Z</time>
      </trkpt>
      <trkpt lat="45.8361" lon="4.67628">
        <ele>332.62616</ele>
        <time>2023-07-30T13:48:26.000Z</time>
      </trkpt>
      <trkpt lat="45.83615" lon="4.67625">
        <ele>333.03601</ele>
        <time>2023-07-30T13:48:27.000Z</time>
      </trkpt>
      <trkpt lat="45.83619" lon="4.67622">
        <ele>333.44086</ele>
        <time>2023-07-30T13:48:28.000Z</time>
      </trkpt>
      <trkpt lat="45.83623" lon="4.67618">
        <ele>333.85724</ele>
        <time>2023-07-30T13:48:29.000Z</time>
      </trkpt>
      <trkpt lat="45.83627" lon="4.67615">
        <ele>334.24921</ele>
        <time>2023-07-30T13:48:30.000Z</time>
      </trkpt>
      <trkpt lat="45.8363" lon="4.67612">
        <ele>334.68716</ele>
        <time>2023-07-30T13:48:31.000Z</time>
      </trkpt>
      <trkpt lat="45.83634" lon="4.67608">
        <ele>334.94547</ele>
        <time>2023-07-30T13:48:32.000Z</time>
      </trkpt>
      <trkpt lat="45.83638" lon="4.67604">
        <ele>335.2561</ele>
        <time>2023-07-30T13:48:33.000Z</time>
      </trkpt>
      <trkpt lat="45.83641" lon="4.676">
        <ele>335.60464</ele>
        <time>2023-07-30T13:48:34.000Z</time>
      </trkpt>
      <trkpt lat="45.83644" lon="4.67595">
        <ele>335.92981</ele>
        <time>2023-07-30T13:48:35.000Z</time>
      </trkpt>
      <trkpt lat="45.83647" lon="4.6759">
        <ele>336.22061</ele>
        <time>2023-07-30T13:48:36.000Z</time>
      </trkpt>
      <trkpt lat="45.83651" lon="4.67585">
        <ele>336.50497</ele>
        <time>2023-07-30T13:48:37.000Z</time>
      </trkpt>
      <trkpt lat="45.83654" lon="4.67582">
        <ele>336.80402</ele>
        <time>2023-07-30T13:48:38.000Z</time>
      </trkpt>
      <trkpt lat="45.83658" lon="4.67578">
        <ele>337.10956</ele>
        <time>2023-07-30T13:48:39.000Z</time>
      </trkpt>
      <trkpt lat="45.83661" lon="4.67574">
        <ele>337.41852</ele>
        <time>2023-07-30T13:48:40.000Z</time>
      </trkpt>
      <trkpt lat="45.83664" lon="4.6757">
        <ele>337.73874</ele>
        <time>2023-07-30T13:48:41.000Z</time>
      </trkpt>
      <trkpt lat="45.83668" lon="4.67568">
        <ele>337.9838</ele>
        <time>2023-07-30T13:48:42.000Z</time>
      </trkpt>
      <trkpt lat="45.83672" lon="4.67569">
        <ele>338.23999</ele>
        <time>2023-07-30T13:48:43.000Z</time>
      </trkpt>
      <trkpt lat="45.83676" lon="4.67572">
        <ele>338.48419</ele>
        <time>2023-07-30T13:48:44.000Z</time>
      </trkpt>
      <trkpt lat="45.83679" lon="4.67576">
        <ele>338.69547</ele>
        <time>2023-07-30T13:48:45.000Z</time>
      </trkpt>
      <trkpt lat="45.83684" lon="4.67581">
        <ele>338.88504</ele>
        <time>2023-07-30T13:48:46.000Z</time>
      </trkpt>
      <trkpt lat="45.83688" lon="4.67587">
        <ele>338.76099</ele>
        <time>2023-07-30T13:48:47.000Z</time>
      </trkpt>
      <trkpt lat="45.83693" lon="4.67593">
        <ele>338.63263</ele>
        <time>2023-07-30T13:48:48.000Z</time>
      </trkpt>
      <trkpt lat="45.83697" lon="4.676">
        <ele>338.51276</ele>
        <time>2023-07-30T13:48:49.000Z</time>
      </trkpt>
      <trkpt lat="45.83702" lon="4.67605">
        <ele>338.42319</ele>
        <time>2023-07-30T13:48:50.000Z</time>
      </trkpt>
      <trkpt lat="45.83706" lon="4.67612">
        <ele>338.33829</ele>
        <time>2023-07-30T13:48:51.000Z</time>
      </trkpt>
      <trkpt lat="45.83708" lon="4.67618">
        <ele>338.22501</ele>
        <time>2023-07-30T13:48:52.000Z</time>
      </trkpt>
      <trkpt lat="45.83711" lon="4.67624">
        <ele>338.10309</ele>
        <time>2023-07-30T13:48:53.000Z</time>
      </trkpt>
      <trkpt lat="45.83713" lon="4.67631">
        <ele>337.96347</ele>
        <time>2023-07-30T13:48:54.000Z</time>
      </trkpt>
      <trkpt lat="45.83715" lon="4.67636">
        <ele>337.83777</ele>
        <time>2023-07-30T13:48:55.000Z</time>
      </trkpt>
      <trkpt lat="45.83718" lon="4.67641">
        <ele>337.6329</ele>
        <time>2023-07-30T13:48:56.000Z</time>
      </trkpt>
      <trkpt lat="45.8372" lon="4.67646">
        <ele>337.50745</ele>
        <time>2023-07-30T13:48:57.000Z</time>
      </trkpt>
      <trkpt lat="45.83723" lon="4.67651">
        <ele>337.29062</ele>
        <time>2023-07-30T13:48:58.000Z</time>
      </trkpt>
      <trkpt lat="45.83726" lon="4.67656">
        <ele>337.08063</ele>
        <time>2023-07-30T13:48:59.000Z</time>
      </trkpt>
      <trkpt lat="45.8373" lon="4.67659">
        <ele>336.95117</ele>
        <time>2023-07-30T13:49:00.000Z</time>
      </trkpt>
      <trkpt lat="45.83734" lon="4.67663">
        <ele>336.83917</ele>
        <time>2023-07-30T13:49:01.000Z</time>
      </trkpt>
      <trkpt lat="45.83737" lon="4.67666">
        <ele>336.74078</ele>
        <time>2023-07-30T13:49:02.000Z</time>
      </trkpt>
      <trkpt lat="45.8374" lon="4.67668">
        <ele>336.66498</ele>
        <time>2023-07-30T13:49:03.000Z</time>
      </trkpt>
      <trkpt lat="45.83744" lon="4.6767">
        <ele>336.57895</ele>
        <time>2023-07-30T13:49:04.000Z</time>
      </trkpt>
      <trkpt lat="45.83747" lon="4.67673">
        <ele>336.51999</ele>
        <time>2023-07-30T13:49:05.000Z</time>
      </trkpt>
      <trkpt lat="45.8375" lon="4.67675">
        <ele>336.47272</ele>
        <time>2023-07-30T13:49:06.000Z</time>
      </trkpt>
      <trkpt lat="45.83753" lon="4.67678">
        <ele>336.47195</ele>
        <time>2023-07-30T13:49:07.000Z</time>
      </trkpt>
      <trkpt lat="45.83756" lon="4.6768">
        <ele>336.47696</ele>
        <time>2023-07-30T13:49:08.000Z</time>
      </trkpt>
      <trkpt lat="45.8376" lon="4.67682">
        <ele>336.47086</ele>
        <time>2023-07-30T13:49:09.000Z</time>
      </trkpt>
      <trkpt lat="45.83763" lon="4.67684">
        <ele>336.44864</ele>
        <time>2023-07-30T13:49:10.000Z</time>
      </trkpt>
      <trkpt lat="45.83767" lon="4.67687">
        <ele>336.42926</ele>
        <time>2023-07-30T13:49:11.000Z</time>
      </trkpt>
      <trkpt lat="45.83771" lon="4.67689">
        <ele>336.45132</ele>
        <time>2023-07-30T13:49:12.000Z</time>
      </trkpt>
      <trkpt lat="45.83775" lon="4.67691">
        <ele>336.46872</ele>
        <time>2023-07-30T13:49:13.000Z</time>
      </trkpt>
      <trkpt lat="45.83778" lon="4.67693">
        <ele>336.47797</ele>
        <time>2023-07-30T13:49:14.000Z</time>
      </trkpt>
      <trkpt lat="45.83781" lon="4.67695">
        <ele>336.48898</ele>
        <time>2023-07-30T13:49:15.000Z</time>
      </trkpt>
      <trkpt lat="45.83785" lon="4.67697">
        <ele>336.58371</ele>
        <time>2023-07-30T13:49:16.000Z</time>
      </trkpt>
      <trkpt lat="45.83789" lon="4.67699">
        <ele>336.64627</ele>
        <time>2023-07-30T13:49:17.000Z</time>
      </trkpt>
      <trkpt lat="45.83793" lon="4.67701">
        <ele>336.79584</ele>
        <time>2023-07-30T13:49:18.000Z</time>
      </trkpt>
      <trkpt lat="45.83797" lon="4.67702">
        <ele>336.88684</ele>
        <time>2023-07-30T13:49:19.000Z</time>
      </trkpt>
      <trkpt lat="45.83801" lon="4.67704">
        <ele>336.86835</ele>
        <time>2023-07-30T13:49:20.000Z</time>
      </trkpt>
      <trkpt lat="45.83806" lon="4.67707">
        <ele>336.82687</ele>
        <time>2023-07-30T13:49:21.000Z</time>
      </trkpt>
      <trkpt lat="45.8381" lon="4.67708">
        <ele>336.84991</ele>
        <time>2023-07-30T13:49:22.000Z</time>
      </trkpt>
      <trkpt lat="45.83815" lon="4.6771">
        <ele>336.86203</ele>
        <time>2023-07-30T13:49:23.000Z</time>
      </trkpt>
      <trkpt lat="45.83819" lon="4.6771">
        <ele>336.89023</ele>
        <time>2023-07-30T13:49:24.000Z</time>
      </trkpt>
      <trkpt lat="45.83823" lon="4.6771">
        <ele>336.84308</ele>
        <time>2023-07-30T13:49:25.000Z</time>
      </trkpt>
      <trkpt lat="45.83828" lon="4.67711">
        <ele>336.75482</ele>
        <time>2023-07-30T13:49:26.000Z</time>
      </trkpt>
      <trkpt lat="45.83833" lon="4.67711">
        <ele>336.63058</ele>
        <time>2023-07-30T13:49:27.000Z</time>
      </trkpt>
      <trkpt lat="45.83837" lon="4.67712">
        <ele>336.49713</ele>
        <time>2023-07-30T13:49:28.000Z</time>
      </trkpt>
      <trkpt lat="45.83841" lon="4.67713">
        <ele>336.37375</ele>
        <time>2023-07-30T13:49:29.000Z</time>
      </trkpt>
      <trkpt lat="45.83845" lon="4.67716">
        <ele>336.23395</ele>
        <time>2023-07-30T13:49:30.000Z</time>
      </trkpt>
      <trkpt lat="45.83849" lon="4.67718">
        <ele>336.10452</ele>
        <time>2023-07-30T13:49:31.000Z</time>
      </trkpt>
      <trkpt lat="45.83853" lon="4.67721">
        <ele>335.93982</ele>
        <time>2023-07-30T13:49:32.000Z</time>
      </trkpt>
      <trkpt lat="45.83858" lon="4.67724">
        <ele>335.76166</ele>
        <time>2023-07-30T13:49:33.000Z</time>
      </trkpt>
      <trkpt lat="45.83863" lon="4.67727">
        <ele>335.61359</ele>
        <time>2023-07-30T13:49:34.000Z</time>
      </trkpt>
      <trkpt lat="45.83867" lon="4.6773">
        <ele>335.46289</ele>
        <time>2023-07-30T13:49:35.000Z</time>
      </trkpt>
      <trkpt lat="45.83871" lon="4.67733">
        <ele>335.30899</ele>
        <time>2023-07-30T13:49:36.000Z</time>
      </trkpt>
      <trkpt lat="45.83876" lon="4.67735">
        <ele>335.13663</ele>
        <time>2023-07-30T13:49:37.000Z</time>
      </trkpt>
      <trkpt lat="45.8388" lon="4.67738">
        <ele>334.97153</ele>
        <time>2023-07-30T13:49:38.000Z</time>
      </trkpt>
      <trkpt lat="45.83885" lon="4.6774">
        <ele>334.84296</ele>
        <time>2023-07-30T13:49:39.000Z</time>
      </trkpt>
      <trkpt lat="45.83889" lon="4.67741">
        <ele>334.74762</ele>
        <time>2023-07-30T13:49:40.000Z</time>
      </trkpt>
      <trkpt lat="45.83894" lon="4.67739">
        <ele>334.65503</ele>
        <time>2023-07-30T13:49:41.000Z</time>
      </trkpt>
      <trkpt lat="45.83897" lon="4.67737">
        <ele>334.54517</ele>
        <time>2023-07-30T13:49:42.000Z</time>
      </trkpt>
      <trkpt lat="45.83901" lon="4.67734">
        <ele>334.43372</ele>
        <time>2023-07-30T13:49:43.000Z</time>
      </trkpt>
      <trkpt lat="45.83905" lon="4.67731">
        <ele>334.33063</ele>
        <time>2023-07-30T13:49:44.000Z</time>
      </trkpt>
      <trkpt lat="45.83908" lon="4.67728">
        <ele>334.32605</ele>
        <time>2023-07-30T13:49:45.000Z</time>
      </trkpt>
      <trkpt lat="45.83912" lon="4.67725">
        <ele>334.36887</ele>
        <time>2023-07-30T13:49:46.000Z</time>
      </trkpt>
      <trkpt lat="45.83915" lon="4.67721">
        <ele>334.41898</ele>
        <time>2023-07-30T13:49:47.000Z</time>
      </trkpt>
      <trkpt lat="45.83918" lon="4.67718">
        <ele>334.49847</ele>
        <time>2023-07-30T13:49:48.000Z</time>
      </trkpt>
      <trkpt lat="45.83921" lon="4.67714">
        <ele>334.56403</ele>
        <time>2023-07-30T13:49:49.000Z</time>
      </trkpt>
      <trkpt lat="45.83923" lon="4.6771">
        <ele>334.64847</ele>
        <time>2023-07-30T13:49:50.000Z</time>
      </trkpt>
      <trkpt lat="45.83927" lon="4.67707">
        <ele>334.73053</ele>
        <time>2023-07-30T13:49:51.000Z</time>
      </trkpt>
      <trkpt lat="45.83929" lon="4.67703">
        <ele>334.82983</ele>
        <time>2023-07-30T13:49:52.000Z</time>
      </trkpt>
      <trkpt lat="45.83932" lon="4.677">
        <ele>334.94916</ele>
        <time>2023-07-30T13:49:53.000Z</time>
      </trkpt>
      <trkpt lat="45.83935" lon="4.67696">
        <ele>335.05597</ele>
        <time>2023-07-30T13:49:54.000Z</time>
      </trkpt>
      <trkpt lat="45.83938" lon="4.67692">
        <ele>335.17587</ele>
        <time>2023-07-30T13:49:55.000Z</time>
      </trkpt>
      <trkpt lat="45.8394" lon="4.67688">
        <ele>335.3006</ele>
        <time>2023-07-30T13:49:56.000Z</time>
      </trkpt>
      <trkpt lat="45.83943" lon="4.67684">
        <ele>335.40347</ele>
        <time>2023-07-30T13:49:57.000Z</time>
      </trkpt>
      <trkpt lat="45.83946" lon="4.6768">
        <ele>335.51685</ele>
        <time>2023-07-30T13:49:58.000Z</time>
      </trkpt>
      <trkpt lat="45.83949" lon="4.67677">
        <ele>335.62927</ele>
        <time>2023-07-30T13:49:59.000Z</time>
      </trkpt>
      <trkpt lat="45.83953" lon="4.67675">
        <ele>335.74155</ele>
        <time>2023-07-30T13:50:00.000Z</time>
      </trkpt>
      <trkpt lat="45.83957" lon="4.67673">
        <ele>335.84564</ele>
        <time>2023-07-30T13:50:01.000Z</time>
      </trkpt>
      <trkpt lat="45.83961" lon="4.67673">
        <ele>335.9447</ele>
        <time>2023-07-30T13:50:02.000Z</time>
      </trkpt>
      <trkpt lat="45.83965" lon="4.67673">
        <ele>336.03888</ele>
        <time>2023-07-30T13:50:03.000Z</time>
      </trkpt>
      <trkpt lat="45.83969" lon="4.67674">
        <ele>336.12558</ele>
        <time>2023-07-30T13:50:04.000Z</time>
      </trkpt>
      <trkpt lat="45.83974" lon="4.67674">
        <ele>336.19931</ele>
        <time>2023-07-30T13:50:05.000Z</time>
      </trkpt>
      <trkpt lat="45.83978" lon="4.67675">
        <ele>336.26093</ele>
        <time>2023-07-30T13:50:06.000Z</time>
      </trkpt>
      <trkpt lat="45.83982" lon="4.67677">
        <ele>336.31683</ele>
        <time>2023-07-30T13:50:07.000Z</time>
      </trkpt>
      <trkpt lat="45.83986" lon="4.6768">
        <ele>336.34799</ele>
        <time>2023-07-30T13:50:08.000Z</time>
      </trkpt>
      <trkpt lat="45.8399" lon="4.67682">
        <ele>336.37738</ele>
        <time>2023-07-30T13:50:09.000Z</time>
      </trkpt>
      <trkpt lat="45.83994" lon="4.67685">
        <ele>336.39917</ele>
        <time>2023-07-30T13:50:10.000Z</time>
      </trkpt>
      <trkpt lat="45.83998" lon="4.67687">
        <ele>336.41226</ele>
        <time>2023-07-30T13:50:11.000Z</time>
      </trkpt>
      <trkpt lat="45.84002" lon="4.6769">
        <ele>336.42737</ele>
        <time>2023-07-30T13:50:12.000Z</time>
      </trkpt>
      <trkpt lat="45.84006" lon="4.67693">
        <ele>336.44049</ele>
        <time>2023-07-30T13:50:13.000Z</time>
      </trkpt>
      <trkpt lat="45.8401" lon="4.67695">
        <ele>336.46539</ele>
        <time>2023-07-30T13:50:14.000Z</time>
      </trkpt>
      <trkpt lat="45.84015" lon="4.67695">
        <ele>336.50409</ele>
        <time>2023-07-30T13:50:15.000Z</time>
      </trkpt>
      <trkpt lat="45.84019" lon="4.67693">
        <ele>336.55875</ele>
        <time>2023-07-30T13:50:16.000Z</time>
      </trkpt>
      <trkpt lat="45.84024" lon="4.6769">
        <ele>336.64728</ele>
        <time>2023-07-30T13:50:17.000Z</time>
      </trkpt>
      <trkpt lat="45.84027" lon="4.67687">
        <ele>336.68146</ele>
        <time>2023-07-30T13:50:18.000Z</time>
      </trkpt>
      <trkpt lat="45.8403" lon="4.67684">
        <ele>336.73453</ele>
        <time>2023-07-30T13:50:19.000Z</time>
      </trkpt>
      <trkpt lat="45.84033" lon="4.6768">
        <ele>336.7811</ele>
        <time>2023-07-30T13:50:20.000Z</time>
      </trkpt>
      <trkpt lat="45.84036" lon="4.67676">
        <ele>336.85916</ele>
        <time>2023-07-30T13:50:21.000Z</time>
      </trkpt>
      <trkpt lat="45.84039" lon="4.67671">
        <ele>336.93402</ele>
        <time>2023-07-30T13:50:22.000Z</time>
      </trkpt>
      <trkpt lat="45.84042" lon="4.67667">
        <ele>337.01138</ele>
        <time>2023-07-30T13:50:23.000Z</time>
      </trkpt>
      <trkpt lat="45.84045" lon="4.67662">
        <ele>337.0733</ele>
        <time>2023-07-30T13:50:24.000Z</time>
      </trkpt>
      <trkpt lat="45.84048" lon="4.67658">
        <ele>337.12488</ele>
        <time>2023-07-30T13:50:25.000Z</time>
      </trkpt>
      <trkpt lat="45.84052" lon="4.67654">
        <ele>337.185</ele>
        <time>2023-07-30T13:50:26.000Z</time>
      </trkpt>
      <trkpt lat="45.84055" lon="4.6765">
        <ele>337.23883</ele>
        <time>2023-07-30T13:50:27.000Z</time>
      </trkpt>
      <trkpt lat="45.84058" lon="4.67646">
        <ele>337.29385</ele>
        <time>2023-07-30T13:50:28.000Z</time>
      </trkpt>
      <trkpt lat="45.84061" lon="4.67641">
        <ele>337.32956</ele>
        <time>2023-07-30T13:50:29.000Z</time>
      </trkpt>
      <trkpt lat="45.84064" lon="4.67637">
        <ele>337.3533</ele>
        <time>2023-07-30T13:50:30.000Z</time>
      </trkpt>
      <trkpt lat="45.84067" lon="4.67632">
        <ele>337.37744</ele>
        <time>2023-07-30T13:50:31.000Z</time>
      </trkpt>
      <trkpt lat="45.84071" lon="4.67628">
        <ele>337.38544</ele>
        <time>2023-07-30T13:50:32.000Z</time>
      </trkpt>
      <trkpt lat="45.84074" lon="4.67624">
        <ele>337.405</ele>
        <time>2023-07-30T13:50:33.000Z</time>
      </trkpt>
      <trkpt lat="45.84078" lon="4.6762">
        <ele>337.40619</ele>
        <time>2023-07-30T13:50:34.000Z</time>
      </trkpt>
      <trkpt lat="45.84081" lon="4.67616">
        <ele>337.38611</ele>
        <time>2023-07-30T13:50:35.000Z</time>
      </trkpt>
      <trkpt lat="45.84085" lon="4.67612">
        <ele>337.34576</ele>
        <time>2023-07-30T13:50:36.000Z</time>
      </trkpt>
      <trkpt lat="45.84088" lon="4.67608">
        <ele>337.2691</ele>
        <time>2023-07-30T13:50:37.000Z</time>
      </trkpt>
      <trkpt lat="45.84091" lon="4.67604">
        <ele>337.22299</ele>
        <time>2023-07-30T13:50:38.000Z</time>
      </trkpt>
      <trkpt lat="45.84094" lon="4.67601">
        <ele>337.15317</ele>
        <time>2023-07-30T13:50:39.000Z</time>
      </trkpt>
      <trkpt lat="45.84098" lon="4.67597">
        <ele>337.0831</ele>
        <time>2023-07-30T13:50:40.000Z</time>
      </trkpt>
      <trkpt lat="45.84101" lon="4.67593">
        <ele>336.98032</ele>
        <time>2023-07-30T13:50:41.000Z</time>
      </trkpt>
      <trkpt lat="45.84104" lon="4.6759">
        <ele>336.88144</ele>
        <time>2023-07-30T13:50:42.000Z</time>
      </trkpt>
      <trkpt lat="45.84108" lon="4.67587">
        <ele>336.772</ele>
        <time>2023-07-30T13:50:43.000Z</time>
      </trkpt>
      <trkpt lat="45.84112" lon="4.67583">
        <ele>336.64819</ele>
        <time>2023-07-30T13:50:44.000Z</time>
      </trkpt>
      <trkpt lat="45.84116" lon="4.67579">
        <ele>336.5264</ele>
        <time>2023-07-30T13:50:45.000Z</time>
      </trkpt>
      <trkpt lat="45.84119" lon="4.67574">
        <ele>336.37326</ele>
        <time>2023-07-30T13:50:46.000Z</time>
      </trkpt>
      <trkpt lat="45.84121" lon="4.67569">
        <ele>336.2226</ele>
        <time>2023-07-30T13:50:47.000Z</time>
      </trkpt>
      <trkpt lat="45.84122" lon="4.67562">
        <ele>336.07611</ele>
        <time>2023-07-30T13:50:48.000Z</time>
      </trkpt>
      <trkpt lat="45.84119" lon="4.67556">
        <ele>335.95038</ele>
        <time>2023-07-30T13:50:49.000Z</time>
      </trkpt>
      <trkpt lat="45.84116" lon="4.67551">
        <ele>335.83994</ele>
        <time>2023-07-30T13:50:50.000Z</time>
      </trkpt>
      <trkpt lat="45.84113" lon="4.67545">
        <ele>335.71259</ele>
        <time>2023-07-30T13:50:51.000Z</time>
      </trkpt>
      <trkpt lat="45.84109" lon="4.67541">
        <ele>335.59009</ele>
        <time>2023-07-30T13:50:52.000Z</time>
      </trkpt>
      <trkpt lat="45.84107" lon="4.67537">
        <ele>335.47275</ele>
        <time>2023-07-30T13:50:53.000Z</time>
      </trkpt>
      <trkpt lat="45.84104" lon="4.67533">
        <ele>335.36496</ele>
        <time>2023-07-30T13:50:54.000Z</time>
      </trkpt>
      <trkpt lat="45.84102" lon="4.67527">
        <ele>335.23779</ele>
        <time>2023-07-30T13:50:55.000Z</time>
      </trkpt>
      <trkpt lat="45.84102" lon="4.67523">
        <ele>335.1105</ele>
        <time>2023-07-30T13:50:56.000Z</time>
      </trkpt>
      <trkpt lat="45.84105" lon="4.6752">
        <ele>334.99792</ele>
        <time>2023-07-30T13:50:57.000Z</time>
      </trkpt>
      <trkpt lat="45.84108" lon="4.67519">
        <ele>334.90277</ele>
        <time>2023-07-30T13:50:58.000Z</time>
      </trkpt>
      <trkpt lat="45.8411" lon="4.67521">
        <ele>334.83221</ele>
        <time>2023-07-30T13:50:59.000Z</time>
      </trkpt>
      <trkpt lat="45.84113" lon="4.67523">
        <ele>334.7262</ele>
        <time>2023-07-30T13:51:00.000Z</time>
      </trkpt>
      <trkpt lat="45.84116" lon="4.67525">
        <ele>334.62289</ele>
        <time>2023-07-30T13:51:01.000Z</time>
      </trkpt>
      <trkpt lat="45.84119" lon="4.67528">
        <ele>334.51004</ele>
        <time>2023-07-30T13:51:02.000Z</time>
      </trkpt>
      <trkpt lat="45.84122" lon="4.6753">
        <ele>334.39252</ele>
        <time>2023-07-30T13:51:03.000Z</time>
      </trkpt>
      <trkpt lat="45.84125" lon="4.67533">
        <ele>334.31342</ele>
        <time>2023-07-30T13:51:04.000Z</time>
      </trkpt>
      <trkpt lat="45.84128" lon="4.67535">
        <ele>334.22028</ele>
        <time>2023-07-30T13:51:05.000Z</time>
      </trkpt>
      <trkpt lat="45.84132" lon="4.67538">
        <ele>334.15372</ele>
        <time>2023-07-30T13:51:06.000Z</time>
      </trkpt>
      <trkpt lat="45.84135" lon="4.67542">
        <ele>334.09027</ele>
        <time>2023-07-30T13:51:07.000Z</time>
      </trkpt>
      <trkpt lat="45.84139" lon="4.67546">
        <ele>334.01401</ele>
        <time>2023-07-30T13:51:08.000Z</time>
      </trkpt>
      <trkpt lat="45.84142" lon="4.6755">
        <ele>333.93442</ele>
        <time>2023-07-30T13:51:09.000Z</time>
      </trkpt>
      <trkpt lat="45.84145" lon="4.67554">
        <ele>333.83371</ele>
        <time>2023-07-30T13:51:10.000Z</time>
      </trkpt>
      <trkpt lat="45.84149" lon="4.67558">
        <ele>333.75659</ele>
        <time>2023-07-30T13:51:11.000Z</time>
      </trkpt>
      <trkpt lat="45.84153" lon="4.67562">
        <ele>333.77261</ele>
        <time>2023-07-30T13:51:12.000Z</time>
      </trkpt>
      <trkpt lat="45.84156" lon="4.67567">
        <ele>333.77368</ele>
        <time>2023-07-30T13:51:13.000Z</time>
      </trkpt>
      <trkpt lat="45.84161" lon="4.67571">
        <ele>333.80963</ele>
        <time>2023-07-30T13:51:14.000Z</time>
      </trkpt>
      <trkpt lat="45.84165" lon="4.67576">
        <ele>333.888</ele>
        <time>2023-07-30T13:51:15.000Z</time>
      </trkpt>
      <trkpt lat="45.84168" lon="4.6758">
        <ele>333.90649</ele>
        <time>2023-07-30T13:51:16.000Z</time>
      </trkpt>
      <trkpt lat="45.84173" lon="4.67584">
        <ele>333.93747</ele>
        <time>2023-07-30T13:51:17.000Z</time>
      </trkpt>
      <trkpt lat="45.84178" lon="4.67589">
        <ele>333.96112</ele>
        <time>2023-07-30T13:51:18.000Z</time>
      </trkpt>
      <trkpt lat="45.84183" lon="4.67593">
        <ele>334.00543</ele>
        <time>2023-07-30T13:51:19.000Z</time>
      </trkpt>
      <trkpt lat="45.84189" lon="4.67599">
        <ele>334.0816</ele>
        <time>2023-07-30T13:51:20.000Z</time>
      </trkpt>
      <trkpt lat="45.84193" lon="4.67604">
        <ele>334.13965</ele>
        <time>2023-07-30T13:51:21.000Z</time>
      </trkpt>
      <trkpt lat="45.84197" lon="4.6761">
        <ele>334.1626</ele>
        <time>2023-07-30T13:51:22.000Z</time>
      </trkpt>
      <trkpt lat="45.84202" lon="4.67615">
        <ele>334.18463</ele>
        <time>2023-07-30T13:51:23.000Z</time>
      </trkpt>
      <trkpt lat="45.84207" lon="4.6762">
        <ele>334.18976</ele>
        <time>2023-07-30T13:51:24.000Z</time>
      </trkpt>
      <trkpt lat="45.84212" lon="4.67625">
        <ele>334.2403</ele>
        <time>2023-07-30T13:51:25.000Z</time>
      </trkpt>
      <trkpt lat="45.84216" lon="4.6763">
        <ele>334.31125</ele>
        <time>2023-07-30T13:51:26.000Z</time>
      </trkpt>
      <trkpt lat="45.84221" lon="4.67634">
        <ele>334.29407</ele>
        <time>2023-07-30T13:51:27.000Z</time>
      </trkpt>
      <trkpt lat="45.84227" lon="4.67638">
        <ele>334.30707</ele>
        <time>2023-07-30T13:51:28.000Z</time>
      </trkpt>
      <trkpt lat="45.84233" lon="4.67641">
        <ele>334.34262</ele>
        <time>2023-07-30T13:51:29.000Z</time>
      </trkpt>
      <trkpt lat="45.84239" lon="4.67644">
        <ele>334.38815</ele>
        <time>2023-07-30T13:51:30.000Z</time>
      </trkpt>
      <trkpt lat="45.84245" lon="4.67646">
        <ele>334.42538</ele>
        <time>2023-07-30T13:51:31.000Z</time>
      </trkpt>
      <trkpt lat="45.84252" lon="4.67648">
        <ele>334.37445</ele>
        <time>2023-07-30T13:51:32.000Z</time>
      </trkpt>
      <trkpt lat="45.84258" lon="4.67649">
        <ele>334.32806</ele>
        <time>2023-07-30T13:51:33.000Z</time>
      </trkpt>
      <trkpt lat="45.84265" lon="4.67651">
        <ele>334.23044</ele>
        <time>2023-07-30T13:51:34.000Z</time>
      </trkpt>
      <trkpt lat="45.84272" lon="4.67651">
        <ele>334.11896</ele>
        <time>2023-07-30T13:51:35.000Z</time>
      </trkpt>
      <trkpt lat="45.84278" lon="4.67649">
        <ele>334.06216</ele>
        <time>2023-07-30T13:51:36.000Z</time>
      </trkpt>
      <trkpt lat="45.84284" lon="4.67647">
        <ele>334.03564</ele>
        <time>2023-07-30T13:51:37.000Z</time>
      </trkpt>
      <trkpt lat="45.8429" lon="4.67646">
        <ele>334.0209</ele>
        <time>2023-07-30T13:51:38.000Z</time>
      </trkpt>
      <trkpt lat="45.84296" lon="4.67644">
        <ele>333.87604</ele>
        <time>2023-07-30T13:51:39.000Z</time>
      </trkpt>
      <trkpt lat="45.84302" lon="4.67642">
        <ele>333.76056</ele>
        <time>2023-07-30T13:51:40.000Z</time>
      </trkpt>
      <trkpt lat="45.84308" lon="4.6764">
        <ele>333.65997</ele>
        <time>2023-07-30T13:51:41.000Z</time>
      </trkpt>
      <trkpt lat="45.84314" lon="4.67636">
        <ele>333.59293</ele>
        <time>2023-07-30T13:51:42.000Z</time>
      </trkpt>
      <trkpt lat="45.84319" lon="4.67633">
        <ele>333.54898</ele>
        <time>2023-07-30T13:51:43.000Z</time>
      </trkpt>
      <trkpt lat="45.84324" lon="4.67629">
        <ele>333.51227</ele>
        <time>2023-07-30T13:51:44.000Z</time>
      </trkpt>
      <trkpt lat="45.8433" lon="4.67625">
        <ele>333.44147</ele>
        <time>2023-07-30T13:51:45.000Z</time>
      </trkpt>
      <trkpt lat="45.84334" lon="4.67621">
        <ele>333.3559</ele>
        <time>2023-07-30T13:51:46.000Z</time>
      </trkpt>
      <trkpt lat="45.84339" lon="4.67618">
        <ele>333.35309</ele>
        <time>2023-07-30T13:51:47.000Z</time>
      </trkpt>
      <trkpt lat="45.84343" lon="4.67615">
        <ele>333.34537</ele>
        <time>2023-07-30T13:51:48.000Z</time>
      </trkpt>
      <trkpt lat="45.84347" lon="4.67611">
        <ele>333.33261</ele>
        <time>2023-07-30T13:51:49.000Z</time>
      </trkpt>
      <trkpt lat="45.84352" lon="4.67609">
        <ele>333.30405</ele>
        <time>2023-07-30T13:51:50.000Z</time>
      </trkpt>
      <trkpt lat="45.84356" lon="4.67605">
        <ele>333.28076</ele>
        <time>2023-07-30T13:51:51.000Z</time>
      </trkpt>
      <trkpt lat="45.84361" lon="4.67602">
        <ele>333.25897</ele>
        <time>2023-07-30T13:51:52.000Z</time>
      </trkpt>
      <trkpt lat="45.84366" lon="4.676">
        <ele>333.21713</ele>
        <time>2023-07-30T13:51:53.000Z</time>
      </trkpt>
      <trkpt lat="45.8437" lon="4.67598">
        <ele>333.1756</ele>
        <time>2023-07-30T13:51:54.000Z</time>
      </trkpt>
      <trkpt lat="45.84375" lon="4.67597">
        <ele>333.13046</ele>
        <time>2023-07-30T13:51:55.000Z</time>
      </trkpt>
      <trkpt lat="45.8438" lon="4.67597">
        <ele>333.12405</ele>
        <time>2023-07-30T13:51:56.000Z</time>
      </trkpt>
      <trkpt lat="45.84385" lon="4.67596">
        <ele>333.10321</ele>
        <time>2023-07-30T13:51:57.000Z</time>
      </trkpt>
      <trkpt lat="45.8439" lon="4.67595">
        <ele>333.08536</ele>
        <time>2023-07-30T13:51:58.000Z</time>
      </trkpt>
      <trkpt lat="45.84395" lon="4.67596">
        <ele>333.05963</ele>
        <time>2023-07-30T13:51:59.000Z</time>
      </trkpt>
      <trkpt lat="45.844" lon="4.67596">
        <ele>333.0484</ele>
        <time>2023-07-30T13:52:00.000Z</time>
      </trkpt>
      <trkpt lat="45.84405" lon="4.67596">
        <ele>333.04916</ele>
        <time>2023-07-30T13:52:01.000Z</time>
      </trkpt>
      <trkpt lat="45.8441" lon="4.67597">
        <ele>333.06912</ele>
        <time>2023-07-30T13:52:02.000Z</time>
      </trkpt>
      <trkpt lat="45.84414" lon="4.67598">
        <ele>333.08295</ele>
        <time>2023-07-30T13:52:03.000Z</time>
      </trkpt>
      <trkpt lat="45.84419" lon="4.67598">
        <ele>333.0943</ele>
        <time>2023-07-30T13:52:04.000Z</time>
      </trkpt>
      <trkpt lat="45.84423" lon="4.676">
        <ele>333.10001</ele>
        <time>2023-07-30T13:52:05.000Z</time>
      </trkpt>
      <trkpt lat="45.84428" lon="4.67601">
        <ele>333.09787</ele>
        <time>2023-07-30T13:52:06.000Z</time>
      </trkpt>
      <trkpt lat="45.84433" lon="4.67601">
        <ele>333.09991</ele>
        <time>2023-07-30T13:52:07.000Z</time>
      </trkpt>
      <trkpt lat="45.84437" lon="4.67599">
        <ele>333.08969</ele>
        <time>2023-07-30T13:52:08.000Z</time>
      </trkpt>
      <trkpt lat="45.84441" lon="4.67597">
        <ele>333.03351</ele>
        <time>2023-07-30T13:52:09.000Z</time>
      </trkpt>
      <trkpt lat="45.84444" lon="4.67593">
        <ele>333.06168</ele>
        <time>2023-07-30T13:52:10.000Z</time>
      </trkpt>
      <trkpt lat="45.84449" lon="4.67589">
        <ele>333.11191</ele>
        <time>2023-07-30T13:52:11.000Z</time>
      </trkpt>
      <trkpt lat="45.84452" lon="4.67585">
        <ele>333.1922</ele>
        <time>2023-07-30T13:52:12.000Z</time>
      </trkpt>
      <trkpt lat="45.84456" lon="4.67581">
        <ele>333.19241</ele>
        <time>2023-07-30T13:52:13.000Z</time>
      </trkpt>
      <trkpt lat="45.8446" lon="4.67578">
        <ele>333.23346</ele>
        <time>2023-07-30T13:52:14.000Z</time>
      </trkpt>
      <trkpt lat="45.84464" lon="4.67573">
        <ele>333.27325</ele>
        <time>2023-07-30T13:52:15.000Z</time>
      </trkpt>
      <trkpt lat="45.84468" lon="4.6757">
        <ele>333.30499</ele>
        <time>2023-07-30T13:52:16.000Z</time>
      </trkpt>
      <trkpt lat="45.84472" lon="4.67566">
        <ele>333.31177</ele>
        <time>2023-07-30T13:52:17.000Z</time>
      </trkpt>
      <trkpt lat="45.84475" lon="4.67563">
        <ele>333.29504</ele>
        <time>2023-07-30T13:52:18.000Z</time>
      </trkpt>
      <trkpt lat="45.8448" lon="4.6756">
        <ele>333.37921</ele>
        <time>2023-07-30T13:52:19.000Z</time>
      </trkpt>
      <trkpt lat="45.84484" lon="4.67556">
        <ele>333.42947</ele>
        <time>2023-07-30T13:52:20.000Z</time>
      </trkpt>
      <trkpt lat="45.84488" lon="4.67553">
        <ele>333.47067</ele>
        <time>2023-07-30T13:52:21.000Z</time>
      </trkpt>
      <trkpt lat="45.84492" lon="4.67552">
        <ele>333.5174</ele>
        <time>2023-07-30T13:52:22.000Z</time>
      </trkpt>
      <trkpt lat="45.84497" lon="4.67552">
        <ele>333.56332</ele>
        <time>2023-07-30T13:52:23.000Z</time>
      </trkpt>
      <trkpt lat="45.84502" lon="4.67552">
        <ele>333.6922</ele>
        <time>2023-07-30T13:52:24.000Z</time>
      </trkpt>
      <trkpt lat="45.84506" lon="4.67557">
        <ele>333.7475</ele>
        <time>2023-07-30T13:52:25.000Z</time>
      </trkpt>
      <trkpt lat="45.8451" lon="4.6756">
        <ele>333.84497</ele>
        <time>2023-07-30T13:52:26.000Z</time>
      </trkpt>
      <trkpt lat="45.84514" lon="4.67564">
        <ele>333.93475</ele>
        <time>2023-07-30T13:52:27.000Z</time>
      </trkpt>
      <trkpt lat="45.84518" lon="4.67568">
        <ele>334.04916</ele>
        <time>2023-07-30T13:52:28.000Z</time>
      </trkpt>
      <trkpt lat="45.84522" lon="4.67573">
        <ele>334.12985</ele>
        <time>2023-07-30T13:52:29.000Z</time>
      </trkpt>
      <trkpt lat="45.84526" lon="4.67576">
        <ele>333.77429</ele>
        <time>2023-07-30T13:52:30.000Z</time>
      </trkpt>
      <trkpt lat="45.84531" lon="4.67579">
        <ele>333.79309</ele>
        <time>2023-07-30T13:52:31.000Z</time>
      </trkpt>
      <trkpt lat="45.84536" lon="4.67583">
        <ele>333.7868</ele>
        <time>2023-07-30T13:52:32.000Z</time>
      </trkpt>
      <trkpt lat="45.8454" lon="4.67585">
        <ele>333.87067</ele>
        <time>2023-07-30T13:52:33.000Z</time>
      </trkpt>
      <trkpt lat="45.84545" lon="4.67588">
        <ele>333.92456</ele>
        <time>2023-07-30T13:52:34.000Z</time>
      </trkpt>
      <trkpt lat="45.84549" lon="4.67589">
        <ele>333.97464</ele>
        <time>2023-07-30T13:52:35.000Z</time>
      </trkpt>
      <trkpt lat="45.84555" lon="4.67591">
        <ele>333.99933</ele>
        <time>2023-07-30T13:52:36.000Z</time>
      </trkpt>
      <trkpt lat="45.84559" lon="4.67592">
        <ele>334.02036</ele>
        <time>2023-07-30T13:52:37.000Z</time>
      </trkpt>
      <trkpt lat="45.84563" lon="4.67593">
        <ele>334.05463</ele>
        <time>2023-07-30T13:52:38.000Z</time>
      </trkpt>
      <trkpt lat="45.84568" lon="4.67593">
        <ele>334.08511</ele>
        <time>2023-07-30T13:52:39.000Z</time>
      </trkpt>
      <trkpt lat="45.84573" lon="4.67594">
        <ele>334.11444</ele>
        <time>2023-07-30T13:52:40.000Z</time>
      </trkpt>
      <trkpt lat="45.84578" lon="4.67594">
        <ele>334.13632</ele>
        <time>2023-07-30T13:52:41.000Z</time>
      </trkpt>
      <trkpt lat="45.84583" lon="4.67594">
        <ele>334.13681</ele>
        <time>2023-07-30T13:52:42.000Z</time>
      </trkpt>
      <trkpt lat="45.84588" lon="4.67594">
        <ele>334.12274</ele>
        <time>2023-07-30T13:52:43.000Z</time>
      </trkpt>
      <trkpt lat="45.84593" lon="4.67592">
        <ele>334.05298</ele>
        <time>2023-07-30T13:52:44.000Z</time>
      </trkpt>
      <trkpt lat="45.84599" lon="4.67591">
        <ele>334.05856</ele>
        <time>2023-07-30T13:52:45.000Z</time>
      </trkpt>
      <trkpt lat="45.84603" lon="4.67589">
        <ele>334.04324</ele>
        <time>2023-07-30T13:52:46.000Z</time>
      </trkpt>
      <trkpt lat="45.84608" lon="4.67587">
        <ele>334.07169</ele>
        <time>2023-07-30T13:52:47.000Z</time>
      </trkpt>
      <trkpt lat="45.84613" lon="4.67584">
        <ele>333.99716</ele>
        <time>2023-07-30T13:52:48.000Z</time>
      </trkpt>
      <trkpt lat="45.84617" lon="4.67581">
        <ele>334.00336</ele>
        <time>2023-07-30T13:52:49.000Z</time>
      </trkpt>
      <trkpt lat="45.84622" lon="4.67579">
        <ele>334.38565</ele>
        <time>2023-07-30T13:52:50.000Z</time>
      </trkpt>
      <trkpt lat="45.84626" lon="4.67575">
        <ele>334.35925</ele>
        <time>2023-07-30T13:52:51.000Z</time>
      </trkpt>
      <trkpt lat="45.84631" lon="4.67572">
        <ele>334.31302</ele>
        <time>2023-07-30T13:52:52.000Z</time>
      </trkpt>
      <trkpt lat="45.84635" lon="4.67568">
        <ele>334.2655</ele>
        <time>2023-07-30T13:52:53.000Z</time>
      </trkpt>
      <trkpt lat="45.84639" lon="4.67563">
        <ele>334.22418</ele>
        <time>2023-07-30T13:52:54.000Z</time>
      </trkpt>
      <trkpt lat="45.84644" lon="4.67559">
        <ele>334.17822</ele>
        <time>2023-07-30T13:52:55.000Z</time>
      </trkpt>
      <trkpt lat="45.84648" lon="4.67553">
        <ele>334.1434</ele>
        <time>2023-07-30T13:52:56.000Z</time>
      </trkpt>
      <trkpt lat="45.84651" lon="4.67548">
        <ele>334.10461</ele>
        <time>2023-07-30T13:52:57.000Z</time>
      </trkpt>
      <trkpt lat="45.84655" lon="4.67543">
        <ele>334.06635</ele>
        <time>2023-07-30T13:52:58.000Z</time>
      </trkpt>
      <trkpt lat="45.84658" lon="4.67537">
        <ele>334.02533</ele>
        <time>2023-07-30T13:52:59.000Z</time>
      </trkpt>
      <trkpt lat="45.84661" lon="4.67531">
        <ele>334.01907</ele>
        <time>2023-07-30T13:53:00.000Z</time>
      </trkpt>
      <trkpt lat="45.84664" lon="4.67525">
        <ele>334.05334</ele>
        <time>2023-07-30T13:53:01.000Z</time>
      </trkpt>
      <trkpt lat="45.84667" lon="4.6752">
        <ele>334.00714</ele>
        <time>2023-07-30T13:53:02.000Z</time>
      </trkpt>
      <trkpt lat="45.8467" lon="4.67514">
        <ele>333.98254</ele>
        <time>2023-07-30T13:53:03.000Z</time>
      </trkpt>
      <trkpt lat="45.84673" lon="4.67508">
        <ele>333.92563</ele>
        <time>2023-07-30T13:53:04.000Z</time>
      </trkpt>
      <trkpt lat="45.84676" lon="4.67503">
        <ele>333.87909</ele>
        <time>2023-07-30T13:53:05.000Z</time>
      </trkpt>
      <trkpt lat="45.84679" lon="4.67497">
        <ele>333.8111</ele>
        <time>2023-07-30T13:53:06.000Z</time>
      </trkpt>
      <trkpt lat="45.84683" lon="4.67491">
        <ele>333.69</ele>
        <time>2023-07-30T13:53:07.000Z</time>
      </trkpt>
      <trkpt lat="45.84686" lon="4.67486">
        <ele>333.63428</ele>
        <time>2023-07-30T13:53:08.000Z</time>
      </trkpt>
      <trkpt lat="45.84689" lon="4.67479">
        <ele>333.54523</ele>
        <time>2023-07-30T13:53:09.000Z</time>
      </trkpt>
      <trkpt lat="45.84693" lon="4.67472">
        <ele>333.44513</ele>
        <time>2023-07-30T13:53:10.000Z</time>
      </trkpt>
      <trkpt lat="45.84697" lon="4.67466">
        <ele>333.34052</ele>
        <time>2023-07-30T13:53:11.000Z</time>
      </trkpt>
      <trkpt lat="45.84703" lon="4.67462">
        <ele>333.26959</ele>
        <time>2023-07-30T13:53:12.000Z</time>
      </trkpt>
      <trkpt lat="45.84709" lon="4.6746">
        <ele>333.24161</ele>
        <time>2023-07-30T13:53:13.000Z</time>
      </trkpt>
      <trkpt lat="45.84716" lon="4.67459">
        <ele>333.21768</ele>
        <time>2023-07-30T13:53:14.000Z</time>
      </trkpt>
      <trkpt lat="45.84722" lon="4.67458">
        <ele>333.215</ele>
        <time>2023-07-30T13:53:15.000Z</time>
      </trkpt>
      <trkpt lat="45.84728" lon="4.67457">
        <ele>333.09241</ele>
        <time>2023-07-30T13:53:16.000Z</time>
      </trkpt>
      <trkpt lat="45.84734" lon="4.67456">
        <ele>333.00214</ele>
        <time>2023-07-30T13:53:17.000Z</time>
      </trkpt>
      <trkpt lat="45.8474" lon="4.67455">
        <ele>332.91245</ele>
        <time>2023-07-30T13:53:18.000Z</time>
      </trkpt>
      <trkpt lat="45.84745" lon="4.67455">
        <ele>332.83932</ele>
        <time>2023-07-30T13:53:19.000Z</time>
      </trkpt>
      <trkpt lat="45.8475" lon="4.67454">
        <ele>332.72031</ele>
        <time>2023-07-30T13:53:20.000Z</time>
      </trkpt>
      <trkpt lat="45.84756" lon="4.67453">
        <ele>332.56274</ele>
        <time>2023-07-30T13:53:21.000Z</time>
      </trkpt>
      <trkpt lat="45.84761" lon="4.67453">
        <ele>332.4924</ele>
        <time>2023-07-30T13:53:22.000Z</time>
      </trkpt>
      <trkpt lat="45.84766" lon="4.67452">
        <ele>332.42548</ele>
        <time>2023-07-30T13:53:23.000Z</time>
      </trkpt>
      <trkpt lat="45.84771" lon="4.67452">
        <ele>332.35834</ele>
        <time>2023-07-30T13:53:24.000Z</time>
      </trkpt>
      <trkpt lat="45.84775" lon="4.6745">
        <ele>332.30191</ele>
        <time>2023-07-30T13:53:25.000Z</time>
      </trkpt>
      <trkpt lat="45.8478" lon="4.67449">
        <ele>332.3111</ele>
        <time>2023-07-30T13:53:26.000Z</time>
      </trkpt>
      <trkpt lat="45.84784" lon="4.67449">
        <ele>332.3497</ele>
        <time>2023-07-30T13:53:27.000Z</time>
      </trkpt>
      <trkpt lat="45.84789" lon="4.67449">
        <ele>332.41193</ele>
        <time>2023-07-30T13:53:28.000Z</time>
      </trkpt>
      <trkpt lat="45.84793" lon="4.67448">
        <ele>332.40094</ele>
        <time>2023-07-30T13:53:29.000Z</time>
      </trkpt>
      <trkpt lat="45.84798" lon="4.67448">
        <ele>332.43185</ele>
        <time>2023-07-30T13:53:30.000Z</time>
      </trkpt>
      <trkpt lat="45.84802" lon="4.67448">
        <ele>332.45935</ele>
        <time>2023-07-30T13:53:31.000Z</time>
      </trkpt>
      <trkpt lat="45.84807" lon="4.67447">
        <ele>332.45856</ele>
        <time>2023-07-30T13:53:32.000Z</time>
      </trkpt>
      <trkpt lat="45.84811" lon="4.67447">
        <ele>332.43887</ele>
        <time>2023-07-30T13:53:33.000Z</time>
      </trkpt>
      <trkpt lat="45.84816" lon="4.67447">
        <ele>332.40997</ele>
        <time>2023-07-30T13:53:34.000Z</time>
      </trkpt>
      <trkpt lat="45.84821" lon="4.67447">
        <ele>332.37241</ele>
        <time>2023-07-30T13:53:35.000Z</time>
      </trkpt>
      <trkpt lat="45.84825" lon="4.67446">
        <ele>332.44781</ele>
        <time>2023-07-30T13:53:36.000Z</time>
      </trkpt>
      <trkpt lat="45.8483" lon="4.67446">
        <ele>332.48926</ele>
        <time>2023-07-30T13:53:37.000Z</time>
      </trkpt>
      <trkpt lat="45.84835" lon="4.67445">
        <ele>332.5141</ele>
        <time>2023-07-30T13:53:38.000Z</time>
      </trkpt>
      <trkpt lat="45.8484" lon="4.67445">
        <ele>332.5173</ele>
        <time>2023-07-30T13:53:39.000Z</time>
      </trkpt>
      <trkpt lat="45.84845" lon="4.67444">
        <ele>332.52652</ele>
        <time>2023-07-30T13:53:40.000Z</time>
      </trkpt>
      <trkpt lat="45.8485" lon="4.67443">
        <ele>332.53622</ele>
        <time>2023-07-30T13:53:41.000Z</time>
      </trkpt>
      <trkpt lat="45.84855" lon="4.67442">
        <ele>332.53537</ele>
        <time>2023-07-30T13:53:42.000Z</time>
      </trkpt>
      <trkpt lat="45.8486" lon="4.67442">
        <ele>332.51108</ele>
        <time>2023-07-30T13:53:43.000Z</time>
      </trkpt>
      <trkpt lat="45.84864" lon="4.67442">
        <ele>332.48959</ele>
        <time>2023-07-30T13:53:44.000Z</time>
      </trkpt>
      <trkpt lat="45.84869" lon="4.67441">
        <ele>332.45401</ele>
        <time>2023-07-30T13:53:45.000Z</time>
      </trkpt>
      <trkpt lat="45.84873" lon="4.6744">
        <ele>332.35025</ele>
        <time>2023-07-30T13:53:46.000Z</time>
      </trkpt>
      <trkpt lat="45.84877" lon="4.6744">
        <ele>332.22394</ele>
        <time>2023-07-30T13:53:47.000Z</time>
      </trkpt>
      <trkpt lat="45.84881" lon="4.6744">
        <ele>332.08481</ele>
        <time>2023-07-30T13:53:48.000Z</time>
      </trkpt>
      <trkpt lat="45.84885" lon="4.67439">
        <ele>332.02057</ele>
        <time>2023-07-30T13:53:49.000Z</time>
      </trkpt>
      <trkpt lat="45.8489" lon="4.67438">
        <ele>331.92889</ele>
        <time>2023-07-30T13:53:50.000Z</time>
      </trkpt>
      <trkpt lat="45.84894" lon="4.67438">
        <ele>331.87393</ele>
        <time>2023-07-30T13:53:51.000Z</time>
      </trkpt>
      <trkpt lat="45.84899" lon="4.67437">
        <ele>331.85809</ele>
        <time>2023-07-30T13:53:52.000Z</time>
      </trkpt>
      <trkpt lat="45.84903" lon="4.67437">
        <ele>331.83624</ele>
        <time>2023-07-30T13:53:53.000Z</time>
      </trkpt>
      <trkpt lat="45.84907" lon="4.67436">
        <ele>331.81689</ele>
        <time>2023-07-30T13:53:54.000Z</time>
      </trkpt>
      <trkpt lat="45.84911" lon="4.67436">
        <ele>331.81702</ele>
        <time>2023-07-30T13:53:55.000Z</time>
      </trkpt>
      <trkpt lat="45.84915" lon="4.67436">
        <ele>331.80292</ele>
        <time>2023-07-30T13:53:56.000Z</time>
      </trkpt>
      <trkpt lat="45.84919" lon="4.67435">
        <ele>331.7789</ele>
        <time>2023-07-30T13:53:57.000Z</time>
      </trkpt>
      <trkpt lat="45.84923" lon="4.67434">
        <ele>331.75638</ele>
        <time>2023-07-30T13:53:58.000Z</time>
      </trkpt>
      <trkpt lat="45.84927" lon="4.67433">
        <ele>331.75702</ele>
        <time>2023-07-30T13:53:59.000Z</time>
      </trkpt>
      <trkpt lat="45.84931" lon="4.67433">
        <ele>331.82047</ele>
        <time>2023-07-30T13:54:00.000Z</time>
      </trkpt>
      <trkpt lat="45.84935" lon="4.67432">
        <ele>331.89923</ele>
        <time>2023-07-30T13:54:01.000Z</time>
      </trkpt>
      <trkpt lat="45.8494" lon="4.67431">
        <ele>332.01291</ele>
        <time>2023-07-30T13:54:02.000Z</time>
      </trkpt>
      <trkpt lat="45.84944" lon="4.6743">
        <ele>332.0274</ele>
        <time>2023-07-30T13:54:03.000Z</time>
      </trkpt>
      <trkpt lat="45.84948" lon="4.67429">
        <ele>332.05331</ele>
        <time>2023-07-30T13:54:04.000Z</time>
      </trkpt>
      <trkpt lat="45.84952" lon="4.67427">
        <ele>332.07401</ele>
        <time>2023-07-30T13:54:05.000Z</time>
      </trkpt>
      <trkpt lat="45.84956" lon="4.67426">
        <ele>332.08395</ele>
        <time>2023-07-30T13:54:06.000Z</time>
      </trkpt>
      <trkpt lat="45.84961" lon="4.67426">
        <ele>332.09927</ele>
        <time>2023-07-30T13:54:07.000Z</time>
      </trkpt>
      <trkpt lat="45.84965" lon="4.67425">
        <ele>332.10538</ele>
        <time>2023-07-30T13:54:08.000Z</time>
      </trkpt>
      <trkpt lat="45.8497" lon="4.67423">
        <ele>332.12433</ele>
        <time>2023-07-30T13:54:09.000Z</time>
      </trkpt>
      <trkpt lat="45.84975" lon="4.67422">
        <ele>332.15286</ele>
        <time>2023-07-30T13:54:10.000Z</time>
      </trkpt>
      <trkpt lat="45.84979" lon="4.67422">
        <ele>332.16516</ele>
        <time>2023-07-30T13:54:11.000Z</time>
      </trkpt>
      <trkpt lat="45.84983" lon="4.6742">
        <ele>332.19818</ele>
        <time>2023-07-30T13:54:12.000Z</time>
      </trkpt>
      <trkpt lat="45.84987" lon="4.67419">
        <ele>332.19632</ele>
        <time>2023-07-30T13:54:13.000Z</time>
      </trkpt>
      <trkpt lat="45.84991" lon="4.67419">
        <ele>332.20148</ele>
        <time>2023-07-30T13:54:14.000Z</time>
      </trkpt>
      <trkpt lat="45.84995" lon="4.67418">
        <ele>332.23929</ele>
        <time>2023-07-30T13:54:15.000Z</time>
      </trkpt>
      <trkpt lat="45.84999" lon="4.67417">
        <ele>332.1857</ele>
        <time>2023-07-30T13:54:16.000Z</time>
      </trkpt>
      <trkpt lat="45.85003" lon="4.67416">
        <ele>332.09335</ele>
        <time>2023-07-30T13:54:17.000Z</time>
      </trkpt>
      <trkpt lat="45.85006" lon="4.67415">
        <ele>331.99792</ele>
        <time>2023-07-30T13:54:18.000Z</time>
      </trkpt>
      <trkpt lat="45.8501" lon="4.67415">
        <ele>331.87344</ele>
        <time>2023-07-30T13:54:19.000Z</time>
      </trkpt>
      <trkpt lat="45.85014" lon="4.67414">
        <ele>331.66119</ele>
        <time>2023-07-30T13:54:20.000Z</time>
      </trkpt>
      <trkpt lat="45.85019" lon="4.67413">
        <ele>331.42731</ele>
        <time>2023-07-30T13:54:21.000Z</time>
      </trkpt>
      <trkpt lat="45.85024" lon="4.67411">
        <ele>331.1619</ele>
        <time>2023-07-30T13:54:22.000Z</time>
      </trkpt>
      <trkpt lat="45.85027" lon="4.6741">
        <ele>330.99741</ele>
        <time>2023-07-30T13:54:23.000Z</time>
      </trkpt>
      <trkpt lat="45.85032" lon="4.67407">
        <ele>330.78406</ele>
        <time>2023-07-30T13:54:24.000Z</time>
      </trkpt>
      <trkpt lat="45.85037" lon="4.67404">
        <ele>330.55804</ele>
        <time>2023-07-30T13:54:25.000Z</time>
      </trkpt>
      <trkpt lat="45.85042" lon="4.67401">
        <ele>330.38348</ele>
        <time>2023-07-30T13:54:26.000Z</time>
      </trkpt>
      <trkpt lat="45.85047" lon="4.67398">
        <ele>330.2037</ele>
        <time>2023-07-30T13:54:27.000Z</time>
      </trkpt>
      <trkpt lat="45.85052" lon="4.67395">
        <ele>330.02484</ele>
        <time>2023-07-30T13:54:28.000Z</time>
      </trkpt>
      <trkpt lat="45.85056" lon="4.67393">
        <ele>329.86249</ele>
        <time>2023-07-30T13:54:29.000Z</time>
      </trkpt>
      <trkpt lat="45.85059" lon="4.67392">
        <ele>329.64618</ele>
        <time>2023-07-30T13:54:30.000Z</time>
      </trkpt>
      <trkpt lat="45.85062" lon="4.6739">
        <ele>329.41873</ele>
        <time>2023-07-30T13:54:31.000Z</time>
      </trkpt>
      <trkpt lat="45.85065" lon="4.67388">
        <ele>329.17523</ele>
        <time>2023-07-30T13:54:32.000Z</time>
      </trkpt>
      <trkpt lat="45.85068" lon="4.67386">
        <ele>328.94952</ele>
        <time>2023-07-30T13:54:33.000Z</time>
      </trkpt>
      <trkpt lat="45.85071" lon="4.67384">
        <ele>328.60446</ele>
        <time>2023-07-30T13:54:34.000Z</time>
      </trkpt>
      <trkpt lat="45.85074" lon="4.67383">
        <ele>328.20779</ele>
        <time>2023-07-30T13:54:35.000Z</time>
      </trkpt>
      <trkpt lat="45.85076" lon="4.67381">
        <ele>327.88348</ele>
        <time>2023-07-30T13:54:36.000Z</time>
      </trkpt>
      <trkpt lat="45.8508" lon="4.67379">
        <ele>327.61313</ele>
        <time>2023-07-30T13:54:37.000Z</time>
      </trkpt>
      <trkpt lat="45.85082" lon="4.67378">
        <ele>327.34189</ele>
        <time>2023-07-30T13:54:38.000Z</time>
      </trkpt>
      <trkpt lat="45.85085" lon="4.67376">
        <ele>327.07315</ele>
        <time>2023-07-30T13:54:39.000Z</time>
      </trkpt>
      <trkpt lat="45.85088" lon="4.67375">
        <ele>326.81512</ele>
        <time>2023-07-30T13:54:40.000Z</time>
      </trkpt>
      <trkpt lat="45.85091" lon="4.67374">
        <ele>326.57086</ele>
        <time>2023-07-30T13:54:41.000Z</time>
      </trkpt>
      <trkpt lat="45.85094" lon="4.67372">
        <ele>326.32535</ele>
        <time>2023-07-30T13:54:42.000Z</time>
      </trkpt>
      <trkpt lat="45.85097" lon="4.6737">
        <ele>326.08124</ele>
        <time>2023-07-30T13:54:43.000Z</time>
      </trkpt>
      <trkpt lat="45.85099" lon="4.67368">
        <ele>325.86578</ele>
        <time>2023-07-30T13:54:44.000Z</time>
      </trkpt>
      <trkpt lat="45.85102" lon="4.67367">
        <ele>325.66931</ele>
        <time>2023-07-30T13:54:45.000Z</time>
      </trkpt>
      <trkpt lat="45.85105" lon="4.67365">
        <ele>325.42706</ele>
        <time>2023-07-30T13:54:46.000Z</time>
      </trkpt>
      <trkpt lat="45.85108" lon="4.67363">
        <ele>325.20734</ele>
        <time>2023-07-30T13:54:47.000Z</time>
      </trkpt>
      <trkpt lat="45.85111" lon="4.67361">
        <ele>325.01343</ele>
        <time>2023-07-30T13:54:48.000Z</time>
      </trkpt>
      <trkpt lat="45.85113" lon="4.67359">
        <ele>324.80304</ele>
        <time>2023-07-30T13:54:49.000Z</time>
      </trkpt>
      <trkpt lat="45.85116" lon="4.67358">
        <ele>324.63962</ele>
        <time>2023-07-30T13:54:50.000Z</time>
      </trkpt>
      <trkpt lat="45.85118" lon="4.67357">
        <ele>324.49783</ele>
        <time>2023-07-30T13:54:51.000Z</time>
      </trkpt>
      <trkpt lat="45.85119" lon="4.67356">
        <ele>324.26538</ele>
        <time>2023-07-30T13:54:57.000Z</time>
      </trkpt>
      <trkpt lat="45.85121" lon="4.67355">
        <ele>324.06497</ele>
        <time>2023-07-30T13:55:15.000Z</time>
      </trkpt>
      <trkpt lat="45.85125" lon="4.67353">
        <ele>323.9899</ele>
        <time>2023-07-30T13:55:17.000Z</time>
      </trkpt>
      <trkpt lat="45.85127" lon="4.67353">
        <ele>323.89609</ele>
        <time>2023-07-30T13:55:18.000Z</time>
      </trkpt>
      <trkpt lat="45.85129" lon="4.67353">
        <ele>323.83896</ele>
        <time>2023-07-30T13:55:19.000Z</time>
      </trkpt>
      <trkpt lat="45.85131" lon="4.67352">
        <ele>323.84528</ele>
        <time>2023-07-30T13:55:20.000Z</time>
      </trkpt>
      <trkpt lat="45.85133" lon="4.6735">
        <ele>323.91147</ele>
        <time>2023-07-30T13:55:21.000Z</time>
      </trkpt>
      <trkpt lat="45.85136" lon="4.67348">
        <ele>323.84714</ele>
        <time>2023-07-30T13:55:22.000Z</time>
      </trkpt>
      <trkpt lat="45.85138" lon="4.67346">
        <ele>323.82327</ele>
        <time>2023-07-30T13:55:23.000Z</time>
      </trkpt>
      <trkpt lat="45.85141" lon="4.67344">
        <ele>323.7981</ele>
        <time>2023-07-30T13:55:24.000Z</time>
      </trkpt>
      <trkpt lat="45.85144" lon="4.67343">
        <ele>323.77753</ele>
        <time>2023-07-30T13:55:25.000Z</time>
      </trkpt>
      <trkpt lat="45.85147" lon="4.67341">
        <ele>323.75235</ele>
        <time>2023-07-30T13:55:26.000Z</time>
      </trkpt>
      <trkpt lat="45.8515" lon="4.67339">
        <ele>323.73761</ele>
        <time>2023-07-30T13:55:27.000Z</time>
      </trkpt>
      <trkpt lat="45.85152" lon="4.67337">
        <ele>323.70905</ele>
        <time>2023-07-30T13:55:28.000Z</time>
      </trkpt>
      <trkpt lat="45.85155" lon="4.67334">
        <ele>323.6691</ele>
        <time>2023-07-30T13:55:29.000Z</time>
      </trkpt>
      <trkpt lat="45.85158" lon="4.67332">
        <ele>323.62958</ele>
        <time>2023-07-30T13:55:30.000Z</time>
      </trkpt>
      <trkpt lat="45.85161" lon="4.6733">
        <ele>323.59512</ele>
        <time>2023-07-30T13:55:31.000Z</time>
      </trkpt>
      <trkpt lat="45.85165" lon="4.67328">
        <ele>323.5676</ele>
        <time>2023-07-30T13:55:32.000Z</time>
      </trkpt>
      <trkpt lat="45.85168" lon="4.67327">
        <ele>323.64951</ele>
        <time>2023-07-30T13:55:33.000Z</time>
      </trkpt>
      <trkpt lat="45.85172" lon="4.67325">
        <ele>323.66943</ele>
        <time>2023-07-30T13:55:34.000Z</time>
      </trkpt>
      <trkpt lat="45.85175" lon="4.67323">
        <ele>323.74225</ele>
        <time>2023-07-30T13:55:35.000Z</time>
      </trkpt>
      <trkpt lat="45.85179" lon="4.67322">
        <ele>323.7757</ele>
        <time>2023-07-30T13:55:36.000Z</time>
      </trkpt>
      <trkpt lat="45.85182" lon="4.6732">
        <ele>323.89188</ele>
        <time>2023-07-30T13:55:37.000Z</time>
      </trkpt>
      <trkpt lat="45.85186" lon="4.67318">
        <ele>324.09369</ele>
        <time>2023-07-30T13:55:38.000Z</time>
      </trkpt>
      <trkpt lat="45.85189" lon="4.67316">
        <ele>324.08649</ele>
        <time>2023-07-30T13:55:39.000Z</time>
      </trkpt>
      <trkpt lat="45.85193" lon="4.67314">
        <ele>324.01947</ele>
        <time>2023-07-30T13:55:40.000Z</time>
      </trkpt>
      <trkpt lat="45.85196" lon="4.67313">
        <ele>323.87204</ele>
        <time>2023-07-30T13:55:41.000Z</time>
      </trkpt>
      <trkpt lat="45.852" lon="4.67312">
        <ele>323.88574</ele>
        <time>2023-07-30T13:55:42.000Z</time>
      </trkpt>
      <trkpt lat="45.85203" lon="4.67312">
        <ele>323.84128</ele>
        <time>2023-07-30T13:55:43.000Z</time>
      </trkpt>
      <trkpt lat="45.85206" lon="4.67313">
        <ele>323.7941</ele>
        <time>2023-07-30T13:55:44.000Z</time>
      </trkpt>
      <trkpt lat="45.85208" lon="4.67315">
        <ele>323.83691</ele>
        <time>2023-07-30T13:55:45.000Z</time>
      </trkpt>
      <trkpt lat="45.8521" lon="4.67318">
        <ele>323.92053</ele>
        <time>2023-07-30T13:55:46.000Z</time>
      </trkpt>
      <trkpt lat="45.85212" lon="4.67321">
        <ele>324.07785</ele>
        <time>2023-07-30T13:55:47.000Z</time>
      </trkpt>
      <trkpt lat="45.85213" lon="4.67325">
        <ele>324.02115</ele>
        <time>2023-07-30T13:55:48.000Z</time>
      </trkpt>
      <trkpt lat="45.85214" lon="4.67329">
        <ele>324.00812</ele>
        <time>2023-07-30T13:55:49.000Z</time>
      </trkpt>
      <trkpt lat="45.85215" lon="4.67333">
        <ele>323.99701</ele>
        <time>2023-07-30T13:55:50.000Z</time>
      </trkpt>
      <trkpt lat="45.85216" lon="4.67337">
        <ele>323.9913</ele>
        <time>2023-07-30T13:55:51.000Z</time>
      </trkpt>
      <trkpt lat="45.85217" lon="4.6734">
        <ele>323.98199</ele>
        <time>2023-07-30T13:55:52.000Z</time>
      </trkpt>
      <trkpt lat="45.85219" lon="4.67343">
        <ele>323.96664</ele>
        <time>2023-07-30T13:55:53.000Z</time>
      </trkpt>
      <trkpt lat="45.85221" lon="4.67344">
        <ele>324.11325</ele>
        <time>2023-07-30T13:55:54.000Z</time>
      </trkpt>
      <trkpt lat="45.85223" lon="4.67344">
        <ele>324.26367</ele>
        <time>2023-07-30T13:55:55.000Z</time>
      </trkpt>
      <trkpt lat="45.85226" lon="4.67344">
        <ele>324.25333</ele>
        <time>2023-07-30T13:55:56.000Z</time>
      </trkpt>
      <trkpt lat="45.85229" lon="4.67343">
        <ele>324.18317</ele>
        <time>2023-07-30T13:55:57.000Z</time>
      </trkpt>
      <trkpt lat="45.85231" lon="4.67342">
        <ele>324.05737</ele>
        <time>2023-07-30T13:55:58.000Z</time>
      </trkpt>
      <trkpt lat="45.85234" lon="4.67342">
        <ele>324.12573</ele>
        <time>2023-07-30T13:55:59.000Z</time>
      </trkpt>
      <trkpt lat="45.85237" lon="4.67341">
        <ele>324.1785</ele>
        <time>2023-07-30T13:56:00.000Z</time>
      </trkpt>
      <trkpt lat="45.8524" lon="4.67341">
        <ele>324.22626</ele>
        <time>2023-07-30T13:56:01.000Z</time>
      </trkpt>
      <trkpt lat="45.85242" lon="4.6734">
        <ele>324.40048</ele>
        <time>2023-07-30T13:56:02.000Z</time>
      </trkpt>
      <trkpt lat="45.85245" lon="4.6734">
        <ele>324.27124</ele>
        <time>2023-07-30T13:56:03.000Z</time>
      </trkpt>
      <trkpt lat="45.85248" lon="4.67339">
        <ele>324.12003</ele>
        <time>2023-07-30T13:56:04.000Z</time>
      </trkpt>
      <trkpt lat="45.8525" lon="4.67339">
        <ele>323.86685</ele>
        <time>2023-07-30T13:56:05.000Z</time>
      </trkpt>
      <trkpt lat="45.85253" lon="4.67338">
        <ele>323.56293</ele>
        <time>2023-07-30T13:56:06.000Z</time>
      </trkpt>
      <trkpt lat="45.85255" lon="4.67337">
        <ele>323.16919</ele>
        <time>2023-07-30T13:56:07.000Z</time>
      </trkpt>
      <trkpt lat="45.85258" lon="4.67336">
        <ele>323.0275</ele>
        <time>2023-07-30T13:56:08.000Z</time>
      </trkpt>
      <trkpt lat="45.8526" lon="4.67335">
        <ele>323.04828</ele>
        <time>2023-07-30T13:56:09.000Z</time>
      </trkpt>
      <trkpt lat="45.85263" lon="4.67334">
        <ele>323.04889</ele>
        <time>2023-07-30T13:56:10.000Z</time>
      </trkpt>
      <trkpt lat="45.85266" lon="4.67333">
        <ele>323.02725</ele>
        <time>2023-07-30T13:56:11.000Z</time>
      </trkpt>
      <trkpt lat="45.85268" lon="4.67332">
        <ele>323.01038</ele>
        <time>2023-07-30T13:56:12.000Z</time>
      </trkpt>
      <trkpt lat="45.85271" lon="4.67331">
        <ele>322.89688</ele>
        <time>2023-07-30T13:56:13.000Z</time>
      </trkpt>
      <trkpt lat="45.85274" lon="4.6733">
        <ele>322.66312</ele>
        <time>2023-07-30T13:56:14.000Z</time>
      </trkpt>
      <trkpt lat="45.85276" lon="4.67329">
        <ele>322.42905</ele>
        <time>2023-07-30T13:56:15.000Z</time>
      </trkpt>
      <trkpt lat="45.85279" lon="4.67328">
        <ele>322.18805</ele>
        <time>2023-07-30T13:56:16.000Z</time>
      </trkpt>
      <trkpt lat="45.85281" lon="4.67328">
        <ele>321.92273</ele>
        <time>2023-07-30T13:56:17.000Z</time>
      </trkpt>
      <trkpt lat="45.85282" lon="4.67327">
        <ele>321.63675</ele>
        <time>2023-07-30T13:56:18.000Z</time>
      </trkpt>
      <trkpt lat="45.85284" lon="4.67327">
        <ele>321.3877</ele>
        <time>2023-07-30T13:56:20.000Z</time>
      </trkpt>
      <trkpt lat="45.85286" lon="4.67327">
        <ele>321.20917</ele>
        <time>2023-07-30T13:57:36.000Z</time>
      </trkpt>
      <trkpt lat="45.85286" lon="4.67322">
        <ele>321.00299</ele>
        <time>2023-07-30T13:57:47.000Z</time>
      </trkpt>
      <trkpt lat="45.85285" lon="4.6732">
        <ele>320.65109</ele>
        <time>2023-07-30T13:57:48.000Z</time>
      </trkpt>
      <trkpt lat="45.85285" lon="4.67316">
        <ele>320.61426</ele>
        <time>2023-07-30T13:57:49.000Z</time>
      </trkpt>
      <trkpt lat="45.85284" lon="4.67313">
        <ele>320.59802</ele>
        <time>2023-07-30T13:57:50.000Z</time>
      </trkpt>
      <trkpt lat="45.85284" lon="4.67309">
        <ele>320.60712</ele>
        <time>2023-07-30T13:57:51.000Z</time>
      </trkpt>
      <trkpt lat="45.85285" lon="4.67306">
        <ele>320.62167</ele>
        <time>2023-07-30T13:57:52.000Z</time>
      </trkpt>
      <trkpt lat="45.85285" lon="4.67303">
        <ele>320.63934</ele>
        <time>2023-07-30T13:57:53.000Z</time>
      </trkpt>
      <trkpt lat="45.85284" lon="4.67299">
        <ele>320.63217</ele>
        <time>2023-07-30T13:57:54.000Z</time>
      </trkpt>
      <trkpt lat="45.85284" lon="4.67296">
        <ele>320.44626</ele>
        <time>2023-07-30T13:57:55.000Z</time>
      </trkpt>
      <trkpt lat="45.85283" lon="4.67292">
        <ele>320.26849</ele>
        <time>2023-07-30T13:57:56.000Z</time>
      </trkpt>
      <trkpt lat="45.85283" lon="4.67288">
        <ele>320.09686</ele>
        <time>2023-07-30T13:57:57.000Z</time>
      </trkpt>
      <trkpt lat="45.85283" lon="4.67284">
        <ele>319.9129</ele>
        <time>2023-07-30T13:57:58.000Z</time>
      </trkpt>
      <trkpt lat="45.85283" lon="4.6728">
        <ele>319.71414</ele>
        <time>2023-07-30T13:57:59.000Z</time>
      </trkpt>
      <trkpt lat="45.85283" lon="4.67275">
        <ele>319.51971</ele>
        <time>2023-07-30T13:58:00.000Z</time>
      </trkpt>
      <trkpt lat="45.85282" lon="4.6727">
        <ele>319.33786</ele>
        <time>2023-07-30T13:58:01.000Z</time>
      </trkpt>
      <trkpt lat="45.85282" lon="4.67265">
        <ele>319.3338</ele>
        <time>2023-07-30T13:58:02.000Z</time>
      </trkpt>
      <trkpt lat="45.85282" lon="4.6726">
        <ele>319.29831</ele>
        <time>2023-07-30T13:58:03.000Z</time>
      </trkpt>
      <trkpt lat="45.85282" lon="4.67254">
        <ele>319.25018</ele>
        <time>2023-07-30T13:58:04.000Z</time>
      </trkpt>
      <trkpt lat="45.85282" lon="4.67248">
        <ele>319.17004</ele>
        <time>2023-07-30T13:58:05.000Z</time>
      </trkpt>
      <trkpt lat="45.85281" lon="4.67242">
        <ele>319.01105</ele>
        <time>2023-07-30T13:58:06.000Z</time>
      </trkpt>
      <trkpt lat="45.85281" lon="4.67235">
        <ele>318.87787</ele>
        <time>2023-07-30T13:58:07.000Z</time>
      </trkpt>
      <trkpt lat="45.8528" lon="4.67227">
        <ele>318.7189</ele>
        <time>2023-07-30T13:58:08.000Z</time>
      </trkpt>
      <trkpt lat="45.85278" lon="4.67218">
        <ele>318.59952</ele>
        <time>2023-07-30T13:58:09.000Z</time>
      </trkpt>
      <trkpt lat="45.85277" lon="4.67208">
        <ele>318.45221</ele>
        <time>2023-07-30T13:58:10.000Z</time>
      </trkpt>
      <trkpt lat="45.85276" lon="4.67198">
        <ele>318.26224</ele>
        <time>2023-07-30T13:58:11.000Z</time>
      </trkpt>
      <trkpt lat="45.85276" lon="4.67189">
        <ele>318.10294</ele>
        <time>2023-07-30T13:58:12.000Z</time>
      </trkpt>
      <trkpt lat="45.85275" lon="4.67181">
        <ele>317.93817</ele>
        <time>2023-07-30T13:58:13.000Z</time>
      </trkpt>
      <trkpt lat="45.85274" lon="4.67173">
        <ele>317.79865</ele>
        <time>2023-07-30T13:58:14.000Z</time>
      </trkpt>
      <trkpt lat="45.85271" lon="4.67165">
        <ele>317.44449</ele>
        <time>2023-07-30T13:58:15.000Z</time>
      </trkpt>
      <trkpt lat="45.85266" lon="4.67158">
        <ele>317.07098</ele>
        <time>2023-07-30T13:58:16.000Z</time>
      </trkpt>
      <trkpt lat="45.8526" lon="4.67152">
        <ele>316.65448</ele>
        <time>2023-07-30T13:58:17.000Z</time>
      </trkpt>
      <trkpt lat="45.85253" lon="4.67147">
        <ele>316.20926</ele>
        <time>2023-07-30T13:58:18.000Z</time>
      </trkpt>
      <trkpt lat="45.85246" lon="4.67143">
        <ele>315.72217</ele>
        <time>2023-07-30T13:58:19.000Z</time>
      </trkpt>
      <trkpt lat="45.85237" lon="4.67139">
        <ele>315.21353</ele>
        <time>2023-07-30T13:58:20.000Z</time>
      </trkpt>
      <trkpt lat="45.8523" lon="4.67133">
        <ele>314.69928</ele>
        <time>2023-07-30T13:58:21.000Z</time>
      </trkpt>
      <trkpt lat="45.85223" lon="4.67128">
        <ele>314.16144</ele>
        <time>2023-07-30T13:58:22.000Z</time>
      </trkpt>
      <trkpt lat="45.85214" lon="4.67123">
        <ele>313.57904</ele>
        <time>2023-07-30T13:58:23.000Z</time>
      </trkpt>
      <trkpt lat="45.85206" lon="4.67117">
        <ele>312.95596</ele>
        <time>2023-07-30T13:58:24.000Z</time>
      </trkpt>
      <trkpt lat="45.85198" lon="4.67112">
        <ele>312.31519</ele>
        <time>2023-07-30T13:58:25.000Z</time>
      </trkpt>
      <trkpt lat="45.85189" lon="4.67106">
        <ele>311.68832</ele>
        <time>2023-07-30T13:58:26.000Z</time>
      </trkpt>
      <trkpt lat="45.85181" lon="4.67101">
        <ele>311.0614</ele>
        <time>2023-07-30T13:58:27.000Z</time>
      </trkpt>
      <trkpt lat="45.85174" lon="4.67096">
        <ele>310.45615</ele>
        <time>2023-07-30T13:58:28.000Z</time>
      </trkpt>
      <trkpt lat="45.85166" lon="4.6709">
        <ele>309.83307</ele>
        <time>2023-07-30T13:58:29.000Z</time>
      </trkpt>
      <trkpt lat="45.85158" lon="4.67084">
        <ele>309.23828</ele>
        <time>2023-07-30T13:58:30.000Z</time>
      </trkpt>
      <trkpt lat="45.85151" lon="4.6708">
        <ele>308.65973</ele>
        <time>2023-07-30T13:58:31.000Z</time>
      </trkpt>
      <trkpt lat="45.85144" lon="4.67076">
        <ele>308.03256</ele>
        <time>2023-07-30T13:58:32.000Z</time>
      </trkpt>
      <trkpt lat="45.85138" lon="4.67072">
        <ele>307.39886</ele>
        <time>2023-07-30T13:58:33.000Z</time>
      </trkpt>
      <trkpt lat="45.85132" lon="4.67068">
        <ele>306.73624</ele>
        <time>2023-07-30T13:58:34.000Z</time>
      </trkpt>
      <trkpt lat="45.85125" lon="4.67067">
        <ele>306.27271</ele>
        <time>2023-07-30T13:58:35.000Z</time>
      </trkpt>
      <trkpt lat="45.85119" lon="4.67067">
        <ele>305.83514</ele>
        <time>2023-07-30T13:58:36.000Z</time>
      </trkpt>
      <trkpt lat="45.85115" lon="4.67064">
        <ele>305.42487</ele>
        <time>2023-07-30T13:58:37.000Z</time>
      </trkpt>
      <trkpt lat="45.85114" lon="4.67059">
        <ele>305.05096</ele>
        <time>2023-07-30T13:58:38.000Z</time>
      </trkpt>
      <trkpt lat="45.85116" lon="4.67054">
        <ele>304.68817</ele>
        <time>2023-07-30T13:58:39.000Z</time>
      </trkpt>
      <trkpt lat="45.8512" lon="4.67048">
        <ele>304.32208</ele>
        <time>2023-07-30T13:58:40.000Z</time>
      </trkpt>
      <trkpt lat="45.85123" lon="4.67042">
        <ele>303.90759</ele>
        <time>2023-07-30T13:58:41.000Z</time>
      </trkpt>
      <trkpt lat="45.85128" lon="4.67036">
        <ele>303.4639</ele>
        <time>2023-07-30T13:58:42.000Z</time>
      </trkpt>
      <trkpt lat="45.85133" lon="4.67031">
        <ele>303.05658</ele>
        <time>2023-07-30T13:58:43.000Z</time>
      </trkpt>
      <trkpt lat="45.85139" lon="4.67027">
        <ele>302.65424</ele>
        <time>2023-07-30T13:58:44.000Z</time>
      </trkpt>
      <trkpt lat="45.85144" lon="4.67026">
        <ele>302.39603</ele>
        <time>2023-07-30T13:58:45.000Z</time>
      </trkpt>
      <trkpt lat="45.8515" lon="4.67026">
        <ele>302.0965</ele>
        <time>2023-07-30T13:58:46.000Z</time>
      </trkpt>
      <trkpt lat="45.85155" lon="4.67026">
        <ele>301.79993</ele>
        <time>2023-07-30T13:58:47.000Z</time>
      </trkpt>
      <trkpt lat="45.85162" lon="4.67028">
        <ele>301.50143</ele>
        <time>2023-07-30T13:58:48.000Z</time>
      </trkpt>
      <trkpt lat="45.85167" lon="4.67029">
        <ele>301.1813</ele>
        <time>2023-07-30T13:58:49.000Z</time>
      </trkpt>
      <trkpt lat="45.85172" lon="4.67029">
        <ele>300.85294</ele>
        <time>2023-07-30T13:58:50.000Z</time>
      </trkpt>
      <trkpt lat="45.85177" lon="4.6703">
        <ele>300.53262</ele>
        <time>2023-07-30T13:58:51.000Z</time>
      </trkpt>
      <trkpt lat="45.85182" lon="4.67031">
        <ele>300.25787</ele>
        <time>2023-07-30T13:58:52.000Z</time>
      </trkpt>
      <trkpt lat="45.85188" lon="4.6703">
        <ele>300.00031</ele>
        <time>2023-07-30T13:58:53.000Z</time>
      </trkpt>
      <trkpt lat="45.85193" lon="4.6703">
        <ele>299.85355</ele>
        <time>2023-07-30T13:58:54.000Z</time>
      </trkpt>
      <trkpt lat="45.85196" lon="4.67031">
        <ele>299.67792</ele>
        <time>2023-07-30T13:58:55.000Z</time>
      </trkpt>
      <trkpt lat="45.85201" lon="4.67031">
        <ele>299.13568</ele>
        <time>2023-07-30T13:58:56.000Z</time>
      </trkpt>
      <trkpt lat="45.85206" lon="4.6703">
        <ele>298.71426</ele>
        <time>2023-07-30T13:58:57.000Z</time>
      </trkpt>
      <trkpt lat="45.8521" lon="4.6703">
        <ele>298.29468</ele>
        <time>2023-07-30T13:58:58.000Z</time>
      </trkpt>
      <trkpt lat="45.85214" lon="4.67031">
        <ele>297.85675</ele>
        <time>2023-07-30T13:58:59.000Z</time>
      </trkpt>
      <trkpt lat="45.85218" lon="4.67032">
        <ele>297.58453</ele>
        <time>2023-07-30T13:59:00.000Z</time>
      </trkpt>
      <trkpt lat="45.85221" lon="4.67031">
        <ele>297.34738</ele>
        <time>2023-07-30T13:59:01.000Z</time>
      </trkpt>
      <trkpt lat="45.85225" lon="4.67031">
        <ele>297.14368</ele>
        <time>2023-07-30T13:59:02.000Z</time>
      </trkpt>
      <trkpt lat="45.85229" lon="4.67032">
        <ele>297.08536</ele>
        <time>2023-07-30T13:59:03.000Z</time>
      </trkpt>
      <trkpt lat="45.85234" lon="4.67031">
        <ele>296.63809</ele>
        <time>2023-07-30T13:59:04.000Z</time>
      </trkpt>
      <trkpt lat="45.85238" lon="4.6703">
        <ele>296.16132</ele>
        <time>2023-07-30T13:59:05.000Z</time>
      </trkpt>
      <trkpt lat="45.85243" lon="4.67029">
        <ele>295.74704</ele>
        <time>2023-07-30T13:59:06.000Z</time>
      </trkpt>
      <trkpt lat="45.85248" lon="4.6703">
        <ele>295.32867</ele>
        <time>2023-07-30T13:59:07.000Z</time>
      </trkpt>
      <trkpt lat="45.85253" lon="4.67028">
        <ele>294.95566</ele>
        <time>2023-07-30T13:59:08.000Z</time>
      </trkpt>
      <trkpt lat="45.85258" lon="4.67029">
        <ele>294.54938</ele>
        <time>2023-07-30T13:59:09.000Z</time>
      </trkpt>
      <trkpt lat="45.85263" lon="4.67028">
        <ele>294.15302</ele>
        <time>2023-07-30T13:59:10.000Z</time>
      </trkpt>
      <trkpt lat="45.85268" lon="4.67026">
        <ele>293.75693</ele>
        <time>2023-07-30T13:59:11.000Z</time>
      </trkpt>
      <trkpt lat="45.85273" lon="4.67024">
        <ele>293.36841</ele>
        <time>2023-07-30T13:59:12.000Z</time>
      </trkpt>
      <trkpt lat="45.85279" lon="4.67022">
        <ele>293.0043</ele>
        <time>2023-07-30T13:59:13.000Z</time>
      </trkpt>
      <trkpt lat="45.85284" lon="4.67021">
        <ele>292.51654</ele>
        <time>2023-07-30T13:59:14.000Z</time>
      </trkpt>
      <trkpt lat="45.8529" lon="4.6702">
        <ele>292.10275</ele>
        <time>2023-07-30T13:59:15.000Z</time>
      </trkpt>
      <trkpt lat="45.85295" lon="4.67019">
        <ele>292.31778</ele>
        <time>2023-07-30T13:59:16.000Z</time>
      </trkpt>
      <trkpt lat="45.853" lon="4.67017">
        <ele>292.38263</ele>
        <time>2023-07-30T13:59:17.000Z</time>
      </trkpt>
      <trkpt lat="45.85306" lon="4.67017">
        <ele>292.50568</ele>
        <time>2023-07-30T13:59:18.000Z</time>
      </trkpt>
      <trkpt lat="45.85312" lon="4.67015">
        <ele>292.70163</ele>
        <time>2023-07-30T13:59:19.000Z</time>
      </trkpt>
      <trkpt lat="45.85318" lon="4.67014">
        <ele>292.69525</ele>
        <time>2023-07-30T13:59:20.000Z</time>
      </trkpt>
      <trkpt lat="45.85323" lon="4.67011">
        <ele>292.7923</ele>
        <time>2023-07-30T13:59:21.000Z</time>
      </trkpt>
      <trkpt lat="45.85328" lon="4.67008">
        <ele>292.85501</ele>
        <time>2023-07-30T13:59:22.000Z</time>
      </trkpt>
      <trkpt lat="45.85333" lon="4.67005">
        <ele>292.85312</ele>
        <time>2023-07-30T13:59:23.000Z</time>
      </trkpt>
      <trkpt lat="45.85339" lon="4.67003">
        <ele>293.31848</ele>
        <time>2023-07-30T13:59:24.000Z</time>
      </trkpt>
      <trkpt lat="45.85344" lon="4.67">
        <ele>293.67374</ele>
        <time>2023-07-30T13:59:25.000Z</time>
      </trkpt>
      <trkpt lat="45.85349" lon="4.66998">
        <ele>294.04745</ele>
        <time>2023-07-30T13:59:26.000Z</time>
      </trkpt>
      <trkpt lat="45.85353" lon="4.66996">
        <ele>294.04163</ele>
        <time>2023-07-30T13:59:27.000Z</time>
      </trkpt>
      <trkpt lat="45.85358" lon="4.66993">
        <ele>294.10181</ele>
        <time>2023-07-30T13:59:28.000Z</time>
      </trkpt>
      <trkpt lat="45.85362" lon="4.66989">
        <ele>294.20834</ele>
        <time>2023-07-30T13:59:29.000Z</time>
      </trkpt>
      <trkpt lat="45.85368" lon="4.66985">
        <ele>294.21176</ele>
        <time>2023-07-30T13:59:30.000Z</time>
      </trkpt>
      <trkpt lat="45.85373" lon="4.66982">
        <ele>294.13431</ele>
        <time>2023-07-30T13:59:31.000Z</time>
      </trkpt>
      <trkpt lat="45.85378" lon="4.66979">
        <ele>294.00372</ele>
        <time>2023-07-30T13:59:32.000Z</time>
      </trkpt>
      <trkpt lat="45.85383" lon="4.66976">
        <ele>293.79733</ele>
        <time>2023-07-30T13:59:33.000Z</time>
      </trkpt>
      <trkpt lat="45.85389" lon="4.66972">
        <ele>293.51068</ele>
        <time>2023-07-30T13:59:34.000Z</time>
      </trkpt>
      <trkpt lat="45.85394" lon="4.66969">
        <ele>293.13852</ele>
        <time>2023-07-30T13:59:35.000Z</time>
      </trkpt>
      <trkpt lat="45.85399" lon="4.66966">
        <ele>292.73138</ele>
        <time>2023-07-30T13:59:36.000Z</time>
      </trkpt>
      <trkpt lat="45.85404" lon="4.66963">
        <ele>292.367</ele>
        <time>2023-07-30T13:59:37.000Z</time>
      </trkpt>
      <trkpt lat="45.8541" lon="4.66961">
        <ele>291.92703</ele>
        <time>2023-07-30T13:59:38.000Z</time>
      </trkpt>
      <trkpt lat="45.85416" lon="4.6696">
        <ele>291.64673</ele>
        <time>2023-07-30T13:59:39.000Z</time>
      </trkpt>
      <trkpt lat="45.85422" lon="4.6696">
        <ele>290.90726</ele>
        <time>2023-07-30T13:59:40.000Z</time>
      </trkpt>
      <trkpt lat="45.85429" lon="4.6696">
        <ele>290.14151</ele>
        <time>2023-07-30T13:59:41.000Z</time>
      </trkpt>
      <trkpt lat="45.85435" lon="4.66961">
        <ele>289.39349</ele>
        <time>2023-07-30T13:59:42.000Z</time>
      </trkpt>
      <trkpt lat="45.8544" lon="4.66961">
        <ele>288.59314</ele>
        <time>2023-07-30T13:59:43.000Z</time>
      </trkpt>
      <trkpt lat="45.85446" lon="4.66962">
        <ele>287.77179</ele>
        <time>2023-07-30T13:59:44.000Z</time>
      </trkpt>
      <trkpt lat="45.85453" lon="4.66963">
        <ele>286.94467</ele>
        <time>2023-07-30T13:59:45.000Z</time>
      </trkpt>
      <trkpt lat="45.85458" lon="4.66962">
        <ele>286.07767</ele>
        <time>2023-07-30T13:59:46.000Z</time>
      </trkpt>
      <trkpt lat="45.85464" lon="4.66962">
        <ele>285.63419</ele>
        <time>2023-07-30T13:59:47.000Z</time>
      </trkpt>
      <trkpt lat="45.8547" lon="4.66962">
        <ele>285.07599</ele>
        <time>2023-07-30T13:59:48.000Z</time>
      </trkpt>
      <trkpt lat="45.85475" lon="4.66962">
        <ele>284.80484</ele>
        <time>2023-07-30T13:59:49.000Z</time>
      </trkpt>
      <trkpt lat="45.85481" lon="4.6696">
        <ele>284.67294</ele>
        <time>2023-07-30T13:59:50.000Z</time>
      </trkpt>
      <trkpt lat="45.85486" lon="4.66958">
        <ele>284.60944</ele>
        <time>2023-07-30T13:59:51.000Z</time>
      </trkpt>
      <trkpt lat="45.8549" lon="4.66957">
        <ele>284.65948</ele>
        <time>2023-07-30T13:59:52.000Z</time>
      </trkpt>
      <trkpt lat="45.85495" lon="4.66954">
        <ele>285.04498</ele>
        <time>2023-07-30T13:59:53.000Z</time>
      </trkpt>
      <trkpt lat="45.85499" lon="4.66952">
        <ele>285.53101</ele>
        <time>2023-07-30T13:59:54.000Z</time>
      </trkpt>
      <trkpt lat="45.85505" lon="4.66951">
        <ele>285.48456</ele>
        <time>2023-07-30T13:59:55.000Z</time>
      </trkpt>
      <trkpt lat="45.85509" lon="4.6695">
        <ele>285.25076</ele>
        <time>2023-07-30T13:59:56.000Z</time>
      </trkpt>
      <trkpt lat="45.85514" lon="4.66949">
        <ele>284.98065</ele>
        <time>2023-07-30T13:59:57.000Z</time>
      </trkpt>
      <trkpt lat="45.85519" lon="4.66948">
        <ele>284.73117</ele>
        <time>2023-07-30T13:59:58.000Z</time>
      </trkpt>
      <trkpt lat="45.85523" lon="4.66949">
        <ele>284.3161</ele>
        <time>2023-07-30T13:59:59.000Z</time>
      </trkpt>
      <trkpt lat="45.85527" lon="4.66949">
        <ele>284.42572</ele>
        <time>2023-07-30T14:00:00.000Z</time>
      </trkpt>
      <trkpt lat="45.85531" lon="4.6695">
        <ele>284.418</ele>
        <time>2023-07-30T14:00:01.000Z</time>
      </trkpt>
      <trkpt lat="45.85534" lon="4.66952">
        <ele>284.45593</ele>
        <time>2023-07-30T14:00:02.000Z</time>
      </trkpt>
      <trkpt lat="45.85535" lon="4.66956">
        <ele>284.50427</ele>
        <time>2023-07-30T14:00:03.000Z</time>
      </trkpt>
      <trkpt lat="45.85536" lon="4.6696">
        <ele>284.56674</ele>
        <time>2023-07-30T14:00:04.000Z</time>
      </trkpt>
      <trkpt lat="45.85537" lon="4.66965">
        <ele>284.64636</ele>
        <time>2023-07-30T14:00:05.000Z</time>
      </trkpt>
      <trkpt lat="45.85538" lon="4.6697">
        <ele>284.94388</ele>
        <time>2023-07-30T14:00:06.000Z</time>
      </trkpt>
      <trkpt lat="45.8554" lon="4.66975">
        <ele>285.39203</ele>
        <time>2023-07-30T14:00:07.000Z</time>
      </trkpt>
      <trkpt lat="45.85542" lon="4.66978">
        <ele>285.3345</ele>
        <time>2023-07-30T14:00:08.000Z</time>
      </trkpt>
      <trkpt lat="45.85543" lon="4.66981">
        <ele>285.07419</ele>
        <time>2023-07-30T14:00:09.000Z</time>
      </trkpt>
      <trkpt lat="45.85545" lon="4.66985">
        <ele>284.78833</ele>
        <time>2023-07-30T14:00:10.000Z</time>
      </trkpt>
      <trkpt lat="45.85546" lon="4.66989">
        <ele>284.51416</ele>
        <time>2023-07-30T14:00:11.000Z</time>
      </trkpt>
      <trkpt lat="45.85547" lon="4.66994">
        <ele>284.1701</ele>
        <time>2023-07-30T14:00:12.000Z</time>
      </trkpt>
      <trkpt lat="45.85548" lon="4.66999">
        <ele>283.5379</ele>
        <time>2023-07-30T14:00:13.000Z</time>
      </trkpt>
      <trkpt lat="45.85549" lon="4.67004">
        <ele>283.15274</ele>
        <time>2023-07-30T14:00:14.000Z</time>
      </trkpt>
      <trkpt lat="45.85551" lon="4.67008">
        <ele>283.33929</ele>
        <time>2023-07-30T14:00:15.000Z</time>
      </trkpt>
      <trkpt lat="45.85552" lon="4.67013">
        <ele>283.49014</ele>
        <time>2023-07-30T14:00:16.000Z</time>
      </trkpt>
      <trkpt lat="45.85553" lon="4.67017">
        <ele>283.85468</ele>
        <time>2023-07-30T14:00:17.000Z</time>
      </trkpt>
      <trkpt lat="45.85555" lon="4.67022">
        <ele>283.64972</ele>
        <time>2023-07-30T14:00:18.000Z</time>
      </trkpt>
      <trkpt lat="45.85556" lon="4.67026">
        <ele>283.52533</ele>
        <time>2023-07-30T14:00:19.000Z</time>
      </trkpt>
      <trkpt lat="45.85557" lon="4.67031">
        <ele>283.40936</ele>
        <time>2023-07-30T14:00:20.000Z</time>
      </trkpt>
      <trkpt lat="45.85559" lon="4.67036">
        <ele>283.60477</ele>
        <time>2023-07-30T14:00:21.000Z</time>
      </trkpt>
      <trkpt lat="45.8556" lon="4.6704">
        <ele>283.79556</ele>
        <time>2023-07-30T14:00:22.000Z</time>
      </trkpt>
      <trkpt lat="45.85562" lon="4.67045">
        <ele>283.99246</ele>
        <time>2023-07-30T14:00:23.000Z</time>
      </trkpt>
      <trkpt lat="45.85564" lon="4.6705">
        <ele>284.17383</ele>
        <time>2023-07-30T14:00:24.000Z</time>
      </trkpt>
      <trkpt lat="45.85565" lon="4.67055">
        <ele>284.5408</ele>
        <time>2023-07-30T14:00:25.000Z</time>
      </trkpt>
      <trkpt lat="45.85567" lon="4.6706">
        <ele>284.15958</ele>
        <time>2023-07-30T14:00:26.000Z</time>
      </trkpt>
      <trkpt lat="45.85568" lon="4.67065">
        <ele>283.66</ele>
        <time>2023-07-30T14:00:27.000Z</time>
      </trkpt>
      <trkpt lat="45.8557" lon="4.6707">
        <ele>283.73407</ele>
        <time>2023-07-30T14:00:28.000Z</time>
      </trkpt>
      <trkpt lat="45.85572" lon="4.67076">
        <ele>283.65359</ele>
        <time>2023-07-30T14:00:29.000Z</time>
      </trkpt>
      <trkpt lat="45.85574" lon="4.67082">
        <ele>283.57755</ele>
        <time>2023-07-30T14:00:30.000Z</time>
      </trkpt>
      <trkpt lat="45.85576" lon="4.67088">
        <ele>283.4704</ele>
        <time>2023-07-30T14:00:31.000Z</time>
      </trkpt>
      <trkpt lat="45.85578" lon="4.67095">
        <ele>283.34479</ele>
        <time>2023-07-30T14:00:32.000Z</time>
      </trkpt>
      <trkpt lat="45.8558" lon="4.671">
        <ele>283.24933</ele>
        <time>2023-07-30T14:00:33.000Z</time>
      </trkpt>
      <trkpt lat="45.85582" lon="4.67106">
        <ele>283.13739</ele>
        <time>2023-07-30T14:00:34.000Z</time>
      </trkpt>
      <trkpt lat="45.85584" lon="4.67112">
        <ele>283.02155</ele>
        <time>2023-07-30T14:00:35.000Z</time>
      </trkpt>
      <trkpt lat="45.85585" lon="4.67119">
        <ele>282.88495</ele>
        <time>2023-07-30T14:00:36.000Z</time>
      </trkpt>
      <trkpt lat="45.85588" lon="4.67124">
        <ele>281.83618</ele>
        <time>2023-07-30T14:00:37.000Z</time>
      </trkpt>
      <trkpt lat="45.8559" lon="4.6713">
        <ele>281.0798</ele>
        <time>2023-07-30T14:00:38.000Z</time>
      </trkpt>
      <trkpt lat="45.85592" lon="4.67135">
        <ele>280.20239</ele>
        <time>2023-07-30T14:00:39.000Z</time>
      </trkpt>
      <trkpt lat="45.85594" lon="4.6714">
        <ele>279.36386</ele>
        <time>2023-07-30T14:00:40.000Z</time>
      </trkpt>
      <trkpt lat="45.85596" lon="4.67145">
        <ele>278.24658</ele>
        <time>2023-07-30T14:00:41.000Z</time>
      </trkpt>
      <trkpt lat="45.85598" lon="4.6715">
        <ele>277.16302</ele>
        <time>2023-07-30T14:00:42.000Z</time>
      </trkpt>
      <trkpt lat="45.856" lon="4.67155">
        <ele>276.05026</ele>
        <time>2023-07-30T14:00:43.000Z</time>
      </trkpt>
      <trkpt lat="45.85602" lon="4.67161">
        <ele>274.95737</ele>
        <time>2023-07-30T14:00:44.000Z</time>
      </trkpt>
      <trkpt lat="45.85605" lon="4.67164">
        <ele>273.74606</ele>
        <time>2023-07-30T14:00:45.000Z</time>
      </trkpt>
      <trkpt lat="45.85607" lon="4.67169">
        <ele>272.99146</ele>
        <time>2023-07-30T14:00:46.000Z</time>
      </trkpt>
      <trkpt lat="45.85608" lon="4.67173">
        <ele>272.08511</ele>
        <time>2023-07-30T14:00:47.000Z</time>
      </trkpt>
      <trkpt lat="45.8561" lon="4.67178">
        <ele>271.15921</ele>
        <time>2023-07-30T14:00:48.000Z</time>
      </trkpt>
      <trkpt lat="45.85612" lon="4.67184">
        <ele>270.30554</ele>
        <time>2023-07-30T14:00:49.000Z</time>
      </trkpt>
      <trkpt lat="45.85613" lon="4.67189">
        <ele>269.4108</ele>
        <time>2023-07-30T14:00:50.000Z</time>
      </trkpt>
      <trkpt lat="45.85615" lon="4.67193">
        <ele>268.5556</ele>
        <time>2023-07-30T14:00:51.000Z</time>
      </trkpt>
      <trkpt lat="45.85617" lon="4.67198">
        <ele>267.71072</ele>
        <time>2023-07-30T14:00:52.000Z</time>
      </trkpt>
      <trkpt lat="45.8562" lon="4.67202">
        <ele>266.86563</ele>
        <time>2023-07-30T14:00:53.000Z</time>
      </trkpt>
      <trkpt lat="45.85623" lon="4.67206">
        <ele>265.77179</ele>
        <time>2023-07-30T14:00:54.000Z</time>
      </trkpt>
      <trkpt lat="45.85626" lon="4.67209">
        <ele>264.70441</ele>
        <time>2023-07-30T14:00:55.000Z</time>
      </trkpt>
      <trkpt lat="45.85633" lon="4.67211">
        <ele>263.66794</ele>
        <time>2023-07-30T14:00:56.000Z</time>
      </trkpt>
      <trkpt lat="45.85637" lon="4.67215">
        <ele>263.37949</ele>
        <time>2023-07-30T14:00:57.000Z</time>
      </trkpt>
      <trkpt lat="45.8564" lon="4.67218">
        <ele>263.37164</ele>
        <time>2023-07-30T14:00:58.000Z</time>
      </trkpt>
      <trkpt lat="45.85645" lon="4.67221">
        <ele>263.4281</ele>
        <time>2023-07-30T14:00:59.000Z</time>
      </trkpt>
      <trkpt lat="45.8565" lon="4.67225">
        <ele>263.43219</ele>
        <time>2023-07-30T14:01:00.000Z</time>
      </trkpt>
      <trkpt lat="45.85653" lon="4.67228">
        <ele>263.43304</ele>
        <time>2023-07-30T14:01:01.000Z</time>
      </trkpt>
      <trkpt lat="45.85657" lon="4.67232">
        <ele>263.38821</ele>
        <time>2023-07-30T14:01:02.000Z</time>
      </trkpt>
      <trkpt lat="45.8566" lon="4.67236">
        <ele>263.3468</ele>
        <time>2023-07-30T14:01:03.000Z</time>
      </trkpt>
      <trkpt lat="45.85665" lon="4.6724">
        <ele>263.31378</ele>
        <time>2023-07-30T14:01:04.000Z</time>
      </trkpt>
      <trkpt lat="45.85668" lon="4.67242">
        <ele>263.18927</ele>
        <time>2023-07-30T14:01:05.000Z</time>
      </trkpt>
      <trkpt lat="45.85673" lon="4.67245">
        <ele>263.12708</ele>
        <time>2023-07-30T14:01:06.000Z</time>
      </trkpt>
      <trkpt lat="45.85678" lon="4.67247">
        <ele>263.19644</ele>
        <time>2023-07-30T14:01:07.000Z</time>
      </trkpt>
      <trkpt lat="45.85684" lon="4.67251">
        <ele>263.2135</ele>
        <time>2023-07-30T14:01:08.000Z</time>
      </trkpt>
      <trkpt lat="45.85689" lon="4.67253">
        <ele>263.23676</ele>
        <time>2023-07-30T14:01:09.000Z</time>
      </trkpt>
      <trkpt lat="45.85695" lon="4.67255">
        <ele>263.30289</ele>
        <time>2023-07-30T14:01:10.000Z</time>
      </trkpt>
      <trkpt lat="45.85701" lon="4.6726">
        <ele>263.30035</ele>
        <time>2023-07-30T14:01:11.000Z</time>
      </trkpt>
      <trkpt lat="45.85706" lon="4.67262">
        <ele>263.33246</ele>
        <time>2023-07-30T14:01:12.000Z</time>
      </trkpt>
      <trkpt lat="45.85711" lon="4.67264">
        <ele>263.35126</ele>
        <time>2023-07-30T14:01:13.000Z</time>
      </trkpt>
      <trkpt lat="45.85716" lon="4.67269">
        <ele>263.33203</ele>
        <time>2023-07-30T14:01:14.000Z</time>
      </trkpt>
      <trkpt lat="45.85722" lon="4.67273">
        <ele>263.24915</ele>
        <time>2023-07-30T14:01:15.000Z</time>
      </trkpt>
      <trkpt lat="45.85726" lon="4.67277">
        <ele>263.15533</ele>
        <time>2023-07-30T14:01:16.000Z</time>
      </trkpt>
      <trkpt lat="45.85731" lon="4.6728">
        <ele>263.02777</ele>
        <time>2023-07-30T14:01:17.000Z</time>
      </trkpt>
      <trkpt lat="45.85735" lon="4.67285">
        <ele>262.87283</ele>
        <time>2023-07-30T14:01:18.000Z</time>
      </trkpt>
      <trkpt lat="45.8574" lon="4.67291">
        <ele>262.6575</ele>
        <time>2023-07-30T14:01:19.000Z</time>
      </trkpt>
      <trkpt lat="45.85743" lon="4.67296">
        <ele>262.40976</ele>
        <time>2023-07-30T14:01:20.000Z</time>
      </trkpt>
      <trkpt lat="45.85748" lon="4.67301">
        <ele>262.18027</ele>
        <time>2023-07-30T14:01:21.000Z</time>
      </trkpt>
      <trkpt lat="45.85752" lon="4.67305">
        <ele>261.95502</ele>
        <time>2023-07-30T14:01:22.000Z</time>
      </trkpt>
      <trkpt lat="45.85757" lon="4.67308">
        <ele>261.74088</ele>
        <time>2023-07-30T14:01:23.000Z</time>
      </trkpt>
      <trkpt lat="45.85762" lon="4.67312">
        <ele>261.54504</ele>
        <time>2023-07-30T14:01:24.000Z</time>
      </trkpt>
      <trkpt lat="45.85766" lon="4.67319">
        <ele>261.36383</ele>
        <time>2023-07-30T14:01:25.000Z</time>
      </trkpt>
      <trkpt lat="45.85769" lon="4.67322">
        <ele>261.18915</ele>
        <time>2023-07-30T14:01:26.000Z</time>
      </trkpt>
      <trkpt lat="45.85773" lon="4.67326">
        <ele>260.99823</ele>
        <time>2023-07-30T14:01:27.000Z</time>
      </trkpt>
      <trkpt lat="45.85775" lon="4.67331">
        <ele>260.76944</ele>
        <time>2023-07-30T14:01:28.000Z</time>
      </trkpt>
      <trkpt lat="45.85777" lon="4.67335">
        <ele>260.55215</ele>
        <time>2023-07-30T14:01:29.000Z</time>
      </trkpt>
      <trkpt lat="45.85776" lon="4.6734">
        <ele>260.35239</ele>
        <time>2023-07-30T14:01:30.000Z</time>
      </trkpt>
      <trkpt lat="45.85775" lon="4.67344">
        <ele>260.2403</ele>
        <time>2023-07-30T14:01:31.000Z</time>
      </trkpt>
      <trkpt lat="45.85776" lon="4.67348">
        <ele>260.08051</ele>
        <time>2023-07-30T14:01:32.000Z</time>
      </trkpt>
      <trkpt lat="45.85777" lon="4.67352">
        <ele>259.97598</ele>
        <time>2023-07-30T14:01:33.000Z</time>
      </trkpt>
      <trkpt lat="45.85779" lon="4.67356">
        <ele>259.94281</ele>
        <time>2023-07-30T14:01:34.000Z</time>
      </trkpt>
      <trkpt lat="45.85779" lon="4.6736">
        <ele>259.97357</ele>
        <time>2023-07-30T14:01:35.000Z</time>
      </trkpt>
      <trkpt lat="45.85779" lon="4.67363">
        <ele>259.96588</ele>
        <time>2023-07-30T14:01:36.000Z</time>
      </trkpt>
      <trkpt lat="45.85778" lon="4.67366">
        <ele>259.9859</ele>
        <time>2023-07-30T14:01:37.000Z</time>
      </trkpt>
      <trkpt lat="45.85776" lon="4.67369">
        <ele>260.04312</ele>
        <time>2023-07-30T14:01:38.000Z</time>
      </trkpt>
      <trkpt lat="45.85774" lon="4.67372">
        <ele>260.12564</ele>
        <time>2023-07-30T14:01:39.000Z</time>
      </trkpt>
      <trkpt lat="45.85771" lon="4.67374">
        <ele>260.21378</ele>
        <time>2023-07-30T14:01:40.000Z</time>
      </trkpt>
      <trkpt lat="45.85769" lon="4.67376">
        <ele>260.32916</ele>
        <time>2023-07-30T14:01:41.000Z</time>
      </trkpt>
      <trkpt lat="45.85767" lon="4.67378">
        <ele>260.44058</ele>
        <time>2023-07-30T14:01:42.000Z</time>
      </trkpt>
      <trkpt lat="45.85765" lon="4.67381">
        <ele>260.55161</ele>
        <time>2023-07-30T14:01:43.000Z</time>
      </trkpt>
      <trkpt lat="45.85763" lon="4.67384">
        <ele>260.59055</ele>
        <time>2023-07-30T14:01:44.000Z</time>
      </trkpt>
      <trkpt lat="45.85762" lon="4.67388">
        <ele>260.66263</ele>
        <time>2023-07-30T14:01:45.000Z</time>
      </trkpt>
      <trkpt lat="45.8576" lon="4.67392">
        <ele>260.74283</ele>
        <time>2023-07-30T14:01:46.000Z</time>
      </trkpt>
      <trkpt lat="45.85758" lon="4.67396">
        <ele>260.80887</ele>
        <time>2023-07-30T14:01:47.000Z</time>
      </trkpt>
      <trkpt lat="45.85756" lon="4.674">
        <ele>260.93048</ele>
        <time>2023-07-30T14:01:48.000Z</time>
      </trkpt>
      <trkpt lat="45.85754" lon="4.67404">
        <ele>261.04376</ele>
        <time>2023-07-30T14:01:49.000Z</time>
      </trkpt>
      <trkpt lat="45.85752" lon="4.67408">
        <ele>261.10907</ele>
        <time>2023-07-30T14:01:50.000Z</time>
      </trkpt>
      <trkpt lat="45.8575" lon="4.67412">
        <ele>261.15945</ele>
        <time>2023-07-30T14:01:51.000Z</time>
      </trkpt>
      <trkpt lat="45.85748" lon="4.67417">
        <ele>261.19742</ele>
        <time>2023-07-30T14:01:52.000Z</time>
      </trkpt>
      <trkpt lat="45.85746" lon="4.67422">
        <ele>261.19482</ele>
        <time>2023-07-30T14:01:53.000Z</time>
      </trkpt>
      <trkpt lat="45.85744" lon="4.67426">
        <ele>261.19431</ele>
        <time>2023-07-30T14:01:54.000Z</time>
      </trkpt>
      <trkpt lat="45.85742" lon="4.67431">
        <ele>261.19025</ele>
        <time>2023-07-30T14:01:55.000Z</time>
      </trkpt>
      <trkpt lat="45.8574" lon="4.67435">
        <ele>261.22668</ele>
        <time>2023-07-30T14:01:56.000Z</time>
      </trkpt>
      <trkpt lat="45.85738" lon="4.67439">
        <ele>261.2605</ele>
        <time>2023-07-30T14:01:57.000Z</time>
      </trkpt>
      <trkpt lat="45.85736" lon="4.67444">
        <ele>261.27716</ele>
        <time>2023-07-30T14:01:58.000Z</time>
      </trkpt>
      <trkpt lat="45.85733" lon="4.67448">
        <ele>261.29599</ele>
        <time>2023-07-30T14:01:59.000Z</time>
      </trkpt>
      <trkpt lat="45.85731" lon="4.67452">
        <ele>261.35751</ele>
        <time>2023-07-30T14:02:00.000Z</time>
      </trkpt>
      <trkpt lat="45.85728" lon="4.67456">
        <ele>261.39874</ele>
        <time>2023-07-30T14:02:01.000Z</time>
      </trkpt>
      <trkpt lat="45.85726" lon="4.6746">
        <ele>261.46851</ele>
        <time>2023-07-30T14:02:02.000Z</time>
      </trkpt>
      <trkpt lat="45.85724" lon="4.67463">
        <ele>261.53873</ele>
        <time>2023-07-30T14:02:03.000Z</time>
      </trkpt>
      <trkpt lat="45.85721" lon="4.67467">
        <ele>261.64145</ele>
        <time>2023-07-30T14:02:04.000Z</time>
      </trkpt>
      <trkpt lat="45.85719" lon="4.67472">
        <ele>261.73633</ele>
        <time>2023-07-30T14:02:05.000Z</time>
      </trkpt>
      <trkpt lat="45.85716" lon="4.67477">
        <ele>261.82285</ele>
        <time>2023-07-30T14:02:06.000Z</time>
      </trkpt>
      <trkpt lat="45.85713" lon="4.67482">
        <ele>261.91113</ele>
        <time>2023-07-30T14:02:07.000Z</time>
      </trkpt>
      <trkpt lat="45.8571" lon="4.67487">
        <ele>261.99692</ele>
        <time>2023-07-30T14:02:08.000Z</time>
      </trkpt>
      <trkpt lat="45.85707" lon="4.67492">
        <ele>262.08911</ele>
        <time>2023-07-30T14:02:09.000Z</time>
      </trkpt>
      <trkpt lat="45.85704" lon="4.67497">
        <ele>262.19913</ele>
        <time>2023-07-30T14:02:10.000Z</time>
      </trkpt>
      <trkpt lat="45.857" lon="4.67502">
        <ele>262.30371</ele>
        <time>2023-07-30T14:02:11.000Z</time>
      </trkpt>
      <trkpt lat="45.85696" lon="4.67507">
        <ele>262.4104</ele>
        <time>2023-07-30T14:02:12.000Z</time>
      </trkpt>
      <trkpt lat="45.85692" lon="4.67512">
        <ele>262.47479</ele>
        <time>2023-07-30T14:02:13.000Z</time>
      </trkpt>
      <trkpt lat="45.85689" lon="4.67517">
        <ele>262.52277</ele>
        <time>2023-07-30T14:02:14.000Z</time>
      </trkpt>
      <trkpt lat="45.85685" lon="4.67521">
        <ele>262.5575</ele>
        <time>2023-07-30T14:02:15.000Z</time>
      </trkpt>
      <trkpt lat="45.85681" lon="4.67526">
        <ele>262.58099</ele>
        <time>2023-07-30T14:02:16.000Z</time>
      </trkpt>
      <trkpt lat="45.85677" lon="4.6753">
        <ele>262.59949</ele>
        <time>2023-07-30T14:02:17.000Z</time>
      </trkpt>
      <trkpt lat="45.85673" lon="4.67533">
        <ele>262.62518</ele>
        <time>2023-07-30T14:02:18.000Z</time>
      </trkpt>
      <trkpt lat="45.85669" lon="4.67537">
        <ele>262.64362</ele>
        <time>2023-07-30T14:02:19.000Z</time>
      </trkpt>
      <trkpt lat="45.85664" lon="4.67541">
        <ele>262.62646</ele>
        <time>2023-07-30T14:02:20.000Z</time>
      </trkpt>
      <trkpt lat="45.8566" lon="4.67546">
        <ele>262.59158</ele>
        <time>2023-07-30T14:02:21.000Z</time>
      </trkpt>
      <trkpt lat="45.85656" lon="4.6755">
        <ele>262.54431</ele>
        <time>2023-07-30T14:02:22.000Z</time>
      </trkpt>
      <trkpt lat="45.85652" lon="4.67553">
        <ele>262.51624</ele>
        <time>2023-07-30T14:02:23.000Z</time>
      </trkpt>
      <trkpt lat="45.85647" lon="4.67557">
        <ele>262.47504</ele>
        <time>2023-07-30T14:02:24.000Z</time>
      </trkpt>
      <trkpt lat="45.85642" lon="4.67561">
        <ele>262.40631</ele>
        <time>2023-07-30T14:02:25.000Z</time>
      </trkpt>
      <trkpt lat="45.85637" lon="4.67565">
        <ele>262.33887</ele>
        <time>2023-07-30T14:02:26.000Z</time>
      </trkpt>
      <trkpt lat="45.85632" lon="4.6757">
        <ele>262.2865</ele>
        <time>2023-07-30T14:02:27.000Z</time>
      </trkpt>
      <trkpt lat="45.85628" lon="4.67575">
        <ele>262.23761</ele>
        <time>2023-07-30T14:02:28.000Z</time>
      </trkpt>
      <trkpt lat="45.85624" lon="4.6758">
        <ele>262.18378</ele>
        <time>2023-07-30T14:02:29.000Z</time>
      </trkpt>
      <trkpt lat="45.85619" lon="4.67584">
        <ele>262.09341</ele>
        <time>2023-07-30T14:02:30.000Z</time>
      </trkpt>
      <trkpt lat="45.85614" lon="4.67589">
        <ele>262.01343</ele>
        <time>2023-07-30T14:02:31.000Z</time>
      </trkpt>
      <trkpt lat="45.85609" lon="4.67593">
        <ele>261.94846</ele>
        <time>2023-07-30T14:02:32.000Z</time>
      </trkpt>
      <trkpt lat="45.85604" lon="4.67598">
        <ele>261.89133</ele>
        <time>2023-07-30T14:02:33.000Z</time>
      </trkpt>
      <trkpt lat="45.85599" lon="4.67603">
        <ele>261.84076</ele>
        <time>2023-07-30T14:02:34.000Z</time>
      </trkpt>
      <trkpt lat="45.85595" lon="4.67609">
        <ele>261.79596</ele>
        <time>2023-07-30T14:02:35.000Z</time>
      </trkpt>
      <trkpt lat="45.85591" lon="4.67614">
        <ele>261.75406</ele>
        <time>2023-07-30T14:02:36.000Z</time>
      </trkpt>
      <trkpt lat="45.85587" lon="4.67619">
        <ele>261.68845</ele>
        <time>2023-07-30T14:02:37.000Z</time>
      </trkpt>
      <trkpt lat="45.85583" lon="4.67625">
        <ele>261.61337</ele>
        <time>2023-07-30T14:02:38.000Z</time>
      </trkpt>
      <trkpt lat="45.85579" lon="4.6763">
        <ele>261.54669</ele>
        <time>2023-07-30T14:02:39.000Z</time>
      </trkpt>
      <trkpt lat="45.85576" lon="4.67635">
        <ele>261.51151</ele>
        <time>2023-07-30T14:02:40.000Z</time>
      </trkpt>
      <trkpt lat="45.85571" lon="4.6764">
        <ele>261.49438</ele>
        <time>2023-07-30T14:02:41.000Z</time>
      </trkpt>
      <trkpt lat="45.85568" lon="4.67645">
        <ele>261.4736</ele>
        <time>2023-07-30T14:02:42.000Z</time>
      </trkpt>
      <trkpt lat="45.85563" lon="4.6765">
        <ele>261.41907</ele>
        <time>2023-07-30T14:02:43.000Z</time>
      </trkpt>
      <trkpt lat="45.8556" lon="4.67654">
        <ele>261.41376</ele>
        <time>2023-07-30T14:02:44.000Z</time>
      </trkpt>
      <trkpt lat="45.85555" lon="4.67658">
        <ele>261.43146</ele>
        <time>2023-07-30T14:02:45.000Z</time>
      </trkpt>
      <trkpt lat="45.85551" lon="4.67662">
        <ele>261.45807</ele>
        <time>2023-07-30T14:02:46.000Z</time>
      </trkpt>
      <trkpt lat="45.85546" lon="4.67667">
        <ele>261.48932</ele>
        <time>2023-07-30T14:02:47.000Z</time>
      </trkpt>
      <trkpt lat="45.85542" lon="4.67673">
        <ele>261.5368</ele>
        <time>2023-07-30T14:02:48.000Z</time>
      </trkpt>
      <trkpt lat="45.85537" lon="4.67679">
        <ele>261.5491</ele>
        <time>2023-07-30T14:02:49.000Z</time>
      </trkpt>
      <trkpt lat="45.85533" lon="4.67685">
        <ele>261.58725</ele>
        <time>2023-07-30T14:02:50.000Z</time>
      </trkpt>
      <trkpt lat="45.8553" lon="4.67691">
        <ele>261.61639</ele>
        <time>2023-07-30T14:02:51.000Z</time>
      </trkpt>
      <trkpt lat="45.85526" lon="4.67697">
        <ele>261.65277</ele>
        <time>2023-07-30T14:02:52.000Z</time>
      </trkpt>
      <trkpt lat="45.85521" lon="4.67704">
        <ele>261.66769</ele>
        <time>2023-07-30T14:02:53.000Z</time>
      </trkpt>
      <trkpt lat="45.85517" lon="4.67711">
        <ele>261.66928</ele>
        <time>2023-07-30T14:02:54.000Z</time>
      </trkpt>
      <trkpt lat="45.85513" lon="4.67717">
        <ele>261.67285</ele>
        <time>2023-07-30T14:02:55.000Z</time>
      </trkpt>
      <trkpt lat="45.8551" lon="4.67723">
        <ele>261.68164</ele>
        <time>2023-07-30T14:02:56.000Z</time>
      </trkpt>
      <trkpt lat="45.85507" lon="4.6773">
        <ele>261.71393</ele>
        <time>2023-07-30T14:02:57.000Z</time>
      </trkpt>
      <trkpt lat="45.85505" lon="4.67737">
        <ele>261.76694</ele>
        <time>2023-07-30T14:02:58.000Z</time>
      </trkpt>
      <trkpt lat="45.85502" lon="4.67742">
        <ele>261.8205</ele>
        <time>2023-07-30T14:02:59.000Z</time>
      </trkpt>
      <trkpt lat="45.85499" lon="4.6775">
        <ele>261.87543</ele>
        <time>2023-07-30T14:03:00.000Z</time>
      </trkpt>
      <trkpt lat="45.85496" lon="4.67757">
        <ele>261.90378</ele>
        <time>2023-07-30T14:03:01.000Z</time>
      </trkpt>
      <trkpt lat="45.85494" lon="4.67764">
        <ele>261.92273</ele>
        <time>2023-07-30T14:03:02.000Z</time>
      </trkpt>
      <trkpt lat="45.85493" lon="4.67771">
        <ele>261.96387</ele>
        <time>2023-07-30T14:03:03.000Z</time>
      </trkpt>
      <trkpt lat="45.85491" lon="4.67779">
        <ele>261.95694</ele>
        <time>2023-07-30T14:03:04.000Z</time>
      </trkpt>
      <trkpt lat="45.85491" lon="4.67787">
        <ele>261.92334</ele>
        <time>2023-07-30T14:03:05.000Z</time>
      </trkpt>
      <trkpt lat="45.85491" lon="4.67795">
        <ele>261.88977</ele>
        <time>2023-07-30T14:03:06.000Z</time>
      </trkpt>
      <trkpt lat="45.85493" lon="4.67803">
        <ele>261.83762</ele>
        <time>2023-07-30T14:03:07.000Z</time>
      </trkpt>
      <trkpt lat="45.85494" lon="4.6781">
        <ele>261.74603</ele>
        <time>2023-07-30T14:03:08.000Z</time>
      </trkpt>
      <trkpt lat="45.85495" lon="4.67817">
        <ele>261.67715</ele>
        <time>2023-07-30T14:03:09.000Z</time>
      </trkpt>
      <trkpt lat="45.85497" lon="4.67824">
        <ele>261.62863</ele>
        <time>2023-07-30T14:03:10.000Z</time>
      </trkpt>
      <trkpt lat="45.85498" lon="4.67831">
        <ele>261.58917</ele>
        <time>2023-07-30T14:03:11.000Z</time>
      </trkpt>
      <trkpt lat="45.855" lon="4.67838">
        <ele>261.54752</ele>
        <time>2023-07-30T14:03:12.000Z</time>
      </trkpt>
      <trkpt lat="45.85501" lon="4.67846">
        <ele>261.55267</ele>
        <time>2023-07-30T14:03:13.000Z</time>
      </trkpt>
      <trkpt lat="45.85503" lon="4.67853">
        <ele>261.5827</ele>
        <time>2023-07-30T14:03:14.000Z</time>
      </trkpt>
      <trkpt lat="45.85506" lon="4.6786">
        <ele>261.62256</ele>
        <time>2023-07-30T14:03:15.000Z</time>
      </trkpt>
      <trkpt lat="45.85508" lon="4.67868">
        <ele>261.67368</ele>
        <time>2023-07-30T14:03:16.000Z</time>
      </trkpt>
      <trkpt lat="45.85509" lon="4.67874">
        <ele>261.72723</ele>
        <time>2023-07-30T14:03:17.000Z</time>
      </trkpt>
      <trkpt lat="45.8551" lon="4.6788">
        <ele>261.75476</ele>
        <time>2023-07-30T14:03:18.000Z</time>
      </trkpt>
      <trkpt lat="45.85511" lon="4.67885">
        <ele>261.78113</ele>
        <time>2023-07-30T14:03:19.000Z</time>
      </trkpt>
      <trkpt lat="45.85513" lon="4.6789">
        <ele>261.7735</ele>
        <time>2023-07-30T14:03:20.000Z</time>
      </trkpt>
      <trkpt lat="45.85514" lon="4.67894">
        <ele>261.7735</ele>
        <time>2023-07-30T14:03:21.000Z</time>
      </trkpt>
      <trkpt lat="45.85516" lon="4.67899">
        <ele>261.77402</ele>
        <time>2023-07-30T14:03:22.000Z</time>
      </trkpt>
      <trkpt lat="45.85517" lon="4.67903">
        <ele>261.73737</ele>
        <time>2023-07-30T14:03:23.000Z</time>
      </trkpt>
      <trkpt lat="45.85518" lon="4.67907">
        <ele>261.67856</ele>
        <time>2023-07-30T14:03:24.000Z</time>
      </trkpt>
      <trkpt lat="45.85519" lon="4.6791">
        <ele>261.60184</ele>
        <time>2023-07-30T14:03:25.000Z</time>
      </trkpt>
      <trkpt lat="45.8552" lon="4.67914">
        <ele>261.53021</ele>
        <time>2023-07-30T14:03:26.000Z</time>
      </trkpt>
      <trkpt lat="45.85522" lon="4.67919">
        <ele>261.45453</ele>
        <time>2023-07-30T14:03:27.000Z</time>
      </trkpt>
      <trkpt lat="45.85522" lon="4.67922">
        <ele>261.4371</ele>
        <time>2023-07-30T14:03:28.000Z</time>
      </trkpt>
      <trkpt lat="45.85524" lon="4.67925">
        <ele>261.40179</ele>
        <time>2023-07-30T14:03:29.000Z</time>
      </trkpt>
      <trkpt lat="45.85525" lon="4.67928">
        <ele>261.36212</ele>
        <time>2023-07-30T14:03:30.000Z</time>
      </trkpt>
      <trkpt lat="45.85526" lon="4.67931">
        <ele>261.259</ele>
        <time>2023-07-30T14:03:31.000Z</time>
      </trkpt>
      <trkpt lat="45.85528" lon="4.67935">
        <ele>261.16977</ele>
        <time>2023-07-30T14:03:32.000Z</time>
      </trkpt>
      <trkpt lat="45.85529" lon="4.67938">
        <ele>261.07779</ele>
        <time>2023-07-30T14:03:33.000Z</time>
      </trkpt>
      <trkpt lat="45.8553" lon="4.67942">
        <ele>260.94537</ele>
        <time>2023-07-30T14:03:34.000Z</time>
      </trkpt>
      <trkpt lat="45.85531" lon="4.67946">
        <ele>260.80609</ele>
        <time>2023-07-30T14:03:35.000Z</time>
      </trkpt>
      <trkpt lat="45.85532" lon="4.6795">
        <ele>260.63394</ele>
        <time>2023-07-30T14:03:36.000Z</time>
      </trkpt>
      <trkpt lat="45.85533" lon="4.67953">
        <ele>260.47263</ele>
        <time>2023-07-30T14:03:37.000Z</time>
      </trkpt>
      <trkpt lat="45.85535" lon="4.67956">
        <ele>260.33344</ele>
        <time>2023-07-30T14:03:38.000Z</time>
      </trkpt>
      <trkpt lat="45.85536" lon="4.67959">
        <ele>260.22366</ele>
        <time>2023-07-30T14:03:39.000Z</time>
      </trkpt>
      <trkpt lat="45.85537" lon="4.67962">
        <ele>260.16278</ele>
        <time>2023-07-30T14:03:40.000Z</time>
      </trkpt>
      <trkpt lat="45.85538" lon="4.67966">
        <ele>260.11273</ele>
        <time>2023-07-30T14:03:41.000Z</time>
      </trkpt>
      <trkpt lat="45.85539" lon="4.67971">
        <ele>260.07983</ele>
        <time>2023-07-30T14:03:42.000Z</time>
      </trkpt>
      <trkpt lat="45.8554" lon="4.67976">
        <ele>260.09067</ele>
        <time>2023-07-30T14:03:43.000Z</time>
      </trkpt>
      <trkpt lat="45.85542" lon="4.67983">
        <ele>260.12314</ele>
        <time>2023-07-30T14:03:44.000Z</time>
      </trkpt>
      <trkpt lat="45.85543" lon="4.6799">
        <ele>260.20895</ele>
        <time>2023-07-30T14:03:45.000Z</time>
      </trkpt>
      <trkpt lat="45.85544" lon="4.67998">
        <ele>260.27713</ele>
        <time>2023-07-30T14:03:46.000Z</time>
      </trkpt>
      <trkpt lat="45.85545" lon="4.68007">
        <ele>260.36786</ele>
        <time>2023-07-30T14:03:47.000Z</time>
      </trkpt>
      <trkpt lat="45.85548" lon="4.68015">
        <ele>260.40192</ele>
        <time>2023-07-30T14:03:48.000Z</time>
      </trkpt>
      <trkpt lat="45.85549" lon="4.68023">
        <ele>260.45709</ele>
        <time>2023-07-30T14:03:49.000Z</time>
      </trkpt>
      <trkpt lat="45.85553" lon="4.68031">
        <ele>260.49008</ele>
        <time>2023-07-30T14:03:50.000Z</time>
      </trkpt>
      <trkpt lat="45.85555" lon="4.68039">
        <ele>260.53964</ele>
        <time>2023-07-30T14:03:51.000Z</time>
      </trkpt>
      <trkpt lat="45.85557" lon="4.68047">
        <ele>260.60214</ele>
        <time>2023-07-30T14:03:52.000Z</time>
      </trkpt>
      <trkpt lat="45.8556" lon="4.68053">
        <ele>260.63812</ele>
        <time>2023-07-30T14:03:53.000Z</time>
      </trkpt>
      <trkpt lat="45.85562" lon="4.68061">
        <ele>260.70483</ele>
        <time>2023-07-30T14:03:54.000Z</time>
      </trkpt>
      <trkpt lat="45.85565" lon="4.68068">
        <ele>260.74088</ele>
        <time>2023-07-30T14:03:55.000Z</time>
      </trkpt>
      <trkpt lat="45.85568" lon="4.68074">
        <ele>260.78595</ele>
        <time>2023-07-30T14:03:56.000Z</time>
      </trkpt>
      <trkpt lat="45.85569" lon="4.68081">
        <ele>260.78152</ele>
        <time>2023-07-30T14:03:57.000Z</time>
      </trkpt>
      <trkpt lat="45.85572" lon="4.68088">
        <ele>260.7706</ele>
        <time>2023-07-30T14:03:58.000Z</time>
      </trkpt>
      <trkpt lat="45.85574" lon="4.68095">
        <ele>260.73462</ele>
        <time>2023-07-30T14:03:59.000Z</time>
      </trkpt>
      <trkpt lat="45.85576" lon="4.68101">
        <ele>260.70135</ele>
        <time>2023-07-30T14:04:00.000Z</time>
      </trkpt>
      <trkpt lat="45.85578" lon="4.68107">
        <ele>260.68652</ele>
        <time>2023-07-30T14:04:01.000Z</time>
      </trkpt>
      <trkpt lat="45.8558" lon="4.68113">
        <ele>260.66479</ele>
        <time>2023-07-30T14:04:02.000Z</time>
      </trkpt>
      <trkpt lat="45.85582" lon="4.68118">
        <ele>260.57138</ele>
        <time>2023-07-30T14:04:03.000Z</time>
      </trkpt>
      <trkpt lat="45.85585" lon="4.68123">
        <ele>260.46686</ele>
        <time>2023-07-30T14:04:04.000Z</time>
      </trkpt>
      <trkpt lat="45.85588" lon="4.68129">
        <ele>260.35004</ele>
        <time>2023-07-30T14:04:05.000Z</time>
      </trkpt>
      <trkpt lat="45.85591" lon="4.68134">
        <ele>260.25134</ele>
        <time>2023-07-30T14:04:06.000Z</time>
      </trkpt>
      <trkpt lat="45.85594" lon="4.6814">
        <ele>260.15622</ele>
        <time>2023-07-30T14:04:07.000Z</time>
      </trkpt>
      <trkpt lat="45.85597" lon="4.68145">
        <ele>260.08627</ele>
        <time>2023-07-30T14:04:08.000Z</time>
      </trkpt>
      <trkpt lat="45.856" lon="4.68151">
        <ele>260.00763</ele>
        <time>2023-07-30T14:04:09.000Z</time>
      </trkpt>
      <trkpt lat="45.85602" lon="4.68156">
        <ele>259.95392</ele>
        <time>2023-07-30T14:04:10.000Z</time>
      </trkpt>
      <trkpt lat="45.85605" lon="4.6816">
        <ele>259.95786</ele>
        <time>2023-07-30T14:04:11.000Z</time>
      </trkpt>
      <trkpt lat="45.85608" lon="4.68165">
        <ele>259.92224</ele>
        <time>2023-07-30T14:04:12.000Z</time>
      </trkpt>
      <trkpt lat="45.85611" lon="4.6817">
        <ele>259.83331</ele>
        <time>2023-07-30T14:04:13.000Z</time>
      </trkpt>
      <trkpt lat="45.85613" lon="4.68174">
        <ele>259.7561</ele>
        <time>2023-07-30T14:04:14.000Z</time>
      </trkpt>
      <trkpt lat="45.85616" lon="4.68176">
        <ele>259.71777</ele>
        <time>2023-07-30T14:04:15.000Z</time>
      </trkpt>
      <trkpt lat="45.85617" lon="4.68174">
        <ele>259.68262</ele>
        <time>2023-07-30T14:04:16.000Z</time>
      </trkpt>
      <trkpt lat="45.8562" lon="4.68174">
        <ele>259.67502</ele>
        <time>2023-07-30T14:04:17.000Z</time>
      </trkpt>
      <trkpt lat="45.85622" lon="4.68175">
        <ele>259.66486</ele>
        <time>2023-07-30T14:04:18.000Z</time>
      </trkpt>
      <trkpt lat="45.85625" lon="4.68176">
        <ele>259.68555</ele>
        <time>2023-07-30T14:04:20.000Z</time>
      </trkpt>
      <trkpt lat="45.85627" lon="4.68172">
        <ele>259.70306</ele>
        <time>2023-07-30T14:04:22.000Z</time>
      </trkpt>
      <trkpt lat="45.8563" lon="4.68169">
        <ele>259.68317</ele>
        <time>2023-07-30T14:04:24.000Z</time>
      </trkpt>
      <trkpt lat="45.85632" lon="4.68166">
        <ele>259.67447</ele>
        <time>2023-07-30T14:04:26.000Z</time>
      </trkpt>
      <trkpt lat="45.85634" lon="4.68164">
        <ele>259.70724</ele>
        <time>2023-07-30T14:04:27.000Z</time>
      </trkpt>
      <trkpt lat="45.85635" lon="4.68163">
        <ele>259.75067</ele>
        <time>2023-07-30T14:04:28.000Z</time>
      </trkpt>
      <trkpt lat="45.85637" lon="4.68161">
        <ele>259.82639</ele>
        <time>2023-07-30T14:04:29.000Z</time>
      </trkpt>
      <trkpt lat="45.85639" lon="4.68158">
        <ele>259.85214</ele>
        <time>2023-07-30T14:04:30.000Z</time>
      </trkpt>
      <trkpt lat="45.85641" lon="4.68156">
        <ele>259.82739</ele>
        <time>2023-07-30T14:04:31.000Z</time>
      </trkpt>
      <trkpt lat="45.85642" lon="4.68154">
        <ele>259.79974</ele>
        <time>2023-07-30T14:04:32.000Z</time>
      </trkpt>
      <trkpt lat="45.85644" lon="4.68151">
        <ele>259.77438</ele>
        <time>2023-07-30T14:04:34.000Z</time>
      </trkpt>
      <trkpt lat="45.85646" lon="4.68149">
        <ele>259.74625</ele>
        <time>2023-07-30T14:04:35.000Z</time>
      </trkpt>
      <trkpt lat="45.85647" lon="4.68147">
        <ele>259.7027</ele>
        <time>2023-07-30T14:04:36.000Z</time>
      </trkpt>
      <trkpt lat="45.85649" lon="4.68145">
        <ele>259.65198</ele>
        <time>2023-07-30T14:04:38.000Z</time>
      </trkpt>
      <trkpt lat="45.8565" lon="4.68141">
        <ele>259.69574</ele>
        <time>2023-07-30T14:04:40.000Z</time>
      </trkpt>
      <trkpt lat="45.85648" lon="4.68138">
        <ele>259.65585</ele>
        <time>2023-07-30T14:04:41.000Z</time>
      </trkpt>
      <trkpt lat="45.85647" lon="4.68135">
        <ele>259.59778</ele>
        <time>2023-07-30T14:04:42.000Z</time>
      </trkpt>
      <trkpt lat="45.85646" lon="4.68133">
        <ele>259.51019</ele>
        <time>2023-07-30T14:04:43.000Z</time>
      </trkpt>
      <trkpt lat="45.85646" lon="4.68129">
        <ele>259.401</ele>
        <time>2023-07-30T14:04:44.000Z</time>
      </trkpt>
      <trkpt lat="45.85648" lon="4.68126">
        <ele>259.23724</ele>
        <time>2023-07-30T14:04:45.000Z</time>
      </trkpt>
      <trkpt lat="45.85651" lon="4.68125">
        <ele>259.07233</ele>
        <time>2023-07-30T14:04:46.000Z</time>
      </trkpt>
      <trkpt lat="45.85654" lon="4.68128">
        <ele>258.88986</ele>
        <time>2023-07-30T14:04:47.000Z</time>
      </trkpt>
      <trkpt lat="45.85655" lon="4.68131">
        <ele>258.75531</ele>
        <time>2023-07-30T14:04:48.000Z</time>
      </trkpt>
      <trkpt lat="45.85655" lon="4.68135">
        <ele>258.60983</ele>
        <time>2023-07-30T14:04:49.000Z</time>
      </trkpt>
      <trkpt lat="45.85655" lon="4.68138">
        <ele>258.40195</ele>
        <time>2023-07-30T14:04:50.000Z</time>
      </trkpt>
      <trkpt lat="45.85655" lon="4.68141">
        <ele>258.21796</ele>
        <time>2023-07-30T14:04:51.000Z</time>
      </trkpt>
      <trkpt lat="45.85655" lon="4.68144">
        <ele>258.00418</ele>
        <time>2023-07-30T14:04:52.000Z</time>
      </trkpt>
      <trkpt lat="45.85656" lon="4.68147">
        <ele>257.82587</ele>
        <time>2023-07-30T14:04:53.000Z</time>
      </trkpt>
      <trkpt lat="45.85656" lon="4.68149">
        <ele>257.65829</ele>
        <time>2023-07-30T14:04:54.000Z</time>
      </trkpt>
      <trkpt lat="45.85656" lon="4.68152">
        <ele>257.48157</ele>
        <time>2023-07-30T14:04:55.000Z</time>
      </trkpt>
      <trkpt lat="45.85657" lon="4.68155">
        <ele>257.30035</ele>
        <time>2023-07-30T14:04:56.000Z</time>
      </trkpt>
      <trkpt lat="45.85659" lon="4.68158">
        <ele>257.12198</ele>
        <time>2023-07-30T14:04:57.000Z</time>
      </trkpt>
      <trkpt lat="45.8566" lon="4.6816">
        <ele>256.95367</ele>
        <time>2023-07-30T14:04:58.000Z</time>
      </trkpt>
      <trkpt lat="45.85662" lon="4.68163">
        <ele>256.80795</ele>
        <time>2023-07-30T14:04:59.000Z</time>
      </trkpt>
      <trkpt lat="45.85664" lon="4.68165">
        <ele>256.64706</ele>
        <time>2023-07-30T14:05:00.000Z</time>
      </trkpt>
      <trkpt lat="45.85666" lon="4.68168">
        <ele>256.59637</ele>
        <time>2023-07-30T14:05:01.000Z</time>
      </trkpt>
      <trkpt lat="45.85668" lon="4.6817">
        <ele>256.57486</ele>
        <time>2023-07-30T14:05:02.000Z</time>
      </trkpt>
      <trkpt lat="45.8567" lon="4.68173">
        <ele>256.49673</ele>
        <time>2023-07-30T14:05:03.000Z</time>
      </trkpt>
      <trkpt lat="45.85672" lon="4.68175">
        <ele>256.46176</ele>
        <time>2023-07-30T14:05:04.000Z</time>
      </trkpt>
      <trkpt lat="45.85674" lon="4.68178">
        <ele>256.48929</ele>
        <time>2023-07-30T14:05:05.000Z</time>
      </trkpt>
      <trkpt lat="45.85676" lon="4.6818">
        <ele>256.47522</ele>
        <time>2023-07-30T14:05:06.000Z</time>
      </trkpt>
      <trkpt lat="45.85677" lon="4.68182">
        <ele>256.45114</ele>
        <time>2023-07-30T14:05:07.000Z</time>
      </trkpt>
      <trkpt lat="45.85678" lon="4.68185">
        <ele>256.3728</ele>
        <time>2023-07-30T14:05:08.000Z</time>
      </trkpt>
      <trkpt lat="45.8568" lon="4.68188">
        <ele>256.28839</ele>
        <time>2023-07-30T14:05:09.000Z</time>
      </trkpt>
      <trkpt lat="45.85683" lon="4.68191">
        <ele>256.28223</ele>
        <time>2023-07-30T14:05:10.000Z</time>
      </trkpt>
      <trkpt lat="45.85686" lon="4.68195">
        <ele>256.26288</ele>
        <time>2023-07-30T14:05:11.000Z</time>
      </trkpt>
      <trkpt lat="45.85688" lon="4.68199">
        <ele>256.27225</ele>
        <time>2023-07-30T14:05:12.000Z</time>
      </trkpt>
      <trkpt lat="45.8569" lon="4.68203">
        <ele>256.27368</ele>
        <time>2023-07-30T14:05:13.000Z</time>
      </trkpt>
      <trkpt lat="45.85692" lon="4.68206">
        <ele>256.32297</ele>
        <time>2023-07-30T14:05:14.000Z</time>
      </trkpt>
      <trkpt lat="45.85694" lon="4.68208">
        <ele>256.41864</ele>
        <time>2023-07-30T14:05:15.000Z</time>
      </trkpt>
      <trkpt lat="45.85696" lon="4.68211">
        <ele>256.45453</ele>
        <time>2023-07-30T14:05:16.000Z</time>
      </trkpt>
      <trkpt lat="45.85697" lon="4.68214">
        <ele>256.4791</ele>
        <time>2023-07-30T14:05:17.000Z</time>
      </trkpt>
      <trkpt lat="45.857" lon="4.68217">
        <ele>256.53986</ele>
        <time>2023-07-30T14:05:18.000Z</time>
      </trkpt>
      <trkpt lat="45.85702" lon="4.6822">
        <ele>256.59824</ele>
        <time>2023-07-30T14:05:19.000Z</time>
      </trkpt>
      <trkpt lat="45.85704" lon="4.68223">
        <ele>256.66855</ele>
        <time>2023-07-30T14:05:20.000Z</time>
      </trkpt>
      <trkpt lat="45.85706" lon="4.68226">
        <ele>256.71445</ele>
        <time>2023-07-30T14:05:21.000Z</time>
      </trkpt>
      <trkpt lat="45.85709" lon="4.6823">
        <ele>256.73978</ele>
        <time>2023-07-30T14:05:22.000Z</time>
      </trkpt>
      <trkpt lat="45.85711" lon="4.68233">
        <ele>256.82166</ele>
        <time>2023-07-30T14:05:23.000Z</time>
      </trkpt>
      <trkpt lat="45.85713" lon="4.68236">
        <ele>256.90118</ele>
        <time>2023-07-30T14:05:24.000Z</time>
      </trkpt>
      <trkpt lat="45.85716" lon="4.68239">
        <ele>256.9697</ele>
        <time>2023-07-30T14:05:25.000Z</time>
      </trkpt>
      <trkpt lat="45.85718" lon="4.68242">
        <ele>257.03189</ele>
        <time>2023-07-30T14:05:26.000Z</time>
      </trkpt>
      <trkpt lat="45.8572" lon="4.68246">
        <ele>257.10275</ele>
        <time>2023-07-30T14:05:27.000Z</time>
      </trkpt>
      <trkpt lat="45.85723" lon="4.68249">
        <ele>257.1933</ele>
        <time>2023-07-30T14:05:28.000Z</time>
      </trkpt>
      <trkpt lat="45.85726" lon="4.68252">
        <ele>257.30701</ele>
        <time>2023-07-30T14:05:29.000Z</time>
      </trkpt>
      <trkpt lat="45.85729" lon="4.68255">
        <ele>257.42041</ele>
        <time>2023-07-30T14:05:30.000Z</time>
      </trkpt>
      <trkpt lat="45.85732" lon="4.68258">
        <ele>257.52719</ele>
        <time>2023-07-30T14:05:31.000Z</time>
      </trkpt>
      <trkpt lat="45.85735" lon="4.6826">
        <ele>257.6026</ele>
        <time>2023-07-30T14:05:32.000Z</time>
      </trkpt>
      <trkpt lat="45.85738" lon="4.68263">
        <ele>257.68768</ele>
        <time>2023-07-30T14:05:33.000Z</time>
      </trkpt>
      <trkpt lat="45.85741" lon="4.68266">
        <ele>257.75415</ele>
        <time>2023-07-30T14:05:34.000Z</time>
      </trkpt>
      <trkpt lat="45.85745" lon="4.6827">
        <ele>257.71851</ele>
        <time>2023-07-30T14:05:35.000Z</time>
      </trkpt>
      <trkpt lat="45.85749" lon="4.68275">
        <ele>257.75568</ele>
        <time>2023-07-30T14:05:36.000Z</time>
      </trkpt>
      <trkpt lat="45.85753" lon="4.68279">
        <ele>257.78314</ele>
        <time>2023-07-30T14:05:37.000Z</time>
      </trkpt>
      <trkpt lat="45.85757" lon="4.68284">
        <ele>257.73804</ele>
        <time>2023-07-30T14:05:38.000Z</time>
      </trkpt>
      <trkpt lat="45.85761" lon="4.68288">
        <ele>257.69312</ele>
        <time>2023-07-30T14:05:39.000Z</time>
      </trkpt>
      <trkpt lat="45.85764" lon="4.68292">
        <ele>257.63309</ele>
        <time>2023-07-30T14:05:40.000Z</time>
      </trkpt>
      <trkpt lat="45.85768" lon="4.68296">
        <ele>257.56894</ele>
        <time>2023-07-30T14:05:41.000Z</time>
      </trkpt>
      <trkpt lat="45.85771" lon="4.683">
        <ele>257.50162</ele>
        <time>2023-07-30T14:05:42.000Z</time>
      </trkpt>
      <trkpt lat="45.85775" lon="4.68304">
        <ele>257.45636</ele>
        <time>2023-07-30T14:05:43.000Z</time>
      </trkpt>
      <trkpt lat="45.85778" lon="4.68309">
        <ele>257.39667</ele>
        <time>2023-07-30T14:05:44.000Z</time>
      </trkpt>
      <trkpt lat="45.85782" lon="4.68312">
        <ele>257.3222</ele>
        <time>2023-07-30T14:05:45.000Z</time>
      </trkpt>
      <trkpt lat="45.85785" lon="4.68318">
        <ele>257.25311</ele>
        <time>2023-07-30T14:05:46.000Z</time>
      </trkpt>
      <trkpt lat="45.8579" lon="4.68322">
        <ele>257.18427</ele>
        <time>2023-07-30T14:05:47.000Z</time>
      </trkpt>
      <trkpt lat="45.85795" lon="4.68325">
        <ele>257.17099</ele>
        <time>2023-07-30T14:05:48.000Z</time>
      </trkpt>
      <trkpt lat="45.85799" lon="4.68328">
        <ele>257.14163</ele>
        <time>2023-07-30T14:05:49.000Z</time>
      </trkpt>
      <trkpt lat="45.85803" lon="4.68331">
        <ele>257.05209</ele>
        <time>2023-07-30T14:05:50.000Z</time>
      </trkpt>
      <trkpt lat="45.85807" lon="4.68335">
        <ele>256.97565</ele>
        <time>2023-07-30T14:05:51.000Z</time>
      </trkpt>
      <trkpt lat="45.8581" lon="4.68338">
        <ele>256.91617</ele>
        <time>2023-07-30T14:05:52.000Z</time>
      </trkpt>
      <trkpt lat="45.85814" lon="4.68342">
        <ele>256.87494</ele>
        <time>2023-07-30T14:05:53.000Z</time>
      </trkpt>
      <trkpt lat="45.85818" lon="4.68345">
        <ele>256.83795</ele>
        <time>2023-07-30T14:05:54.000Z</time>
      </trkpt>
      <trkpt lat="45.85821" lon="4.6835">
        <ele>256.8653</ele>
        <time>2023-07-30T14:05:55.000Z</time>
      </trkpt>
      <trkpt lat="45.85825" lon="4.68355">
        <ele>256.88086</ele>
        <time>2023-07-30T14:05:56.000Z</time>
      </trkpt>
      <trkpt lat="45.85828" lon="4.68361">
        <ele>256.87726</ele>
        <time>2023-07-30T14:05:57.000Z</time>
      </trkpt>
      <trkpt lat="45.85831" lon="4.68365">
        <ele>256.91119</ele>
        <time>2023-07-30T14:05:58.000Z</time>
      </trkpt>
      <trkpt lat="45.85833" lon="4.68369">
        <ele>256.93033</ele>
        <time>2023-07-30T14:05:59.000Z</time>
      </trkpt>
      <trkpt lat="45.85837" lon="4.68374">
        <ele>256.94894</ele>
        <time>2023-07-30T14:06:00.000Z</time>
      </trkpt>
      <trkpt lat="45.8584" lon="4.68378">
        <ele>257.00134</ele>
        <time>2023-07-30T14:06:01.000Z</time>
      </trkpt>
      <trkpt lat="45.85843" lon="4.68381">
        <ele>257.04016</ele>
        <time>2023-07-30T14:06:02.000Z</time>
      </trkpt>
      <trkpt lat="45.85846" lon="4.68385">
        <ele>257.10992</ele>
        <time>2023-07-30T14:06:03.000Z</time>
      </trkpt>
      <trkpt lat="45.85849" lon="4.68389">
        <ele>257.16943</ele>
        <time>2023-07-30T14:06:04.000Z</time>
      </trkpt>
      <trkpt lat="45.85851" lon="4.68395">
        <ele>257.24353</ele>
        <time>2023-07-30T14:06:05.000Z</time>
      </trkpt>
      <trkpt lat="45.85855" lon="4.684">
        <ele>257.35959</ele>
        <time>2023-07-30T14:06:06.000Z</time>
      </trkpt>
      <trkpt lat="45.85857" lon="4.68405">
        <ele>257.4679</ele>
        <time>2023-07-30T14:06:07.000Z</time>
      </trkpt>
      <trkpt lat="45.8586" lon="4.6841">
        <ele>257.5582</ele>
        <time>2023-07-30T14:06:08.000Z</time>
      </trkpt>
      <trkpt lat="45.85861" lon="4.68414">
        <ele>257.63174</ele>
        <time>2023-07-30T14:06:09.000Z</time>
      </trkpt>
      <trkpt lat="45.85862" lon="4.68419">
        <ele>257.78302</ele>
        <time>2023-07-30T14:06:10.000Z</time>
      </trkpt>
      <trkpt lat="45.85864" lon="4.68425">
        <ele>257.92596</ele>
        <time>2023-07-30T14:06:11.000Z</time>
      </trkpt>
      <trkpt lat="45.85865" lon="4.6843">
        <ele>258.06027</ele>
        <time>2023-07-30T14:06:12.000Z</time>
      </trkpt>
      <trkpt lat="45.85866" lon="4.68435">
        <ele>258.16949</ele>
        <time>2023-07-30T14:06:13.000Z</time>
      </trkpt>
      <trkpt lat="45.85866" lon="4.68441">
        <ele>258.27753</ele>
        <time>2023-07-30T14:06:14.000Z</time>
      </trkpt>
      <trkpt lat="45.85867" lon="4.68446">
        <ele>258.36261</ele>
        <time>2023-07-30T14:06:15.000Z</time>
      </trkpt>
      <trkpt lat="45.85867" lon="4.68452">
        <ele>258.46417</ele>
        <time>2023-07-30T14:06:16.000Z</time>
      </trkpt>
      <trkpt lat="45.85868" lon="4.68457">
        <ele>258.5972</ele>
        <time>2023-07-30T14:06:17.000Z</time>
      </trkpt>
      <trkpt lat="45.85869" lon="4.68463">
        <ele>258.7016</ele>
        <time>2023-07-30T14:06:18.000Z</time>
      </trkpt>
      <trkpt lat="45.85869" lon="4.68469">
        <ele>258.83286</ele>
        <time>2023-07-30T14:06:19.000Z</time>
      </trkpt>
      <trkpt lat="45.8587" lon="4.68475">
        <ele>258.97858</ele>
        <time>2023-07-30T14:06:20.000Z</time>
      </trkpt>
      <trkpt lat="45.85871" lon="4.68481">
        <ele>259.03668</ele>
        <time>2023-07-30T14:06:21.000Z</time>
      </trkpt>
      <trkpt lat="45.85871" lon="4.68487">
        <ele>259.10327</ele>
        <time>2023-07-30T14:06:22.000Z</time>
      </trkpt>
      <trkpt lat="45.85872" lon="4.68493">
        <ele>259.15665</ele>
        <time>2023-07-30T14:06:23.000Z</time>
      </trkpt>
      <trkpt lat="45.85873" lon="4.68499">
        <ele>259.20685</ele>
        <time>2023-07-30T14:06:24.000Z</time>
      </trkpt>
      <trkpt lat="45.85874" lon="4.68505">
        <ele>259.25571</ele>
        <time>2023-07-30T14:06:25.000Z</time>
      </trkpt>
      <trkpt lat="45.85875" lon="4.68511">
        <ele>259.24799</ele>
        <time>2023-07-30T14:06:26.000Z</time>
      </trkpt>
      <trkpt lat="45.85875" lon="4.68517">
        <ele>259.2428</ele>
        <time>2023-07-30T14:06:27.000Z</time>
      </trkpt>
      <trkpt lat="45.85876" lon="4.68523">
        <ele>259.18475</ele>
        <time>2023-07-30T14:06:28.000Z</time>
      </trkpt>
      <trkpt lat="45.85877" lon="4.68528">
        <ele>259.16641</ele>
        <time>2023-07-30T14:06:29.000Z</time>
      </trkpt>
      <trkpt lat="45.85878" lon="4.68534">
        <ele>259.15839</ele>
        <time>2023-07-30T14:06:30.000Z</time>
      </trkpt>
      <trkpt lat="45.85878" lon="4.6854">
        <ele>259.08749</ele>
        <time>2023-07-30T14:06:31.000Z</time>
      </trkpt>
      <trkpt lat="45.85879" lon="4.68547">
        <ele>259.0098</ele>
        <time>2023-07-30T14:06:32.000Z</time>
      </trkpt>
      <trkpt lat="45.8588" lon="4.68553">
        <ele>258.94025</ele>
        <time>2023-07-30T14:06:33.000Z</time>
      </trkpt>
      <trkpt lat="45.85881" lon="4.68559">
        <ele>258.85577</ele>
        <time>2023-07-30T14:06:34.000Z</time>
      </trkpt>
      <trkpt lat="45.85883" lon="4.68565">
        <ele>258.83087</ele>
        <time>2023-07-30T14:06:35.000Z</time>
      </trkpt>
      <trkpt lat="45.85883" lon="4.68571">
        <ele>258.802</ele>
        <time>2023-07-30T14:06:36.000Z</time>
      </trkpt>
      <trkpt lat="45.85884" lon="4.68577">
        <ele>258.754</ele>
        <time>2023-07-30T14:06:37.000Z</time>
      </trkpt>
      <trkpt lat="45.85885" lon="4.68582">
        <ele>258.71027</ele>
        <time>2023-07-30T14:06:38.000Z</time>
      </trkpt>
      <trkpt lat="45.85886" lon="4.68588">
        <ele>258.63928</ele>
        <time>2023-07-30T14:06:39.000Z</time>
      </trkpt>
      <trkpt lat="45.85888" lon="4.68594">
        <ele>258.54953</ele>
        <time>2023-07-30T14:06:40.000Z</time>
      </trkpt>
      <trkpt lat="45.85889" lon="4.68599">
        <ele>258.51483</ele>
        <time>2023-07-30T14:06:41.000Z</time>
      </trkpt>
      <trkpt lat="45.85889" lon="4.68604">
        <ele>258.48959</ele>
        <time>2023-07-30T14:06:42.000Z</time>
      </trkpt>
      <trkpt lat="45.8589" lon="4.68609">
        <ele>258.45709</ele>
        <time>2023-07-30T14:06:43.000Z</time>
      </trkpt>
      <trkpt lat="45.8589" lon="4.68615">
        <ele>258.43213</ele>
        <time>2023-07-30T14:06:44.000Z</time>
      </trkpt>
      <trkpt lat="45.85891" lon="4.6862">
        <ele>258.40836</ele>
        <time>2023-07-30T14:06:45.000Z</time>
      </trkpt>
      <trkpt lat="45.85891" lon="4.68625">
        <ele>258.36862</ele>
        <time>2023-07-30T14:06:46.000Z</time>
      </trkpt>
      <trkpt lat="45.85892" lon="4.68631">
        <ele>258.30914</ele>
        <time>2023-07-30T14:06:47.000Z</time>
      </trkpt>
      <trkpt lat="45.85892" lon="4.68636">
        <ele>258.26627</ele>
        <time>2023-07-30T14:06:48.000Z</time>
      </trkpt>
      <trkpt lat="45.85892" lon="4.68642">
        <ele>258.20419</ele>
        <time>2023-07-30T14:06:49.000Z</time>
      </trkpt>
      <trkpt lat="45.85892" lon="4.68647">
        <ele>258.11035</ele>
        <time>2023-07-30T14:06:50.000Z</time>
      </trkpt>
      <trkpt lat="45.85892" lon="4.68652">
        <ele>258.10001</ele>
        <time>2023-07-30T14:06:51.000Z</time>
      </trkpt>
      <trkpt lat="45.85892" lon="4.68657">
        <ele>258.08487</ele>
        <time>2023-07-30T14:06:52.000Z</time>
      </trkpt>
      <trkpt lat="45.85892" lon="4.68661">
        <ele>258.08881</ele>
        <time>2023-07-30T14:06:53.000Z</time>
      </trkpt>
      <trkpt lat="45.85892" lon="4.68664">
        <ele>258.09497</ele>
        <time>2023-07-30T14:06:54.000Z</time>
      </trkpt>
      <trkpt lat="45.85892" lon="4.68668">
        <ele>258.02341</ele>
        <time>2023-07-30T14:06:55.000Z</time>
      </trkpt>
      <trkpt lat="45.85892" lon="4.68673">
        <ele>257.97006</ele>
        <time>2023-07-30T14:06:56.000Z</time>
      </trkpt>
      <trkpt lat="45.85891" lon="4.68677">
        <ele>257.91055</ele>
        <time>2023-07-30T14:06:57.000Z</time>
      </trkpt>
      <trkpt lat="45.85891" lon="4.68682">
        <ele>257.84613</ele>
        <time>2023-07-30T14:06:58.000Z</time>
      </trkpt>
      <trkpt lat="45.85891" lon="4.68686">
        <ele>257.79285</ele>
        <time>2023-07-30T14:06:59.000Z</time>
      </trkpt>
      <trkpt lat="45.8589" lon="4.68691">
        <ele>257.72635</ele>
        <time>2023-07-30T14:07:00.000Z</time>
      </trkpt>
      <trkpt lat="45.8589" lon="4.68696">
        <ele>257.67792</ele>
        <time>2023-07-30T14:07:01.000Z</time>
      </trkpt>
      <trkpt lat="45.8589" lon="4.687">
        <ele>257.65234</ele>
        <time>2023-07-30T14:07:02.000Z</time>
      </trkpt>
      <trkpt lat="45.85889" lon="4.68706">
        <ele>257.52792</ele>
        <time>2023-07-30T14:07:03.000Z</time>
      </trkpt>
      <trkpt lat="45.85888" lon="4.68711">
        <ele>257.43097</ele>
        <time>2023-07-30T14:07:04.000Z</time>
      </trkpt>
      <trkpt lat="45.85887" lon="4.68716">
        <ele>257.33624</ele>
        <time>2023-07-30T14:07:05.000Z</time>
      </trkpt>
      <trkpt lat="45.85886" lon="4.68721">
        <ele>257.29572</ele>
        <time>2023-07-30T14:07:06.000Z</time>
      </trkpt>
      <trkpt lat="45.85886" lon="4.68725">
        <ele>257.27313</ele>
        <time>2023-07-30T14:07:07.000Z</time>
      </trkpt>
      <trkpt lat="45.85886" lon="4.6873">
        <ele>257.2659</ele>
        <time>2023-07-30T14:07:08.000Z</time>
      </trkpt>
      <trkpt lat="45.85886" lon="4.68734">
        <ele>257.27988</ele>
        <time>2023-07-30T14:07:09.000Z</time>
      </trkpt>
      <trkpt lat="45.85885" lon="4.68739">
        <ele>257.29825</ele>
        <time>2023-07-30T14:07:10.000Z</time>
      </trkpt>
      <trkpt lat="45.85884" lon="4.68743">
        <ele>257.31592</ele>
        <time>2023-07-30T14:07:11.000Z</time>
      </trkpt>
      <trkpt lat="45.85883" lon="4.68746">
        <ele>257.31659</ele>
        <time>2023-07-30T14:07:12.000Z</time>
      </trkpt>
      <trkpt lat="45.85882" lon="4.68752">
        <ele>257.27905</ele>
        <time>2023-07-30T14:07:13.000Z</time>
      </trkpt>
      <trkpt lat="45.85881" lon="4.68757">
        <ele>257.27228</ele>
        <time>2023-07-30T14:07:14.000Z</time>
      </trkpt>
      <trkpt lat="45.8588" lon="4.68763">
        <ele>257.31598</ele>
        <time>2023-07-30T14:07:15.000Z</time>
      </trkpt>
      <trkpt lat="45.8588" lon="4.68768">
        <ele>257.26965</ele>
        <time>2023-07-30T14:07:16.000Z</time>
      </trkpt>
      <trkpt lat="45.85879" lon="4.68773">
        <ele>257.28537</ele>
        <time>2023-07-30T14:07:17.000Z</time>
      </trkpt>
      <trkpt lat="45.85878" lon="4.68778">
        <ele>257.32062</ele>
        <time>2023-07-30T14:07:18.000Z</time>
      </trkpt>
      <trkpt lat="45.85877" lon="4.68784">
        <ele>257.36627</ele>
        <time>2023-07-30T14:07:19.000Z</time>
      </trkpt>
      <trkpt lat="45.85876" lon="4.6879">
        <ele>257.4046</ele>
        <time>2023-07-30T14:07:20.000Z</time>
      </trkpt>
      <trkpt lat="45.85875" lon="4.68796">
        <ele>257.40729</ele>
        <time>2023-07-30T14:07:21.000Z</time>
      </trkpt>
      <trkpt lat="45.85873" lon="4.68801">
        <ele>257.38474</ele>
        <time>2023-07-30T14:07:22.000Z</time>
      </trkpt>
      <trkpt lat="45.85872" lon="4.68807">
        <ele>257.45444</ele>
        <time>2023-07-30T14:07:23.000Z</time>
      </trkpt>
      <trkpt lat="45.85871" lon="4.68813">
        <ele>257.50317</ele>
        <time>2023-07-30T14:07:24.000Z</time>
      </trkpt>
      <trkpt lat="45.85871" lon="4.68819">
        <ele>257.58313</ele>
        <time>2023-07-30T14:07:25.000Z</time>
      </trkpt>
      <trkpt lat="45.8587" lon="4.68824">
        <ele>257.64322</ele>
        <time>2023-07-30T14:07:26.000Z</time>
      </trkpt>
      <trkpt lat="45.8587" lon="4.6883">
        <ele>257.72702</ele>
        <time>2023-07-30T14:07:27.000Z</time>
      </trkpt>
      <trkpt lat="45.8587" lon="4.68836">
        <ele>257.80203</ele>
        <time>2023-07-30T14:07:28.000Z</time>
      </trkpt>
      <trkpt lat="45.8587" lon="4.68842">
        <ele>257.85736</ele>
        <time>2023-07-30T14:07:29.000Z</time>
      </trkpt>
      <trkpt lat="45.8587" lon="4.68848">
        <ele>257.84271</ele>
        <time>2023-07-30T14:07:30.000Z</time>
      </trkpt>
      <trkpt lat="45.85869" lon="4.68854">
        <ele>257.82013</ele>
        <time>2023-07-30T14:07:31.000Z</time>
      </trkpt>
      <trkpt lat="45.85869" lon="4.6886">
        <ele>257.83051</ele>
        <time>2023-07-30T14:07:32.000Z</time>
      </trkpt>
      <trkpt lat="45.85868" lon="4.68866">
        <ele>257.87119</ele>
        <time>2023-07-30T14:07:33.000Z</time>
      </trkpt>
      <trkpt lat="45.85868" lon="4.68872">
        <ele>257.88794</ele>
        <time>2023-07-30T14:07:34.000Z</time>
      </trkpt>
      <trkpt lat="45.85867" lon="4.68878">
        <ele>257.9006</ele>
        <time>2023-07-30T14:07:35.000Z</time>
      </trkpt>
      <trkpt lat="45.85867" lon="4.68884">
        <ele>257.96606</ele>
        <time>2023-07-30T14:07:36.000Z</time>
      </trkpt>
      <trkpt lat="45.85866" lon="4.68889">
        <ele>257.99017</ele>
        <time>2023-07-30T14:07:37.000Z</time>
      </trkpt>
      <trkpt lat="45.85865" lon="4.68894">
        <ele>258.01373</ele>
        <time>2023-07-30T14:07:38.000Z</time>
      </trkpt>
      <trkpt lat="45.85865" lon="4.68899">
        <ele>258.01166</ele>
        <time>2023-07-30T14:07:39.000Z</time>
      </trkpt>
      <trkpt lat="45.85865" lon="4.68904">
        <ele>258.03326</ele>
        <time>2023-07-30T14:07:40.000Z</time>
      </trkpt>
      <trkpt lat="45.85864" lon="4.68909">
        <ele>258.03412</ele>
        <time>2023-07-30T14:07:41.000Z</time>
      </trkpt>
      <trkpt lat="45.85864" lon="4.68913">
        <ele>258.03217</ele>
        <time>2023-07-30T14:07:42.000Z</time>
      </trkpt>
      <trkpt lat="45.85863" lon="4.68917">
        <ele>258.04318</ele>
        <time>2023-07-30T14:07:43.000Z</time>
      </trkpt>
      <trkpt lat="45.85863" lon="4.68921">
        <ele>258.03979</ele>
        <time>2023-07-30T14:07:44.000Z</time>
      </trkpt>
      <trkpt lat="45.85863" lon="4.68924">
        <ele>258.00494</ele>
        <time>2023-07-30T14:07:45.000Z</time>
      </trkpt>
      <trkpt lat="45.85863" lon="4.68927">
        <ele>257.9877</ele>
        <time>2023-07-30T14:07:46.000Z</time>
      </trkpt>
      <trkpt lat="45.85863" lon="4.68929">
        <ele>257.95856</ele>
        <time>2023-07-30T14:07:47.000Z</time>
      </trkpt>
      <trkpt lat="45.85863" lon="4.68933">
        <ele>257.94839</ele>
        <time>2023-07-30T14:07:50.000Z</time>
      </trkpt>
      <trkpt lat="45.85863" lon="4.68936">
        <ele>257.96503</ele>
        <time>2023-07-30T14:07:54.000Z</time>
      </trkpt>
      <trkpt lat="45.85863" lon="4.68938">
        <ele>258.11066</ele>
        <time>2023-07-30T14:08:09.000Z</time>
      </trkpt>
      <trkpt lat="45.85862" lon="4.68941">
        <ele>258.25534</ele>
        <time>2023-07-30T14:08:10.000Z</time>
      </trkpt>
      <trkpt lat="45.85862" lon="4.68945">
        <ele>258.39142</ele>
        <time>2023-07-30T14:08:11.000Z</time>
      </trkpt>
      <trkpt lat="45.85863" lon="4.68949">
        <ele>258.51706</ele>
        <time>2023-07-30T14:08:12.000Z</time>
      </trkpt>
      <trkpt lat="45.85863" lon="4.68953">
        <ele>258.63361</ele>
        <time>2023-07-30T14:08:13.000Z</time>
      </trkpt>
      <trkpt lat="45.85863" lon="4.68956">
        <ele>258.74124</ele>
        <time>2023-07-30T14:08:14.000Z</time>
      </trkpt>
      <trkpt lat="45.85863" lon="4.68959">
        <ele>258.87286</ele>
        <time>2023-07-30T14:08:15.000Z</time>
      </trkpt>
      <trkpt lat="45.85862" lon="4.68963">
        <ele>258.99881</ele>
        <time>2023-07-30T14:08:16.000Z</time>
      </trkpt>
      <trkpt lat="45.85862" lon="4.68967">
        <ele>259.13324</ele>
        <time>2023-07-30T14:08:17.000Z</time>
      </trkpt>
      <trkpt lat="45.85863" lon="4.68972">
        <ele>259.25345</ele>
        <time>2023-07-30T14:08:18.000Z</time>
      </trkpt>
      <trkpt lat="45.85863" lon="4.68977">
        <ele>259.34979</ele>
        <time>2023-07-30T14:08:19.000Z</time>
      </trkpt>
      <trkpt lat="45.85863" lon="4.68982">
        <ele>259.45248</ele>
        <time>2023-07-30T14:08:20.000Z</time>
      </trkpt>
      <trkpt lat="45.85864" lon="4.68988">
        <ele>259.55057</ele>
        <time>2023-07-30T14:08:21.000Z</time>
      </trkpt>
      <trkpt lat="45.85864" lon="4.68993">
        <ele>259.63971</ele>
        <time>2023-07-30T14:08:22.000Z</time>
      </trkpt>
      <trkpt lat="45.85865" lon="4.68998">
        <ele>259.73132</ele>
        <time>2023-07-30T14:08:23.000Z</time>
      </trkpt>
      <trkpt lat="45.85866" lon="4.69003">
        <ele>259.8017</ele>
        <time>2023-07-30T14:08:24.000Z</time>
      </trkpt>
      <trkpt lat="45.85867" lon="4.69008">
        <ele>259.84509</ele>
        <time>2023-07-30T14:08:25.000Z</time>
      </trkpt>
      <trkpt lat="45.85868" lon="4.69013">
        <ele>259.8833</ele>
        <time>2023-07-30T14:08:26.000Z</time>
      </trkpt>
      <trkpt lat="45.85869" lon="4.69018">
        <ele>259.90106</ele>
        <time>2023-07-30T14:08:27.000Z</time>
      </trkpt>
      <trkpt lat="45.8587" lon="4.69022">
        <ele>259.90799</ele>
        <time>2023-07-30T14:08:28.000Z</time>
      </trkpt>
      <trkpt lat="45.85871" lon="4.69027">
        <ele>259.88144</ele>
        <time>2023-07-30T14:08:29.000Z</time>
      </trkpt>
      <trkpt lat="45.85872" lon="4.69031">
        <ele>259.8356</ele>
        <time>2023-07-30T14:08:30.000Z</time>
      </trkpt>
      <trkpt lat="45.85873" lon="4.69036">
        <ele>259.72662</ele>
        <time>2023-07-30T14:08:31.000Z</time>
      </trkpt>
      <trkpt lat="45.85872" lon="4.69041">
        <ele>259.62469</ele>
        <time>2023-07-30T14:08:32.000Z</time>
      </trkpt>
      <trkpt lat="45.8587" lon="4.69046">
        <ele>259.52261</ele>
        <time>2023-07-30T14:08:33.000Z</time>
      </trkpt>
      <trkpt lat="45.85868" lon="4.69051">
        <ele>259.43369</ele>
        <time>2023-07-30T14:08:34.000Z</time>
      </trkpt>
      <trkpt lat="45.85865" lon="4.69056">
        <ele>259.33521</ele>
        <time>2023-07-30T14:08:35.000Z</time>
      </trkpt>
      <trkpt lat="45.85863" lon="4.69061">
        <ele>259.28796</ele>
        <time>2023-07-30T14:08:36.000Z</time>
      </trkpt>
      <trkpt lat="45.85861" lon="4.69068">
        <ele>259.19778</ele>
        <time>2023-07-30T14:08:37.000Z</time>
      </trkpt>
      <trkpt lat="45.85861" lon="4.69074">
        <ele>259.04266</ele>
        <time>2023-07-30T14:08:38.000Z</time>
      </trkpt>
      <trkpt lat="45.8586" lon="4.69081">
        <ele>258.92581</ele>
        <time>2023-07-30T14:08:39.000Z</time>
      </trkpt>
      <trkpt lat="45.8586" lon="4.69088">
        <ele>258.80347</ele>
        <time>2023-07-30T14:08:40.000Z</time>
      </trkpt>
      <trkpt lat="45.85859" lon="4.69094">
        <ele>258.69067</ele>
        <time>2023-07-30T14:08:41.000Z</time>
      </trkpt>
      <trkpt lat="45.85859" lon="4.691">
        <ele>258.57187</ele>
        <time>2023-07-30T14:08:42.000Z</time>
      </trkpt>
      <trkpt lat="45.85859" lon="4.69104">
        <ele>258.48843</ele>
        <time>2023-07-30T14:08:43.000Z</time>
      </trkpt>
      <trkpt lat="45.85858" lon="4.69111">
        <ele>258.42145</ele>
        <time>2023-07-30T14:08:44.000Z</time>
      </trkpt>
      <trkpt lat="45.85858" lon="4.69117">
        <ele>258.33591</ele>
        <time>2023-07-30T14:08:45.000Z</time>
      </trkpt>
      <trkpt lat="45.85857" lon="4.69122">
        <ele>258.29572</ele>
        <time>2023-07-30T14:08:46.000Z</time>
      </trkpt>
      <trkpt lat="45.85856" lon="4.69126">
        <ele>258.25552</ele>
        <time>2023-07-30T14:08:47.000Z</time>
      </trkpt>
      <trkpt lat="45.85855" lon="4.69132">
        <ele>258.21597</ele>
        <time>2023-07-30T14:08:48.000Z</time>
      </trkpt>
      <trkpt lat="45.85855" lon="4.69138">
        <ele>258.20819</ele>
        <time>2023-07-30T14:08:49.000Z</time>
      </trkpt>
      <trkpt lat="45.85854" lon="4.69142">
        <ele>258.23544</ele>
        <time>2023-07-30T14:08:50.000Z</time>
      </trkpt>
      <trkpt lat="45.85852" lon="4.69148">
        <ele>258.30682</ele>
        <time>2023-07-30T14:08:51.000Z</time>
      </trkpt>
      <trkpt lat="45.85852" lon="4.69153">
        <ele>258.3642</ele>
        <time>2023-07-30T14:08:52.000Z</time>
      </trkpt>
      <trkpt lat="45.85851" lon="4.69158">
        <ele>258.46686</ele>
        <time>2023-07-30T14:08:53.000Z</time>
      </trkpt>
      <trkpt lat="45.85851" lon="4.69164">
        <ele>258.54379</ele>
        <time>2023-07-30T14:08:54.000Z</time>
      </trkpt>
      <trkpt lat="45.8585" lon="4.69169">
        <ele>258.61276</ele>
        <time>2023-07-30T14:08:55.000Z</time>
      </trkpt>
      <trkpt lat="45.85849" lon="4.69175">
        <ele>258.67496</ele>
        <time>2023-07-30T14:08:56.000Z</time>
      </trkpt>
      <trkpt lat="45.85848" lon="4.69181">
        <ele>258.74396</ele>
        <time>2023-07-30T14:08:57.000Z</time>
      </trkpt>
      <trkpt lat="45.85847" lon="4.69187">
        <ele>258.94171</ele>
        <time>2023-07-30T14:08:58.000Z</time>
      </trkpt>
      <trkpt lat="45.85847" lon="4.69193">
        <ele>259.0921</ele>
        <time>2023-07-30T14:08:59.000Z</time>
      </trkpt>
      <trkpt lat="45.85846" lon="4.69201">
        <ele>259.22562</ele>
        <time>2023-07-30T14:09:00.000Z</time>
      </trkpt>
      <trkpt lat="45.85845" lon="4.69207">
        <ele>259.25214</ele>
        <time>2023-07-30T14:09:01.000Z</time>
      </trkpt>
      <trkpt lat="45.85845" lon="4.69214">
        <ele>259.29813</ele>
        <time>2023-07-30T14:09:02.000Z</time>
      </trkpt>
      <trkpt lat="45.85844" lon="4.6922">
        <ele>259.29721</ele>
        <time>2023-07-30T14:09:03.000Z</time>
      </trkpt>
      <trkpt lat="45.85843" lon="4.69226">
        <ele>259.28232</ele>
        <time>2023-07-30T14:09:04.000Z</time>
      </trkpt>
      <trkpt lat="45.85841" lon="4.69232">
        <ele>259.28665</ele>
        <time>2023-07-30T14:09:05.000Z</time>
      </trkpt>
      <trkpt lat="45.85839" lon="4.69237">
        <ele>259.23642</ele>
        <time>2023-07-30T14:09:06.000Z</time>
      </trkpt>
      <trkpt lat="45.85838" lon="4.69242">
        <ele>259.18112</ele>
        <time>2023-07-30T14:09:07.000Z</time>
      </trkpt>
      <trkpt lat="45.85835" lon="4.69248">
        <ele>259.07779</ele>
        <time>2023-07-30T14:09:08.000Z</time>
      </trkpt>
      <trkpt lat="45.85833" lon="4.69254">
        <ele>258.90561</ele>
        <time>2023-07-30T14:09:09.000Z</time>
      </trkpt>
      <trkpt lat="45.85832" lon="4.6926">
        <ele>258.77286</ele>
        <time>2023-07-30T14:09:10.000Z</time>
      </trkpt>
      <trkpt lat="45.85832" lon="4.69266">
        <ele>258.68729</ele>
        <time>2023-07-30T14:09:11.000Z</time>
      </trkpt>
      <trkpt lat="45.85833" lon="4.69274">
        <ele>258.60953</ele>
        <time>2023-07-30T14:09:12.000Z</time>
      </trkpt>
      <trkpt lat="45.85833" lon="4.69279">
        <ele>258.33017</ele>
        <time>2023-07-30T14:09:13.000Z</time>
      </trkpt>
      <trkpt lat="45.85832" lon="4.69286">
        <ele>258.08374</ele>
        <time>2023-07-30T14:09:14.000Z</time>
      </trkpt>
      <trkpt lat="45.85833" lon="4.69292">
        <ele>257.83298</ele>
        <time>2023-07-30T14:09:15.000Z</time>
      </trkpt>
      <trkpt lat="45.85834" lon="4.69298">
        <ele>257.56113</ele>
        <time>2023-07-30T14:09:16.000Z</time>
      </trkpt>
      <trkpt lat="45.85835" lon="4.69304">
        <ele>257.35605</ele>
        <time>2023-07-30T14:09:17.000Z</time>
      </trkpt>
      <trkpt lat="45.85836" lon="4.6931">
        <ele>257.11801</ele>
        <time>2023-07-30T14:09:18.000Z</time>
      </trkpt>
      <trkpt lat="45.85837" lon="4.69317">
        <ele>256.90353</ele>
        <time>2023-07-30T14:09:19.000Z</time>
      </trkpt>
      <trkpt lat="45.85839" lon="4.6932">
        <ele>256.76712</ele>
        <time>2023-07-30T14:09:20.000Z</time>
      </trkpt>
      <trkpt lat="45.8584" lon="4.69327">
        <ele>256.78543</ele>
        <time>2023-07-30T14:09:21.000Z</time>
      </trkpt>
      <trkpt lat="45.85842" lon="4.69334">
        <ele>256.77008</ele>
        <time>2023-07-30T14:09:22.000Z</time>
      </trkpt>
      <trkpt lat="45.85844" lon="4.6934">
        <ele>256.68427</ele>
        <time>2023-07-30T14:09:23.000Z</time>
      </trkpt>
      <trkpt lat="45.85846" lon="4.69346">
        <ele>256.59454</ele>
        <time>2023-07-30T14:09:24.000Z</time>
      </trkpt>
      <trkpt lat="45.85848" lon="4.69351">
        <ele>256.51962</ele>
        <time>2023-07-30T14:09:25.000Z</time>
      </trkpt>
      <trkpt lat="45.8585" lon="4.69356">
        <ele>256.46359</ele>
        <time>2023-07-30T14:09:26.000Z</time>
      </trkpt>
      <trkpt lat="45.85851" lon="4.69361">
        <ele>256.3938</ele>
        <time>2023-07-30T14:09:27.000Z</time>
      </trkpt>
      <trkpt lat="45.85853" lon="4.69366">
        <ele>256.33545</ele>
        <time>2023-07-30T14:09:28.000Z</time>
      </trkpt>
      <trkpt lat="45.85853" lon="4.69372">
        <ele>256.26996</ele>
        <time>2023-07-30T14:09:29.000Z</time>
      </trkpt>
      <trkpt lat="45.85852" lon="4.69377">
        <ele>256.15799</ele>
        <time>2023-07-30T14:09:30.000Z</time>
      </trkpt>
      <trkpt lat="45.8585" lon="4.69381">
        <ele>255.99216</ele>
        <time>2023-07-30T14:09:31.000Z</time>
      </trkpt>
      <trkpt lat="45.85848" lon="4.69385">
        <ele>255.73831</ele>
        <time>2023-07-30T14:09:32.000Z</time>
      </trkpt>
      <trkpt lat="45.85845" lon="4.69389">
        <ele>255.60762</ele>
        <time>2023-07-30T14:09:33.000Z</time>
      </trkpt>
      <trkpt lat="45.8584" lon="4.69394">
        <ele>255.44405</ele>
        <time>2023-07-30T14:09:34.000Z</time>
      </trkpt>
      <trkpt lat="45.85837" lon="4.69398">
        <ele>255.2697</ele>
        <time>2023-07-30T14:09:35.000Z</time>
      </trkpt>
      <trkpt lat="45.85835" lon="4.69403">
        <ele>255.10393</ele>
        <time>2023-07-30T14:09:36.000Z</time>
      </trkpt>
      <trkpt lat="45.85833" lon="4.69407">
        <ele>254.8925</ele>
        <time>2023-07-30T14:09:37.000Z</time>
      </trkpt>
      <trkpt lat="45.85831" lon="4.69412">
        <ele>254.68628</ele>
        <time>2023-07-30T14:09:38.000Z</time>
      </trkpt>
      <trkpt lat="45.85828" lon="4.69414">
        <ele>254.50809</ele>
        <time>2023-07-30T14:09:39.000Z</time>
      </trkpt>
      <trkpt lat="45.85825" lon="4.69418">
        <ele>254.31894</ele>
        <time>2023-07-30T14:09:40.000Z</time>
      </trkpt>
      <trkpt lat="45.85824" lon="4.69423">
        <ele>254.08643</ele>
        <time>2023-07-30T14:09:41.000Z</time>
      </trkpt>
      <trkpt lat="45.85822" lon="4.69428">
        <ele>253.88887</ele>
        <time>2023-07-30T14:09:42.000Z</time>
      </trkpt>
      <trkpt lat="45.85822" lon="4.69434">
        <ele>253.75146</ele>
        <time>2023-07-30T14:09:43.000Z</time>
      </trkpt>
      <trkpt lat="45.85822" lon="4.69439">
        <ele>253.66373</ele>
        <time>2023-07-30T14:09:44.000Z</time>
      </trkpt>
      <trkpt lat="45.85822" lon="4.69444">
        <ele>253.60312</ele>
        <time>2023-07-30T14:09:45.000Z</time>
      </trkpt>
      <trkpt lat="45.85822" lon="4.69449">
        <ele>253.50703</ele>
        <time>2023-07-30T14:09:46.000Z</time>
      </trkpt>
      <trkpt lat="45.85821" lon="4.69454">
        <ele>253.44922</ele>
        <time>2023-07-30T14:09:47.000Z</time>
      </trkpt>
      <trkpt lat="45.85822" lon="4.69459">
        <ele>253.43501</ele>
        <time>2023-07-30T14:09:48.000Z</time>
      </trkpt>
      <trkpt lat="45.85823" lon="4.69467">
        <ele>253.41296</ele>
        <time>2023-07-30T14:09:49.000Z</time>
      </trkpt>
      <trkpt lat="45.85824" lon="4.69472">
        <ele>253.40462</ele>
        <time>2023-07-30T14:09:50.000Z</time>
      </trkpt>
      <trkpt lat="45.85825" lon="4.69479">
        <ele>253.38655</ele>
        <time>2023-07-30T14:09:51.000Z</time>
      </trkpt>
      <trkpt lat="45.85826" lon="4.69485">
        <ele>253.47417</ele>
        <time>2023-07-30T14:09:52.000Z</time>
      </trkpt>
      <trkpt lat="45.85827" lon="4.6949">
        <ele>253.58438</ele>
        <time>2023-07-30T14:09:53.000Z</time>
      </trkpt>
      <trkpt lat="45.85828" lon="4.69495">
        <ele>253.72644</ele>
        <time>2023-07-30T14:09:54.000Z</time>
      </trkpt>
      <trkpt lat="45.85828" lon="4.69501">
        <ele>253.91667</ele>
        <time>2023-07-30T14:09:55.000Z</time>
      </trkpt>
      <trkpt lat="45.85829" lon="4.69507">
        <ele>254.10413</ele>
        <time>2023-07-30T14:09:56.000Z</time>
      </trkpt>
      <trkpt lat="45.85829" lon="4.69513">
        <ele>254.30017</ele>
        <time>2023-07-30T14:09:57.000Z</time>
      </trkpt>
      <trkpt lat="45.85828" lon="4.69519">
        <ele>254.49651</ele>
        <time>2023-07-30T14:09:58.000Z</time>
      </trkpt>
      <trkpt lat="45.85829" lon="4.69524">
        <ele>254.68454</ele>
        <time>2023-07-30T14:09:59.000Z</time>
      </trkpt>
      <trkpt lat="45.8583" lon="4.6953">
        <ele>254.85828</ele>
        <time>2023-07-30T14:10:00.000Z</time>
      </trkpt>
      <trkpt lat="45.85831" lon="4.69537">
        <ele>255.01506</ele>
        <time>2023-07-30T14:10:01.000Z</time>
      </trkpt>
      <trkpt lat="45.85832" lon="4.69543">
        <ele>255.11963</ele>
        <time>2023-07-30T14:10:02.000Z</time>
      </trkpt>
      <trkpt lat="45.85833" lon="4.69549">
        <ele>255.25578</ele>
        <time>2023-07-30T14:10:03.000Z</time>
      </trkpt>
      <trkpt lat="45.85834" lon="4.69555">
        <ele>255.36441</ele>
        <time>2023-07-30T14:10:04.000Z</time>
      </trkpt>
      <trkpt lat="45.85836" lon="4.69563">
        <ele>255.44308</ele>
        <time>2023-07-30T14:10:05.000Z</time>
      </trkpt>
      <trkpt lat="45.85836" lon="4.6957">
        <ele>255.52542</ele>
        <time>2023-07-30T14:10:06.000Z</time>
      </trkpt>
      <trkpt lat="45.85837" lon="4.69577">
        <ele>255.59367</ele>
        <time>2023-07-30T14:10:07.000Z</time>
      </trkpt>
      <trkpt lat="45.85838" lon="4.69584">
        <ele>255.62256</ele>
        <time>2023-07-30T14:10:08.000Z</time>
      </trkpt>
      <trkpt lat="45.8584" lon="4.69591">
        <ele>255.69458</ele>
        <time>2023-07-30T14:10:09.000Z</time>
      </trkpt>
      <trkpt lat="45.85841" lon="4.69598">
        <ele>255.70073</ele>
        <time>2023-07-30T14:10:10.000Z</time>
      </trkpt>
      <trkpt lat="45.85842" lon="4.69604">
        <ele>255.73123</ele>
        <time>2023-07-30T14:10:11.000Z</time>
      </trkpt>
      <trkpt lat="45.85844" lon="4.69611">
        <ele>255.7758</ele>
        <time>2023-07-30T14:10:12.000Z</time>
      </trkpt>
      <trkpt lat="45.85845" lon="4.69618">
        <ele>255.82983</ele>
        <time>2023-07-30T14:10:13.000Z</time>
      </trkpt>
      <trkpt lat="45.85847" lon="4.69625">
        <ele>255.87158</ele>
        <time>2023-07-30T14:10:14.000Z</time>
      </trkpt>
      <trkpt lat="45.8585" lon="4.69631">
        <ele>255.87476</ele>
        <time>2023-07-30T14:10:15.000Z</time>
      </trkpt>
      <trkpt lat="45.85852" lon="4.69637">
        <ele>255.86319</ele>
        <time>2023-07-30T14:10:16.000Z</time>
      </trkpt>
      <trkpt lat="45.85853" lon="4.69644">
        <ele>255.84094</ele>
        <time>2023-07-30T14:10:17.000Z</time>
      </trkpt>
      <trkpt lat="45.85854" lon="4.69652">
        <ele>255.79294</ele>
        <time>2023-07-30T14:10:18.000Z</time>
      </trkpt>
      <trkpt lat="45.85857" lon="4.69659">
        <ele>255.73811</ele>
        <time>2023-07-30T14:10:19.000Z</time>
      </trkpt>
      <trkpt lat="45.85858" lon="4.69665">
        <ele>255.61015</ele>
        <time>2023-07-30T14:10:20.000Z</time>
      </trkpt>
      <trkpt lat="45.8586" lon="4.69673">
        <ele>255.48006</ele>
        <time>2023-07-30T14:10:21.000Z</time>
      </trkpt>
      <trkpt lat="45.85862" lon="4.69679">
        <ele>255.37456</ele>
        <time>2023-07-30T14:10:22.000Z</time>
      </trkpt>
      <trkpt lat="45.85863" lon="4.69684">
        <ele>255.2446</ele>
        <time>2023-07-30T14:10:23.000Z</time>
      </trkpt>
      <trkpt lat="45.85864" lon="4.69692">
        <ele>255.11938</ele>
        <time>2023-07-30T14:10:24.000Z</time>
      </trkpt>
      <trkpt lat="45.85867" lon="4.69698">
        <ele>254.9725</ele>
        <time>2023-07-30T14:10:25.000Z</time>
      </trkpt>
      <trkpt lat="45.8587" lon="4.69704">
        <ele>254.79318</ele>
        <time>2023-07-30T14:10:26.000Z</time>
      </trkpt>
      <trkpt lat="45.85873" lon="4.6971">
        <ele>254.57968</ele>
        <time>2023-07-30T14:10:27.000Z</time>
      </trkpt>
      <trkpt lat="45.85876" lon="4.69716">
        <ele>254.36475</ele>
        <time>2023-07-30T14:10:28.000Z</time>
      </trkpt>
      <trkpt lat="45.85879" lon="4.69722">
        <ele>254.14859</ele>
        <time>2023-07-30T14:10:29.000Z</time>
      </trkpt>
      <trkpt lat="45.85882" lon="4.69729">
        <ele>253.95511</ele>
        <time>2023-07-30T14:10:30.000Z</time>
      </trkpt>
      <trkpt lat="45.85884" lon="4.69737">
        <ele>253.77945</ele>
        <time>2023-07-30T14:10:31.000Z</time>
      </trkpt>
      <trkpt lat="45.85887" lon="4.69743">
        <ele>253.52168</ele>
        <time>2023-07-30T14:10:32.000Z</time>
      </trkpt>
      <trkpt lat="45.85891" lon="4.69749">
        <ele>253.2533</ele>
        <time>2023-07-30T14:10:33.000Z</time>
      </trkpt>
      <trkpt lat="45.85893" lon="4.69755">
        <ele>252.93047</ele>
        <time>2023-07-30T14:10:34.000Z</time>
      </trkpt>
      <trkpt lat="45.85898" lon="4.69761">
        <ele>252.61429</ele>
        <time>2023-07-30T14:10:35.000Z</time>
      </trkpt>
      <trkpt lat="45.85901" lon="4.69769">
        <ele>252.26819</ele>
        <time>2023-07-30T14:10:36.000Z</time>
      </trkpt>
      <trkpt lat="45.85905" lon="4.69773">
        <ele>251.90305</ele>
        <time>2023-07-30T14:10:37.000Z</time>
      </trkpt>
      <trkpt lat="45.85909" lon="4.6978">
        <ele>251.39624</ele>
        <time>2023-07-30T14:10:38.000Z</time>
      </trkpt>
      <trkpt lat="45.85913" lon="4.69786">
        <ele>250.89046</ele>
        <time>2023-07-30T14:10:39.000Z</time>
      </trkpt>
      <trkpt lat="45.85916" lon="4.69791">
        <ele>250.44418</ele>
        <time>2023-07-30T14:10:40.000Z</time>
      </trkpt>
      <trkpt lat="45.8592" lon="4.69796">
        <ele>250.04951</ele>
        <time>2023-07-30T14:10:41.000Z</time>
      </trkpt>
      <trkpt lat="45.85924" lon="4.69801">
        <ele>249.66782</ele>
        <time>2023-07-30T14:10:42.000Z</time>
      </trkpt>
      <trkpt lat="45.85928" lon="4.69806">
        <ele>249.34114</ele>
        <time>2023-07-30T14:10:43.000Z</time>
      </trkpt>
      <trkpt lat="45.85932" lon="4.69811">
        <ele>249.03885</ele>
        <time>2023-07-30T14:10:44.000Z</time>
      </trkpt>
      <trkpt lat="45.85936" lon="4.69817">
        <ele>248.73209</ele>
        <time>2023-07-30T14:10:45.000Z</time>
      </trkpt>
      <trkpt lat="45.85939" lon="4.69822">
        <ele>248.48544</ele>
        <time>2023-07-30T14:10:46.000Z</time>
      </trkpt>
      <trkpt lat="45.85944" lon="4.69826">
        <ele>248.27193</ele>
        <time>2023-07-30T14:10:47.000Z</time>
      </trkpt>
      <trkpt lat="45.85948" lon="4.69831">
        <ele>248.07742</ele>
        <time>2023-07-30T14:10:48.000Z</time>
      </trkpt>
      <trkpt lat="45.85952" lon="4.69835">
        <ele>247.91409</ele>
        <time>2023-07-30T14:10:49.000Z</time>
      </trkpt>
      <trkpt lat="45.85956" lon="4.69841">
        <ele>247.76591</ele>
        <time>2023-07-30T14:10:50.000Z</time>
      </trkpt>
      <trkpt lat="45.8596" lon="4.69845">
        <ele>247.60501</ele>
        <time>2023-07-30T14:10:51.000Z</time>
      </trkpt>
      <trkpt lat="45.85964" lon="4.69849">
        <ele>247.49117</ele>
        <time>2023-07-30T14:10:52.000Z</time>
      </trkpt>
      <trkpt lat="45.85969" lon="4.69852">
        <ele>247.36592</ele>
        <time>2023-07-30T14:10:53.000Z</time>
      </trkpt>
      <trkpt lat="45.85973" lon="4.69856">
        <ele>247.29175</ele>
        <time>2023-07-30T14:10:54.000Z</time>
      </trkpt>
      <trkpt lat="45.85977" lon="4.6986">
        <ele>247.26302</ele>
        <time>2023-07-30T14:10:55.000Z</time>
      </trkpt>
      <trkpt lat="45.85982" lon="4.69863">
        <ele>247.30222</ele>
        <time>2023-07-30T14:10:56.000Z</time>
      </trkpt>
      <trkpt lat="45.85986" lon="4.69867">
        <ele>247.30754</ele>
        <time>2023-07-30T14:10:57.000Z</time>
      </trkpt>
      <trkpt lat="45.85989" lon="4.69871">
        <ele>247.46245</ele>
        <time>2023-07-30T14:10:58.000Z</time>
      </trkpt>
      <trkpt lat="45.85993" lon="4.69875">
        <ele>247.62143</ele>
        <time>2023-07-30T14:10:59.000Z</time>
      </trkpt>
      <trkpt lat="45.85998" lon="4.6988">
        <ele>247.77133</ele>
        <time>2023-07-30T14:11:00.000Z</time>
      </trkpt>
      <trkpt lat="45.86004" lon="4.69884">
        <ele>247.83652</ele>
        <time>2023-07-30T14:11:01.000Z</time>
      </trkpt>
      <trkpt lat="45.86009" lon="4.69889">
        <ele>247.90996</ele>
        <time>2023-07-30T14:11:02.000Z</time>
      </trkpt>
      <trkpt lat="45.86014" lon="4.69891">
        <ele>247.95943</ele>
        <time>2023-07-30T14:11:03.000Z</time>
      </trkpt>
      <trkpt lat="45.8602" lon="4.69893">
        <ele>248.01199</ele>
        <time>2023-07-30T14:11:04.000Z</time>
      </trkpt>
      <trkpt lat="45.86026" lon="4.69896">
        <ele>248.10062</ele>
        <time>2023-07-30T14:11:05.000Z</time>
      </trkpt>
      <trkpt lat="45.86031" lon="4.69896">
        <ele>248.20268</ele>
        <time>2023-07-30T14:11:06.000Z</time>
      </trkpt>
      <trkpt lat="45.86036" lon="4.69895">
        <ele>248.30461</ele>
        <time>2023-07-30T14:11:07.000Z</time>
      </trkpt>
      <trkpt lat="45.86041" lon="4.69895">
        <ele>248.37802</ele>
        <time>2023-07-30T14:11:08.000Z</time>
      </trkpt>
      <trkpt lat="45.86047" lon="4.69894">
        <ele>248.40332</ele>
        <time>2023-07-30T14:11:09.000Z</time>
      </trkpt>
      <trkpt lat="45.86052" lon="4.69892">
        <ele>248.46487</ele>
        <time>2023-07-30T14:11:10.000Z</time>
      </trkpt>
      <trkpt lat="45.86057" lon="4.69891">
        <ele>248.52254</ele>
        <time>2023-07-30T14:11:11.000Z</time>
      </trkpt>
      <trkpt lat="45.86062" lon="4.69889">
        <ele>248.59769</ele>
        <time>2023-07-30T14:11:12.000Z</time>
      </trkpt>
      <trkpt lat="45.86068" lon="4.69887">
        <ele>248.7128</ele>
        <time>2023-07-30T14:11:13.000Z</time>
      </trkpt>
      <trkpt lat="45.86074" lon="4.69886">
        <ele>248.82466</ele>
        <time>2023-07-30T14:11:14.000Z</time>
      </trkpt>
      <trkpt lat="45.86078" lon="4.69885">
        <ele>248.92207</ele>
        <time>2023-07-30T14:11:15.000Z</time>
      </trkpt>
      <trkpt lat="45.86083" lon="4.69882">
        <ele>248.99739</ele>
        <time>2023-07-30T14:11:16.000Z</time>
      </trkpt>
      <trkpt lat="45.86088" lon="4.69882">
        <ele>249.12312</ele>
        <time>2023-07-30T14:11:17.000Z</time>
      </trkpt>
      <trkpt lat="45.86094" lon="4.6988">
        <ele>249.22884</ele>
        <time>2023-07-30T14:11:18.000Z</time>
      </trkpt>
      <trkpt lat="45.86099" lon="4.69879">
        <ele>249.32341</ele>
        <time>2023-07-30T14:11:19.000Z</time>
      </trkpt>
      <trkpt lat="45.86104" lon="4.69877">
        <ele>249.42917</ele>
        <time>2023-07-30T14:11:20.000Z</time>
      </trkpt>
      <trkpt lat="45.86109" lon="4.69874">
        <ele>249.5424</ele>
        <time>2023-07-30T14:11:21.000Z</time>
      </trkpt>
      <trkpt lat="45.86115" lon="4.69871">
        <ele>249.64481</ele>
        <time>2023-07-30T14:11:22.000Z</time>
      </trkpt>
      <trkpt lat="45.86119" lon="4.69869">
        <ele>249.71045</ele>
        <time>2023-07-30T14:11:23.000Z</time>
      </trkpt>
      <trkpt lat="45.86124" lon="4.69865">
        <ele>249.85144</ele>
        <time>2023-07-30T14:11:24.000Z</time>
      </trkpt>
      <trkpt lat="45.86129" lon="4.69862">
        <ele>249.97188</ele>
        <time>2023-07-30T14:11:25.000Z</time>
      </trkpt>
      <trkpt lat="45.86134" lon="4.69859">
        <ele>250.0907</ele>
        <time>2023-07-30T14:11:26.000Z</time>
      </trkpt>
      <trkpt lat="45.86137" lon="4.69855">
        <ele>250.09671</ele>
        <time>2023-07-30T14:11:27.000Z</time>
      </trkpt>
      <trkpt lat="45.86142" lon="4.69849">
        <ele>250.17978</ele>
        <time>2023-07-30T14:11:28.000Z</time>
      </trkpt>
      <trkpt lat="45.86146" lon="4.69845">
        <ele>250.25842</ele>
        <time>2023-07-30T14:11:29.000Z</time>
      </trkpt>
      <trkpt lat="45.86152" lon="4.69842">
        <ele>250.27682</ele>
        <time>2023-07-30T14:11:30.000Z</time>
      </trkpt>
      <trkpt lat="45.86157" lon="4.69839">
        <ele>250.30466</ele>
        <time>2023-07-30T14:11:31.000Z</time>
      </trkpt>
      <trkpt lat="45.86162" lon="4.69835">
        <ele>250.32617</ele>
        <time>2023-07-30T14:11:32.000Z</time>
      </trkpt>
      <trkpt lat="45.86168" lon="4.69831">
        <ele>250.32454</ele>
        <time>2023-07-30T14:11:33.000Z</time>
      </trkpt>
      <trkpt lat="45.86173" lon="4.69827">
        <ele>250.33342</ele>
        <time>2023-07-30T14:11:34.000Z</time>
      </trkpt>
      <trkpt lat="45.86177" lon="4.69823">
        <ele>250.33569</ele>
        <time>2023-07-30T14:11:35.000Z</time>
      </trkpt>
      <trkpt lat="45.86182" lon="4.69819">
        <ele>250.28476</ele>
        <time>2023-07-30T14:11:36.000Z</time>
      </trkpt>
      <trkpt lat="45.86187" lon="4.69814">
        <ele>250.21823</ele>
        <time>2023-07-30T14:11:37.000Z</time>
      </trkpt>
      <trkpt lat="45.86192" lon="4.69811">
        <ele>250.20938</ele>
        <time>2023-07-30T14:11:38.000Z</time>
      </trkpt>
      <trkpt lat="45.86197" lon="4.69807">
        <ele>250.20317</ele>
        <time>2023-07-30T14:11:39.000Z</time>
      </trkpt>
      <trkpt lat="45.86202" lon="4.69804">
        <ele>250.19344</ele>
        <time>2023-07-30T14:11:40.000Z</time>
      </trkpt>
      <trkpt lat="45.86207" lon="4.698">
        <ele>250.21069</ele>
        <time>2023-07-30T14:11:41.000Z</time>
      </trkpt>
      <trkpt lat="45.86212" lon="4.69798">
        <ele>250.22974</ele>
        <time>2023-07-30T14:11:42.000Z</time>
      </trkpt>
      <trkpt lat="45.86216" lon="4.69795">
        <ele>250.28174</ele>
        <time>2023-07-30T14:11:43.000Z</time>
      </trkpt>
      <trkpt lat="45.8622" lon="4.69791">
        <ele>250.22517</ele>
        <time>2023-07-30T14:11:44.000Z</time>
      </trkpt>
      <trkpt lat="45.86224" lon="4.69787">
        <ele>250.16711</ele>
        <time>2023-07-30T14:11:45.000Z</time>
      </trkpt>
      <trkpt lat="45.86227" lon="4.69783">
        <ele>250.07979</ele>
        <time>2023-07-30T14:11:46.000Z</time>
      </trkpt>
      <trkpt lat="45.86232" lon="4.69778">
        <ele>250.10844</ele>
        <time>2023-07-30T14:11:47.000Z</time>
      </trkpt>
      <trkpt lat="45.86235" lon="4.69774">
        <ele>250.06401</ele>
        <time>2023-07-30T14:11:48.000Z</time>
      </trkpt>
      <trkpt lat="45.86239" lon="4.6977">
        <ele>250.01221</ele>
        <time>2023-07-30T14:11:49.000Z</time>
      </trkpt>
      <trkpt lat="45.86244" lon="4.69766">
        <ele>249.99651</ele>
        <time>2023-07-30T14:11:50.000Z</time>
      </trkpt>
      <trkpt lat="45.86248" lon="4.69763">
        <ele>249.99251</ele>
        <time>2023-07-30T14:11:51.000Z</time>
      </trkpt>
      <trkpt lat="45.86253" lon="4.6976">
        <ele>250.00101</ele>
        <time>2023-07-30T14:11:52.000Z</time>
      </trkpt>
      <trkpt lat="45.86258" lon="4.69759">
        <ele>250.30515</ele>
        <time>2023-07-30T14:11:53.000Z</time>
      </trkpt>
      <trkpt lat="45.86263" lon="4.69758">
        <ele>250.57401</ele>
        <time>2023-07-30T14:11:54.000Z</time>
      </trkpt>
      <trkpt lat="45.86268" lon="4.69756">
        <ele>250.85522</ele>
        <time>2023-07-30T14:11:55.000Z</time>
      </trkpt>
      <trkpt lat="45.86273" lon="4.69755">
        <ele>251.17256</ele>
        <time>2023-07-30T14:11:56.000Z</time>
      </trkpt>
      <trkpt lat="45.86279" lon="4.69753">
        <ele>251.52133</ele>
        <time>2023-07-30T14:11:57.000Z</time>
      </trkpt>
      <trkpt lat="45.86284" lon="4.69752">
        <ele>251.8602</ele>
        <time>2023-07-30T14:11:58.000Z</time>
      </trkpt>
      <trkpt lat="45.8629" lon="4.69751">
        <ele>252.22417</ele>
        <time>2023-07-30T14:11:59.000Z</time>
      </trkpt>
      <trkpt lat="45.86295" lon="4.6975">
        <ele>252.58951</ele>
        <time>2023-07-30T14:12:00.000Z</time>
      </trkpt>
      <trkpt lat="45.863" lon="4.69751">
        <ele>252.89053</ele>
        <time>2023-07-30T14:12:01.000Z</time>
      </trkpt>
      <trkpt lat="45.86305" lon="4.69752">
        <ele>253.1757</ele>
        <time>2023-07-30T14:12:02.000Z</time>
      </trkpt>
      <trkpt lat="45.86311" lon="4.69752">
        <ele>253.44958</ele>
        <time>2023-07-30T14:12:03.000Z</time>
      </trkpt>
      <trkpt lat="45.86316" lon="4.69754">
        <ele>253.71146</ele>
        <time>2023-07-30T14:12:04.000Z</time>
      </trkpt>
      <trkpt lat="45.86321" lon="4.69755">
        <ele>253.98734</ele>
        <time>2023-07-30T14:12:05.000Z</time>
      </trkpt>
      <trkpt lat="45.86326" lon="4.69757">
        <ele>254.26913</ele>
        <time>2023-07-30T14:12:06.000Z</time>
      </trkpt>
      <trkpt lat="45.86332" lon="4.6976">
        <ele>254.54887</ele>
        <time>2023-07-30T14:12:07.000Z</time>
      </trkpt>
      <trkpt lat="45.86336" lon="4.69763">
        <ele>254.83218</ele>
        <time>2023-07-30T14:12:08.000Z</time>
      </trkpt>
      <trkpt lat="45.8634" lon="4.69769">
        <ele>255.08838</ele>
        <time>2023-07-30T14:12:09.000Z</time>
      </trkpt>
      <trkpt lat="45.86343" lon="4.69774">
        <ele>255.30148</ele>
        <time>2023-07-30T14:12:10.000Z</time>
      </trkpt>
      <trkpt lat="45.86348" lon="4.69779">
        <ele>255.48994</ele>
        <time>2023-07-30T14:12:11.000Z</time>
      </trkpt>
      <trkpt lat="45.86351" lon="4.69785">
        <ele>255.65498</ele>
        <time>2023-07-30T14:12:12.000Z</time>
      </trkpt>
      <trkpt lat="45.86354" lon="4.69791">
        <ele>255.54599</ele>
        <time>2023-07-30T14:12:13.000Z</time>
      </trkpt>
      <trkpt lat="45.86359" lon="4.69797">
        <ele>255.52312</ele>
        <time>2023-07-30T14:12:14.000Z</time>
      </trkpt>
      <trkpt lat="45.86362" lon="4.69803">
        <ele>255.4593</ele>
        <time>2023-07-30T14:12:15.000Z</time>
      </trkpt>
      <trkpt lat="45.86365" lon="4.69809">
        <ele>255.38457</ele>
        <time>2023-07-30T14:12:16.000Z</time>
      </trkpt>
      <trkpt lat="45.86369" lon="4.69815">
        <ele>255.32715</ele>
        <time>2023-07-30T14:12:17.000Z</time>
      </trkpt>
      <trkpt lat="45.86372" lon="4.69822">
        <ele>255.13676</ele>
        <time>2023-07-30T14:12:18.000Z</time>
      </trkpt>
      <trkpt lat="45.86376" lon="4.69827">
        <ele>254.67752</ele>
        <time>2023-07-30T14:12:19.000Z</time>
      </trkpt>
      <trkpt lat="45.86379" lon="4.69833">
        <ele>254.27681</ele>
        <time>2023-07-30T14:12:20.000Z</time>
      </trkpt>
      <trkpt lat="45.86383" lon="4.69839">
        <ele>253.93918</ele>
        <time>2023-07-30T14:12:21.000Z</time>
      </trkpt>
      <trkpt lat="45.86387" lon="4.69845">
        <ele>253.57417</ele>
        <time>2023-07-30T14:12:22.000Z</time>
      </trkpt>
      <trkpt lat="45.8639" lon="4.6985">
        <ele>253.22148</ele>
        <time>2023-07-30T14:12:23.000Z</time>
      </trkpt>
      <trkpt lat="45.86392" lon="4.69856">
        <ele>252.88403</ele>
        <time>2023-07-30T14:12:24.000Z</time>
      </trkpt>
      <trkpt lat="45.86394" lon="4.69864">
        <ele>252.50789</ele>
        <time>2023-07-30T14:12:25.000Z</time>
      </trkpt>
      <trkpt lat="45.86396" lon="4.69872">
        <ele>252.11255</ele>
        <time>2023-07-30T14:12:26.000Z</time>
      </trkpt>
      <trkpt lat="45.86398" lon="4.69881">
        <ele>251.69829</ele>
        <time>2023-07-30T14:12:27.000Z</time>
      </trkpt>
      <trkpt lat="45.86398" lon="4.69889">
        <ele>251.29007</ele>
        <time>2023-07-30T14:12:28.000Z</time>
      </trkpt>
      <trkpt lat="45.86399" lon="4.69897">
        <ele>250.92612</ele>
        <time>2023-07-30T14:12:29.000Z</time>
      </trkpt>
      <trkpt lat="45.86401" lon="4.69905">
        <ele>250.60014</ele>
        <time>2023-07-30T14:12:30.000Z</time>
      </trkpt>
      <trkpt lat="45.86403" lon="4.69914">
        <ele>250.29886</ele>
        <time>2023-07-30T14:12:31.000Z</time>
      </trkpt>
      <trkpt lat="45.86403" lon="4.69922">
        <ele>249.97354</ele>
        <time>2023-07-30T14:12:32.000Z</time>
      </trkpt>
      <trkpt lat="45.86405" lon="4.6993">
        <ele>249.63144</ele>
        <time>2023-07-30T14:12:33.000Z</time>
      </trkpt>
      <trkpt lat="45.86405" lon="4.69938">
        <ele>249.22981</ele>
        <time>2023-07-30T14:12:34.000Z</time>
      </trkpt>
      <trkpt lat="45.86405" lon="4.69946">
        <ele>248.84131</ele>
        <time>2023-07-30T14:12:35.000Z</time>
      </trkpt>
      <trkpt lat="45.86406" lon="4.69954">
        <ele>248.4603</ele>
        <time>2023-07-30T14:12:36.000Z</time>
      </trkpt>
      <trkpt lat="45.86405" lon="4.69961">
        <ele>248.04704</ele>
        <time>2023-07-30T14:12:37.000Z</time>
      </trkpt>
      <trkpt lat="45.86404" lon="4.69969">
        <ele>247.71187</ele>
        <time>2023-07-30T14:12:38.000Z</time>
      </trkpt>
      <trkpt lat="45.86404" lon="4.69976">
        <ele>247.64091</ele>
        <time>2023-07-30T14:12:39.000Z</time>
      </trkpt>
      <trkpt lat="45.86404" lon="4.69984">
        <ele>247.50635</ele>
        <time>2023-07-30T14:12:40.000Z</time>
      </trkpt>
      <trkpt lat="45.86404" lon="4.69992">
        <ele>247.38277</ele>
        <time>2023-07-30T14:12:41.000Z</time>
      </trkpt>
      <trkpt lat="45.86403" lon="4.7">
        <ele>247.30338</ele>
        <time>2023-07-30T14:12:42.000Z</time>
      </trkpt>
      <trkpt lat="45.86403" lon="4.70008">
        <ele>247.22676</ele>
        <time>2023-07-30T14:12:43.000Z</time>
      </trkpt>
      <trkpt lat="45.86402" lon="4.70016">
        <ele>247.13339</ele>
        <time>2023-07-30T14:12:44.000Z</time>
      </trkpt>
      <trkpt lat="45.86401" lon="4.70024">
        <ele>247.07649</ele>
        <time>2023-07-30T14:12:45.000Z</time>
      </trkpt>
      <trkpt lat="45.86401" lon="4.70032">
        <ele>247.04626</ele>
        <time>2023-07-30T14:12:46.000Z</time>
      </trkpt>
      <trkpt lat="45.86399" lon="4.7004">
        <ele>247.01884</ele>
        <time>2023-07-30T14:12:47.000Z</time>
      </trkpt>
      <trkpt lat="45.86397" lon="4.70048">
        <ele>247.00093</ele>
        <time>2023-07-30T14:12:48.000Z</time>
      </trkpt>
      <trkpt lat="45.86396" lon="4.70056">
        <ele>246.96855</ele>
        <time>2023-07-30T14:12:49.000Z</time>
      </trkpt>
      <trkpt lat="45.86395" lon="4.70064">
        <ele>246.90654</ele>
        <time>2023-07-30T14:12:50.000Z</time>
      </trkpt>
      <trkpt lat="45.86394" lon="4.70073">
        <ele>246.82002</ele>
        <time>2023-07-30T14:12:51.000Z</time>
      </trkpt>
      <trkpt lat="45.86392" lon="4.70081">
        <ele>246.73152</ele>
        <time>2023-07-30T14:12:52.000Z</time>
      </trkpt>
      <trkpt lat="45.86391" lon="4.7009">
        <ele>246.66312</ele>
        <time>2023-07-30T14:12:53.000Z</time>
      </trkpt>
      <trkpt lat="45.8639" lon="4.70098">
        <ele>246.59695</ele>
        <time>2023-07-30T14:12:54.000Z</time>
      </trkpt>
      <trkpt lat="45.86389" lon="4.70106">
        <ele>246.5334</ele>
        <time>2023-07-30T14:12:55.000Z</time>
      </trkpt>
      <trkpt lat="45.86387" lon="4.70114">
        <ele>246.45959</ele>
        <time>2023-07-30T14:12:56.000Z</time>
      </trkpt>
      <trkpt lat="45.86386" lon="4.70122">
        <ele>246.39737</ele>
        <time>2023-07-30T14:12:57.000Z</time>
      </trkpt>
      <trkpt lat="45.86384" lon="4.70129">
        <ele>246.38667</ele>
        <time>2023-07-30T14:12:58.000Z</time>
      </trkpt>
      <trkpt lat="45.86383" lon="4.70138">
        <ele>246.35185</ele>
        <time>2023-07-30T14:12:59.000Z</time>
      </trkpt>
      <trkpt lat="45.86382" lon="4.70145">
        <ele>246.33401</ele>
        <time>2023-07-30T14:13:00.000Z</time>
      </trkpt>
      <trkpt lat="45.86381" lon="4.70154">
        <ele>246.35718</ele>
        <time>2023-07-30T14:13:01.000Z</time>
      </trkpt>
      <trkpt lat="45.8638" lon="4.70162">
        <ele>246.35921</ele>
        <time>2023-07-30T14:13:02.000Z</time>
      </trkpt>
      <trkpt lat="45.86378" lon="4.70171">
        <ele>246.35661</ele>
        <time>2023-07-30T14:13:03.000Z</time>
      </trkpt>
      <trkpt lat="45.86375" lon="4.70178">
        <ele>246.32651</ele>
        <time>2023-07-30T14:13:04.000Z</time>
      </trkpt>
      <trkpt lat="45.86372" lon="4.70184">
        <ele>246.28951</ele>
        <time>2023-07-30T14:13:05.000Z</time>
      </trkpt>
      <trkpt lat="45.86369" lon="4.70191">
        <ele>246.25497</ele>
        <time>2023-07-30T14:13:06.000Z</time>
      </trkpt>
      <trkpt lat="45.86366" lon="4.70198">
        <ele>246.21475</ele>
        <time>2023-07-30T14:13:07.000Z</time>
      </trkpt>
      <trkpt lat="45.86362" lon="4.70204">
        <ele>246.18742</ele>
        <time>2023-07-30T14:13:08.000Z</time>
      </trkpt>
      <trkpt lat="45.86358" lon="4.70211">
        <ele>246.14511</ele>
        <time>2023-07-30T14:13:09.000Z</time>
      </trkpt>
      <trkpt lat="45.86354" lon="4.70217">
        <ele>246.13663</ele>
        <time>2023-07-30T14:13:10.000Z</time>
      </trkpt>
      <trkpt lat="45.8635" lon="4.70223">
        <ele>246.16988</ele>
        <time>2023-07-30T14:13:11.000Z</time>
      </trkpt>
      <trkpt lat="45.86346" lon="4.70228">
        <ele>246.24585</ele>
        <time>2023-07-30T14:13:12.000Z</time>
      </trkpt>
      <trkpt lat="45.86343" lon="4.70234">
        <ele>246.35698</ele>
        <time>2023-07-30T14:13:13.000Z</time>
      </trkpt>
      <trkpt lat="45.86339" lon="4.70241">
        <ele>246.50822</ele>
        <time>2023-07-30T14:13:14.000Z</time>
      </trkpt>
      <trkpt lat="45.86336" lon="4.70249">
        <ele>246.7037</ele>
        <time>2023-07-30T14:13:15.000Z</time>
      </trkpt>
      <trkpt lat="45.86333" lon="4.70256">
        <ele>246.9137</ele>
        <time>2023-07-30T14:13:16.000Z</time>
      </trkpt>
      <trkpt lat="45.86332" lon="4.70263">
        <ele>247.10551</ele>
        <time>2023-07-30T14:13:17.000Z</time>
      </trkpt>
      <trkpt lat="45.86331" lon="4.70272">
        <ele>247.27615</ele>
        <time>2023-07-30T14:13:18.000Z</time>
      </trkpt>
      <trkpt lat="45.8633" lon="4.7028">
        <ele>247.38811</ele>
        <time>2023-07-30T14:13:19.000Z</time>
      </trkpt>
      <trkpt lat="45.86328" lon="4.70288">
        <ele>247.48279</ele>
        <time>2023-07-30T14:13:20.000Z</time>
      </trkpt>
      <trkpt lat="45.86327" lon="4.70296">
        <ele>247.59097</ele>
        <time>2023-07-30T14:13:21.000Z</time>
      </trkpt>
      <trkpt lat="45.86328" lon="4.70305">
        <ele>247.74048</ele>
        <time>2023-07-30T14:13:22.000Z</time>
      </trkpt>
      <trkpt lat="45.86328" lon="4.70312">
        <ele>247.88518</ele>
        <time>2023-07-30T14:13:23.000Z</time>
      </trkpt>
      <trkpt lat="45.86332" lon="4.70319">
        <ele>248.1291</ele>
        <time>2023-07-30T14:13:24.000Z</time>
      </trkpt>
      <trkpt lat="45.86334" lon="4.70326">
        <ele>248.39063</ele>
        <time>2023-07-30T14:13:25.000Z</time>
      </trkpt>
      <trkpt lat="45.86337" lon="4.70333">
        <ele>248.63191</ele>
        <time>2023-07-30T14:13:26.000Z</time>
      </trkpt>
      <trkpt lat="45.86343" lon="4.70341">
        <ele>248.87573</ele>
        <time>2023-07-30T14:13:27.000Z</time>
      </trkpt>
      <trkpt lat="45.86348" lon="4.70344">
        <ele>249.05093</ele>
        <time>2023-07-30T14:13:28.000Z</time>
      </trkpt>
      <trkpt lat="45.86353" lon="4.70348">
        <ele>249.25655</ele>
        <time>2023-07-30T14:13:29.000Z</time>
      </trkpt>
      <trkpt lat="45.86359" lon="4.70354">
        <ele>249.37959</ele>
        <time>2023-07-30T14:13:30.000Z</time>
      </trkpt>
      <trkpt lat="45.86364" lon="4.70358">
        <ele>249.446</ele>
        <time>2023-07-30T14:13:31.000Z</time>
      </trkpt>
      <trkpt lat="45.86369" lon="4.70364">
        <ele>249.45117</ele>
        <time>2023-07-30T14:13:32.000Z</time>
      </trkpt>
      <trkpt lat="45.86374" lon="4.70369">
        <ele>249.44478</ele>
        <time>2023-07-30T14:13:33.000Z</time>
      </trkpt>
      <trkpt lat="45.86379" lon="4.70375">
        <ele>249.3877</ele>
        <time>2023-07-30T14:13:34.000Z</time>
      </trkpt>
      <trkpt lat="45.86386" lon="4.70381">
        <ele>249.28372</ele>
        <time>2023-07-30T14:13:35.000Z</time>
      </trkpt>
      <trkpt lat="45.86388" lon="4.70389">
        <ele>249.19461</ele>
        <time>2023-07-30T14:13:36.000Z</time>
      </trkpt>
      <trkpt lat="45.86391" lon="4.70397">
        <ele>249.05356</ele>
        <time>2023-07-30T14:13:37.000Z</time>
      </trkpt>
      <trkpt lat="45.86393" lon="4.70405">
        <ele>248.89355</ele>
        <time>2023-07-30T14:13:38.000Z</time>
      </trkpt>
      <trkpt lat="45.86395" lon="4.70413">
        <ele>248.77705</ele>
        <time>2023-07-30T14:13:39.000Z</time>
      </trkpt>
      <trkpt lat="45.86396" lon="4.70421">
        <ele>248.66891</ele>
        <time>2023-07-30T14:13:40.000Z</time>
      </trkpt>
      <trkpt lat="45.86399" lon="4.70427">
        <ele>248.49089</ele>
        <time>2023-07-30T14:13:41.000Z</time>
      </trkpt>
      <trkpt lat="45.864" lon="4.70434">
        <ele>248.29236</ele>
        <time>2023-07-30T14:13:42.000Z</time>
      </trkpt>
      <trkpt lat="45.86399" lon="4.70442">
        <ele>248.10149</ele>
        <time>2023-07-30T14:13:43.000Z</time>
      </trkpt>
      <trkpt lat="45.86399" lon="4.70447">
        <ele>247.90535</ele>
        <time>2023-07-30T14:13:44.000Z</time>
      </trkpt>
      <trkpt lat="45.86396" lon="4.70454">
        <ele>247.76572</ele>
        <time>2023-07-30T14:13:45.000Z</time>
      </trkpt>
      <trkpt lat="45.86394" lon="4.70458">
        <ele>247.66699</ele>
        <time>2023-07-30T14:13:46.000Z</time>
      </trkpt>
      <trkpt lat="45.86391" lon="4.70464">
        <ele>247.60574</ele>
        <time>2023-07-30T14:13:47.000Z</time>
      </trkpt>
      <trkpt lat="45.86388" lon="4.7047">
        <ele>247.59126</ele>
        <time>2023-07-30T14:13:48.000Z</time>
      </trkpt>
      <trkpt lat="45.86384" lon="4.70477">
        <ele>247.60733</ele>
        <time>2023-07-30T14:13:49.000Z</time>
      </trkpt>
      <trkpt lat="45.8638" lon="4.70486">
        <ele>247.60031</ele>
        <time>2023-07-30T14:13:50.000Z</time>
      </trkpt>
      <trkpt lat="45.86376" lon="4.70491">
        <ele>247.66531</ele>
        <time>2023-07-30T14:13:51.000Z</time>
      </trkpt>
      <trkpt lat="45.86374" lon="4.705">
        <ele>247.78174</ele>
        <time>2023-07-30T14:13:52.000Z</time>
      </trkpt>
      <trkpt lat="45.86374" lon="4.70508">
        <ele>247.86223</ele>
        <time>2023-07-30T14:13:53.000Z</time>
      </trkpt>
      <trkpt lat="45.86375" lon="4.70516">
        <ele>247.97404</ele>
        <time>2023-07-30T14:13:54.000Z</time>
      </trkpt>
      <trkpt lat="45.86376" lon="4.70526">
        <ele>248.05608</ele>
        <time>2023-07-30T14:13:55.000Z</time>
      </trkpt>
      <trkpt lat="45.86378" lon="4.70534">
        <ele>248.13005</ele>
        <time>2023-07-30T14:13:56.000Z</time>
      </trkpt>
      <trkpt lat="45.86378" lon="4.70543">
        <ele>248.20242</ele>
        <time>2023-07-30T14:13:57.000Z</time>
      </trkpt>
      <trkpt lat="45.86379" lon="4.70552">
        <ele>248.28328</ele>
        <time>2023-07-30T14:13:58.000Z</time>
      </trkpt>
      <trkpt lat="45.86379" lon="4.70559">
        <ele>248.3575</ele>
        <time>2023-07-30T14:13:59.000Z</time>
      </trkpt>
      <trkpt lat="45.8638" lon="4.70566">
        <ele>248.4108</ele>
        <time>2023-07-30T14:14:00.000Z</time>
      </trkpt>
      <trkpt lat="45.86383" lon="4.70573">
        <ele>248.51636</ele>
        <time>2023-07-30T14:14:01.000Z</time>
      </trkpt>
      <trkpt lat="45.86385" lon="4.70576">
        <ele>248.61284</ele>
        <time>2023-07-30T14:14:02.000Z</time>
      </trkpt>
      <trkpt lat="45.86388" lon="4.70578">
        <ele>248.69205</ele>
        <time>2023-07-30T14:14:03.000Z</time>
      </trkpt>
      <trkpt lat="45.86391" lon="4.7058">
        <ele>248.66756</ele>
        <time>2023-07-30T14:14:04.000Z</time>
      </trkpt>
      <trkpt lat="45.86394" lon="4.7058">
        <ele>248.64558</ele>
        <time>2023-07-30T14:14:05.000Z</time>
      </trkpt>
      <trkpt lat="45.86397" lon="4.70579">
        <ele>248.59187</ele>
        <time>2023-07-30T14:14:06.000Z</time>
      </trkpt>
      <trkpt lat="45.86401" lon="4.70577">
        <ele>248.52251</ele>
        <time>2023-07-30T14:14:07.000Z</time>
      </trkpt>
      <trkpt lat="45.86405" lon="4.70574">
        <ele>248.44284</ele>
        <time>2023-07-30T14:14:08.000Z</time>
      </trkpt>
      <trkpt lat="45.86409" lon="4.70572">
        <ele>248.30295</ele>
        <time>2023-07-30T14:14:09.000Z</time>
      </trkpt>
      <trkpt lat="45.86413" lon="4.70571">
        <ele>248.18889</ele>
        <time>2023-07-30T14:14:10.000Z</time>
      </trkpt>
      <trkpt lat="45.86418" lon="4.70571">
        <ele>248.04521</ele>
        <time>2023-07-30T14:14:11.000Z</time>
      </trkpt>
      <trkpt lat="45.86422" lon="4.70569">
        <ele>247.90515</ele>
        <time>2023-07-30T14:14:12.000Z</time>
      </trkpt>
      <trkpt lat="45.86426" lon="4.70569">
        <ele>247.7334</ele>
        <time>2023-07-30T14:14:13.000Z</time>
      </trkpt>
      <trkpt lat="45.86431" lon="4.70568">
        <ele>247.55522</ele>
        <time>2023-07-30T14:14:14.000Z</time>
      </trkpt>
      <trkpt lat="45.86437" lon="4.70566">
        <ele>247.42758</ele>
        <time>2023-07-30T14:14:15.000Z</time>
      </trkpt>
      <trkpt lat="45.86442" lon="4.70565">
        <ele>247.28052</ele>
        <time>2023-07-30T14:14:16.000Z</time>
      </trkpt>
      <trkpt lat="45.86448" lon="4.70564">
        <ele>247.14096</ele>
        <time>2023-07-30T14:14:17.000Z</time>
      </trkpt>
      <trkpt lat="45.86453" lon="4.70563">
        <ele>247.01541</ele>
        <time>2023-07-30T14:14:18.000Z</time>
      </trkpt>
      <trkpt lat="45.86458" lon="4.70562">
        <ele>246.88095</ele>
        <time>2023-07-30T14:14:19.000Z</time>
      </trkpt>
      <trkpt lat="45.86463" lon="4.70562">
        <ele>246.76352</ele>
        <time>2023-07-30T14:14:20.000Z</time>
      </trkpt>
      <trkpt lat="45.86468" lon="4.70562">
        <ele>246.61845</ele>
        <time>2023-07-30T14:14:21.000Z</time>
      </trkpt>
      <trkpt lat="45.86473" lon="4.70561">
        <ele>246.54391</ele>
        <time>2023-07-30T14:14:22.000Z</time>
      </trkpt>
      <trkpt lat="45.86478" lon="4.70559">
        <ele>246.51511</ele>
        <time>2023-07-30T14:14:23.000Z</time>
      </trkpt>
      <trkpt lat="45.86482" lon="4.70559">
        <ele>246.55547</ele>
        <time>2023-07-30T14:14:24.000Z</time>
      </trkpt>
      <trkpt lat="45.86487" lon="4.70559">
        <ele>246.54111</ele>
        <time>2023-07-30T14:14:25.000Z</time>
      </trkpt>
      <trkpt lat="45.86491" lon="4.70558">
        <ele>246.53951</ele>
        <time>2023-07-30T14:14:26.000Z</time>
      </trkpt>
      <trkpt lat="45.86496" lon="4.7056">
        <ele>246.51505</ele>
        <time>2023-07-30T14:14:27.000Z</time>
      </trkpt>
      <trkpt lat="45.86501" lon="4.70563">
        <ele>246.45206</ele>
        <time>2023-07-30T14:14:28.000Z</time>
      </trkpt>
      <trkpt lat="45.86506" lon="4.70566">
        <ele>246.38899</ele>
        <time>2023-07-30T14:14:29.000Z</time>
      </trkpt>
      <trkpt lat="45.86512" lon="4.7057">
        <ele>246.35088</ele>
        <time>2023-07-30T14:14:30.000Z</time>
      </trkpt>
      <trkpt lat="45.86517" lon="4.70573">
        <ele>246.28427</ele>
        <time>2023-07-30T14:14:31.000Z</time>
      </trkpt>
      <trkpt lat="45.86522" lon="4.70577">
        <ele>246.20581</ele>
        <time>2023-07-30T14:14:32.000Z</time>
      </trkpt>
      <trkpt lat="45.86527" lon="4.70583">
        <ele>246.14438</ele>
        <time>2023-07-30T14:14:33.000Z</time>
      </trkpt>
      <trkpt lat="45.86532" lon="4.70589">
        <ele>246.05852</ele>
        <time>2023-07-30T14:14:34.000Z</time>
      </trkpt>
      <trkpt lat="45.86536" lon="4.70596">
        <ele>245.94637</ele>
        <time>2023-07-30T14:14:35.000Z</time>
      </trkpt>
      <trkpt lat="45.8654" lon="4.70604">
        <ele>245.80374</ele>
        <time>2023-07-30T14:14:36.000Z</time>
      </trkpt>
      <trkpt lat="45.86543" lon="4.70611">
        <ele>245.7126</ele>
        <time>2023-07-30T14:14:37.000Z</time>
      </trkpt>
      <trkpt lat="45.86547" lon="4.70618">
        <ele>245.62454</ele>
        <time>2023-07-30T14:14:38.000Z</time>
      </trkpt>
      <trkpt lat="45.86552" lon="4.70625">
        <ele>245.56992</ele>
        <time>2023-07-30T14:14:39.000Z</time>
      </trkpt>
      <trkpt lat="45.86557" lon="4.7063">
        <ele>245.52946</ele>
        <time>2023-07-30T14:14:40.000Z</time>
      </trkpt>
      <trkpt lat="45.86563" lon="4.70632">
        <ele>245.52029</ele>
        <time>2023-07-30T14:14:41.000Z</time>
      </trkpt>
      <trkpt lat="45.86567" lon="4.70634">
        <ele>245.45174</ele>
        <time>2023-07-30T14:14:42.000Z</time>
      </trkpt>
      <trkpt lat="45.8657" lon="4.70635">
        <ele>245.34122</ele>
        <time>2023-07-30T14:14:43.000Z</time>
      </trkpt>
      <trkpt lat="45.86573" lon="4.70636">
        <ele>245.19576</ele>
        <time>2023-07-30T14:14:44.000Z</time>
      </trkpt>
      <trkpt lat="45.86575" lon="4.70636">
        <ele>245.03165</ele>
        <time>2023-07-30T14:14:45.000Z</time>
      </trkpt>
      <trkpt lat="45.86578" lon="4.70636">
        <ele>244.86719</ele>
        <time>2023-07-30T14:14:46.000Z</time>
      </trkpt>
      <trkpt lat="45.8658" lon="4.70635">
        <ele>244.73178</ele>
        <time>2023-07-30T14:14:47.000Z</time>
      </trkpt>
      <trkpt lat="45.86582" lon="4.70635">
        <ele>244.64839</ele>
        <time>2023-07-30T14:14:48.000Z</time>
      </trkpt>
      <trkpt lat="45.86584" lon="4.70635">
        <ele>244.57275</ele>
        <time>2023-07-30T14:14:49.000Z</time>
      </trkpt>
      <trkpt lat="45.86587" lon="4.70634">
        <ele>244.53996</ele>
        <time>2023-07-30T14:14:50.000Z</time>
      </trkpt>
      <trkpt lat="45.8659" lon="4.70634">
        <ele>244.51419</ele>
        <time>2023-07-30T14:14:51.000Z</time>
      </trkpt>
      <trkpt lat="45.86593" lon="4.70634">
        <ele>244.49808</ele>
        <time>2023-07-30T14:14:52.000Z</time>
      </trkpt>
      <trkpt lat="45.86596" lon="4.70633">
        <ele>244.55411</ele>
        <time>2023-07-30T14:14:53.000Z</time>
      </trkpt>
      <trkpt lat="45.86601" lon="4.70632">
        <ele>244.65222</ele>
        <time>2023-07-30T14:14:54.000Z</time>
      </trkpt>
      <trkpt lat="45.86605" lon="4.70632">
        <ele>244.74475</ele>
        <time>2023-07-30T14:14:55.000Z</time>
      </trkpt>
      <trkpt lat="45.8661" lon="4.70637">
        <ele>244.88699</ele>
        <time>2023-07-30T14:14:56.000Z</time>
      </trkpt>
      <trkpt lat="45.86614" lon="4.70641">
        <ele>245.03763</ele>
        <time>2023-07-30T14:14:57.000Z</time>
      </trkpt>
      <trkpt lat="45.86617" lon="4.70646">
        <ele>245.1228</ele>
        <time>2023-07-30T14:14:58.000Z</time>
      </trkpt>
      <trkpt lat="45.86622" lon="4.70648">
        <ele>245.18359</ele>
        <time>2023-07-30T14:14:59.000Z</time>
      </trkpt>
      <trkpt lat="45.86627" lon="4.70649">
        <ele>245.21408</ele>
        <time>2023-07-30T14:15:00.000Z</time>
      </trkpt>
      <trkpt lat="45.86633" lon="4.70649">
        <ele>245.27805</ele>
        <time>2023-07-30T14:15:01.000Z</time>
      </trkpt>
      <trkpt lat="45.86639" lon="4.70647">
        <ele>245.34746</ele>
        <time>2023-07-30T14:15:02.000Z</time>
      </trkpt>
      <trkpt lat="45.86643" lon="4.70644">
        <ele>245.43057</ele>
        <time>2023-07-30T14:15:03.000Z</time>
      </trkpt>
      <trkpt lat="45.86645" lon="4.70639">
        <ele>245.49344</ele>
        <time>2023-07-30T14:15:04.000Z</time>
      </trkpt>
      <trkpt lat="45.86648" lon="4.70633">
        <ele>245.5583</ele>
        <time>2023-07-30T14:15:05.000Z</time>
      </trkpt>
      <trkpt lat="45.8665" lon="4.70627">
        <ele>245.61584</ele>
        <time>2023-07-30T14:15:06.000Z</time>
      </trkpt>
      <trkpt lat="45.86652" lon="4.70621">
        <ele>245.65231</ele>
        <time>2023-07-30T14:15:07.000Z</time>
      </trkpt>
      <trkpt lat="45.86659" lon="4.70618">
        <ele>245.72978</ele>
        <time>2023-07-30T14:15:08.000Z</time>
      </trkpt>
      <trkpt lat="45.86664" lon="4.70615">
        <ele>245.85124</ele>
        <time>2023-07-30T14:15:09.000Z</time>
      </trkpt>
      <trkpt lat="45.86668" lon="4.70614">
        <ele>245.97041</ele>
        <time>2023-07-30T14:15:10.000Z</time>
      </trkpt>
      <trkpt lat="45.86673" lon="4.70615">
        <ele>246.05246</ele>
        <time>2023-07-30T14:15:11.000Z</time>
      </trkpt>
      <trkpt lat="45.86677" lon="4.70618">
        <ele>246.16801</ele>
        <time>2023-07-30T14:15:12.000Z</time>
      </trkpt>
      <trkpt lat="45.8668" lon="4.70624">
        <ele>246.22403</ele>
        <time>2023-07-30T14:15:13.000Z</time>
      </trkpt>
      <trkpt lat="45.86683" lon="4.70629">
        <ele>246.24532</ele>
        <time>2023-07-30T14:15:14.000Z</time>
      </trkpt>
      <trkpt lat="45.86687" lon="4.70634">
        <ele>246.32732</ele>
        <time>2023-07-30T14:15:15.000Z</time>
      </trkpt>
      <trkpt lat="45.86689" lon="4.70641">
        <ele>246.38394</ele>
        <time>2023-07-30T14:15:16.000Z</time>
      </trkpt>
      <trkpt lat="45.86692" lon="4.70648">
        <ele>246.41557</ele>
        <time>2023-07-30T14:15:17.000Z</time>
      </trkpt>
      <trkpt lat="45.86696" lon="4.70653">
        <ele>246.49341</ele>
        <time>2023-07-30T14:15:18.000Z</time>
      </trkpt>
      <trkpt lat="45.86699" lon="4.7066">
        <ele>246.60518</ele>
        <time>2023-07-30T14:15:19.000Z</time>
      </trkpt>
      <trkpt lat="45.86702" lon="4.70666">
        <ele>246.71318</ele>
        <time>2023-07-30T14:15:20.000Z</time>
      </trkpt>
      <trkpt lat="45.86705" lon="4.70673">
        <ele>246.78914</ele>
        <time>2023-07-30T14:15:21.000Z</time>
      </trkpt>
      <trkpt lat="45.86708" lon="4.70679">
        <ele>246.80974</ele>
        <time>2023-07-30T14:15:22.000Z</time>
      </trkpt>
      <trkpt lat="45.8671" lon="4.70684">
        <ele>246.85774</ele>
        <time>2023-07-30T14:15:23.000Z</time>
      </trkpt>
      <trkpt lat="45.86714" lon="4.70688">
        <ele>246.94247</ele>
        <time>2023-07-30T14:15:24.000Z</time>
      </trkpt>
      <trkpt lat="45.86718" lon="4.70694">
        <ele>247.00046</ele>
        <time>2023-07-30T14:15:25.000Z</time>
      </trkpt>
      <trkpt lat="45.8672" lon="4.70698">
        <ele>247.09673</ele>
        <time>2023-07-30T14:15:26.000Z</time>
      </trkpt>
      <trkpt lat="45.86723" lon="4.70701">
        <ele>247.21054</ele>
        <time>2023-07-30T14:15:27.000Z</time>
      </trkpt>
      <trkpt lat="45.86725" lon="4.70704">
        <ele>247.27316</ele>
        <time>2023-07-30T14:15:28.000Z</time>
      </trkpt>
      <trkpt lat="45.86727" lon="4.70706">
        <ele>247.34016</ele>
        <time>2023-07-30T14:15:29.000Z</time>
      </trkpt>
      <trkpt lat="45.86731" lon="4.70707">
        <ele>247.42569</ele>
        <time>2023-07-30T14:15:30.000Z</time>
      </trkpt>
      <trkpt lat="45.86734" lon="4.70708">
        <ele>247.58829</ele>
        <time>2023-07-30T14:15:31.000Z</time>
      </trkpt>
      <trkpt lat="45.86737" lon="4.70709">
        <ele>247.74495</ele>
        <time>2023-07-30T14:15:32.000Z</time>
      </trkpt>
      <trkpt lat="45.8674" lon="4.70711">
        <ele>247.86983</ele>
        <time>2023-07-30T14:15:33.000Z</time>
      </trkpt>
      <trkpt lat="45.86742" lon="4.70713">
        <ele>248.00432</ele>
        <time>2023-07-30T14:15:34.000Z</time>
      </trkpt>
      <trkpt lat="45.86746" lon="4.70715">
        <ele>248.06758</ele>
        <time>2023-07-30T14:15:35.000Z</time>
      </trkpt>
      <trkpt lat="45.86748" lon="4.70719">
        <ele>248.14798</ele>
        <time>2023-07-30T14:15:36.000Z</time>
      </trkpt>
      <trkpt lat="45.86751" lon="4.70723">
        <ele>248.24954</ele>
        <time>2023-07-30T14:15:37.000Z</time>
      </trkpt>
      <trkpt lat="45.86753" lon="4.70727">
        <ele>248.24661</ele>
        <time>2023-07-30T14:15:38.000Z</time>
      </trkpt>
      <trkpt lat="45.86755" lon="4.70729">
        <ele>248.35428</ele>
        <time>2023-07-30T14:15:39.000Z</time>
      </trkpt>
      <trkpt lat="45.86757" lon="4.70732">
        <ele>248.45122</ele>
        <time>2023-07-30T14:15:40.000Z</time>
      </trkpt>
      <trkpt lat="45.86759" lon="4.70737">
        <ele>248.54167</ele>
        <time>2023-07-30T14:15:41.000Z</time>
      </trkpt>
      <trkpt lat="45.8676" lon="4.70743">
        <ele>248.69604</ele>
        <time>2023-07-30T14:15:42.000Z</time>
      </trkpt>
      <trkpt lat="45.86759" lon="4.70752">
        <ele>248.79443</ele>
        <time>2023-07-30T14:15:43.000Z</time>
      </trkpt>
      <trkpt lat="45.8676" lon="4.70758">
        <ele>248.97702</ele>
        <time>2023-07-30T14:15:44.000Z</time>
      </trkpt>
      <trkpt lat="45.86761" lon="4.70766">
        <ele>249.1167</ele>
        <time>2023-07-30T14:15:45.000Z</time>
      </trkpt>
      <trkpt lat="45.86763" lon="4.70772">
        <ele>249.17191</ele>
        <time>2023-07-30T14:15:46.000Z</time>
      </trkpt>
      <trkpt lat="45.86765" lon="4.7078">
        <ele>249.17917</ele>
        <time>2023-07-30T14:15:47.000Z</time>
      </trkpt>
      <trkpt lat="45.86766" lon="4.70786">
        <ele>249.15494</ele>
        <time>2023-07-30T14:15:48.000Z</time>
      </trkpt>
      <trkpt lat="45.8677" lon="4.70791">
        <ele>249.13847</ele>
        <time>2023-07-30T14:15:49.000Z</time>
      </trkpt>
      <trkpt lat="45.86772" lon="4.70797">
        <ele>249.05289</ele>
        <time>2023-07-30T14:15:50.000Z</time>
      </trkpt>
      <trkpt lat="45.86774" lon="4.70804">
        <ele>248.9017</ele>
        <time>2023-07-30T14:15:51.000Z</time>
      </trkpt>
      <trkpt lat="45.86777" lon="4.70809">
        <ele>248.72559</ele>
        <time>2023-07-30T14:15:52.000Z</time>
      </trkpt>
      <trkpt lat="45.86781" lon="4.70815">
        <ele>248.57451</ele>
        <time>2023-07-30T14:15:53.000Z</time>
      </trkpt>
      <trkpt lat="45.86785" lon="4.7082">
        <ele>248.42868</ele>
        <time>2023-07-30T14:15:54.000Z</time>
      </trkpt>
      <trkpt lat="45.86789" lon="4.70824">
        <ele>248.29944</ele>
        <time>2023-07-30T14:15:55.000Z</time>
      </trkpt>
      <trkpt lat="45.86794" lon="4.70826">
        <ele>248.18823</ele>
        <time>2023-07-30T14:15:56.000Z</time>
      </trkpt>
      <trkpt lat="45.86798" lon="4.7083">
        <ele>248.07117</ele>
        <time>2023-07-30T14:15:57.000Z</time>
      </trkpt>
      <trkpt lat="45.86802" lon="4.70833">
        <ele>248.08499</ele>
        <time>2023-07-30T14:15:58.000Z</time>
      </trkpt>
      <trkpt lat="45.86805" lon="4.70838">
        <ele>247.96123</ele>
        <time>2023-07-30T14:15:59.000Z</time>
      </trkpt>
      <trkpt lat="45.86809" lon="4.70843">
        <ele>247.84158</ele>
        <time>2023-07-30T14:16:00.000Z</time>
      </trkpt>
      <trkpt lat="45.86813" lon="4.70848">
        <ele>247.66719</ele>
        <time>2023-07-30T14:16:01.000Z</time>
      </trkpt>
      <trkpt lat="45.86817" lon="4.70854">
        <ele>247.46635</ele>
        <time>2023-07-30T14:16:02.000Z</time>
      </trkpt>
      <trkpt lat="45.86819" lon="4.7086">
        <ele>247.26749</ele>
        <time>2023-07-30T14:16:03.000Z</time>
      </trkpt>
      <trkpt lat="45.86821" lon="4.70867">
        <ele>246.98987</ele>
        <time>2023-07-30T14:16:04.000Z</time>
      </trkpt>
      <trkpt lat="45.86824" lon="4.70873">
        <ele>246.78618</ele>
        <time>2023-07-30T14:16:05.000Z</time>
      </trkpt>
      <trkpt lat="45.86827" lon="4.70879">
        <ele>246.60464</ele>
        <time>2023-07-30T14:16:06.000Z</time>
      </trkpt>
      <trkpt lat="45.8683" lon="4.70885">
        <ele>246.44926</ele>
        <time>2023-07-30T14:16:07.000Z</time>
      </trkpt>
      <trkpt lat="45.86834" lon="4.70892">
        <ele>246.32813</ele>
        <time>2023-07-30T14:16:08.000Z</time>
      </trkpt>
      <trkpt lat="45.86836" lon="4.70898">
        <ele>246.16313</ele>
        <time>2023-07-30T14:16:09.000Z</time>
      </trkpt>
      <trkpt lat="45.86839" lon="4.70904">
        <ele>246.0518</ele>
        <time>2023-07-30T14:16:10.000Z</time>
      </trkpt>
      <trkpt lat="45.86842" lon="4.7091">
        <ele>245.97493</ele>
        <time>2023-07-30T14:16:11.000Z</time>
      </trkpt>
      <trkpt lat="45.86843" lon="4.70917">
        <ele>245.89815</ele>
        <time>2023-07-30T14:16:12.000Z</time>
      </trkpt>
      <trkpt lat="45.86845" lon="4.70923">
        <ele>245.83374</ele>
        <time>2023-07-30T14:16:13.000Z</time>
      </trkpt>
      <trkpt lat="45.86848" lon="4.70928">
        <ele>245.73726</ele>
        <time>2023-07-30T14:16:14.000Z</time>
      </trkpt>
      <trkpt lat="45.86851" lon="4.70934">
        <ele>245.62617</ele>
        <time>2023-07-30T14:16:15.000Z</time>
      </trkpt>
      <trkpt lat="45.86854" lon="4.70941">
        <ele>245.48933</ele>
        <time>2023-07-30T14:16:16.000Z</time>
      </trkpt>
      <trkpt lat="45.86857" lon="4.70946">
        <ele>245.34543</ele>
        <time>2023-07-30T14:16:17.000Z</time>
      </trkpt>
      <trkpt lat="45.8686" lon="4.70952">
        <ele>245.18526</ele>
        <time>2023-07-30T14:16:18.000Z</time>
      </trkpt>
      <trkpt lat="45.86862" lon="4.70959">
        <ele>245.05811</ele>
        <time>2023-07-30T14:16:19.000Z</time>
      </trkpt>
      <trkpt lat="45.86864" lon="4.70966">
        <ele>244.95639</ele>
        <time>2023-07-30T14:16:20.000Z</time>
      </trkpt>
      <trkpt lat="45.86866" lon="4.70973">
        <ele>244.86543</ele>
        <time>2023-07-30T14:16:21.000Z</time>
      </trkpt>
      <trkpt lat="45.86867" lon="4.7098">
        <ele>244.77933</ele>
        <time>2023-07-30T14:16:22.000Z</time>
      </trkpt>
      <trkpt lat="45.86869" lon="4.70989">
        <ele>244.71176</ele>
        <time>2023-07-30T14:16:23.000Z</time>
      </trkpt>
      <trkpt lat="45.86868" lon="4.70998">
        <ele>244.60703</ele>
        <time>2023-07-30T14:16:24.000Z</time>
      </trkpt>
      <trkpt lat="45.86869" lon="4.71005">
        <ele>244.49638</ele>
        <time>2023-07-30T14:16:25.000Z</time>
      </trkpt>
      <trkpt lat="45.86871" lon="4.71013">
        <ele>244.42749</ele>
        <time>2023-07-30T14:16:26.000Z</time>
      </trkpt>
      <trkpt lat="45.86872" lon="4.7102">
        <ele>244.40852</ele>
        <time>2023-07-30T14:16:27.000Z</time>
      </trkpt>
      <trkpt lat="45.86872" lon="4.71028">
        <ele>244.44165</ele>
        <time>2023-07-30T14:16:28.000Z</time>
      </trkpt>
      <trkpt lat="45.86873" lon="4.71034">
        <ele>244.49348</ele>
        <time>2023-07-30T14:16:29.000Z</time>
      </trkpt>
      <trkpt lat="45.86876" lon="4.71041">
        <ele>244.5186</ele>
        <time>2023-07-30T14:16:30.000Z</time>
      </trkpt>
      <trkpt lat="45.86876" lon="4.71046">
        <ele>244.51518</ele>
        <time>2023-07-30T14:16:31.000Z</time>
      </trkpt>
      <trkpt lat="45.86878" lon="4.7105">
        <ele>244.51167</ele>
        <time>2023-07-30T14:16:32.000Z</time>
      </trkpt>
      <trkpt lat="45.86879" lon="4.71054">
        <ele>244.49271</ele>
        <time>2023-07-30T14:16:33.000Z</time>
      </trkpt>
      <trkpt lat="45.86882" lon="4.71057">
        <ele>244.47543</ele>
        <time>2023-07-30T14:16:34.000Z</time>
      </trkpt>
      <trkpt lat="45.86883" lon="4.7106">
        <ele>244.46904</ele>
        <time>2023-07-30T14:16:35.000Z</time>
      </trkpt>
      <trkpt lat="45.86884" lon="4.71062">
        <ele>244.46725</ele>
        <time>2023-07-30T14:16:36.000Z</time>
      </trkpt>
      <trkpt lat="45.86886" lon="4.71064">
        <ele>244.4978</ele>
        <time>2023-07-30T14:16:37.000Z</time>
      </trkpt>
      <trkpt lat="45.86888" lon="4.71067">
        <ele>244.53772</ele>
        <time>2023-07-30T14:16:38.000Z</time>
      </trkpt>
      <trkpt lat="45.8689" lon="4.71068">
        <ele>244.56758</ele>
        <time>2023-07-30T14:16:39.000Z</time>
      </trkpt>
      <trkpt lat="45.86892" lon="4.7107">
        <ele>244.57552</ele>
        <time>2023-07-30T14:16:40.000Z</time>
      </trkpt>
      <trkpt lat="45.86893" lon="4.71073">
        <ele>244.60747</ele>
        <time>2023-07-30T14:16:41.000Z</time>
      </trkpt>
      <trkpt lat="45.86892" lon="4.71077">
        <ele>244.62476</ele>
        <time>2023-07-30T14:16:43.000Z</time>
      </trkpt>
      <trkpt lat="45.8689" lon="4.71077">
        <ele>244.67374</ele>
        <time>2023-07-30T14:16:46.000Z</time>
      </trkpt>
      <trkpt lat="45.86888" lon="4.71078">
        <ele>244.74736</ele>
        <time>2023-07-30T14:16:54.000Z</time>
      </trkpt>
      <trkpt lat="45.86887" lon="4.7108">
        <ele>244.85779</ele>
        <time>2023-07-30T14:16:56.000Z</time>
      </trkpt>
      <trkpt lat="45.86884" lon="4.71079">
        <ele>245.13547</ele>
        <time>2023-07-30T14:17:39.000Z</time>
      </trkpt>
      <trkpt lat="45.86882" lon="4.71081">
        <ele>245.36679</ele>
        <time>2023-07-30T14:17:40.000Z</time>
      </trkpt>
      <trkpt lat="45.86879" lon="4.71082">
        <ele>245.55928</ele>
        <time>2023-07-30T14:17:41.000Z</time>
      </trkpt>
      <trkpt lat="45.86877" lon="4.71084">
        <ele>245.74248</ele>
        <time>2023-07-30T14:17:42.000Z</time>
      </trkpt>
      <trkpt lat="45.86874" lon="4.71085">
        <ele>245.94861</ele>
        <time>2023-07-30T14:17:43.000Z</time>
      </trkpt>
      <trkpt lat="45.86872" lon="4.71086">
        <ele>246.18295</ele>
        <time>2023-07-30T14:17:44.000Z</time>
      </trkpt>
      <trkpt lat="45.8687" lon="4.71087">
        <ele>246.39392</ele>
        <time>2023-07-30T14:17:45.000Z</time>
      </trkpt>
      <trkpt lat="45.86867" lon="4.71087">
        <ele>246.59981</ele>
        <time>2023-07-30T14:17:46.000Z</time>
      </trkpt>
      <trkpt lat="45.86864" lon="4.71087">
        <ele>246.80383</ele>
        <time>2023-07-30T14:17:47.000Z</time>
      </trkpt>
      <trkpt lat="45.8686" lon="4.71087">
        <ele>247.00005</ele>
        <time>2023-07-30T14:17:48.000Z</time>
      </trkpt>
      <trkpt lat="45.86857" lon="4.71086">
        <ele>247.1772</ele>
        <time>2023-07-30T14:17:49.000Z</time>
      </trkpt>
      <trkpt lat="45.86854" lon="4.71086">
        <ele>247.31856</ele>
        <time>2023-07-30T14:17:50.000Z</time>
      </trkpt>
      <trkpt lat="45.86851" lon="4.71086">
        <ele>247.45255</ele>
        <time>2023-07-30T14:17:51.000Z</time>
      </trkpt>
      <trkpt lat="45.86848" lon="4.71086">
        <ele>247.56306</ele>
        <time>2023-07-30T14:17:52.000Z</time>
      </trkpt>
      <trkpt lat="45.86845" lon="4.71086">
        <ele>247.68181</ele>
        <time>2023-07-30T14:17:53.000Z</time>
      </trkpt>
      <trkpt lat="45.86842" lon="4.71087">
        <ele>247.7874</ele>
        <time>2023-07-30T14:17:54.000Z</time>
      </trkpt>
      <trkpt lat="45.8684" lon="4.71087">
        <ele>247.8895</ele>
        <time>2023-07-30T14:17:55.000Z</time>
      </trkpt>
      <trkpt lat="45.86837" lon="4.71087">
        <ele>247.96835</ele>
        <time>2023-07-30T14:17:56.000Z</time>
      </trkpt>
      <trkpt lat="45.86834" lon="4.71087">
        <ele>248.04724</ele>
        <time>2023-07-30T14:17:57.000Z</time>
      </trkpt>
      <trkpt lat="45.86831" lon="4.71087">
        <ele>248.09599</ele>
        <time>2023-07-30T14:17:58.000Z</time>
      </trkpt>
      <trkpt lat="45.86829" lon="4.71087">
        <ele>247.95523</ele>
        <time>2023-07-30T14:17:59.000Z</time>
      </trkpt>
      <trkpt lat="45.86826" lon="4.71087">
        <ele>247.79485</ele>
        <time>2023-07-30T14:18:00.000Z</time>
      </trkpt>
      <trkpt lat="45.86825" lon="4.71087">
        <ele>247.63657</ele>
        <time>2023-07-30T14:18:01.000Z</time>
      </trkpt>
      <trkpt lat="45.86822" lon="4.71087">
        <ele>247.47351</ele>
        <time>2023-07-30T14:18:03.000Z</time>
      </trkpt>
      <trkpt lat="45.8682" lon="4.71086">
        <ele>247.22635</ele>
        <time>2023-07-30T14:18:21.000Z</time>
      </trkpt>
      <trkpt lat="45.86819" lon="4.71087">
        <ele>246.93001</ele>
        <time>2023-07-30T14:18:30.000Z</time>
      </trkpt>
      <trkpt lat="45.86817" lon="4.71087">
        <ele>248.06523</ele>
        <time>2023-07-30T14:18:33.000Z</time>
      </trkpt>
      <trkpt lat="45.86814" lon="4.71087">
        <ele>249.20732</ele>
        <time>2023-07-30T14:18:34.000Z</time>
      </trkpt>
      <trkpt lat="45.8681" lon="4.71087">
        <ele>250.37094</ele>
        <time>2023-07-30T14:18:35.000Z</time>
      </trkpt>
      <trkpt lat="45.86807" lon="4.71087">
        <ele>251.54599</ele>
        <time>2023-07-30T14:18:36.000Z</time>
      </trkpt>
      <trkpt lat="45.86804" lon="4.71088">
        <ele>252.72758</ele>
        <time>2023-07-30T14:18:37.000Z</time>
      </trkpt>
      <trkpt lat="45.868" lon="4.71089">
        <ele>252.54182</ele>
        <time>2023-07-30T14:18:38.000Z</time>
      </trkpt>
      <trkpt lat="45.86797" lon="4.7109">
        <ele>252.36218</ele>
        <time>2023-07-30T14:18:39.000Z</time>
      </trkpt>
      <trkpt lat="45.86793" lon="4.71091">
        <ele>252.19165</ele>
        <time>2023-07-30T14:18:40.000Z</time>
      </trkpt>
      <trkpt lat="45.86789" lon="4.71091">
        <ele>252.02536</ele>
        <time>2023-07-30T14:18:41.000Z</time>
      </trkpt>
      <trkpt lat="45.86786" lon="4.71092">
        <ele>251.84866</ele>
        <time>2023-07-30T14:18:42.000Z</time>
      </trkpt>
      <trkpt lat="45.86782" lon="4.71092">
        <ele>251.69307</ele>
        <time>2023-07-30T14:18:43.000Z</time>
      </trkpt>
      <trkpt lat="45.86778" lon="4.71091">
        <ele>251.53833</ele>
        <time>2023-07-30T14:18:44.000Z</time>
      </trkpt>
      <trkpt lat="45.86773" lon="4.7109">
        <ele>251.39136</ele>
        <time>2023-07-30T14:18:45.000Z</time>
      </trkpt>
      <trkpt lat="45.86769" lon="4.71089">
        <ele>251.24211</ele>
        <time>2023-07-30T14:18:46.000Z</time>
      </trkpt>
      <trkpt lat="45.86764" lon="4.71087">
        <ele>252.46382</ele>
        <time>2023-07-30T14:18:47.000Z</time>
      </trkpt>
      <trkpt lat="45.86759" lon="4.71086">
        <ele>253.71664</ele>
        <time>2023-07-30T14:18:48.000Z</time>
      </trkpt>
      <trkpt lat="45.86755" lon="4.71083">
        <ele>254.96915</ele>
        <time>2023-07-30T14:18:49.000Z</time>
      </trkpt>
      <trkpt lat="45.8675" lon="4.7108">
        <ele>256.2247</ele>
        <time>2023-07-30T14:18:50.000Z</time>
      </trkpt>
      <trkpt lat="45.86745" lon="4.71077">
        <ele>256.90524</ele>
        <time>2023-07-30T14:18:51.000Z</time>
      </trkpt>
      <trkpt lat="45.8674" lon="4.71076">
        <ele>257.87616</ele>
        <time>2023-07-30T14:18:52.000Z</time>
      </trkpt>
      <trkpt lat="45.86735" lon="4.71073">
        <ele>257.4343</ele>
        <time>2023-07-30T14:18:53.000Z</time>
      </trkpt>
      <trkpt lat="45.8673" lon="4.71071">
        <ele>257.02151</ele>
        <time>2023-07-30T14:18:54.000Z</time>
      </trkpt>
      <trkpt lat="45.86724" lon="4.71069">
        <ele>256.61224</ele>
        <time>2023-07-30T14:18:55.000Z</time>
      </trkpt>
      <trkpt lat="45.86719" lon="4.71067">
        <ele>256.20074</ele>
        <time>2023-07-30T14:18:56.000Z</time>
      </trkpt>
      <trkpt lat="45.86714" lon="4.71064">
        <ele>255.83652</ele>
        <time>2023-07-30T14:18:57.000Z</time>
      </trkpt>
      <trkpt lat="45.86709" lon="4.71062">
        <ele>256.82187</ele>
        <time>2023-07-30T14:18:58.000Z</time>
      </trkpt>
      <trkpt lat="45.86704" lon="4.7106">
        <ele>257.80804</ele>
        <time>2023-07-30T14:18:59.000Z</time>
      </trkpt>
      <trkpt lat="45.86699" lon="4.71057">
        <ele>258.82928</ele>
        <time>2023-07-30T14:19:00.000Z</time>
      </trkpt>
      <trkpt lat="45.86693" lon="4.71054">
        <ele>259.80969</ele>
        <time>2023-07-30T14:19:01.000Z</time>
      </trkpt>
      <trkpt lat="45.86688" lon="4.71052">
        <ele>260.78412</ele>
        <time>2023-07-30T14:19:02.000Z</time>
      </trkpt>
      <trkpt lat="45.86683" lon="4.71049">
        <ele>261.75458</ele>
        <time>2023-07-30T14:19:03.000Z</time>
      </trkpt>
      <trkpt lat="45.86678" lon="4.71046">
        <ele>262.71591</ele>
        <time>2023-07-30T14:19:04.000Z</time>
      </trkpt>
      <trkpt lat="45.86672" lon="4.71043">
        <ele>263.67636</ele>
        <time>2023-07-30T14:19:05.000Z</time>
      </trkpt>
      <trkpt lat="45.86667" lon="4.71042">
        <ele>264.62637</ele>
        <time>2023-07-30T14:19:06.000Z</time>
      </trkpt>
      <trkpt lat="45.86662" lon="4.71039">
        <ele>264.20786</ele>
        <time>2023-07-30T14:19:07.000Z</time>
      </trkpt>
      <trkpt lat="45.86657" lon="4.71037">
        <ele>263.79984</ele>
        <time>2023-07-30T14:19:08.000Z</time>
      </trkpt>
      <trkpt lat="45.86653" lon="4.71034">
        <ele>263.35883</ele>
        <time>2023-07-30T14:19:09.000Z</time>
      </trkpt>
      <trkpt lat="45.86648" lon="4.71033">
        <ele>262.91156</ele>
        <time>2023-07-30T14:19:10.000Z</time>
      </trkpt>
      <trkpt lat="45.86643" lon="4.71031">
        <ele>263.1293</ele>
        <time>2023-07-30T14:19:11.000Z</time>
      </trkpt>
      <trkpt lat="45.86638" lon="4.71029">
        <ele>263.1098</ele>
        <time>2023-07-30T14:19:12.000Z</time>
      </trkpt>
      <trkpt lat="45.86633" lon="4.71025">
        <ele>263.06403</ele>
        <time>2023-07-30T14:19:13.000Z</time>
      </trkpt>
      <trkpt lat="45.86628" lon="4.71021">
        <ele>263.03909</ele>
        <time>2023-07-30T14:19:14.000Z</time>
      </trkpt>
      <trkpt lat="45.86623" lon="4.7102">
        <ele>263.36838</ele>
        <time>2023-07-30T14:19:15.000Z</time>
      </trkpt>
      <trkpt lat="45.86618" lon="4.71018">
        <ele>263.96964</ele>
        <time>2023-07-30T14:19:16.000Z</time>
      </trkpt>
      <trkpt lat="45.86613" lon="4.71015">
        <ele>264.55334</ele>
        <time>2023-07-30T14:19:17.000Z</time>
      </trkpt>
      <trkpt lat="45.86607" lon="4.71013">
        <ele>264.44467</ele>
        <time>2023-07-30T14:19:18.000Z</time>
      </trkpt>
      <trkpt lat="45.86601" lon="4.71012">
        <ele>264.46841</ele>
        <time>2023-07-30T14:19:19.000Z</time>
      </trkpt>
      <trkpt lat="45.86596" lon="4.71011">
        <ele>264.4541</ele>
        <time>2023-07-30T14:19:20.000Z</time>
      </trkpt>
      <trkpt lat="45.8659" lon="4.71009">
        <ele>264.80829</ele>
        <time>2023-07-30T14:19:21.000Z</time>
      </trkpt>
      <trkpt lat="45.86585" lon="4.71009">
        <ele>265.19257</ele>
        <time>2023-07-30T14:19:22.000Z</time>
      </trkpt>
      <trkpt lat="45.8658" lon="4.71009">
        <ele>265.58017</ele>
        <time>2023-07-30T14:19:23.000Z</time>
      </trkpt>
      <trkpt lat="45.86575" lon="4.71007">
        <ele>265.98883</ele>
        <time>2023-07-30T14:19:24.000Z</time>
      </trkpt>
      <trkpt lat="45.8657" lon="4.71006">
        <ele>266.3959</ele>
        <time>2023-07-30T14:19:25.000Z</time>
      </trkpt>
      <trkpt lat="45.86566" lon="4.71004">
        <ele>266.82245</ele>
        <time>2023-07-30T14:19:26.000Z</time>
      </trkpt>
      <trkpt lat="45.86561" lon="4.71001">
        <ele>267.27139</ele>
        <time>2023-07-30T14:19:27.000Z</time>
      </trkpt>
      <trkpt lat="45.86556" lon="4.71">
        <ele>267.68869</ele>
        <time>2023-07-30T14:19:28.000Z</time>
      </trkpt>
      <trkpt lat="45.86552" lon="4.71">
        <ele>268.13007</ele>
        <time>2023-07-30T14:19:29.000Z</time>
      </trkpt>
      <trkpt lat="45.86547" lon="4.70998">
        <ele>268.57391</ele>
        <time>2023-07-30T14:19:30.000Z</time>
      </trkpt>
      <trkpt lat="45.86543" lon="4.70997">
        <ele>268.99738</ele>
        <time>2023-07-30T14:19:31.000Z</time>
      </trkpt>
      <trkpt lat="45.86538" lon="4.70996">
        <ele>269.43329</ele>
        <time>2023-07-30T14:19:32.000Z</time>
      </trkpt>
      <trkpt lat="45.86533" lon="4.70996">
        <ele>269.86234</ele>
        <time>2023-07-30T14:19:33.000Z</time>
      </trkpt>
      <trkpt lat="45.86529" lon="4.70996">
        <ele>270.25897</ele>
        <time>2023-07-30T14:19:34.000Z</time>
      </trkpt>
      <trkpt lat="45.86524" lon="4.70996">
        <ele>270.3017</ele>
        <time>2023-07-30T14:19:35.000Z</time>
      </trkpt>
      <trkpt lat="45.8652" lon="4.70996">
        <ele>270.08737</ele>
        <time>2023-07-30T14:19:36.000Z</time>
      </trkpt>
      <trkpt lat="45.86515" lon="4.70995">
        <ele>270.00732</ele>
        <time>2023-07-30T14:19:37.000Z</time>
      </trkpt>
      <trkpt lat="45.86511" lon="4.70995">
        <ele>270.67999</ele>
        <time>2023-07-30T14:19:38.000Z</time>
      </trkpt>
      <trkpt lat="45.86507" lon="4.70995">
        <ele>271.20981</ele>
        <time>2023-07-30T14:19:39.000Z</time>
      </trkpt>
      <trkpt lat="45.86504" lon="4.70994">
        <ele>271.74368</ele>
        <time>2023-07-30T14:19:40.000Z</time>
      </trkpt>
      <trkpt lat="45.86501" lon="4.70994">
        <ele>272.03995</ele>
        <time>2023-07-30T14:19:41.000Z</time>
      </trkpt>
      <trkpt lat="45.86498" lon="4.70994">
        <ele>272.3353</ele>
        <time>2023-07-30T14:19:42.000Z</time>
      </trkpt>
      <trkpt lat="45.86496" lon="4.70993">
        <ele>271.87332</ele>
        <time>2023-07-30T14:19:43.000Z</time>
      </trkpt>
      <trkpt lat="45.86493" lon="4.70991">
        <ele>271.57562</ele>
        <time>2023-07-30T14:19:44.000Z</time>
      </trkpt>
      <trkpt lat="45.8649" lon="4.7099">
        <ele>271.24326</ele>
        <time>2023-07-30T14:19:45.000Z</time>
      </trkpt>
      <trkpt lat="45.86488" lon="4.7099">
        <ele>270.89359</ele>
        <time>2023-07-30T14:19:46.000Z</time>
      </trkpt>
      <trkpt lat="45.86486" lon="4.70991">
        <ele>270.85733</ele>
        <time>2023-07-30T14:19:47.000Z</time>
      </trkpt>
      <trkpt lat="45.86483" lon="4.70989">
        <ele>270.85196</ele>
        <time>2023-07-30T14:19:48.000Z</time>
      </trkpt>
      <trkpt lat="45.8648" lon="4.70987">
        <ele>270.86124</ele>
        <time>2023-07-30T14:19:49.000Z</time>
      </trkpt>
      <trkpt lat="45.86477" lon="4.70987">
        <ele>271.11481</ele>
        <time>2023-07-30T14:19:50.000Z</time>
      </trkpt>
      <trkpt lat="45.86475" lon="4.70987">
        <ele>270.64642</ele>
        <time>2023-07-30T14:19:51.000Z</time>
      </trkpt>
      <trkpt lat="45.86473" lon="4.70988">
        <ele>270.31772</ele>
        <time>2023-07-30T14:19:52.000Z</time>
      </trkpt>
      <trkpt lat="45.86471" lon="4.70989">
        <ele>270.04623</ele>
        <time>2023-07-30T14:19:53.000Z</time>
      </trkpt>
      <trkpt lat="45.86469" lon="4.70989">
        <ele>269.76782</ele>
        <time>2023-07-30T14:19:54.000Z</time>
      </trkpt>
      <trkpt lat="45.86466" lon="4.70989">
        <ele>269.50833</ele>
        <time>2023-07-30T14:19:55.000Z</time>
      </trkpt>
      <trkpt lat="45.86463" lon="4.70989">
        <ele>269.80777</ele>
        <time>2023-07-30T14:19:56.000Z</time>
      </trkpt>
      <trkpt lat="45.86461" lon="4.70989">
        <ele>268.70496</ele>
        <time>2023-07-30T14:19:57.000Z</time>
      </trkpt>
      <trkpt lat="45.86458" lon="4.70988">
        <ele>267.58075</ele>
        <time>2023-07-30T14:19:58.000Z</time>
      </trkpt>
      <trkpt lat="45.86455" lon="4.70988">
        <ele>266.44431</ele>
        <time>2023-07-30T14:19:59.000Z</time>
      </trkpt>
      <trkpt lat="45.86452" lon="4.70988">
        <ele>265.30429</ele>
        <time>2023-07-30T14:20:00.000Z</time>
      </trkpt>
      <trkpt lat="45.86449" lon="4.70987">
        <ele>264.2229</ele>
        <time>2023-07-30T14:20:01.000Z</time>
      </trkpt>
      <trkpt lat="45.86446" lon="4.70987">
        <ele>263.12192</ele>
        <time>2023-07-30T14:20:02.000Z</time>
      </trkpt>
      <trkpt lat="45.86443" lon="4.70987">
        <ele>262.79288</ele>
        <time>2023-07-30T14:20:03.000Z</time>
      </trkpt>
      <trkpt lat="45.8644" lon="4.70988">
        <ele>262.3493</ele>
        <time>2023-07-30T14:20:04.000Z</time>
      </trkpt>
      <trkpt lat="45.86437" lon="4.7099">
        <ele>262.01245</ele>
        <time>2023-07-30T14:20:05.000Z</time>
      </trkpt>
      <trkpt lat="45.86434" lon="4.70992">
        <ele>261.34222</ele>
        <time>2023-07-30T14:20:06.000Z</time>
      </trkpt>
      <trkpt lat="45.8643" lon="4.70993">
        <ele>260.36743</ele>
        <time>2023-07-30T14:20:07.000Z</time>
      </trkpt>
      <trkpt lat="45.86426" lon="4.70993">
        <ele>259.37244</ele>
        <time>2023-07-30T14:20:08.000Z</time>
      </trkpt>
      <trkpt lat="45.86422" lon="4.70994">
        <ele>258.3349</ele>
        <time>2023-07-30T14:20:09.000Z</time>
      </trkpt>
      <trkpt lat="45.86419" lon="4.70995">
        <ele>257.07422</ele>
        <time>2023-07-30T14:20:10.000Z</time>
      </trkpt>
      <trkpt lat="45.86415" lon="4.70997">
        <ele>256.7561</ele>
        <time>2023-07-30T14:20:11.000Z</time>
      </trkpt>
      <trkpt lat="45.86412" lon="4.70999">
        <ele>256.31503</ele>
        <time>2023-07-30T14:20:12.000Z</time>
      </trkpt>
      <trkpt lat="45.86408" lon="4.71001">
        <ele>255.54301</ele>
        <time>2023-07-30T14:20:13.000Z</time>
      </trkpt>
      <trkpt lat="45.86404" lon="4.71004">
        <ele>254.84448</ele>
        <time>2023-07-30T14:20:14.000Z</time>
      </trkpt>
      <trkpt lat="45.86401" lon="4.71006">
        <ele>254.13205</ele>
        <time>2023-07-30T14:20:15.000Z</time>
      </trkpt>
      <trkpt lat="45.86397" lon="4.71009">
        <ele>252.8503</ele>
        <time>2023-07-30T14:20:16.000Z</time>
      </trkpt>
      <trkpt lat="45.86393" lon="4.71011">
        <ele>252.8147</ele>
        <time>2023-07-30T14:20:17.000Z</time>
      </trkpt>
      <trkpt lat="45.86388" lon="4.71013">
        <ele>252.77109</ele>
        <time>2023-07-30T14:20:18.000Z</time>
      </trkpt>
      <trkpt lat="45.86384" lon="4.71015">
        <ele>252.76836</ele>
        <time>2023-07-30T14:20:19.000Z</time>
      </trkpt>
      <trkpt lat="45.8638" lon="4.71017">
        <ele>252.76631</ele>
        <time>2023-07-30T14:20:20.000Z</time>
      </trkpt>
      <trkpt lat="45.86375" lon="4.71019">
        <ele>252.59164</ele>
        <time>2023-07-30T14:20:21.000Z</time>
      </trkpt>
      <trkpt lat="45.86371" lon="4.71021">
        <ele>252.56412</ele>
        <time>2023-07-30T14:20:22.000Z</time>
      </trkpt>
      <trkpt lat="45.86367" lon="4.71023">
        <ele>252.61926</ele>
        <time>2023-07-30T14:20:23.000Z</time>
      </trkpt>
      <trkpt lat="45.86363" lon="4.71025">
        <ele>252.3009</ele>
        <time>2023-07-30T14:20:24.000Z</time>
      </trkpt>
      <trkpt lat="45.86359" lon="4.71026">
        <ele>251.98972</ele>
        <time>2023-07-30T14:20:25.000Z</time>
      </trkpt>
      <trkpt lat="45.86354" lon="4.71026">
        <ele>252.00375</ele>
        <time>2023-07-30T14:20:26.000Z</time>
      </trkpt>
      <trkpt lat="45.8635" lon="4.71027">
        <ele>251.99873</ele>
        <time>2023-07-30T14:20:27.000Z</time>
      </trkpt>
      <trkpt lat="45.86346" lon="4.71027">
        <ele>252.0303</ele>
        <time>2023-07-30T14:20:28.000Z</time>
      </trkpt>
      <trkpt lat="45.86342" lon="4.71028">
        <ele>252.09094</ele>
        <time>2023-07-30T14:20:29.000Z</time>
      </trkpt>
      <trkpt lat="45.86337" lon="4.71027">
        <ele>252.16035</ele>
        <time>2023-07-30T14:20:30.000Z</time>
      </trkpt>
      <trkpt lat="45.86333" lon="4.71027">
        <ele>252.00655</ele>
        <time>2023-07-30T14:20:31.000Z</time>
      </trkpt>
      <trkpt lat="45.86329" lon="4.71027">
        <ele>251.82666</ele>
        <time>2023-07-30T14:20:32.000Z</time>
      </trkpt>
      <trkpt lat="45.86325" lon="4.71027">
        <ele>251.95786</ele>
        <time>2023-07-30T14:20:33.000Z</time>
      </trkpt>
      <trkpt lat="45.86321" lon="4.71026">
        <ele>252.0303</ele>
        <time>2023-07-30T14:20:34.000Z</time>
      </trkpt>
      <trkpt lat="45.86317" lon="4.71027">
        <ele>252.09697</ele>
        <time>2023-07-30T14:20:35.000Z</time>
      </trkpt>
      <trkpt lat="45.86313" lon="4.71029">
        <ele>252.15836</ele>
        <time>2023-07-30T14:20:36.000Z</time>
      </trkpt>
      <trkpt lat="45.86309" lon="4.71029">
        <ele>252.21797</ele>
        <time>2023-07-30T14:20:37.000Z</time>
      </trkpt>
      <trkpt lat="45.86305" lon="4.71029">
        <ele>252.29085</ele>
        <time>2023-07-30T14:20:38.000Z</time>
      </trkpt>
      <trkpt lat="45.863" lon="4.71029">
        <ele>252.32755</ele>
        <time>2023-07-30T14:20:39.000Z</time>
      </trkpt>
      <trkpt lat="45.86296" lon="4.71029">
        <ele>252.37874</ele>
        <time>2023-07-30T14:20:40.000Z</time>
      </trkpt>
      <trkpt lat="45.86291" lon="4.71029">
        <ele>252.45618</ele>
        <time>2023-07-30T14:20:41.000Z</time>
      </trkpt>
      <trkpt lat="45.86287" lon="4.7103">
        <ele>252.38809</ele>
        <time>2023-07-30T14:20:42.000Z</time>
      </trkpt>
      <trkpt lat="45.86282" lon="4.7103">
        <ele>252.23889</ele>
        <time>2023-07-30T14:20:43.000Z</time>
      </trkpt>
      <trkpt lat="45.86278" lon="4.71031">
        <ele>252.40686</ele>
        <time>2023-07-30T14:20:44.000Z</time>
      </trkpt>
      <trkpt lat="45.86274" lon="4.71032">
        <ele>252.48788</ele>
        <time>2023-07-30T14:20:45.000Z</time>
      </trkpt>
      <trkpt lat="45.8627" lon="4.71032">
        <ele>252.72131</ele>
        <time>2023-07-30T14:20:46.000Z</time>
      </trkpt>
      <trkpt lat="45.86267" lon="4.71032">
        <ele>253.06221</ele>
        <time>2023-07-30T14:20:47.000Z</time>
      </trkpt>
      <trkpt lat="45.86263" lon="4.71032">
        <ele>253.10217</ele>
        <time>2023-07-30T14:20:48.000Z</time>
      </trkpt>
      <trkpt lat="45.86259" lon="4.71029">
        <ele>253.18723</ele>
        <time>2023-07-30T14:20:49.000Z</time>
      </trkpt>
      <trkpt lat="45.86256" lon="4.71026">
        <ele>253.252</ele>
        <time>2023-07-30T14:20:50.000Z</time>
      </trkpt>
      <trkpt lat="45.86253" lon="4.71023">
        <ele>253.31641</ele>
        <time>2023-07-30T14:20:51.000Z</time>
      </trkpt>
      <trkpt lat="45.8625" lon="4.71019">
        <ele>253.37808</ele>
        <time>2023-07-30T14:20:52.000Z</time>
      </trkpt>
      <trkpt lat="45.86247" lon="4.71015">
        <ele>253.43745</ele>
        <time>2023-07-30T14:20:53.000Z</time>
      </trkpt>
      <trkpt lat="45.86244" lon="4.71011">
        <ele>253.47824</ele>
        <time>2023-07-30T14:20:54.000Z</time>
      </trkpt>
      <trkpt lat="45.86241" lon="4.71008">
        <ele>253.50537</ele>
        <time>2023-07-30T14:20:55.000Z</time>
      </trkpt>
      <trkpt lat="45.86238" lon="4.71004">
        <ele>253.55696</ele>
        <time>2023-07-30T14:20:56.000Z</time>
      </trkpt>
      <trkpt lat="45.86235" lon="4.71001">
        <ele>253.58965</ele>
        <time>2023-07-30T14:20:57.000Z</time>
      </trkpt>
      <trkpt lat="45.86231" lon="4.70999">
        <ele>253.63522</ele>
        <time>2023-07-30T14:20:58.000Z</time>
      </trkpt>
      <trkpt lat="45.86228" lon="4.70999">
        <ele>253.69394</ele>
        <time>2023-07-30T14:20:59.000Z</time>
      </trkpt>
      <trkpt lat="45.86224" lon="4.70999">
        <ele>254.40776</ele>
        <time>2023-07-30T14:21:00.000Z</time>
      </trkpt>
      <trkpt lat="45.86221" lon="4.71001">
        <ele>255.10806</ele>
        <time>2023-07-30T14:21:01.000Z</time>
      </trkpt>
      <trkpt lat="45.86218" lon="4.71004">
        <ele>256.38416</ele>
        <time>2023-07-30T14:21:02.000Z</time>
      </trkpt>
      <trkpt lat="45.86215" lon="4.71007">
        <ele>256.43576</ele>
        <time>2023-07-30T14:21:03.000Z</time>
      </trkpt>
      <trkpt lat="45.86212" lon="4.71012">
        <ele>256.4592</ele>
        <time>2023-07-30T14:21:04.000Z</time>
      </trkpt>
      <trkpt lat="45.8621" lon="4.71016">
        <ele>256.51129</ele>
        <time>2023-07-30T14:21:05.000Z</time>
      </trkpt>
      <trkpt lat="45.86207" lon="4.7102">
        <ele>256.41229</ele>
        <time>2023-07-30T14:21:06.000Z</time>
      </trkpt>
      <trkpt lat="45.86204" lon="4.71024">
        <ele>256.19098</ele>
        <time>2023-07-30T14:21:07.000Z</time>
      </trkpt>
      <trkpt lat="45.86201" lon="4.71028">
        <ele>256.24524</ele>
        <time>2023-07-30T14:21:08.000Z</time>
      </trkpt>
      <trkpt lat="45.86198" lon="4.71031">
        <ele>256.25909</ele>
        <time>2023-07-30T14:21:09.000Z</time>
      </trkpt>
      <trkpt lat="45.86194" lon="4.71034">
        <ele>256.25983</ele>
        <time>2023-07-30T14:21:10.000Z</time>
      </trkpt>
      <trkpt lat="45.8619" lon="4.71038">
        <ele>256.25314</ele>
        <time>2023-07-30T14:21:11.000Z</time>
      </trkpt>
      <trkpt lat="45.86185" lon="4.71042">
        <ele>256.22714</ele>
        <time>2023-07-30T14:21:12.000Z</time>
      </trkpt>
      <trkpt lat="45.86181" lon="4.71045">
        <ele>256.18515</ele>
        <time>2023-07-30T14:21:13.000Z</time>
      </trkpt>
      <trkpt lat="45.86177" lon="4.71048">
        <ele>256.1452</ele>
        <time>2023-07-30T14:21:14.000Z</time>
      </trkpt>
      <trkpt lat="45.86173" lon="4.7105">
        <ele>256.15137</ele>
        <time>2023-07-30T14:21:15.000Z</time>
      </trkpt>
      <trkpt lat="45.86169" lon="4.71051">
        <ele>256.27762</ele>
        <time>2023-07-30T14:21:16.000Z</time>
      </trkpt>
      <trkpt lat="45.86165" lon="4.71052">
        <ele>256.43405</ele>
        <time>2023-07-30T14:21:17.000Z</time>
      </trkpt>
      <trkpt lat="45.86161" lon="4.71053">
        <ele>256.57294</ele>
        <time>2023-07-30T14:21:18.000Z</time>
      </trkpt>
      <trkpt lat="45.86156" lon="4.71053">
        <ele>257.57416</ele>
        <time>2023-07-30T14:21:19.000Z</time>
      </trkpt>
      <trkpt lat="45.86152" lon="4.71054">
        <ele>257.93732</ele>
        <time>2023-07-30T14:21:20.000Z</time>
      </trkpt>
      <trkpt lat="45.86148" lon="4.71056">
        <ele>258.31485</ele>
        <time>2023-07-30T14:21:21.000Z</time>
      </trkpt>
      <trkpt lat="45.86144" lon="4.71059">
        <ele>258.34512</ele>
        <time>2023-07-30T14:21:22.000Z</time>
      </trkpt>
      <trkpt lat="45.86141" lon="4.71062">
        <ele>259.59778</ele>
        <time>2023-07-30T14:21:23.000Z</time>
      </trkpt>
      <trkpt lat="45.86137" lon="4.71067">
        <ele>260.88455</ele>
        <time>2023-07-30T14:21:24.000Z</time>
      </trkpt>
      <trkpt lat="45.86135" lon="4.71072">
        <ele>262.13638</ele>
        <time>2023-07-30T14:21:25.000Z</time>
      </trkpt>
      <trkpt lat="45.86133" lon="4.71078">
        <ele>262.71094</ele>
        <time>2023-07-30T14:21:26.000Z</time>
      </trkpt>
      <trkpt lat="45.86131" lon="4.71084">
        <ele>263.4071</ele>
        <time>2023-07-30T14:21:27.000Z</time>
      </trkpt>
      <trkpt lat="45.86129" lon="4.7109">
        <ele>264.10645</ele>
        <time>2023-07-30T14:21:28.000Z</time>
      </trkpt>
      <trkpt lat="45.86127" lon="4.71095">
        <ele>264.80414</ele>
        <time>2023-07-30T14:21:29.000Z</time>
      </trkpt>
      <trkpt lat="45.86125" lon="4.71101">
        <ele>265.49747</ele>
        <time>2023-07-30T14:21:30.000Z</time>
      </trkpt>
      <trkpt lat="45.86122" lon="4.71106">
        <ele>266.20563</ele>
        <time>2023-07-30T14:21:31.000Z</time>
      </trkpt>
      <trkpt lat="45.8612" lon="4.71112">
        <ele>266.92325</ele>
        <time>2023-07-30T14:21:32.000Z</time>
      </trkpt>
      <trkpt lat="45.86117" lon="4.71117">
        <ele>267.98132</ele>
        <time>2023-07-30T14:21:33.000Z</time>
      </trkpt>
      <trkpt lat="45.86114" lon="4.71123">
        <ele>269.28757</ele>
        <time>2023-07-30T14:21:34.000Z</time>
      </trkpt>
      <trkpt lat="45.86112" lon="4.71128">
        <ele>270.56781</ele>
        <time>2023-07-30T14:21:35.000Z</time>
      </trkpt>
      <trkpt lat="45.86109" lon="4.71133">
        <ele>271.02753</ele>
        <time>2023-07-30T14:21:36.000Z</time>
      </trkpt>
      <trkpt lat="45.86106" lon="4.71137">
        <ele>271.58398</ele>
        <time>2023-07-30T14:21:37.000Z</time>
      </trkpt>
      <trkpt lat="45.86103" lon="4.71141">
        <ele>272.15762</ele>
        <time>2023-07-30T14:21:38.000Z</time>
      </trkpt>
      <trkpt lat="45.86099" lon="4.71145">
        <ele>271.86823</ele>
        <time>2023-07-30T14:21:39.000Z</time>
      </trkpt>
      <trkpt lat="45.86094" lon="4.71148">
        <ele>271.56439</ele>
        <time>2023-07-30T14:21:40.000Z</time>
      </trkpt>
      <trkpt lat="45.86092" lon="4.7115">
        <ele>271.26715</ele>
        <time>2023-07-30T14:21:41.000Z</time>
      </trkpt>
      <trkpt lat="45.86087" lon="4.71144">
        <ele>270.70242</ele>
        <time>2023-07-30T14:21:42.000Z</time>
      </trkpt>
      <trkpt lat="45.86083" lon="4.71142">
        <ele>269.94891</ele>
        <time>2023-07-30T14:21:43.000Z</time>
      </trkpt>
      <trkpt lat="45.8608" lon="4.71138">
        <ele>268.65845</ele>
        <time>2023-07-30T14:21:44.000Z</time>
      </trkpt>
      <trkpt lat="45.86076" lon="4.71134">
        <ele>267.46942</ele>
        <time>2023-07-30T14:21:45.000Z</time>
      </trkpt>
      <trkpt lat="45.86072" lon="4.71131">
        <ele>266.9646</ele>
        <time>2023-07-30T14:21:46.000Z</time>
      </trkpt>
      <trkpt lat="45.86068" lon="4.71129">
        <ele>266.33005</ele>
        <time>2023-07-30T14:21:47.000Z</time>
      </trkpt>
      <trkpt lat="45.86064" lon="4.71125">
        <ele>265.69305</ele>
        <time>2023-07-30T14:21:48.000Z</time>
      </trkpt>
      <trkpt lat="45.8606" lon="4.71121">
        <ele>265.04022</ele>
        <time>2023-07-30T14:21:49.000Z</time>
      </trkpt>
      <trkpt lat="45.86056" lon="4.71117">
        <ele>264.41614</ele>
        <time>2023-07-30T14:21:50.000Z</time>
      </trkpt>
      <trkpt lat="45.86051" lon="4.71114">
        <ele>263.79193</ele>
        <time>2023-07-30T14:21:51.000Z</time>
      </trkpt>
      <trkpt lat="45.86048" lon="4.71109">
        <ele>263.17908</ele>
        <time>2023-07-30T14:21:52.000Z</time>
      </trkpt>
      <trkpt lat="45.86046" lon="4.71104">
        <ele>262.23737</ele>
        <time>2023-07-30T14:21:53.000Z</time>
      </trkpt>
      <trkpt lat="45.86043" lon="4.71098">
        <ele>261.02509</ele>
        <time>2023-07-30T14:21:54.000Z</time>
      </trkpt>
      <trkpt lat="45.86041" lon="4.71092">
        <ele>260.34988</ele>
        <time>2023-07-30T14:21:55.000Z</time>
      </trkpt>
      <trkpt lat="45.86039" lon="4.71085">
        <ele>259.81583</ele>
        <time>2023-07-30T14:21:56.000Z</time>
      </trkpt>
      <trkpt lat="45.86037" lon="4.71078">
        <ele>259.17636</ele>
        <time>2023-07-30T14:21:57.000Z</time>
      </trkpt>
      <trkpt lat="45.86036" lon="4.71072">
        <ele>258.51974</ele>
        <time>2023-07-30T14:21:58.000Z</time>
      </trkpt>
      <trkpt lat="45.86034" lon="4.71066">
        <ele>257.85693</ele>
        <time>2023-07-30T14:21:59.000Z</time>
      </trkpt>
      <trkpt lat="45.86032" lon="4.7106">
        <ele>257.19595</ele>
        <time>2023-07-30T14:22:00.000Z</time>
      </trkpt>
      <trkpt lat="45.86032" lon="4.71053">
        <ele>256.53983</ele>
        <time>2023-07-30T14:22:01.000Z</time>
      </trkpt>
      <trkpt lat="45.86031" lon="4.71046">
        <ele>255.91855</ele>
        <time>2023-07-30T14:22:02.000Z</time>
      </trkpt>
      <trkpt lat="45.86029" lon="4.71039">
        <ele>255.4866</ele>
        <time>2023-07-30T14:22:03.000Z</time>
      </trkpt>
      <trkpt lat="45.86027" lon="4.71032">
        <ele>255.57089</ele>
        <time>2023-07-30T14:22:04.000Z</time>
      </trkpt>
      <trkpt lat="45.86025" lon="4.71027">
        <ele>255.74368</ele>
        <time>2023-07-30T14:22:05.000Z</time>
      </trkpt>
      <trkpt lat="45.86021" lon="4.71022">
        <ele>255.91055</ele>
        <time>2023-07-30T14:22:06.000Z</time>
      </trkpt>
      <trkpt lat="45.86019" lon="4.71016">
        <ele>256.08685</ele>
        <time>2023-07-30T14:22:07.000Z</time>
      </trkpt>
      <trkpt lat="45.86015" lon="4.7101">
        <ele>256.25162</ele>
        <time>2023-07-30T14:22:08.000Z</time>
      </trkpt>
      <trkpt lat="45.86011" lon="4.71005">
        <ele>256.42957</ele>
        <time>2023-07-30T14:22:09.000Z</time>
      </trkpt>
      <trkpt lat="45.86008" lon="4.71001">
        <ele>257.48199</ele>
        <time>2023-07-30T14:22:10.000Z</time>
      </trkpt>
      <trkpt lat="45.86004" lon="4.70996">
        <ele>258.53546</ele>
        <time>2023-07-30T14:22:11.000Z</time>
      </trkpt>
      <trkpt lat="45.85999" lon="4.70992">
        <ele>259.59195</ele>
        <time>2023-07-30T14:22:12.000Z</time>
      </trkpt>
      <trkpt lat="45.85995" lon="4.70989">
        <ele>260.63834</ele>
        <time>2023-07-30T14:22:13.000Z</time>
      </trkpt>
      <trkpt lat="45.8599" lon="4.70986">
        <ele>261.71332</ele>
        <time>2023-07-30T14:22:14.000Z</time>
      </trkpt>
      <trkpt lat="45.85986" lon="4.70982">
        <ele>262.24902</ele>
        <time>2023-07-30T14:22:15.000Z</time>
      </trkpt>
      <trkpt lat="45.85981" lon="4.7098">
        <ele>263.32745</ele>
        <time>2023-07-30T14:22:16.000Z</time>
      </trkpt>
      <trkpt lat="45.85976" lon="4.70978">
        <ele>264.39679</ele>
        <time>2023-07-30T14:22:17.000Z</time>
      </trkpt>
      <trkpt lat="45.85971" lon="4.70975">
        <ele>265.45425</ele>
        <time>2023-07-30T14:22:18.000Z</time>
      </trkpt>
      <trkpt lat="45.85967" lon="4.70974">
        <ele>266.51978</ele>
        <time>2023-07-30T14:22:19.000Z</time>
      </trkpt>
      <trkpt lat="45.85962" lon="4.70973">
        <ele>267.56812</ele>
        <time>2023-07-30T14:22:20.000Z</time>
      </trkpt>
      <trkpt lat="45.85957" lon="4.70973">
        <ele>268.59247</ele>
        <time>2023-07-30T14:22:21.000Z</time>
      </trkpt>
      <trkpt lat="45.85952" lon="4.70973">
        <ele>268.75262</ele>
        <time>2023-07-30T14:22:22.000Z</time>
      </trkpt>
      <trkpt lat="45.85947" lon="4.70973">
        <ele>268.90729</ele>
        <time>2023-07-30T14:22:23.000Z</time>
      </trkpt>
      <trkpt lat="45.85942" lon="4.70972">
        <ele>269.05585</ele>
        <time>2023-07-30T14:22:24.000Z</time>
      </trkpt>
      <trkpt lat="45.85937" lon="4.70973">
        <ele>269.04166</ele>
        <time>2023-07-30T14:22:25.000Z</time>
      </trkpt>
      <trkpt lat="45.85933" lon="4.70974">
        <ele>269.02325</ele>
        <time>2023-07-30T14:22:26.000Z</time>
      </trkpt>
      <trkpt lat="45.85928" lon="4.70977">
        <ele>269.01099</ele>
        <time>2023-07-30T14:22:27.000Z</time>
      </trkpt>
      <trkpt lat="45.85923" lon="4.7098">
        <ele>268.76682</ele>
        <time>2023-07-30T14:22:28.000Z</time>
      </trkpt>
      <trkpt lat="45.85919" lon="4.70983">
        <ele>268.62762</ele>
        <time>2023-07-30T14:22:29.000Z</time>
      </trkpt>
      <trkpt lat="45.85914" lon="4.70987">
        <ele>267.60129</ele>
        <time>2023-07-30T14:22:30.000Z</time>
      </trkpt>
      <trkpt lat="45.8591" lon="4.7099">
        <ele>266.5535</ele>
        <time>2023-07-30T14:22:31.000Z</time>
      </trkpt>
      <trkpt lat="45.85906" lon="4.70994">
        <ele>265.49417</ele>
        <time>2023-07-30T14:22:32.000Z</time>
      </trkpt>
      <trkpt lat="45.85903" lon="4.70999">
        <ele>264.44324</ele>
        <time>2023-07-30T14:22:33.000Z</time>
      </trkpt>
      <trkpt lat="45.859" lon="4.71003">
        <ele>263.37979</ele>
        <time>2023-07-30T14:22:34.000Z</time>
      </trkpt>
      <trkpt lat="45.85896" lon="4.71007">
        <ele>262.31131</ele>
        <time>2023-07-30T14:22:35.000Z</time>
      </trkpt>
      <trkpt lat="45.85891" lon="4.7101">
        <ele>261.35846</ele>
        <time>2023-07-30T14:22:36.000Z</time>
      </trkpt>
      <trkpt lat="45.85888" lon="4.71014">
        <ele>260.50687</ele>
        <time>2023-07-30T14:22:37.000Z</time>
      </trkpt>
      <trkpt lat="45.85884" lon="4.71019">
        <ele>259.67511</ele>
        <time>2023-07-30T14:22:38.000Z</time>
      </trkpt>
      <trkpt lat="45.85881" lon="4.71023">
        <ele>258.5896</ele>
        <time>2023-07-30T14:22:39.000Z</time>
      </trkpt>
      <trkpt lat="45.85877" lon="4.71027">
        <ele>257.54138</ele>
        <time>2023-07-30T14:22:40.000Z</time>
      </trkpt>
      <trkpt lat="45.85874" lon="4.71032">
        <ele>256.51688</ele>
        <time>2023-07-30T14:22:41.000Z</time>
      </trkpt>
      <trkpt lat="45.8587" lon="4.71036">
        <ele>256.48526</ele>
        <time>2023-07-30T14:22:42.000Z</time>
      </trkpt>
      <trkpt lat="45.85867" lon="4.71041">
        <ele>256.44107</ele>
        <time>2023-07-30T14:22:43.000Z</time>
      </trkpt>
      <trkpt lat="45.85863" lon="4.71045">
        <ele>256.42007</ele>
        <time>2023-07-30T14:22:44.000Z</time>
      </trkpt>
      <trkpt lat="45.8586" lon="4.7105">
        <ele>256.45947</ele>
        <time>2023-07-30T14:22:45.000Z</time>
      </trkpt>
      <trkpt lat="45.85857" lon="4.71054">
        <ele>256.54175</ele>
        <time>2023-07-30T14:22:46.000Z</time>
      </trkpt>
      <trkpt lat="45.85854" lon="4.71059">
        <ele>256.34952</ele>
        <time>2023-07-30T14:22:47.000Z</time>
      </trkpt>
      <trkpt lat="45.85852" lon="4.71063">
        <ele>256.45563</ele>
        <time>2023-07-30T14:22:48.000Z</time>
      </trkpt>
      <trkpt lat="45.85848" lon="4.71069">
        <ele>256.46124</ele>
        <time>2023-07-30T14:22:49.000Z</time>
      </trkpt>
      <trkpt lat="45.85846" lon="4.71075">
        <ele>256.47647</ele>
        <time>2023-07-30T14:22:50.000Z</time>
      </trkpt>
      <trkpt lat="45.85842" lon="4.7108">
        <ele>256.50708</ele>
        <time>2023-07-30T14:22:51.000Z</time>
      </trkpt>
      <trkpt lat="45.85839" lon="4.71084">
        <ele>256.55698</ele>
        <time>2023-07-30T14:22:52.000Z</time>
      </trkpt>
      <trkpt lat="45.85836" lon="4.71089">
        <ele>256.60703</ele>
        <time>2023-07-30T14:22:53.000Z</time>
      </trkpt>
      <trkpt lat="45.85832" lon="4.71095">
        <ele>256.79083</ele>
        <time>2023-07-30T14:22:54.000Z</time>
      </trkpt>
      <trkpt lat="45.8583" lon="4.71101">
        <ele>257.03998</ele>
        <time>2023-07-30T14:22:55.000Z</time>
      </trkpt>
      <trkpt lat="45.85827" lon="4.71107">
        <ele>257.18967</ele>
        <time>2023-07-30T14:22:56.000Z</time>
      </trkpt>
      <trkpt lat="45.85824" lon="4.71112">
        <ele>257.00818</ele>
        <time>2023-07-30T14:22:57.000Z</time>
      </trkpt>
      <trkpt lat="45.85821" lon="4.71117">
        <ele>256.85635</ele>
        <time>2023-07-30T14:22:58.000Z</time>
      </trkpt>
      <trkpt lat="45.85817" lon="4.71123">
        <ele>256.97397</ele>
        <time>2023-07-30T14:22:59.000Z</time>
      </trkpt>
      <trkpt lat="45.85814" lon="4.71127">
        <ele>257.08374</ele>
        <time>2023-07-30T14:23:00.000Z</time>
      </trkpt>
      <trkpt lat="45.85811" lon="4.71131">
        <ele>257.17593</ele>
        <time>2023-07-30T14:23:01.000Z</time>
      </trkpt>
      <trkpt lat="45.85809" lon="4.71136">
        <ele>257.15649</ele>
        <time>2023-07-30T14:23:02.000Z</time>
      </trkpt>
      <trkpt lat="45.85806" lon="4.7114">
        <ele>257.11609</ele>
        <time>2023-07-30T14:23:03.000Z</time>
      </trkpt>
      <trkpt lat="45.85803" lon="4.71143">
        <ele>257.05548</ele>
        <time>2023-07-30T14:23:04.000Z</time>
      </trkpt>
      <trkpt lat="45.85801" lon="4.71146">
        <ele>256.91949</ele>
        <time>2023-07-30T14:23:05.000Z</time>
      </trkpt>
      <trkpt lat="45.85799" lon="4.71148">
        <ele>256.76904</ele>
        <time>2023-07-30T14:23:06.000Z</time>
      </trkpt>
      <trkpt lat="45.85796" lon="4.7115">
        <ele>256.90741</ele>
        <time>2023-07-30T14:23:07.000Z</time>
      </trkpt>
      <trkpt lat="45.85794" lon="4.7115">
        <ele>256.99564</ele>
        <time>2023-07-30T14:23:08.000Z</time>
      </trkpt>
      <trkpt lat="45.85791" lon="4.71151">
        <ele>257.07864</ele>
        <time>2023-07-30T14:23:09.000Z</time>
      </trkpt>
      <trkpt lat="45.85787" lon="4.7115">
        <ele>257.14508</ele>
        <time>2023-07-30T14:23:10.000Z</time>
      </trkpt>
      <trkpt lat="45.85784" lon="4.7115">
        <ele>257.216</ele>
        <time>2023-07-30T14:23:11.000Z</time>
      </trkpt>
      <trkpt lat="45.85781" lon="4.71151">
        <ele>257.25739</ele>
        <time>2023-07-30T14:23:12.000Z</time>
      </trkpt>
      <trkpt lat="45.85779" lon="4.71155">
        <ele>257.28549</ele>
        <time>2023-07-30T14:23:13.000Z</time>
      </trkpt>
      <trkpt lat="45.85779" lon="4.7116">
        <ele>257.19687</ele>
        <time>2023-07-30T14:23:14.000Z</time>
      </trkpt>
      <trkpt lat="45.8578" lon="4.71165">
        <ele>257.01205</ele>
        <time>2023-07-30T14:23:15.000Z</time>
      </trkpt>
      <trkpt lat="45.85781" lon="4.7117">
        <ele>256.83456</ele>
        <time>2023-07-30T14:23:16.000Z</time>
      </trkpt>
      <trkpt lat="45.85781" lon="4.71175">
        <ele>256.91473</ele>
        <time>2023-07-30T14:23:17.000Z</time>
      </trkpt>
      <trkpt lat="45.85781" lon="4.71179">
        <ele>256.94696</ele>
        <time>2023-07-30T14:23:18.000Z</time>
      </trkpt>
      <trkpt lat="45.85778" lon="4.71182">
        <ele>256.95709</ele>
        <time>2023-07-30T14:23:19.000Z</time>
      </trkpt>
      <trkpt lat="45.85775" lon="4.71182">
        <ele>256.94443</ele>
        <time>2023-07-30T14:23:20.000Z</time>
      </trkpt>
      <trkpt lat="45.85772" lon="4.71179">
        <ele>256.94635</ele>
        <time>2023-07-30T14:23:21.000Z</time>
      </trkpt>
      <trkpt lat="45.8577" lon="4.71174">
        <ele>256.96478</ele>
        <time>2023-07-30T14:23:22.000Z</time>
      </trkpt>
      <trkpt lat="45.85768" lon="4.71169">
        <ele>257.00433</ele>
        <time>2023-07-30T14:23:23.000Z</time>
      </trkpt>
      <trkpt lat="45.85766" lon="4.71165">
        <ele>257.04675</ele>
        <time>2023-07-30T14:23:24.000Z</time>
      </trkpt>
      <trkpt lat="45.85765" lon="4.7116">
        <ele>257.13422</ele>
        <time>2023-07-30T14:23:25.000Z</time>
      </trkpt>
      <trkpt lat="45.85763" lon="4.71155">
        <ele>257.34052</ele>
        <time>2023-07-30T14:23:26.000Z</time>
      </trkpt>
      <trkpt lat="45.85762" lon="4.7115">
        <ele>257.61685</ele>
        <time>2023-07-30T14:23:27.000Z</time>
      </trkpt>
      <trkpt lat="45.85761" lon="4.71145">
        <ele>257.87515</ele>
        <time>2023-07-30T14:23:28.000Z</time>
      </trkpt>
      <trkpt lat="45.8576" lon="4.7114">
        <ele>257.98514</ele>
        <time>2023-07-30T14:23:29.000Z</time>
      </trkpt>
      <trkpt lat="45.85758" lon="4.71136">
        <ele>258.15961</ele>
        <time>2023-07-30T14:23:30.000Z</time>
      </trkpt>
      <trkpt lat="45.85756" lon="4.71133">
        <ele>258.36343</ele>
        <time>2023-07-30T14:23:31.000Z</time>
      </trkpt>
      <trkpt lat="45.85754" lon="4.7113">
        <ele>258.59164</ele>
        <time>2023-07-30T14:23:32.000Z</time>
      </trkpt>
      <trkpt lat="45.85751" lon="4.71127">
        <ele>258.84586</ele>
        <time>2023-07-30T14:23:33.000Z</time>
      </trkpt>
      <trkpt lat="45.85748" lon="4.71125">
        <ele>259.11929</ele>
        <time>2023-07-30T14:23:34.000Z</time>
      </trkpt>
      <trkpt lat="45.85746" lon="4.71123">
        <ele>259.42792</ele>
        <time>2023-07-30T14:23:35.000Z</time>
      </trkpt>
      <trkpt lat="45.85743" lon="4.7112">
        <ele>259.72806</ele>
        <time>2023-07-30T14:23:36.000Z</time>
      </trkpt>
      <trkpt lat="45.85741" lon="4.71117">
        <ele>260.02899</ele>
        <time>2023-07-30T14:23:37.000Z</time>
      </trkpt>
      <trkpt lat="45.85738" lon="4.71115">
        <ele>260.36151</ele>
        <time>2023-07-30T14:23:38.000Z</time>
      </trkpt>
      <trkpt lat="45.85735" lon="4.71113">
        <ele>260.71216</ele>
        <time>2023-07-30T14:23:39.000Z</time>
      </trkpt>
      <trkpt lat="45.85732" lon="4.71111">
        <ele>261.05585</ele>
        <time>2023-07-30T14:23:40.000Z</time>
      </trkpt>
      <trkpt lat="45.8573" lon="4.71108">
        <ele>261.41531</ele>
        <time>2023-07-30T14:23:41.000Z</time>
      </trkpt>
      <trkpt lat="45.85727" lon="4.71106">
        <ele>261.77768</ele>
        <time>2023-07-30T14:23:42.000Z</time>
      </trkpt>
      <trkpt lat="45.85724" lon="4.71104">
        <ele>262.14966</ele>
        <time>2023-07-30T14:23:43.000Z</time>
      </trkpt>
      <trkpt lat="45.85722" lon="4.71102">
        <ele>262.54788</ele>
        <time>2023-07-30T14:23:44.000Z</time>
      </trkpt>
      <trkpt lat="45.85719" lon="4.71099">
        <ele>262.92407</ele>
        <time>2023-07-30T14:23:45.000Z</time>
      </trkpt>
      <trkpt lat="45.85716" lon="4.71096">
        <ele>263.26105</ele>
        <time>2023-07-30T14:23:46.000Z</time>
      </trkpt>
      <trkpt lat="45.85713" lon="4.71094">
        <ele>263.56656</ele>
        <time>2023-07-30T14:23:47.000Z</time>
      </trkpt>
      <trkpt lat="45.8571" lon="4.71091">
        <ele>263.90665</ele>
        <time>2023-07-30T14:23:48.000Z</time>
      </trkpt>
      <trkpt lat="45.85707" lon="4.71089">
        <ele>264.29126</ele>
        <time>2023-07-30T14:23:49.000Z</time>
      </trkpt>
      <trkpt lat="45.85704" lon="4.71087">
        <ele>265.60019</ele>
        <time>2023-07-30T14:23:50.000Z</time>
      </trkpt>
      <trkpt lat="45.85701" lon="4.71084">
        <ele>266.57709</ele>
        <time>2023-07-30T14:23:51.000Z</time>
      </trkpt>
      <trkpt lat="45.85698" lon="4.71082">
        <ele>267.56577</ele>
        <time>2023-07-30T14:23:52.000Z</time>
      </trkpt>
      <trkpt lat="45.85695" lon="4.7108">
        <ele>268.52661</ele>
        <time>2023-07-30T14:23:53.000Z</time>
      </trkpt>
      <trkpt lat="45.85693" lon="4.71078">
        <ele>269.88721</ele>
        <time>2023-07-30T14:23:54.000Z</time>
      </trkpt>
      <trkpt lat="45.8569" lon="4.71077">
        <ele>270.17432</ele>
        <time>2023-07-30T14:23:55.000Z</time>
      </trkpt>
      <trkpt lat="45.85687" lon="4.71074">
        <ele>270.43582</ele>
        <time>2023-07-30T14:23:56.000Z</time>
      </trkpt>
      <trkpt lat="45.85684" lon="4.71071">
        <ele>270.72464</ele>
        <time>2023-07-30T14:23:57.000Z</time>
      </trkpt>
      <trkpt lat="45.85681" lon="4.71069">
        <ele>271.02063</ele>
        <time>2023-07-30T14:23:58.000Z</time>
      </trkpt>
      <trkpt lat="45.85677" lon="4.71066">
        <ele>271.29163</ele>
        <time>2023-07-30T14:23:59.000Z</time>
      </trkpt>
      <trkpt lat="45.85674" lon="4.71063">
        <ele>271.56503</ele>
        <time>2023-07-30T14:24:00.000Z</time>
      </trkpt>
      <trkpt lat="45.8567" lon="4.7106">
        <ele>271.8035</ele>
        <time>2023-07-30T14:24:01.000Z</time>
      </trkpt>
      <trkpt lat="45.85667" lon="4.71058">
        <ele>272.0097</ele>
        <time>2023-07-30T14:24:02.000Z</time>
      </trkpt>
      <trkpt lat="45.85664" lon="4.71055">
        <ele>272.20587</ele>
        <time>2023-07-30T14:24:03.000Z</time>
      </trkpt>
      <trkpt lat="45.8566" lon="4.71053">
        <ele>272.37543</ele>
        <time>2023-07-30T14:24:04.000Z</time>
      </trkpt>
      <trkpt lat="45.85657" lon="4.71051">
        <ele>272.51385</ele>
        <time>2023-07-30T14:24:05.000Z</time>
      </trkpt>
      <trkpt lat="45.85654" lon="4.71049">
        <ele>272.58527</ele>
        <time>2023-07-30T14:24:06.000Z</time>
      </trkpt>
      <trkpt lat="45.8565" lon="4.71047">
        <ele>272.59335</ele>
        <time>2023-07-30T14:24:07.000Z</time>
      </trkpt>
      <trkpt lat="45.85647" lon="4.71045">
        <ele>272.5582</ele>
        <time>2023-07-30T14:24:08.000Z</time>
      </trkpt>
      <trkpt lat="45.85643" lon="4.71042">
        <ele>272.62183</ele>
        <time>2023-07-30T14:24:09.000Z</time>
      </trkpt>
      <trkpt lat="45.8564" lon="4.7104">
        <ele>271.65616</ele>
        <time>2023-07-30T14:24:10.000Z</time>
      </trkpt>
      <trkpt lat="45.85637" lon="4.71037">
        <ele>270.99115</ele>
        <time>2023-07-30T14:24:11.000Z</time>
      </trkpt>
      <trkpt lat="45.85633" lon="4.71033">
        <ele>270.28207</ele>
        <time>2023-07-30T14:24:12.000Z</time>
      </trkpt>
      <trkpt lat="45.8563" lon="4.71029">
        <ele>269.59027</ele>
        <time>2023-07-30T14:24:13.000Z</time>
      </trkpt>
      <trkpt lat="45.85627" lon="4.71026">
        <ele>268.47247</ele>
        <time>2023-07-30T14:24:14.000Z</time>
      </trkpt>
      <trkpt lat="45.85624" lon="4.71022">
        <ele>268.51468</ele>
        <time>2023-07-30T14:24:15.000Z</time>
      </trkpt>
      <trkpt lat="45.85621" lon="4.71018">
        <ele>268.59711</ele>
        <time>2023-07-30T14:24:16.000Z</time>
      </trkpt>
      <trkpt lat="45.85618" lon="4.71013">
        <ele>268.64764</ele>
        <time>2023-07-30T14:24:17.000Z</time>
      </trkpt>
      <trkpt lat="45.85615" lon="4.71009">
        <ele>268.67236</ele>
        <time>2023-07-30T14:24:18.000Z</time>
      </trkpt>
      <trkpt lat="45.85612" lon="4.71005">
        <ele>268.73889</ele>
        <time>2023-07-30T14:24:19.000Z</time>
      </trkpt>
      <trkpt lat="45.8561" lon="4.71001">
        <ele>268.80859</ele>
        <time>2023-07-30T14:24:20.000Z</time>
      </trkpt>
      <trkpt lat="45.85607" lon="4.70996">
        <ele>268.90027</ele>
        <time>2023-07-30T14:24:21.000Z</time>
      </trkpt>
      <trkpt lat="45.85605" lon="4.7099">
        <ele>269.01459</ele>
        <time>2023-07-30T14:24:22.000Z</time>
      </trkpt>
      <trkpt lat="45.85601" lon="4.70987">
        <ele>269.16293</ele>
        <time>2023-07-30T14:24:23.000Z</time>
      </trkpt>
      <trkpt lat="45.85597" lon="4.70983">
        <ele>269.23218</ele>
        <time>2023-07-30T14:24:24.000Z</time>
      </trkpt>
      <trkpt lat="45.85593" lon="4.70979">
        <ele>269.33328</ele>
        <time>2023-07-30T14:24:25.000Z</time>
      </trkpt>
      <trkpt lat="45.8559" lon="4.70976">
        <ele>269.40259</ele>
        <time>2023-07-30T14:24:26.000Z</time>
      </trkpt>
      <trkpt lat="45.85587" lon="4.70972">
        <ele>269.48578</ele>
        <time>2023-07-30T14:24:27.000Z</time>
      </trkpt>
      <trkpt lat="45.85583" lon="4.70969">
        <ele>269.57388</ele>
        <time>2023-07-30T14:24:28.000Z</time>
      </trkpt>
      <trkpt lat="45.8558" lon="4.70966">
        <ele>269.68207</ele>
        <time>2023-07-30T14:24:29.000Z</time>
      </trkpt>
      <trkpt lat="45.85576" lon="4.70962">
        <ele>269.84967</ele>
        <time>2023-07-30T14:24:30.000Z</time>
      </trkpt>
      <trkpt lat="45.85573" lon="4.70958">
        <ele>270.06451</ele>
        <time>2023-07-30T14:24:31.000Z</time>
      </trkpt>
      <trkpt lat="45.8557" lon="4.70954">
        <ele>270.28876</ele>
        <time>2023-07-30T14:24:32.000Z</time>
      </trkpt>
      <trkpt lat="45.85566" lon="4.70951">
        <ele>270.53836</ele>
        <time>2023-07-30T14:24:33.000Z</time>
      </trkpt>
      <trkpt lat="45.85563" lon="4.70948">
        <ele>270.78821</ele>
        <time>2023-07-30T14:24:34.000Z</time>
      </trkpt>
      <trkpt lat="45.85559" lon="4.70946">
        <ele>270.94232</ele>
        <time>2023-07-30T14:24:35.000Z</time>
      </trkpt>
      <trkpt lat="45.85555" lon="4.70943">
        <ele>271.0784</ele>
        <time>2023-07-30T14:24:36.000Z</time>
      </trkpt>
      <trkpt lat="45.85551" lon="4.70941">
        <ele>271.21686</ele>
        <time>2023-07-30T14:24:37.000Z</time>
      </trkpt>
      <trkpt lat="45.85547" lon="4.70939">
        <ele>271.34589</ele>
        <time>2023-07-30T14:24:38.000Z</time>
      </trkpt>
      <trkpt lat="45.85543" lon="4.70938">
        <ele>271.45541</ele>
        <time>2023-07-30T14:24:39.000Z</time>
      </trkpt>
      <trkpt lat="45.85538" lon="4.70936">
        <ele>271.56348</ele>
        <time>2023-07-30T14:24:40.000Z</time>
      </trkpt>
      <trkpt lat="45.85534" lon="4.70936">
        <ele>271.66296</ele>
        <time>2023-07-30T14:24:41.000Z</time>
      </trkpt>
      <trkpt lat="45.8553" lon="4.70936">
        <ele>271.75229</ele>
        <time>2023-07-30T14:24:42.000Z</time>
      </trkpt>
      <trkpt lat="45.85527" lon="4.70937">
        <ele>271.8197</ele>
        <time>2023-07-30T14:24:43.000Z</time>
      </trkpt>
      <trkpt lat="45.85523" lon="4.70937">
        <ele>271.97299</ele>
        <time>2023-07-30T14:24:44.000Z</time>
      </trkpt>
      <trkpt lat="45.85519" lon="4.70937">
        <ele>272.11108</ele>
        <time>2023-07-30T14:24:45.000Z</time>
      </trkpt>
      <trkpt lat="45.85516" lon="4.70935">
        <ele>272.25668</ele>
        <time>2023-07-30T14:24:46.000Z</time>
      </trkpt>
      <trkpt lat="45.85513" lon="4.70935">
        <ele>272.4082</ele>
        <time>2023-07-30T14:24:47.000Z</time>
      </trkpt>
      <trkpt lat="45.8551" lon="4.70935">
        <ele>273.42419</ele>
        <time>2023-07-30T14:24:48.000Z</time>
      </trkpt>
      <trkpt lat="45.85508" lon="4.70933">
        <ele>274.59335</ele>
        <time>2023-07-30T14:24:49.000Z</time>
      </trkpt>
      <trkpt lat="45.85505" lon="4.70933">
        <ele>275.25726</ele>
        <time>2023-07-30T14:24:50.000Z</time>
      </trkpt>
      <trkpt lat="45.85502" lon="4.70934">
        <ele>275.98517</ele>
        <time>2023-07-30T14:24:51.000Z</time>
      </trkpt>
      <trkpt lat="45.855" lon="4.70936">
        <ele>276.73627</ele>
        <time>2023-07-30T14:24:52.000Z</time>
      </trkpt>
      <trkpt lat="45.85498" lon="4.70939">
        <ele>277.44281</ele>
        <time>2023-07-30T14:24:53.000Z</time>
      </trkpt>
      <trkpt lat="45.85497" lon="4.70942">
        <ele>278.14957</ele>
        <time>2023-07-30T14:24:54.000Z</time>
      </trkpt>
      <trkpt lat="45.85497" lon="4.70946">
        <ele>278.85822</ele>
        <time>2023-07-30T14:24:55.000Z</time>
      </trkpt>
      <trkpt lat="45.85498" lon="4.7095">
        <ele>279.55338</ele>
        <time>2023-07-30T14:24:56.000Z</time>
      </trkpt>
      <trkpt lat="45.85498" lon="4.70953">
        <ele>280.24399</ele>
        <time>2023-07-30T14:24:57.000Z</time>
      </trkpt>
      <trkpt lat="45.85499" lon="4.70957">
        <ele>280.41321</ele>
        <time>2023-07-30T14:24:58.000Z</time>
      </trkpt>
      <trkpt lat="45.85499" lon="4.70961">
        <ele>280.58853</ele>
        <time>2023-07-30T14:24:59.000Z</time>
      </trkpt>
      <trkpt lat="45.85499" lon="4.70965">
        <ele>280.7074</ele>
        <time>2023-07-30T14:25:00.000Z</time>
      </trkpt>
      <trkpt lat="45.85499" lon="4.70969">
        <ele>280.87723</ele>
        <time>2023-07-30T14:25:01.000Z</time>
      </trkpt>
      <trkpt lat="45.85499" lon="4.70973">
        <ele>281.07684</ele>
        <time>2023-07-30T14:25:02.000Z</time>
      </trkpt>
      <trkpt lat="45.85499" lon="4.70977">
        <ele>281.30145</ele>
        <time>2023-07-30T14:25:03.000Z</time>
      </trkpt>
      <trkpt lat="45.85499" lon="4.70981">
        <ele>281.33698</ele>
        <time>2023-07-30T14:25:04.000Z</time>
      </trkpt>
      <trkpt lat="45.85499" lon="4.70986">
        <ele>281.2114</ele>
        <time>2023-07-30T14:25:05.000Z</time>
      </trkpt>
      <trkpt lat="45.85499" lon="4.70991">
        <ele>281.07593</ele>
        <time>2023-07-30T14:25:06.000Z</time>
      </trkpt>
      <trkpt lat="45.85498" lon="4.70996">
        <ele>280.91461</ele>
        <time>2023-07-30T14:25:07.000Z</time>
      </trkpt>
      <trkpt lat="45.85498" lon="4.71001">
        <ele>279.89813</ele>
        <time>2023-07-30T14:25:08.000Z</time>
      </trkpt>
      <trkpt lat="45.85498" lon="4.71005">
        <ele>278.72964</ele>
        <time>2023-07-30T14:25:09.000Z</time>
      </trkpt>
      <trkpt lat="45.85498" lon="4.71009">
        <ele>278.05023</ele>
        <time>2023-07-30T14:25:10.000Z</time>
      </trkpt>
      <trkpt lat="45.85498" lon="4.71011">
        <ele>277.25458</ele>
        <time>2023-07-30T14:25:11.000Z</time>
      </trkpt>
      <trkpt lat="45.85499" lon="4.71016">
        <ele>276.64795</ele>
        <time>2023-07-30T14:25:13.000Z</time>
      </trkpt>
      <trkpt lat="45.855" lon="4.71018">
        <ele>276.06305</ele>
        <time>2023-07-30T14:25:14.000Z</time>
      </trkpt>
      <trkpt lat="45.85502" lon="4.7102">
        <ele>275.98285</ele>
        <time>2023-07-30T14:25:15.000Z</time>
      </trkpt>
      <trkpt lat="45.85504" lon="4.71022">
        <ele>275.88913</ele>
        <time>2023-07-30T14:25:16.000Z</time>
      </trkpt>
      <trkpt lat="45.85506" lon="4.71023">
        <ele>275.80829</ele>
        <time>2023-07-30T14:25:17.000Z</time>
      </trkpt>
      <trkpt lat="45.85509" lon="4.71025">
        <ele>275.73596</ele>
        <time>2023-07-30T14:25:18.000Z</time>
      </trkpt>
      <trkpt lat="45.85511" lon="4.71028">
        <ele>276.17746</ele>
        <time>2023-07-30T14:25:19.000Z</time>
      </trkpt>
      <trkpt lat="45.85513" lon="4.7103">
        <ele>276.83051</ele>
        <time>2023-07-30T14:25:20.000Z</time>
      </trkpt>
      <trkpt lat="45.85515" lon="4.71033">
        <ele>277.69952</ele>
        <time>2023-07-30T14:25:21.000Z</time>
      </trkpt>
      <trkpt lat="45.85517" lon="4.71036">
        <ele>278.02631</ele>
        <time>2023-07-30T14:25:22.000Z</time>
      </trkpt>
      <trkpt lat="45.8552" lon="4.7104">
        <ele>278.41095</ele>
        <time>2023-07-30T14:25:23.000Z</time>
      </trkpt>
      <trkpt lat="45.85519" lon="4.71047">
        <ele>278.75967</ele>
        <time>2023-07-30T14:25:24.000Z</time>
      </trkpt>
      <trkpt lat="45.85519" lon="4.71054">
        <ele>279.27594</ele>
        <time>2023-07-30T14:25:25.000Z</time>
      </trkpt>
      <trkpt lat="45.8552" lon="4.7106">
        <ele>279.93597</ele>
        <time>2023-07-30T14:25:26.000Z</time>
      </trkpt>
      <trkpt lat="45.8552" lon="4.71066">
        <ele>280.60492</ele>
        <time>2023-07-30T14:25:27.000Z</time>
      </trkpt>
      <trkpt lat="45.8552" lon="4.71072">
        <ele>281.28116</ele>
        <time>2023-07-30T14:25:28.000Z</time>
      </trkpt>
      <trkpt lat="45.85519" lon="4.71077">
        <ele>281.97617</ele>
        <time>2023-07-30T14:25:29.000Z</time>
      </trkpt>
      <trkpt lat="45.85519" lon="4.71085">
        <ele>282.87845</ele>
        <time>2023-07-30T14:25:30.000Z</time>
      </trkpt>
      <trkpt lat="45.85518" lon="4.7109">
        <ele>283.95563</ele>
        <time>2023-07-30T14:25:31.000Z</time>
      </trkpt>
      <trkpt lat="45.85517" lon="4.71097">
        <ele>284.52777</ele>
        <time>2023-07-30T14:25:32.000Z</time>
      </trkpt>
      <trkpt lat="45.85519" lon="4.71102">
        <ele>285.00858</ele>
        <time>2023-07-30T14:25:33.000Z</time>
      </trkpt>
      <trkpt lat="45.85519" lon="4.71106">
        <ele>285.49399</ele>
        <time>2023-07-30T14:25:34.000Z</time>
      </trkpt>
      <trkpt lat="45.8552" lon="4.71112">
        <ele>285.48102</ele>
        <time>2023-07-30T14:25:35.000Z</time>
      </trkpt>
      <trkpt lat="45.8552" lon="4.71118">
        <ele>285.47437</ele>
        <time>2023-07-30T14:25:36.000Z</time>
      </trkpt>
      <trkpt lat="45.8552" lon="4.71124">
        <ele>285.37042</ele>
        <time>2023-07-30T14:25:37.000Z</time>
      </trkpt>
      <trkpt lat="45.8552" lon="4.71129">
        <ele>285.21625</ele>
        <time>2023-07-30T14:25:38.000Z</time>
      </trkpt>
      <trkpt lat="45.85519" lon="4.71134">
        <ele>285.07019</ele>
        <time>2023-07-30T14:25:39.000Z</time>
      </trkpt>
      <trkpt lat="45.85519" lon="4.71139">
        <ele>284.68787</ele>
        <time>2023-07-30T14:25:40.000Z</time>
      </trkpt>
      <trkpt lat="45.85518" lon="4.71143">
        <ele>284.1857</ele>
        <time>2023-07-30T14:25:41.000Z</time>
      </trkpt>
      <trkpt lat="45.85517" lon="4.71147">
        <ele>284.16547</ele>
        <time>2023-07-30T14:25:42.000Z</time>
      </trkpt>
      <trkpt lat="45.85516" lon="4.71151">
        <ele>284.02405</ele>
        <time>2023-07-30T14:25:43.000Z</time>
      </trkpt>
      <trkpt lat="45.85514" lon="4.71154">
        <ele>283.88669</ele>
        <time>2023-07-30T14:25:44.000Z</time>
      </trkpt>
      <trkpt lat="45.85513" lon="4.71158">
        <ele>283.74762</ele>
        <time>2023-07-30T14:25:45.000Z</time>
      </trkpt>
      <trkpt lat="45.85511" lon="4.71161">
        <ele>283.83627</ele>
        <time>2023-07-30T14:25:46.000Z</time>
      </trkpt>
      <trkpt lat="45.85509" lon="4.71166">
        <ele>283.88129</ele>
        <time>2023-07-30T14:25:47.000Z</time>
      </trkpt>
      <trkpt lat="45.85507" lon="4.7117">
        <ele>284.12183</ele>
        <time>2023-07-30T14:25:48.000Z</time>
      </trkpt>
      <trkpt lat="45.85505" lon="4.71172">
        <ele>283.77896</ele>
        <time>2023-07-30T14:25:49.000Z</time>
      </trkpt>
      <trkpt lat="45.85503" lon="4.71174">
        <ele>283.30914</ele>
        <time>2023-07-30T14:25:50.000Z</time>
      </trkpt>
      <trkpt lat="45.85501" lon="4.71176">
        <ele>282.59595</ele>
        <time>2023-07-30T14:25:51.000Z</time>
      </trkpt>
      <trkpt lat="45.85499" lon="4.71178">
        <ele>282.42548</ele>
        <time>2023-07-30T14:25:52.000Z</time>
      </trkpt>
      <trkpt lat="45.85497" lon="4.71181">
        <ele>282.36517</ele>
        <time>2023-07-30T14:25:53.000Z</time>
      </trkpt>
      <trkpt lat="45.85494" lon="4.71184">
        <ele>282.46378</ele>
        <time>2023-07-30T14:25:54.000Z</time>
      </trkpt>
      <trkpt lat="45.85492" lon="4.71186">
        <ele>281.97235</ele>
        <time>2023-07-30T14:25:55.000Z</time>
      </trkpt>
      <trkpt lat="45.8549" lon="4.71188">
        <ele>281.57767</ele>
        <time>2023-07-30T14:25:56.000Z</time>
      </trkpt>
      <trkpt lat="45.85489" lon="4.7119">
        <ele>281.26993</ele>
        <time>2023-07-30T14:25:57.000Z</time>
      </trkpt>
      <trkpt lat="45.85488" lon="4.71193">
        <ele>281.0022</ele>
        <time>2023-07-30T14:25:58.000Z</time>
      </trkpt>
      <trkpt lat="45.85487" lon="4.71195">
        <ele>280.74155</ele>
        <time>2023-07-30T14:25:59.000Z</time>
      </trkpt>
      <trkpt lat="45.85487" lon="4.71198">
        <ele>280.487</ele>
        <time>2023-07-30T14:26:00.000Z</time>
      </trkpt>
      <trkpt lat="45.85486" lon="4.71201">
        <ele>280.20529</ele>
        <time>2023-07-30T14:26:01.000Z</time>
      </trkpt>
      <trkpt lat="45.85486" lon="4.71205">
        <ele>279.88852</ele>
        <time>2023-07-30T14:26:02.000Z</time>
      </trkpt>
      <trkpt lat="45.85486" lon="4.71208">
        <ele>279.58496</ele>
        <time>2023-07-30T14:26:03.000Z</time>
      </trkpt>
      <trkpt lat="45.85486" lon="4.71211">
        <ele>279.28061</ele>
        <time>2023-07-30T14:26:04.000Z</time>
      </trkpt>
      <trkpt lat="45.85486" lon="4.71215">
        <ele>279.01239</ele>
        <time>2023-07-30T14:26:05.000Z</time>
      </trkpt>
      <trkpt lat="45.85485" lon="4.71219">
        <ele>278.51337</ele>
        <time>2023-07-30T14:26:06.000Z</time>
      </trkpt>
      <trkpt lat="45.85485" lon="4.71223">
        <ele>278.0415</ele>
        <time>2023-07-30T14:26:07.000Z</time>
      </trkpt>
      <trkpt lat="45.85484" lon="4.71226">
        <ele>277.39169</ele>
        <time>2023-07-30T14:26:08.000Z</time>
      </trkpt>
      <trkpt lat="45.85483" lon="4.71229">
        <ele>277.56287</ele>
        <time>2023-07-30T14:26:10.000Z</time>
      </trkpt>
      <trkpt lat="45.85482" lon="4.71233">
        <ele>277.39447</ele>
        <time>2023-07-30T14:26:49.000Z</time>
      </trkpt>
      <trkpt lat="45.85482" lon="4.71236">
        <ele>277.29239</ele>
        <time>2023-07-30T14:26:50.000Z</time>
      </trkpt>
      <trkpt lat="45.85482" lon="4.7124">
        <ele>277.15363</ele>
        <time>2023-07-30T14:26:51.000Z</time>
      </trkpt>
      <trkpt lat="45.85483" lon="4.71243">
        <ele>276.77719</ele>
        <time>2023-07-30T14:26:52.000Z</time>
      </trkpt>
      <trkpt lat="45.85483" lon="4.71247">
        <ele>276.20514</ele>
        <time>2023-07-30T14:26:53.000Z</time>
      </trkpt>
      <trkpt lat="45.85484" lon="4.71249">
        <ele>276.26065</ele>
        <time>2023-07-30T14:26:54.000Z</time>
      </trkpt>
      <trkpt lat="45.85486" lon="4.71252">
        <ele>276.19598</ele>
        <time>2023-07-30T14:26:56.000Z</time>
      </trkpt>
      <trkpt lat="45.85489" lon="4.71251">
        <ele>276.28754</ele>
        <time>2023-07-30T14:26:58.000Z</time>
      </trkpt>
      <trkpt lat="45.8549" lon="4.71249">
        <ele>276.62042</ele>
        <time>2023-07-30T14:27:03.000Z</time>
      </trkpt>
      <trkpt lat="45.85491" lon="4.71252">
        <ele>276.83041</ele>
        <time>2023-07-30T14:27:10.000Z</time>
      </trkpt>
      <trkpt lat="45.85494" lon="4.71255">
        <ele>277.34509</ele>
        <time>2023-07-30T14:27:31.000Z</time>
      </trkpt>
      <trkpt lat="45.85496" lon="4.71256">
        <ele>277.88196</ele>
        <time>2023-07-30T14:27:32.000Z</time>
      </trkpt>
      <trkpt lat="45.85499" lon="4.71258">
        <ele>278.55072</ele>
        <time>2023-07-30T14:27:34.000Z</time>
      </trkpt>
      <trkpt lat="45.85501" lon="4.7126">
        <ele>279.11597</ele>
        <time>2023-07-30T14:27:35.000Z</time>
      </trkpt>
      <trkpt lat="45.85504" lon="4.71262">
        <ele>279.65411</ele>
        <time>2023-07-30T14:27:36.000Z</time>
      </trkpt>
      <trkpt lat="45.85506" lon="4.71265">
        <ele>280.07098</ele>
        <time>2023-07-30T14:27:37.000Z</time>
      </trkpt>
      <trkpt lat="45.8551" lon="4.71266">
        <ele>280.32712</ele>
        <time>2023-07-30T14:27:38.000Z</time>
      </trkpt>
      <trkpt lat="45.85513" lon="4.71268">
        <ele>280.55624</ele>
        <time>2023-07-30T14:27:39.000Z</time>
      </trkpt>
      <trkpt lat="45.85517" lon="4.71269">
        <ele>280.66232</ele>
        <time>2023-07-30T14:27:40.000Z</time>
      </trkpt>
      <trkpt lat="45.8552" lon="4.7127">
        <ele>280.88083</ele>
        <time>2023-07-30T14:27:41.000Z</time>
      </trkpt>
      <trkpt lat="45.85524" lon="4.71271">
        <ele>281.49808</ele>
        <time>2023-07-30T14:27:42.000Z</time>
      </trkpt>
      <trkpt lat="45.85527" lon="4.71271">
        <ele>281.48477</ele>
        <time>2023-07-30T14:27:43.000Z</time>
      </trkpt>
      <trkpt lat="45.8553" lon="4.71271">
        <ele>281.6348</ele>
        <time>2023-07-30T14:27:44.000Z</time>
      </trkpt>
      <trkpt lat="45.85532" lon="4.7127">
        <ele>281.74448</ele>
        <time>2023-07-30T14:27:48.000Z</time>
      </trkpt>
      <trkpt lat="45.85535" lon="4.7127">
        <ele>281.86438</ele>
        <time>2023-07-30T14:28:00.000Z</time>
      </trkpt>
      <trkpt lat="45.85537" lon="4.7127">
        <ele>281.95453</ele>
        <time>2023-07-30T14:28:01.000Z</time>
      </trkpt>
      <trkpt lat="45.85539" lon="4.71271">
        <ele>282.07364</ele>
        <time>2023-07-30T14:28:02.000Z</time>
      </trkpt>
      <trkpt lat="45.85541" lon="4.71272">
        <ele>282.0162</ele>
        <time>2023-07-30T14:28:03.000Z</time>
      </trkpt>
      <trkpt lat="45.85543" lon="4.71273">
        <ele>281.71078</ele>
        <time>2023-07-30T14:28:04.000Z</time>
      </trkpt>
      <trkpt lat="45.85545" lon="4.71274">
        <ele>281.52765</ele>
        <time>2023-07-30T14:28:05.000Z</time>
      </trkpt>
      <trkpt lat="45.85547" lon="4.71275">
        <ele>281.05658</ele>
        <time>2023-07-30T14:28:06.000Z</time>
      </trkpt>
      <trkpt lat="45.8555" lon="4.71276">
        <ele>280.59442</ele>
        <time>2023-07-30T14:28:07.000Z</time>
      </trkpt>
      <trkpt lat="45.85553" lon="4.71277">
        <ele>280.04672</ele>
        <time>2023-07-30T14:28:08.000Z</time>
      </trkpt>
      <trkpt lat="45.85556" lon="4.71278">
        <ele>279.61395</ele>
        <time>2023-07-30T14:28:09.000Z</time>
      </trkpt>
      <trkpt lat="45.85559" lon="4.7128">
        <ele>279.21561</ele>
        <time>2023-07-30T14:28:10.000Z</time>
      </trkpt>
      <trkpt lat="45.85562" lon="4.71281">
        <ele>278.94281</ele>
        <time>2023-07-30T14:28:11.000Z</time>
      </trkpt>
      <trkpt lat="45.85564" lon="4.71282">
        <ele>278.88049</ele>
        <time>2023-07-30T14:28:12.000Z</time>
      </trkpt>
      <trkpt lat="45.85567" lon="4.71282">
        <ele>278.88739</ele>
        <time>2023-07-30T14:28:13.000Z</time>
      </trkpt>
      <trkpt lat="45.8557" lon="4.71282">
        <ele>279.02484</ele>
        <time>2023-07-30T14:28:14.000Z</time>
      </trkpt>
      <trkpt lat="45.85573" lon="4.71282">
        <ele>278.77335</ele>
        <time>2023-07-30T14:28:15.000Z</time>
      </trkpt>
      <trkpt lat="45.85576" lon="4.71283">
        <ele>278.6387</ele>
        <time>2023-07-30T14:28:16.000Z</time>
      </trkpt>
      <trkpt lat="45.85579" lon="4.71284">
        <ele>279.33911</ele>
        <time>2023-07-30T14:28:17.000Z</time>
      </trkpt>
      <trkpt lat="45.85582" lon="4.71285">
        <ele>279.3591</ele>
        <time>2023-07-30T14:28:18.000Z</time>
      </trkpt>
      <trkpt lat="45.85585" lon="4.71285">
        <ele>279.54633</ele>
        <time>2023-07-30T14:28:19.000Z</time>
      </trkpt>
      <trkpt lat="45.85588" lon="4.71285">
        <ele>279.74362</ele>
        <time>2023-07-30T14:28:20.000Z</time>
      </trkpt>
      <trkpt lat="45.85591" lon="4.71285">
        <ele>279.97223</ele>
        <time>2023-07-30T14:28:21.000Z</time>
      </trkpt>
      <trkpt lat="45.85594" lon="4.71285">
        <ele>280.23599</ele>
        <time>2023-07-30T14:28:22.000Z</time>
      </trkpt>
      <trkpt lat="45.85597" lon="4.71285">
        <ele>280.50662</ele>
        <time>2023-07-30T14:28:23.000Z</time>
      </trkpt>
      <trkpt lat="45.856" lon="4.71287">
        <ele>280.79022</ele>
        <time>2023-07-30T14:28:24.000Z</time>
      </trkpt>
      <trkpt lat="45.85603" lon="4.71289">
        <ele>281.08957</ele>
        <time>2023-07-30T14:28:25.000Z</time>
      </trkpt>
      <trkpt lat="45.85605" lon="4.71292">
        <ele>281.60468</ele>
        <time>2023-07-30T14:28:26.000Z</time>
      </trkpt>
      <trkpt lat="45.85606" lon="4.71297">
        <ele>282.24551</ele>
        <time>2023-07-30T14:28:27.000Z</time>
      </trkpt>
      <trkpt lat="45.85605" lon="4.71302">
        <ele>282.40485</ele>
        <time>2023-07-30T14:28:28.000Z</time>
      </trkpt>
      <trkpt lat="45.85604" lon="4.71306">
        <ele>282.66592</ele>
        <time>2023-07-30T14:28:29.000Z</time>
      </trkpt>
      <trkpt lat="45.85601" lon="4.7131">
        <ele>282.9281</ele>
        <time>2023-07-30T14:28:30.000Z</time>
      </trkpt>
      <trkpt lat="45.85598" lon="4.71313">
        <ele>283.19513</ele>
        <time>2023-07-30T14:28:31.000Z</time>
      </trkpt>
      <trkpt lat="45.85595" lon="4.71316">
        <ele>283.46494</ele>
        <time>2023-07-30T14:28:32.000Z</time>
      </trkpt>
      <trkpt lat="45.85592" lon="4.71319">
        <ele>283.70941</ele>
        <time>2023-07-30T14:28:33.000Z</time>
      </trkpt>
      <trkpt lat="45.8559" lon="4.71323">
        <ele>283.93726</ele>
        <time>2023-07-30T14:28:34.000Z</time>
      </trkpt>
      <trkpt lat="45.85587" lon="4.71326">
        <ele>284.17514</ele>
        <time>2023-07-30T14:28:35.000Z</time>
      </trkpt>
      <trkpt lat="45.85584" lon="4.71329">
        <ele>284.13937</ele>
        <time>2023-07-30T14:28:36.000Z</time>
      </trkpt>
      <trkpt lat="45.85581" lon="4.71331">
        <ele>283.92343</ele>
        <time>2023-07-30T14:28:37.000Z</time>
      </trkpt>
      <trkpt lat="45.85577" lon="4.71334">
        <ele>284.46982</ele>
        <time>2023-07-30T14:28:38.000Z</time>
      </trkpt>
      <trkpt lat="45.85574" lon="4.71335">
        <ele>285.08154</ele>
        <time>2023-07-30T14:28:39.000Z</time>
      </trkpt>
      <trkpt lat="45.85571" lon="4.71337">
        <ele>285.68378</ele>
        <time>2023-07-30T14:28:40.000Z</time>
      </trkpt>
      <trkpt lat="45.85567" lon="4.71338">
        <ele>285.74524</ele>
        <time>2023-07-30T14:28:41.000Z</time>
      </trkpt>
      <trkpt lat="45.85563" lon="4.7134">
        <ele>285.89548</ele>
        <time>2023-07-30T14:28:42.000Z</time>
      </trkpt>
      <trkpt lat="45.8556" lon="4.71342">
        <ele>286.061</ele>
        <time>2023-07-30T14:28:43.000Z</time>
      </trkpt>
      <trkpt lat="45.85556" lon="4.71344">
        <ele>286.24271</ele>
        <time>2023-07-30T14:28:44.000Z</time>
      </trkpt>
      <trkpt lat="45.85552" lon="4.71346">
        <ele>286.39886</ele>
        <time>2023-07-30T14:28:45.000Z</time>
      </trkpt>
      <trkpt lat="45.85547" lon="4.71348">
        <ele>286.34952</ele>
        <time>2023-07-30T14:28:46.000Z</time>
      </trkpt>
      <trkpt lat="45.85542" lon="4.7135">
        <ele>286.14178</ele>
        <time>2023-07-30T14:28:47.000Z</time>
      </trkpt>
      <trkpt lat="45.85537" lon="4.71351">
        <ele>286.45157</ele>
        <time>2023-07-30T14:28:48.000Z</time>
      </trkpt>
      <trkpt lat="45.85532" lon="4.71352">
        <ele>286.67709</ele>
        <time>2023-07-30T14:28:49.000Z</time>
      </trkpt>
      <trkpt lat="45.85527" lon="4.71353">
        <ele>286.92508</ele>
        <time>2023-07-30T14:28:50.000Z</time>
      </trkpt>
      <trkpt lat="45.85522" lon="4.71354">
        <ele>287.15488</ele>
        <time>2023-07-30T14:28:51.000Z</time>
      </trkpt>
      <trkpt lat="45.85517" lon="4.71355">
        <ele>287.36435</ele>
        <time>2023-07-30T14:28:52.000Z</time>
      </trkpt>
      <trkpt lat="45.85513" lon="4.71357">
        <ele>287.55496</ele>
        <time>2023-07-30T14:28:53.000Z</time>
      </trkpt>
      <trkpt lat="45.85508" lon="4.71357">
        <ele>287.76593</ele>
        <time>2023-07-30T14:28:54.000Z</time>
      </trkpt>
      <trkpt lat="45.85504" lon="4.71358">
        <ele>288.02142</ele>
        <time>2023-07-30T14:28:55.000Z</time>
      </trkpt>
      <trkpt lat="45.85499" lon="4.71359">
        <ele>288.29556</ele>
        <time>2023-07-30T14:28:56.000Z</time>
      </trkpt>
      <trkpt lat="45.85494" lon="4.71361">
        <ele>288.54184</ele>
        <time>2023-07-30T14:28:57.000Z</time>
      </trkpt>
      <trkpt lat="45.8549" lon="4.71362">
        <ele>288.58746</ele>
        <time>2023-07-30T14:28:58.000Z</time>
      </trkpt>
      <trkpt lat="45.85486" lon="4.71364">
        <ele>288.47534</ele>
        <time>2023-07-30T14:28:59.000Z</time>
      </trkpt>
      <trkpt lat="45.85481" lon="4.71365">
        <ele>288.40741</ele>
        <time>2023-07-30T14:29:00.000Z</time>
      </trkpt>
      <trkpt lat="45.85477" lon="4.71368">
        <ele>288.85696</ele>
        <time>2023-07-30T14:29:01.000Z</time>
      </trkpt>
      <trkpt lat="45.85473" lon="4.71371">
        <ele>289.2063</ele>
        <time>2023-07-30T14:29:02.000Z</time>
      </trkpt>
      <trkpt lat="45.85469" lon="4.71374">
        <ele>289.56378</ele>
        <time>2023-07-30T14:29:03.000Z</time>
      </trkpt>
      <trkpt lat="45.85464" lon="4.71376">
        <ele>289.9118</ele>
        <time>2023-07-30T14:29:04.000Z</time>
      </trkpt>
      <trkpt lat="45.8546" lon="4.71378">
        <ele>290.28036</ele>
        <time>2023-07-30T14:29:05.000Z</time>
      </trkpt>
      <trkpt lat="45.85456" lon="4.71381">
        <ele>290.65292</ele>
        <time>2023-07-30T14:29:06.000Z</time>
      </trkpt>
      <trkpt lat="45.85453" lon="4.71384">
        <ele>291.02081</ele>
        <time>2023-07-30T14:29:07.000Z</time>
      </trkpt>
      <trkpt lat="45.85448" lon="4.71388">
        <ele>291.34027</ele>
        <time>2023-07-30T14:29:08.000Z</time>
      </trkpt>
      <trkpt lat="45.85444" lon="4.71391">
        <ele>291.64618</ele>
        <time>2023-07-30T14:29:09.000Z</time>
      </trkpt>
      <trkpt lat="45.8544" lon="4.71394">
        <ele>291.94244</ele>
        <time>2023-07-30T14:29:10.000Z</time>
      </trkpt>
      <trkpt lat="45.85436" lon="4.71397">
        <ele>292.242</ele>
        <time>2023-07-30T14:29:11.000Z</time>
      </trkpt>
      <trkpt lat="45.85432" lon="4.714">
        <ele>292.54718</ele>
        <time>2023-07-30T14:29:12.000Z</time>
      </trkpt>
      <trkpt lat="45.85429" lon="4.71404">
        <ele>292.86945</ele>
        <time>2023-07-30T14:29:13.000Z</time>
      </trkpt>
      <trkpt lat="45.85425" lon="4.71407">
        <ele>293.18179</ele>
        <time>2023-07-30T14:29:14.000Z</time>
      </trkpt>
      <trkpt lat="45.85422" lon="4.71411">
        <ele>293.47989</ele>
        <time>2023-07-30T14:29:15.000Z</time>
      </trkpt>
      <trkpt lat="45.85417" lon="4.71413">
        <ele>293.75269</ele>
        <time>2023-07-30T14:29:16.000Z</time>
      </trkpt>
      <trkpt lat="45.85413" lon="4.71416">
        <ele>294.01819</ele>
        <time>2023-07-30T14:29:17.000Z</time>
      </trkpt>
      <trkpt lat="45.8541" lon="4.71419">
        <ele>294.25626</ele>
        <time>2023-07-30T14:29:18.000Z</time>
      </trkpt>
      <trkpt lat="45.85406" lon="4.71423">
        <ele>294.49213</ele>
        <time>2023-07-30T14:29:19.000Z</time>
      </trkpt>
      <trkpt lat="45.85402" lon="4.71426">
        <ele>294.70761</ele>
        <time>2023-07-30T14:29:20.000Z</time>
      </trkpt>
      <trkpt lat="45.85399" lon="4.71431">
        <ele>294.88556</ele>
        <time>2023-07-30T14:29:21.000Z</time>
      </trkpt>
      <trkpt lat="45.85395" lon="4.71435">
        <ele>295.04449</ele>
        <time>2023-07-30T14:29:22.000Z</time>
      </trkpt>
      <trkpt lat="45.85391" lon="4.71439">
        <ele>295.19208</ele>
        <time>2023-07-30T14:29:23.000Z</time>
      </trkpt>
      <trkpt lat="45.85386" lon="4.71442">
        <ele>295.31702</ele>
        <time>2023-07-30T14:29:24.000Z</time>
      </trkpt>
      <trkpt lat="45.85382" lon="4.71445">
        <ele>295.41815</ele>
        <time>2023-07-30T14:29:25.000Z</time>
      </trkpt>
      <trkpt lat="45.85378" lon="4.71448">
        <ele>295.52127</ele>
        <time>2023-07-30T14:29:26.000Z</time>
      </trkpt>
      <trkpt lat="45.85374" lon="4.71452">
        <ele>295.61157</ele>
        <time>2023-07-30T14:29:27.000Z</time>
      </trkpt>
      <trkpt lat="45.85371" lon="4.71456">
        <ele>295.88086</ele>
        <time>2023-07-30T14:29:28.000Z</time>
      </trkpt>
      <trkpt lat="45.85368" lon="4.71459">
        <ele>296.26617</ele>
        <time>2023-07-30T14:29:29.000Z</time>
      </trkpt>
      <trkpt lat="45.85365" lon="4.71462">
        <ele>296.66449</ele>
        <time>2023-07-30T14:29:30.000Z</time>
      </trkpt>
      <trkpt lat="45.85362" lon="4.71465">
        <ele>296.7269</ele>
        <time>2023-07-30T14:29:31.000Z</time>
      </trkpt>
      <trkpt lat="45.85359" lon="4.71468">
        <ele>296.82404</ele>
        <time>2023-07-30T14:29:32.000Z</time>
      </trkpt>
      <trkpt lat="45.85356" lon="4.71471">
        <ele>296.92044</ele>
        <time>2023-07-30T14:29:33.000Z</time>
      </trkpt>
      <trkpt lat="45.85354" lon="4.71474">
        <ele>296.99927</ele>
        <time>2023-07-30T14:29:34.000Z</time>
      </trkpt>
      <trkpt lat="45.85352" lon="4.71476">
        <ele>297.09158</ele>
        <time>2023-07-30T14:29:35.000Z</time>
      </trkpt>
      <trkpt lat="45.8535" lon="4.71478">
        <ele>297.19589</ele>
        <time>2023-07-30T14:29:36.000Z</time>
      </trkpt>
      <trkpt lat="45.85348" lon="4.71479">
        <ele>297.29919</ele>
        <time>2023-07-30T14:29:37.000Z</time>
      </trkpt>
      <trkpt lat="45.85346" lon="4.7148">
        <ele>297.49716</ele>
        <time>2023-07-30T14:29:44.000Z</time>
      </trkpt>
      <trkpt lat="45.85344" lon="4.71483">
        <ele>297.69315</ele>
        <time>2023-07-30T14:29:56.000Z</time>
      </trkpt>
      <trkpt lat="45.85341" lon="4.71486">
        <ele>297.88751</ele>
        <time>2023-07-30T14:29:58.000Z</time>
      </trkpt>
      <trkpt lat="45.85339" lon="4.71489">
        <ele>298.21466</ele>
        <time>2023-07-30T14:30:00.000Z</time>
      </trkpt>
      <trkpt lat="45.85336" lon="4.71491">
        <ele>298.65927</ele>
        <time>2023-07-30T14:30:02.000Z</time>
      </trkpt>
      <trkpt lat="45.85334" lon="4.71492">
        <ele>298.79895</ele>
        <time>2023-07-30T14:30:03.000Z</time>
      </trkpt>
      <trkpt lat="45.85331" lon="4.71494">
        <ele>299.00995</ele>
        <time>2023-07-30T14:30:05.000Z</time>
      </trkpt>
      <trkpt lat="45.85328" lon="4.71496">
        <ele>299.22662</ele>
        <time>2023-07-30T14:30:07.000Z</time>
      </trkpt>
      <trkpt lat="45.85325" lon="4.71499">
        <ele>299.42575</ele>
        <time>2023-07-30T14:30:09.000Z</time>
      </trkpt>
      <trkpt lat="45.85323" lon="4.715">
        <ele>299.6362</ele>
        <time>2023-07-30T14:30:10.000Z</time>
      </trkpt>
      <trkpt lat="45.85321" lon="4.71502">
        <ele>299.66751</ele>
        <time>2023-07-30T14:30:11.000Z</time>
      </trkpt>
      <trkpt lat="45.85319" lon="4.71504">
        <ele>299.60025</ele>
        <time>2023-07-30T14:30:12.000Z</time>
      </trkpt>
      <trkpt lat="45.85317" lon="4.71506">
        <ele>299.50888</ele>
        <time>2023-07-30T14:30:13.000Z</time>
      </trkpt>
      <trkpt lat="45.85315" lon="4.71508">
        <ele>299.76144</ele>
        <time>2023-07-30T14:30:14.000Z</time>
      </trkpt>
      <trkpt lat="45.85313" lon="4.7151">
        <ele>299.95313</ele>
        <time>2023-07-30T14:30:15.000Z</time>
      </trkpt>
      <trkpt lat="45.85312" lon="4.71512">
        <ele>300.15106</ele>
        <time>2023-07-30T14:30:16.000Z</time>
      </trkpt>
      <trkpt lat="45.8531" lon="4.71515">
        <ele>300.35321</ele>
        <time>2023-07-30T14:30:17.000Z</time>
      </trkpt>
      <trkpt lat="45.85308" lon="4.71517">
        <ele>300.53809</ele>
        <time>2023-07-30T14:30:18.000Z</time>
      </trkpt>
      <trkpt lat="45.85306" lon="4.71519">
        <ele>300.73273</ele>
        <time>2023-07-30T14:30:19.000Z</time>
      </trkpt>
      <trkpt lat="45.85304" lon="4.7152">
        <ele>300.94232</ele>
        <time>2023-07-30T14:30:20.000Z</time>
      </trkpt>
      <trkpt lat="45.85301" lon="4.71522">
        <ele>301.05191</ele>
        <time>2023-07-30T14:30:21.000Z</time>
      </trkpt>
      <trkpt lat="45.85299" lon="4.71525">
        <ele>301.13275</ele>
        <time>2023-07-30T14:30:22.000Z</time>
      </trkpt>
      <trkpt lat="45.85297" lon="4.71527">
        <ele>301.21576</ele>
        <time>2023-07-30T14:30:23.000Z</time>
      </trkpt>
      <trkpt lat="45.85295" lon="4.71529">
        <ele>301.20016</ele>
        <time>2023-07-30T14:30:24.000Z</time>
      </trkpt>
      <trkpt lat="45.85292" lon="4.71532">
        <ele>301.06485</ele>
        <time>2023-07-30T14:30:25.000Z</time>
      </trkpt>
      <trkpt lat="45.85289" lon="4.71534">
        <ele>301.2226</ele>
        <time>2023-07-30T14:30:26.000Z</time>
      </trkpt>
      <trkpt lat="45.85286" lon="4.71536">
        <ele>301.32626</ele>
        <time>2023-07-30T14:30:27.000Z</time>
      </trkpt>
      <trkpt lat="45.85283" lon="4.71538">
        <ele>301.42377</ele>
        <time>2023-07-30T14:30:28.000Z</time>
      </trkpt>
      <trkpt lat="45.85279" lon="4.71539">
        <ele>301.49634</ele>
        <time>2023-07-30T14:30:29.000Z</time>
      </trkpt>
      <trkpt lat="45.85276" lon="4.71541">
        <ele>301.57492</ele>
        <time>2023-07-30T14:30:30.000Z</time>
      </trkpt>
      <trkpt lat="45.85272" lon="4.71543">
        <ele>301.67657</ele>
        <time>2023-07-30T14:30:31.000Z</time>
      </trkpt>
      <trkpt lat="45.85269" lon="4.71545">
        <ele>301.75354</ele>
        <time>2023-07-30T14:30:32.000Z</time>
      </trkpt>
      <trkpt lat="45.85265" lon="4.71546">
        <ele>301.84344</ele>
        <time>2023-07-30T14:30:33.000Z</time>
      </trkpt>
      <trkpt lat="45.85261" lon="4.71548">
        <ele>301.92987</ele>
        <time>2023-07-30T14:30:34.000Z</time>
      </trkpt>
      <trkpt lat="45.85257" lon="4.7155">
        <ele>302.02887</ele>
        <time>2023-07-30T14:30:35.000Z</time>
      </trkpt>
      <trkpt lat="45.85253" lon="4.71552">
        <ele>302.11761</ele>
        <time>2023-07-30T14:30:36.000Z</time>
      </trkpt>
      <trkpt lat="45.85249" lon="4.71554">
        <ele>302.18286</ele>
        <time>2023-07-30T14:30:37.000Z</time>
      </trkpt>
      <trkpt lat="45.85244" lon="4.71556">
        <ele>301.34457</ele>
        <time>2023-07-30T14:30:38.000Z</time>
      </trkpt>
      <trkpt lat="45.85239" lon="4.71559">
        <ele>300.6568</ele>
        <time>2023-07-30T14:30:39.000Z</time>
      </trkpt>
      <trkpt lat="45.85235" lon="4.7156">
        <ele>301.1568</ele>
        <time>2023-07-30T14:30:40.000Z</time>
      </trkpt>
      <trkpt lat="45.8523" lon="4.71563">
        <ele>301.67255</ele>
        <time>2023-07-30T14:30:41.000Z</time>
      </trkpt>
      <trkpt lat="45.85224" lon="4.71565">
        <ele>302.18744</ele>
        <time>2023-07-30T14:30:42.000Z</time>
      </trkpt>
      <trkpt lat="45.85219" lon="4.71568">
        <ele>302.71231</ele>
        <time>2023-07-30T14:30:43.000Z</time>
      </trkpt>
      <trkpt lat="45.85213" lon="4.71571">
        <ele>303.21402</ele>
        <time>2023-07-30T14:30:44.000Z</time>
      </trkpt>
      <trkpt lat="45.85208" lon="4.71572">
        <ele>303.76111</ele>
        <time>2023-07-30T14:30:45.000Z</time>
      </trkpt>
      <trkpt lat="45.85204" lon="4.71575">
        <ele>304.30753</ele>
        <time>2023-07-30T14:30:46.000Z</time>
      </trkpt>
      <trkpt lat="45.85199" lon="4.71578">
        <ele>305.12674</ele>
        <time>2023-07-30T14:30:47.000Z</time>
      </trkpt>
      <trkpt lat="45.85194" lon="4.71579">
        <ele>305.97256</ele>
        <time>2023-07-30T14:30:48.000Z</time>
      </trkpt>
      <trkpt lat="45.85189" lon="4.71581">
        <ele>306.84821</ele>
        <time>2023-07-30T14:30:49.000Z</time>
      </trkpt>
      <trkpt lat="45.85184" lon="4.71584">
        <ele>307.71777</ele>
        <time>2023-07-30T14:30:50.000Z</time>
      </trkpt>
      <trkpt lat="45.85178" lon="4.71585">
        <ele>308.5582</ele>
        <time>2023-07-30T14:30:51.000Z</time>
      </trkpt>
      <trkpt lat="45.85173" lon="4.71588">
        <ele>309.40326</ele>
        <time>2023-07-30T14:30:52.000Z</time>
      </trkpt>
      <trkpt lat="45.85168" lon="4.7159">
        <ele>310.23071</ele>
        <time>2023-07-30T14:30:53.000Z</time>
      </trkpt>
      <trkpt lat="45.85164" lon="4.71593">
        <ele>311.0162</ele>
        <time>2023-07-30T14:30:54.000Z</time>
      </trkpt>
      <trkpt lat="45.85159" lon="4.71594">
        <ele>311.76398</ele>
        <time>2023-07-30T14:30:55.000Z</time>
      </trkpt>
      <trkpt lat="45.85154" lon="4.71595">
        <ele>312.51474</ele>
        <time>2023-07-30T14:30:56.000Z</time>
      </trkpt>
      <trkpt lat="45.8515" lon="4.71595">
        <ele>313.28186</ele>
        <time>2023-07-30T14:30:57.000Z</time>
      </trkpt>
      <trkpt lat="45.85146" lon="4.71595">
        <ele>314.9541</ele>
        <time>2023-07-30T14:30:58.000Z</time>
      </trkpt>
      <trkpt lat="45.85142" lon="4.71595">
        <ele>315.93375</ele>
        <time>2023-07-30T14:30:59.000Z</time>
      </trkpt>
      <trkpt lat="45.85139" lon="4.71596">
        <ele>315.93878</ele>
        <time>2023-07-30T14:31:00.000Z</time>
      </trkpt>
      <trkpt lat="45.85137" lon="4.71599">
        <ele>315.76385</ele>
        <time>2023-07-30T14:31:01.000Z</time>
      </trkpt>
      <trkpt lat="45.85135" lon="4.716">
        <ele>315.59341</ele>
        <time>2023-07-30T14:31:02.000Z</time>
      </trkpt>
      <trkpt lat="45.85133" lon="4.71603">
        <ele>315.41806</ele>
        <time>2023-07-30T14:31:03.000Z</time>
      </trkpt>
      <trkpt lat="45.85132" lon="4.71605">
        <ele>315.24753</ele>
        <time>2023-07-30T14:31:04.000Z</time>
      </trkpt>
      <trkpt lat="45.85129" lon="4.71606">
        <ele>315.01105</ele>
        <time>2023-07-30T14:31:06.000Z</time>
      </trkpt>
      <trkpt lat="45.85127" lon="4.71606">
        <ele>314.80054</ele>
        <time>2023-07-30T14:31:08.000Z</time>
      </trkpt>
      <trkpt lat="45.85127" lon="4.71606">
        <ele>314.80054</ele>
        <time>2023-07-30T14:31:08.000Z</time>
      </trkpt>
      <trkpt lat="45.85125" lon="4.71604">
        <ele>314.5163</ele>
        <time>2023-07-30T14:38:48.000Z</time>
      </trkpt>
      <trkpt lat="45.85125" lon="4.71604">
        <ele>314.5163</ele>
        <time>2023-07-30T14:38:48.000Z</time>
      </trkpt>
      <trkpt lat="45.85125" lon="4.71599">
        <ele>314.2186</ele>
        <time>2023-07-30T14:38:50.000Z</time>
      </trkpt>
      <trkpt lat="45.85122" lon="4.71596">
        <ele>313.90594</ele>
        <time>2023-07-30T14:38:51.000Z</time>
      </trkpt>
      <trkpt lat="45.85119" lon="4.71595">
        <ele>313.57819</ele>
        <time>2023-07-30T14:38:52.000Z</time>
      </trkpt>
      <trkpt lat="45.85117" lon="4.71595">
        <ele>313.28333</ele>
        <time>2023-07-30T14:38:53.000Z</time>
      </trkpt>
      <trkpt lat="45.85114" lon="4.71596">
        <ele>312.99774</ele>
        <time>2023-07-30T14:38:54.000Z</time>
      </trkpt>
      <trkpt lat="45.85111" lon="4.71599">
        <ele>311.63269</ele>
        <time>2023-07-30T14:38:55.000Z</time>
      </trkpt>
      <trkpt lat="45.85109" lon="4.71601">
        <ele>310.28802</ele>
        <time>2023-07-30T14:38:56.000Z</time>
      </trkpt>
      <trkpt lat="45.85106" lon="4.71604">
        <ele>309.00946</ele>
        <time>2023-07-30T14:38:57.000Z</time>
      </trkpt>
      <trkpt lat="45.85103" lon="4.71607">
        <ele>307.74091</ele>
        <time>2023-07-30T14:38:58.000Z</time>
      </trkpt>
      <trkpt lat="45.851" lon="4.7161">
        <ele>306.49899</ele>
        <time>2023-07-30T14:38:59.000Z</time>
      </trkpt>
      <trkpt lat="45.85098" lon="4.71612">
        <ele>305.25543</ele>
        <time>2023-07-30T14:39:00.000Z</time>
      </trkpt>
      <trkpt lat="45.85095" lon="4.71615">
        <ele>304.51822</ele>
        <time>2023-07-30T14:39:01.000Z</time>
      </trkpt>
      <trkpt lat="45.85092" lon="4.71617">
        <ele>303.57104</ele>
        <time>2023-07-30T14:39:02.000Z</time>
      </trkpt>
      <trkpt lat="45.85089" lon="4.71619">
        <ele>302.76712</ele>
        <time>2023-07-30T14:39:03.000Z</time>
      </trkpt>
      <trkpt lat="45.85085" lon="4.71622">
        <ele>301.96451</ele>
        <time>2023-07-30T14:39:04.000Z</time>
      </trkpt>
      <trkpt lat="45.85082" lon="4.71624">
        <ele>301.15881</ele>
        <time>2023-07-30T14:39:05.000Z</time>
      </trkpt>
      <trkpt lat="45.85079" lon="4.71626">
        <ele>300.36102</ele>
        <time>2023-07-30T14:39:06.000Z</time>
      </trkpt>
      <trkpt lat="45.85076" lon="4.71627">
        <ele>299.61896</ele>
        <time>2023-07-30T14:39:07.000Z</time>
      </trkpt>
      <trkpt lat="45.85072" lon="4.71629">
        <ele>298.86533</ele>
        <time>2023-07-30T14:39:08.000Z</time>
      </trkpt>
      <trkpt lat="45.85069" lon="4.7163">
        <ele>297.90143</ele>
        <time>2023-07-30T14:39:09.000Z</time>
      </trkpt>
      <trkpt lat="45.85065" lon="4.71632">
        <ele>296.92389</ele>
        <time>2023-07-30T14:39:10.000Z</time>
      </trkpt>
      <trkpt lat="45.85061" lon="4.71634">
        <ele>295.94211</ele>
        <time>2023-07-30T14:39:11.000Z</time>
      </trkpt>
      <trkpt lat="45.85058" lon="4.71636">
        <ele>295.00653</ele>
        <time>2023-07-30T14:39:12.000Z</time>
      </trkpt>
      <trkpt lat="45.85054" lon="4.71638">
        <ele>294.05548</ele>
        <time>2023-07-30T14:39:13.000Z</time>
      </trkpt>
      <trkpt lat="45.8505" lon="4.7164">
        <ele>293.07166</ele>
        <time>2023-07-30T14:39:14.000Z</time>
      </trkpt>
      <trkpt lat="45.85046" lon="4.71642">
        <ele>293.17715</ele>
        <time>2023-07-30T14:39:15.000Z</time>
      </trkpt>
      <trkpt lat="45.85042" lon="4.71644">
        <ele>293.29816</ele>
        <time>2023-07-30T14:39:16.000Z</time>
      </trkpt>
      <trkpt lat="45.85038" lon="4.71646">
        <ele>293.40591</ele>
        <time>2023-07-30T14:39:17.000Z</time>
      </trkpt>
      <trkpt lat="45.85034" lon="4.71648">
        <ele>293.51285</ele>
        <time>2023-07-30T14:39:18.000Z</time>
      </trkpt>
      <trkpt lat="45.85031" lon="4.71649">
        <ele>293.62283</ele>
        <time>2023-07-30T14:39:19.000Z</time>
      </trkpt>
      <trkpt lat="45.85027" lon="4.71651">
        <ele>293.72986</ele>
        <time>2023-07-30T14:39:20.000Z</time>
      </trkpt>
      <trkpt lat="45.85024" lon="4.71653">
        <ele>293.89236</ele>
        <time>2023-07-30T14:39:21.000Z</time>
      </trkpt>
      <trkpt lat="45.8502" lon="4.71654">
        <ele>294.02554</ele>
        <time>2023-07-30T14:39:22.000Z</time>
      </trkpt>
      <trkpt lat="45.85016" lon="4.71656">
        <ele>294.16159</ele>
        <time>2023-07-30T14:39:23.000Z</time>
      </trkpt>
      <trkpt lat="45.85013" lon="4.71658">
        <ele>294.30829</ele>
        <time>2023-07-30T14:39:24.000Z</time>
      </trkpt>
      <trkpt lat="45.8501" lon="4.7166">
        <ele>294.44531</ele>
        <time>2023-07-30T14:39:25.000Z</time>
      </trkpt>
      <trkpt lat="45.85006" lon="4.71661">
        <ele>294.61166</ele>
        <time>2023-07-30T14:39:26.000Z</time>
      </trkpt>
      <trkpt lat="45.85002" lon="4.71663">
        <ele>294.75293</ele>
        <time>2023-07-30T14:39:27.000Z</time>
      </trkpt>
      <trkpt lat="45.84999" lon="4.71664">
        <ele>294.82001</ele>
        <time>2023-07-30T14:39:28.000Z</time>
      </trkpt>
      <trkpt lat="45.84995" lon="4.71666">
        <ele>294.90521</ele>
        <time>2023-07-30T14:39:29.000Z</time>
      </trkpt>
      <trkpt lat="45.84992" lon="4.71668">
        <ele>294.96289</ele>
        <time>2023-07-30T14:39:30.000Z</time>
      </trkpt>
      <trkpt lat="45.84988" lon="4.71669">
        <ele>295.02545</ele>
        <time>2023-07-30T14:39:31.000Z</time>
      </trkpt>
      <trkpt lat="45.84985" lon="4.7167">
        <ele>295.07031</ele>
        <time>2023-07-30T14:39:32.000Z</time>
      </trkpt>
      <trkpt lat="45.84981" lon="4.71671">
        <ele>295.11713</ele>
        <time>2023-07-30T14:39:33.000Z</time>
      </trkpt>
      <trkpt lat="45.84977" lon="4.71672">
        <ele>295.18927</ele>
        <time>2023-07-30T14:39:34.000Z</time>
      </trkpt>
      <trkpt lat="45.84974" lon="4.71672">
        <ele>295.25766</ele>
        <time>2023-07-30T14:39:35.000Z</time>
      </trkpt>
      <trkpt lat="45.84971" lon="4.71673">
        <ele>295.34271</ele>
        <time>2023-07-30T14:39:36.000Z</time>
      </trkpt>
      <trkpt lat="45.84967" lon="4.71673">
        <ele>294.61646</ele>
        <time>2023-07-30T14:39:37.000Z</time>
      </trkpt>
      <trkpt lat="45.84964" lon="4.71673">
        <ele>293.89838</ele>
        <time>2023-07-30T14:39:38.000Z</time>
      </trkpt>
      <trkpt lat="45.8496" lon="4.71673">
        <ele>293.01221</ele>
        <time>2023-07-30T14:39:39.000Z</time>
      </trkpt>
      <trkpt lat="45.84957" lon="4.71672">
        <ele>292.13367</ele>
        <time>2023-07-30T14:39:40.000Z</time>
      </trkpt>
      <trkpt lat="45.84953" lon="4.71671">
        <ele>291.22949</ele>
        <time>2023-07-30T14:39:41.000Z</time>
      </trkpt>
      <trkpt lat="45.8495" lon="4.71671">
        <ele>290.85492</ele>
        <time>2023-07-30T14:39:42.000Z</time>
      </trkpt>
      <trkpt lat="45.84946" lon="4.71669">
        <ele>290.40649</ele>
        <time>2023-07-30T14:39:43.000Z</time>
      </trkpt>
      <trkpt lat="45.84943" lon="4.71668">
        <ele>289.95404</ele>
        <time>2023-07-30T14:39:44.000Z</time>
      </trkpt>
      <trkpt lat="45.84939" lon="4.71666">
        <ele>289.49774</ele>
        <time>2023-07-30T14:39:45.000Z</time>
      </trkpt>
      <trkpt lat="45.84936" lon="4.71665">
        <ele>288.98492</ele>
        <time>2023-07-30T14:39:46.000Z</time>
      </trkpt>
      <trkpt lat="45.84932" lon="4.71665">
        <ele>288.48706</ele>
        <time>2023-07-30T14:39:47.000Z</time>
      </trkpt>
      <trkpt lat="45.84928" lon="4.71665">
        <ele>288.06711</ele>
        <time>2023-07-30T14:39:48.000Z</time>
      </trkpt>
      <trkpt lat="45.84924" lon="4.71665">
        <ele>287.61841</ele>
        <time>2023-07-30T14:39:49.000Z</time>
      </trkpt>
      <trkpt lat="45.8492" lon="4.71666">
        <ele>287.76788</ele>
        <time>2023-07-30T14:39:50.000Z</time>
      </trkpt>
      <trkpt lat="45.84917" lon="4.71667">
        <ele>287.93887</ele>
        <time>2023-07-30T14:39:51.000Z</time>
      </trkpt>
      <trkpt lat="45.84913" lon="4.71668">
        <ele>288.09369</ele>
        <time>2023-07-30T14:39:52.000Z</time>
      </trkpt>
      <trkpt lat="45.84909" lon="4.71669">
        <ele>288.23151</ele>
        <time>2023-07-30T14:39:53.000Z</time>
      </trkpt>
      <trkpt lat="45.84905" lon="4.71669">
        <ele>288.37042</ele>
        <time>2023-07-30T14:39:54.000Z</time>
      </trkpt>
      <trkpt lat="45.84901" lon="4.71669">
        <ele>288.51837</ele>
        <time>2023-07-30T14:39:55.000Z</time>
      </trkpt>
      <trkpt lat="45.84897" lon="4.7167">
        <ele>288.63782</ele>
        <time>2023-07-30T14:39:56.000Z</time>
      </trkpt>
      <trkpt lat="45.84893" lon="4.7167">
        <ele>289.55615</ele>
        <time>2023-07-30T14:39:57.000Z</time>
      </trkpt>
      <trkpt lat="45.8489" lon="4.71671">
        <ele>290.45667</ele>
        <time>2023-07-30T14:39:58.000Z</time>
      </trkpt>
      <trkpt lat="45.84886" lon="4.71671">
        <ele>291.49463</ele>
        <time>2023-07-30T14:39:59.000Z</time>
      </trkpt>
      <trkpt lat="45.8488" lon="4.7167">
        <ele>292.504</ele>
        <time>2023-07-30T14:40:00.000Z</time>
      </trkpt>
      <trkpt lat="45.84877" lon="4.71672">
        <ele>293.44171</ele>
        <time>2023-07-30T14:40:01.000Z</time>
      </trkpt>
      <trkpt lat="45.84873" lon="4.71674">
        <ele>293.80164</ele>
        <time>2023-07-30T14:40:02.000Z</time>
      </trkpt>
      <trkpt lat="45.8487" lon="4.71676">
        <ele>294.26849</ele>
        <time>2023-07-30T14:40:03.000Z</time>
      </trkpt>
      <trkpt lat="45.84866" lon="4.71678">
        <ele>294.76431</ele>
        <time>2023-07-30T14:40:04.000Z</time>
      </trkpt>
      <trkpt lat="45.84863" lon="4.71679">
        <ele>295.40952</ele>
        <time>2023-07-30T14:40:05.000Z</time>
      </trkpt>
      <trkpt lat="45.84859" lon="4.71682">
        <ele>296.03799</ele>
        <time>2023-07-30T14:40:06.000Z</time>
      </trkpt>
      <trkpt lat="45.84855" lon="4.71685">
        <ele>296.68546</ele>
        <time>2023-07-30T14:40:07.000Z</time>
      </trkpt>
      <trkpt lat="45.84851" lon="4.7169">
        <ele>297.28278</ele>
        <time>2023-07-30T14:40:08.000Z</time>
      </trkpt>
      <trkpt lat="45.84849" lon="4.71692">
        <ele>297.88519</ele>
        <time>2023-07-30T14:40:09.000Z</time>
      </trkpt>
      <trkpt lat="45.84845" lon="4.71694">
        <ele>297.93521</ele>
        <time>2023-07-30T14:40:10.000Z</time>
      </trkpt>
      <trkpt lat="45.84841" lon="4.71696">
        <ele>297.9892</ele>
        <time>2023-07-30T14:40:11.000Z</time>
      </trkpt>
      <trkpt lat="45.84836" lon="4.71699">
        <ele>298.02838</ele>
        <time>2023-07-30T14:40:12.000Z</time>
      </trkpt>
      <trkpt lat="45.84831" lon="4.71701">
        <ele>298.04636</ele>
        <time>2023-07-30T14:40:13.000Z</time>
      </trkpt>
      <trkpt lat="45.84827" lon="4.71704">
        <ele>298.03857</ele>
        <time>2023-07-30T14:40:14.000Z</time>
      </trkpt>
      <trkpt lat="45.84823" lon="4.71705">
        <ele>298.05734</ele>
        <time>2023-07-30T14:40:15.000Z</time>
      </trkpt>
      <trkpt lat="45.84819" lon="4.71708">
        <ele>298.12415</ele>
        <time>2023-07-30T14:40:16.000Z</time>
      </trkpt>
      <trkpt lat="45.84815" lon="4.71709">
        <ele>298.19012</ele>
        <time>2023-07-30T14:40:17.000Z</time>
      </trkpt>
      <trkpt lat="45.84812" lon="4.71711">
        <ele>298.25934</ele>
        <time>2023-07-30T14:40:18.000Z</time>
      </trkpt>
      <trkpt lat="45.84808" lon="4.71714">
        <ele>298.3396</ele>
        <time>2023-07-30T14:40:19.000Z</time>
      </trkpt>
      <trkpt lat="45.84804" lon="4.71717">
        <ele>298.40045</ele>
        <time>2023-07-30T14:40:20.000Z</time>
      </trkpt>
      <trkpt lat="45.848" lon="4.7172">
        <ele>298.50079</ele>
        <time>2023-07-30T14:40:21.000Z</time>
      </trkpt>
      <trkpt lat="45.84795" lon="4.71724">
        <ele>298.66315</ele>
        <time>2023-07-30T14:40:22.000Z</time>
      </trkpt>
      <trkpt lat="45.84791" lon="4.71726">
        <ele>298.74054</ele>
        <time>2023-07-30T14:40:23.000Z</time>
      </trkpt>
      <trkpt lat="45.84787" lon="4.71731">
        <ele>298.74316</ele>
        <time>2023-07-30T14:40:24.000Z</time>
      </trkpt>
      <trkpt lat="45.84783" lon="4.71735">
        <ele>298.71271</ele>
        <time>2023-07-30T14:40:25.000Z</time>
      </trkpt>
      <trkpt lat="45.84779" lon="4.71738">
        <ele>298.6756</ele>
        <time>2023-07-30T14:40:26.000Z</time>
      </trkpt>
      <trkpt lat="45.84774" lon="4.71742">
        <ele>298.59064</ele>
        <time>2023-07-30T14:40:27.000Z</time>
      </trkpt>
      <trkpt lat="45.8477" lon="4.71745">
        <ele>298.52896</ele>
        <time>2023-07-30T14:40:28.000Z</time>
      </trkpt>
      <trkpt lat="45.84766" lon="4.71748">
        <ele>298.47662</ele>
        <time>2023-07-30T14:40:29.000Z</time>
      </trkpt>
      <trkpt lat="45.84762" lon="4.71751">
        <ele>298.4549</ele>
        <time>2023-07-30T14:40:30.000Z</time>
      </trkpt>
      <trkpt lat="45.84758" lon="4.71756">
        <ele>298.39423</ele>
        <time>2023-07-30T14:40:31.000Z</time>
      </trkpt>
      <trkpt lat="45.84753" lon="4.71758">
        <ele>298.28369</ele>
        <time>2023-07-30T14:40:32.000Z</time>
      </trkpt>
      <trkpt lat="45.84748" lon="4.7176">
        <ele>298.19684</ele>
        <time>2023-07-30T14:40:33.000Z</time>
      </trkpt>
      <trkpt lat="45.84744" lon="4.71762">
        <ele>298.15948</ele>
        <time>2023-07-30T14:40:34.000Z</time>
      </trkpt>
      <trkpt lat="45.84739" lon="4.71764">
        <ele>298.05313</ele>
        <time>2023-07-30T14:40:35.000Z</time>
      </trkpt>
      <trkpt lat="45.84735" lon="4.71767">
        <ele>297.92706</ele>
        <time>2023-07-30T14:40:36.000Z</time>
      </trkpt>
      <trkpt lat="45.8473" lon="4.71768">
        <ele>297.74234</ele>
        <time>2023-07-30T14:40:37.000Z</time>
      </trkpt>
      <trkpt lat="45.84726" lon="4.7177">
        <ele>297.56622</ele>
        <time>2023-07-30T14:40:38.000Z</time>
      </trkpt>
      <trkpt lat="45.84722" lon="4.71771">
        <ele>297.40875</ele>
        <time>2023-07-30T14:40:39.000Z</time>
      </trkpt>
      <trkpt lat="45.84718" lon="4.71773">
        <ele>297.29013</ele>
        <time>2023-07-30T14:40:40.000Z</time>
      </trkpt>
      <trkpt lat="45.84713" lon="4.71775">
        <ele>297.19431</ele>
        <time>2023-07-30T14:40:41.000Z</time>
      </trkpt>
      <trkpt lat="45.84708" lon="4.71777">
        <ele>298.4787</ele>
        <time>2023-07-30T14:40:42.000Z</time>
      </trkpt>
      <trkpt lat="45.84704" lon="4.71779">
        <ele>299.84552</ele>
        <time>2023-07-30T14:40:43.000Z</time>
      </trkpt>
      <trkpt lat="45.84699" lon="4.71782">
        <ele>301.26398</ele>
        <time>2023-07-30T14:40:44.000Z</time>
      </trkpt>
      <trkpt lat="45.84694" lon="4.71784">
        <ele>302.74744</ele>
        <time>2023-07-30T14:40:45.000Z</time>
      </trkpt>
      <trkpt lat="45.8469" lon="4.71786">
        <ele>304.28458</ele>
        <time>2023-07-30T14:40:46.000Z</time>
      </trkpt>
      <trkpt lat="45.84685" lon="4.71788">
        <ele>305.32294</ele>
        <time>2023-07-30T14:40:47.000Z</time>
      </trkpt>
      <trkpt lat="45.84681" lon="4.71791">
        <ele>306.48138</ele>
        <time>2023-07-30T14:40:48.000Z</time>
      </trkpt>
      <trkpt lat="45.84676" lon="4.71794">
        <ele>307.63657</ele>
        <time>2023-07-30T14:40:49.000Z</time>
      </trkpt>
      <trkpt lat="45.84672" lon="4.71797">
        <ele>308.75089</ele>
        <time>2023-07-30T14:40:50.000Z</time>
      </trkpt>
      <trkpt lat="45.84668" lon="4.71798">
        <ele>309.88843</ele>
        <time>2023-07-30T14:40:51.000Z</time>
      </trkpt>
      <trkpt lat="45.84664" lon="4.71801">
        <ele>311.0907</ele>
        <time>2023-07-30T14:40:52.000Z</time>
      </trkpt>
      <trkpt lat="45.84659" lon="4.71804">
        <ele>312.27347</ele>
        <time>2023-07-30T14:40:53.000Z</time>
      </trkpt>
      <trkpt lat="45.84655" lon="4.71807">
        <ele>313.44128</ele>
        <time>2023-07-30T14:40:54.000Z</time>
      </trkpt>
      <trkpt lat="45.84652" lon="4.71809">
        <ele>314.63397</ele>
        <time>2023-07-30T14:40:55.000Z</time>
      </trkpt>
      <trkpt lat="45.84647" lon="4.71812">
        <ele>315.76364</ele>
        <time>2023-07-30T14:40:56.000Z</time>
      </trkpt>
      <trkpt lat="45.84643" lon="4.71814">
        <ele>316.96759</ele>
        <time>2023-07-30T14:40:57.000Z</time>
      </trkpt>
      <trkpt lat="45.84638" lon="4.71816">
        <ele>318.15283</ele>
        <time>2023-07-30T14:40:58.000Z</time>
      </trkpt>
      <trkpt lat="45.84634" lon="4.71818">
        <ele>319.34412</ele>
        <time>2023-07-30T14:40:59.000Z</time>
      </trkpt>
      <trkpt lat="45.8463" lon="4.7182">
        <ele>320.54364</ele>
        <time>2023-07-30T14:41:00.000Z</time>
      </trkpt>
      <trkpt lat="45.84625" lon="4.71823">
        <ele>321.74811</ele>
        <time>2023-07-30T14:41:01.000Z</time>
      </trkpt>
      <trkpt lat="45.84623" lon="4.71823">
        <ele>321.65314</ele>
        <time>2023-07-30T14:41:02.000Z</time>
      </trkpt>
      <trkpt lat="45.84619" lon="4.71826">
        <ele>321.86661</ele>
        <time>2023-07-30T14:41:03.000Z</time>
      </trkpt>
      <trkpt lat="45.84616" lon="4.71827">
        <ele>322.17291</ele>
        <time>2023-07-30T14:41:04.000Z</time>
      </trkpt>
      <trkpt lat="45.84612" lon="4.71829">
        <ele>322.31824</ele>
        <time>2023-07-30T14:41:05.000Z</time>
      </trkpt>
      <trkpt lat="45.84608" lon="4.71833">
        <ele>321.9252</ele>
        <time>2023-07-30T14:41:06.000Z</time>
      </trkpt>
      <trkpt lat="45.84604" lon="4.71835">
        <ele>322.0603</ele>
        <time>2023-07-30T14:41:07.000Z</time>
      </trkpt>
      <trkpt lat="45.84599" lon="4.71836">
        <ele>322.10913</ele>
        <time>2023-07-30T14:41:08.000Z</time>
      </trkpt>
      <trkpt lat="45.84595" lon="4.71837">
        <ele>320.9704</ele>
        <time>2023-07-30T14:41:09.000Z</time>
      </trkpt>
      <trkpt lat="45.84592" lon="4.7184">
        <ele>319.92078</ele>
        <time>2023-07-30T14:41:10.000Z</time>
      </trkpt>
      <trkpt lat="45.84588" lon="4.71843">
        <ele>318.8786</ele>
        <time>2023-07-30T14:41:11.000Z</time>
      </trkpt>
      <trkpt lat="45.84584" lon="4.71846">
        <ele>317.79657</ele>
        <time>2023-07-30T14:41:12.000Z</time>
      </trkpt>
      <trkpt lat="45.84579" lon="4.7185">
        <ele>316.69492</ele>
        <time>2023-07-30T14:41:13.000Z</time>
      </trkpt>
      <trkpt lat="45.84575" lon="4.71854">
        <ele>315.77945</ele>
        <time>2023-07-30T14:41:14.000Z</time>
      </trkpt>
      <trkpt lat="45.84572" lon="4.71856">
        <ele>315.87796</ele>
        <time>2023-07-30T14:41:15.000Z</time>
      </trkpt>
      <trkpt lat="45.84567" lon="4.71859">
        <ele>316.00067</ele>
        <time>2023-07-30T14:41:16.000Z</time>
      </trkpt>
      <trkpt lat="45.84563" lon="4.71861">
        <ele>316.08002</ele>
        <time>2023-07-30T14:41:17.000Z</time>
      </trkpt>
      <trkpt lat="45.84559" lon="4.71863">
        <ele>316.16669</ele>
        <time>2023-07-30T14:41:18.000Z</time>
      </trkpt>
      <trkpt lat="45.84555" lon="4.71865">
        <ele>316.19983</ele>
        <time>2023-07-30T14:41:19.000Z</time>
      </trkpt>
      <trkpt lat="45.84551" lon="4.71867">
        <ele>316.24521</ele>
        <time>2023-07-30T14:41:20.000Z</time>
      </trkpt>
      <trkpt lat="45.84548" lon="4.71869">
        <ele>316.27417</ele>
        <time>2023-07-30T14:41:21.000Z</time>
      </trkpt>
      <trkpt lat="45.84544" lon="4.71872">
        <ele>316.26019</ele>
        <time>2023-07-30T14:41:22.000Z</time>
      </trkpt>
      <trkpt lat="45.8454" lon="4.71875">
        <ele>316.17276</ele>
        <time>2023-07-30T14:41:23.000Z</time>
      </trkpt>
      <trkpt lat="45.84537" lon="4.71878">
        <ele>316.15396</ele>
        <time>2023-07-30T14:41:24.000Z</time>
      </trkpt>
      <trkpt lat="45.84533" lon="4.71881">
        <ele>315.62149</ele>
        <time>2023-07-30T14:41:25.000Z</time>
      </trkpt>
      <trkpt lat="45.84529" lon="4.71882">
        <ele>315.70041</ele>
        <time>2023-07-30T14:41:26.000Z</time>
      </trkpt>
      <trkpt lat="45.84526" lon="4.71885">
        <ele>315.73648</ele>
        <time>2023-07-30T14:41:27.000Z</time>
      </trkpt>
      <trkpt lat="45.84522" lon="4.71888">
        <ele>315.79248</ele>
        <time>2023-07-30T14:41:28.000Z</time>
      </trkpt>
      <trkpt lat="45.84518" lon="4.71893">
        <ele>317.25565</ele>
        <time>2023-07-30T14:41:29.000Z</time>
      </trkpt>
      <trkpt lat="45.84515" lon="4.71897">
        <ele>317.17545</ele>
        <time>2023-07-30T14:41:30.000Z</time>
      </trkpt>
      <trkpt lat="45.84511" lon="4.71901">
        <ele>317.22531</ele>
        <time>2023-07-30T14:41:31.000Z</time>
      </trkpt>
      <trkpt lat="45.84507" lon="4.71906">
        <ele>317.72256</ele>
        <time>2023-07-30T14:41:32.000Z</time>
      </trkpt>
      <trkpt lat="45.84503" lon="4.7191">
        <ele>318.24243</ele>
        <time>2023-07-30T14:41:33.000Z</time>
      </trkpt>
      <trkpt lat="45.84499" lon="4.71913">
        <ele>318.56863</ele>
        <time>2023-07-30T14:41:34.000Z</time>
      </trkpt>
      <trkpt lat="45.84495" lon="4.71916">
        <ele>317.89667</ele>
        <time>2023-07-30T14:41:35.000Z</time>
      </trkpt>
      <trkpt lat="45.8449" lon="4.71919">
        <ele>317.23932</ele>
        <time>2023-07-30T14:41:36.000Z</time>
      </trkpt>
      <trkpt lat="45.84486" lon="4.71922">
        <ele>316.61148</ele>
        <time>2023-07-30T14:41:37.000Z</time>
      </trkpt>
      <trkpt lat="45.84482" lon="4.71925">
        <ele>315.99774</ele>
        <time>2023-07-30T14:41:38.000Z</time>
      </trkpt>
      <trkpt lat="45.84478" lon="4.71928">
        <ele>315.41806</ele>
        <time>2023-07-30T14:41:39.000Z</time>
      </trkpt>
      <trkpt lat="45.84473" lon="4.7193">
        <ele>314.80576</ele>
        <time>2023-07-30T14:41:40.000Z</time>
      </trkpt>
      <trkpt lat="45.84468" lon="4.71933">
        <ele>314.1731</ele>
        <time>2023-07-30T14:41:41.000Z</time>
      </trkpt>
      <trkpt lat="45.84463" lon="4.71934">
        <ele>313.52118</ele>
        <time>2023-07-30T14:41:42.000Z</time>
      </trkpt>
      <trkpt lat="45.84458" lon="4.71934">
        <ele>311.50558</ele>
        <time>2023-07-30T14:41:43.000Z</time>
      </trkpt>
      <trkpt lat="45.84454" lon="4.71936">
        <ele>309.30966</ele>
        <time>2023-07-30T14:41:44.000Z</time>
      </trkpt>
      <trkpt lat="45.84449" lon="4.71939">
        <ele>307.62402</ele>
        <time>2023-07-30T14:41:45.000Z</time>
      </trkpt>
      <trkpt lat="45.84444" lon="4.71939">
        <ele>305.8707</ele>
        <time>2023-07-30T14:41:46.000Z</time>
      </trkpt>
      <trkpt lat="45.84439" lon="4.71939">
        <ele>305.26633</ele>
        <time>2023-07-30T14:41:47.000Z</time>
      </trkpt>
      <trkpt lat="45.84434" lon="4.71939">
        <ele>304.64008</ele>
        <time>2023-07-30T14:41:48.000Z</time>
      </trkpt>
      <trkpt lat="45.84429" lon="4.7194">
        <ele>303.30157</ele>
        <time>2023-07-30T14:41:49.000Z</time>
      </trkpt>
      <trkpt lat="45.84426" lon="4.71942">
        <ele>303.41632</ele>
        <time>2023-07-30T14:41:50.000Z</time>
      </trkpt>
      <trkpt lat="45.84421" lon="4.71943">
        <ele>302.75952</ele>
        <time>2023-07-30T14:41:51.000Z</time>
      </trkpt>
      <trkpt lat="45.84416" lon="4.71946">
        <ele>301.68835</ele>
        <time>2023-07-30T14:41:52.000Z</time>
      </trkpt>
      <trkpt lat="45.84411" lon="4.71949">
        <ele>300.45071</ele>
        <time>2023-07-30T14:41:53.000Z</time>
      </trkpt>
      <trkpt lat="45.84407" lon="4.71951">
        <ele>299.83026</ele>
        <time>2023-07-30T14:41:54.000Z</time>
      </trkpt>
      <trkpt lat="45.84401" lon="4.71953">
        <ele>299.10098</ele>
        <time>2023-07-30T14:41:55.000Z</time>
      </trkpt>
      <trkpt lat="45.84396" lon="4.71955">
        <ele>298.34015</ele>
        <time>2023-07-30T14:41:56.000Z</time>
      </trkpt>
      <trkpt lat="45.84392" lon="4.71955">
        <ele>297.52368</ele>
        <time>2023-07-30T14:41:57.000Z</time>
      </trkpt>
      <trkpt lat="45.84387" lon="4.71956">
        <ele>296.70084</ele>
        <time>2023-07-30T14:41:58.000Z</time>
      </trkpt>
      <trkpt lat="45.84382" lon="4.71957">
        <ele>295.85602</ele>
        <time>2023-07-30T14:41:59.000Z</time>
      </trkpt>
      <trkpt lat="45.84378" lon="4.7196">
        <ele>295.03021</ele>
        <time>2023-07-30T14:42:00.000Z</time>
      </trkpt>
      <trkpt lat="45.84373" lon="4.71961">
        <ele>294.2627</ele>
        <time>2023-07-30T14:42:01.000Z</time>
      </trkpt>
      <trkpt lat="45.8437" lon="4.71963">
        <ele>293.20013</ele>
        <time>2023-07-30T14:42:02.000Z</time>
      </trkpt>
      <trkpt lat="45.84366" lon="4.71966">
        <ele>293.06998</ele>
        <time>2023-07-30T14:42:03.000Z</time>
      </trkpt>
      <trkpt lat="45.8436" lon="4.71965">
        <ele>292.94748</ele>
        <time>2023-07-30T14:42:04.000Z</time>
      </trkpt>
      <trkpt lat="45.84356" lon="4.71967">
        <ele>293.39679</ele>
        <time>2023-07-30T14:42:05.000Z</time>
      </trkpt>
      <trkpt lat="45.84351" lon="4.71968">
        <ele>293.75739</ele>
        <time>2023-07-30T14:42:06.000Z</time>
      </trkpt>
      <trkpt lat="45.84347" lon="4.7197">
        <ele>293.03574</ele>
        <time>2023-07-30T14:42:07.000Z</time>
      </trkpt>
      <trkpt lat="45.84342" lon="4.71971">
        <ele>292.26706</ele>
        <time>2023-07-30T14:42:08.000Z</time>
      </trkpt>
      <trkpt lat="45.84338" lon="4.71973">
        <ele>291.95438</ele>
        <time>2023-07-30T14:42:09.000Z</time>
      </trkpt>
      <trkpt lat="45.84334" lon="4.71974">
        <ele>291.68411</ele>
        <time>2023-07-30T14:42:10.000Z</time>
      </trkpt>
      <trkpt lat="45.84329" lon="4.71977">
        <ele>292.02539</ele>
        <time>2023-07-30T14:42:11.000Z</time>
      </trkpt>
      <trkpt lat="45.84325" lon="4.71979">
        <ele>292.4151</ele>
        <time>2023-07-30T14:42:12.000Z</time>
      </trkpt>
      <trkpt lat="45.8432" lon="4.71981">
        <ele>293.02026</ele>
        <time>2023-07-30T14:42:13.000Z</time>
      </trkpt>
      <trkpt lat="45.84316" lon="4.71983">
        <ele>292.98846</ele>
        <time>2023-07-30T14:42:14.000Z</time>
      </trkpt>
      <trkpt lat="45.84311" lon="4.71985">
        <ele>293.90308</ele>
        <time>2023-07-30T14:42:15.000Z</time>
      </trkpt>
      <trkpt lat="45.84307" lon="4.71987">
        <ele>294.84891</ele>
        <time>2023-07-30T14:42:16.000Z</time>
      </trkpt>
      <trkpt lat="45.84302" lon="4.7199">
        <ele>295.85382</ele>
        <time>2023-07-30T14:42:17.000Z</time>
      </trkpt>
      <trkpt lat="45.84297" lon="4.71992">
        <ele>296.86969</ele>
        <time>2023-07-30T14:42:18.000Z</time>
      </trkpt>
      <trkpt lat="45.84293" lon="4.71995">
        <ele>297.90021</ele>
        <time>2023-07-30T14:42:19.000Z</time>
      </trkpt>
      <trkpt lat="45.84289" lon="4.71996">
        <ele>298.92224</ele>
        <time>2023-07-30T14:42:20.000Z</time>
      </trkpt>
      <trkpt lat="45.84284" lon="4.71999">
        <ele>299.94168</ele>
        <time>2023-07-30T14:42:21.000Z</time>
      </trkpt>
      <trkpt lat="45.8428" lon="4.72002">
        <ele>301.24173</ele>
        <time>2023-07-30T14:42:22.000Z</time>
      </trkpt>
      <trkpt lat="45.84275" lon="4.72005">
        <ele>302.72473</ele>
        <time>2023-07-30T14:42:23.000Z</time>
      </trkpt>
      <trkpt lat="45.84271" lon="4.72007">
        <ele>304.23553</ele>
        <time>2023-07-30T14:42:24.000Z</time>
      </trkpt>
      <trkpt lat="45.84266" lon="4.7201">
        <ele>305.16962</ele>
        <time>2023-07-30T14:42:25.000Z</time>
      </trkpt>
      <trkpt lat="45.84261" lon="4.72012">
        <ele>306.20316</ele>
        <time>2023-07-30T14:42:26.000Z</time>
      </trkpt>
      <trkpt lat="45.84257" lon="4.72014">
        <ele>307.18903</ele>
        <time>2023-07-30T14:42:27.000Z</time>
      </trkpt>
      <trkpt lat="45.84252" lon="4.72018">
        <ele>307.91409</ele>
        <time>2023-07-30T14:42:28.000Z</time>
      </trkpt>
      <trkpt lat="45.84248" lon="4.7202">
        <ele>308.68832</ele>
        <time>2023-07-30T14:42:29.000Z</time>
      </trkpt>
      <trkpt lat="45.84244" lon="4.72022">
        <ele>309.39468</ele>
        <time>2023-07-30T14:42:30.000Z</time>
      </trkpt>
      <trkpt lat="45.84241" lon="4.72024">
        <ele>310.14603</ele>
        <time>2023-07-30T14:42:31.000Z</time>
      </trkpt>
      <trkpt lat="45.84237" lon="4.72025">
        <ele>310.86856</ele>
        <time>2023-07-30T14:42:32.000Z</time>
      </trkpt>
      <trkpt lat="45.84234" lon="4.72027">
        <ele>311.56006</ele>
        <time>2023-07-30T14:42:33.000Z</time>
      </trkpt>
      <trkpt lat="45.84231" lon="4.72028">
        <ele>312.16327</ele>
        <time>2023-07-30T14:42:34.000Z</time>
      </trkpt>
      <trkpt lat="45.84228" lon="4.72029">
        <ele>311.90778</ele>
        <time>2023-07-30T14:42:35.000Z</time>
      </trkpt>
      <trkpt lat="45.84225" lon="4.72031">
        <ele>311.69653</ele>
        <time>2023-07-30T14:42:36.000Z</time>
      </trkpt>
      <trkpt lat="45.84223" lon="4.72032">
        <ele>311.47354</ele>
        <time>2023-07-30T14:42:37.000Z</time>
      </trkpt>
      <trkpt lat="45.8422" lon="4.72034">
        <ele>311.27069</ele>
        <time>2023-07-30T14:42:38.000Z</time>
      </trkpt>
      <trkpt lat="45.84217" lon="4.72036">
        <ele>311.05161</ele>
        <time>2023-07-30T14:42:39.000Z</time>
      </trkpt>
      <trkpt lat="45.84214" lon="4.72038">
        <ele>311.22314</ele>
        <time>2023-07-30T14:42:40.000Z</time>
      </trkpt>
      <trkpt lat="45.84211" lon="4.7204">
        <ele>312.35559</ele>
        <time>2023-07-30T14:42:41.000Z</time>
      </trkpt>
      <trkpt lat="45.84207" lon="4.72043">
        <ele>313.51147</ele>
        <time>2023-07-30T14:42:42.000Z</time>
      </trkpt>
      <trkpt lat="45.84204" lon="4.72046">
        <ele>314.69196</ele>
        <time>2023-07-30T14:42:43.000Z</time>
      </trkpt>
      <trkpt lat="45.84201" lon="4.72049">
        <ele>314.38626</ele>
        <time>2023-07-30T14:42:44.000Z</time>
      </trkpt>
      <trkpt lat="45.84197" lon="4.72053">
        <ele>314.39642</ele>
        <time>2023-07-30T14:42:45.000Z</time>
      </trkpt>
      <trkpt lat="45.84194" lon="4.72056">
        <ele>314.30844</ele>
        <time>2023-07-30T14:42:46.000Z</time>
      </trkpt>
      <trkpt lat="45.8419" lon="4.72059">
        <ele>314.22626</ele>
        <time>2023-07-30T14:42:47.000Z</time>
      </trkpt>
      <trkpt lat="45.84186" lon="4.72064">
        <ele>314.44824</ele>
        <time>2023-07-30T14:42:48.000Z</time>
      </trkpt>
      <trkpt lat="45.84182" lon="4.72068">
        <ele>314.65533</ele>
        <time>2023-07-30T14:42:49.000Z</time>
      </trkpt>
      <trkpt lat="45.84178" lon="4.72072">
        <ele>314.87314</ele>
        <time>2023-07-30T14:42:50.000Z</time>
      </trkpt>
      <trkpt lat="45.84175" lon="4.72076">
        <ele>315.10275</ele>
        <time>2023-07-30T14:42:51.000Z</time>
      </trkpt>
      <trkpt lat="45.84172" lon="4.72079">
        <ele>315.26382</ele>
        <time>2023-07-30T14:42:52.000Z</time>
      </trkpt>
      <trkpt lat="45.84168" lon="4.72083">
        <ele>315.43643</ele>
        <time>2023-07-30T14:42:53.000Z</time>
      </trkpt>
      <trkpt lat="45.84164" lon="4.72086">
        <ele>315.72333</ele>
        <time>2023-07-30T14:42:54.000Z</time>
      </trkpt>
      <trkpt lat="45.8416" lon="4.7209">
        <ele>315.99905</ele>
        <time>2023-07-30T14:42:55.000Z</time>
      </trkpt>
      <trkpt lat="45.84156" lon="4.72094">
        <ele>316.26523</ele>
        <time>2023-07-30T14:42:56.000Z</time>
      </trkpt>
      <trkpt lat="45.84152" lon="4.72097">
        <ele>316.54202</ele>
        <time>2023-07-30T14:42:57.000Z</time>
      </trkpt>
      <trkpt lat="45.84149" lon="4.72102">
        <ele>316.79465</ele>
        <time>2023-07-30T14:42:58.000Z</time>
      </trkpt>
      <trkpt lat="45.84145" lon="4.72105">
        <ele>317.07977</ele>
        <time>2023-07-30T14:42:59.000Z</time>
      </trkpt>
      <trkpt lat="45.84141" lon="4.72109">
        <ele>316.96246</ele>
        <time>2023-07-30T14:43:00.000Z</time>
      </trkpt>
      <trkpt lat="45.84137" lon="4.72113">
        <ele>317.24197</ele>
        <time>2023-07-30T14:43:01.000Z</time>
      </trkpt>
      <trkpt lat="45.84133" lon="4.72116">
        <ele>317.42053</ele>
        <time>2023-07-30T14:43:02.000Z</time>
      </trkpt>
      <trkpt lat="45.8413" lon="4.72119">
        <ele>317.6217</ele>
        <time>2023-07-30T14:43:03.000Z</time>
      </trkpt>
      <trkpt lat="45.84126" lon="4.72121">
        <ele>318.95593</ele>
        <time>2023-07-30T14:43:04.000Z</time>
      </trkpt>
      <trkpt lat="45.84123" lon="4.72123">
        <ele>320.02127</ele>
        <time>2023-07-30T14:43:05.000Z</time>
      </trkpt>
      <trkpt lat="45.84119" lon="4.72124">
        <ele>321.14777</ele>
        <time>2023-07-30T14:43:06.000Z</time>
      </trkpt>
      <trkpt lat="45.84115" lon="4.72126">
        <ele>322.27737</ele>
        <time>2023-07-30T14:43:07.000Z</time>
      </trkpt>
      <trkpt lat="45.84112" lon="4.72128">
        <ele>323.38202</ele>
        <time>2023-07-30T14:43:08.000Z</time>
      </trkpt>
      <trkpt lat="45.84108" lon="4.7213">
        <ele>324.48853</ele>
        <time>2023-07-30T14:43:09.000Z</time>
      </trkpt>
      <trkpt lat="45.84105" lon="4.72131">
        <ele>324.56793</ele>
        <time>2023-07-30T14:43:10.000Z</time>
      </trkpt>
      <trkpt lat="45.84102" lon="4.72133">
        <ele>324.61334</ele>
        <time>2023-07-30T14:43:11.000Z</time>
      </trkpt>
      <trkpt lat="45.84098" lon="4.72134">
        <ele>324.71915</ele>
        <time>2023-07-30T14:43:12.000Z</time>
      </trkpt>
      <trkpt lat="45.84095" lon="4.72136">
        <ele>324.81097</ele>
        <time>2023-07-30T14:43:13.000Z</time>
      </trkpt>
      <trkpt lat="45.84093" lon="4.72138">
        <ele>324.89084</ele>
        <time>2023-07-30T14:43:14.000Z</time>
      </trkpt>
      <trkpt lat="45.8409" lon="4.7214">
        <ele>324.99307</ele>
        <time>2023-07-30T14:43:15.000Z</time>
      </trkpt>
      <trkpt lat="45.84088" lon="4.72141">
        <ele>324.8942</ele>
        <time>2023-07-30T14:43:16.000Z</time>
      </trkpt>
      <trkpt lat="45.84085" lon="4.72143">
        <ele>325.29791</ele>
        <time>2023-07-30T14:43:17.000Z</time>
      </trkpt>
      <trkpt lat="45.84083" lon="4.72144">
        <ele>326.50928</ele>
        <time>2023-07-30T14:43:18.000Z</time>
      </trkpt>
      <trkpt lat="45.84081" lon="4.72145">
        <ele>327.60818</ele>
        <time>2023-07-30T14:43:19.000Z</time>
      </trkpt>
      <trkpt lat="45.84079" lon="4.72147">
        <ele>328.70187</ele>
        <time>2023-07-30T14:43:20.000Z</time>
      </trkpt>
      <trkpt lat="45.84077" lon="4.72148">
        <ele>328.41898</ele>
        <time>2023-07-30T14:43:21.000Z</time>
      </trkpt>
      <trkpt lat="45.84075" lon="4.7215">
        <ele>328.36899</ele>
        <time>2023-07-30T14:43:22.000Z</time>
      </trkpt>
      <trkpt lat="45.84072" lon="4.72151">
        <ele>328.37494</ele>
        <time>2023-07-30T14:43:23.000Z</time>
      </trkpt>
      <trkpt lat="45.8407" lon="4.72152">
        <ele>328.38657</ele>
        <time>2023-07-30T14:43:24.000Z</time>
      </trkpt>
      <trkpt lat="45.84069" lon="4.72154">
        <ele>328.40204</ele>
        <time>2023-07-30T14:43:25.000Z</time>
      </trkpt>
      <trkpt lat="45.84067" lon="4.72155">
        <ele>328.41278</ele>
        <time>2023-07-30T14:43:26.000Z</time>
      </trkpt>
      <trkpt lat="45.84065" lon="4.72157">
        <ele>328.4024</ele>
        <time>2023-07-30T14:43:27.000Z</time>
      </trkpt>
      <trkpt lat="45.84063" lon="4.72158">
        <ele>328.40533</ele>
        <time>2023-07-30T14:43:28.000Z</time>
      </trkpt>
      <trkpt lat="45.84061" lon="4.72159">
        <ele>328.4075</ele>
        <time>2023-07-30T14:43:29.000Z</time>
      </trkpt>
      <trkpt lat="45.84059" lon="4.72161">
        <ele>328.6911</ele>
        <time>2023-07-30T14:43:30.000Z</time>
      </trkpt>
      <trkpt lat="45.84057" lon="4.72161">
        <ele>329.05524</ele>
        <time>2023-07-30T14:43:31.000Z</time>
      </trkpt>
      <trkpt lat="45.84055" lon="4.72162">
        <ele>329.31573</ele>
        <time>2023-07-30T14:43:33.000Z</time>
      </trkpt>
      <trkpt lat="45.84052" lon="4.72163">
        <ele>329.66364</ele>
        <time>2023-07-30T14:44:41.000Z</time>
      </trkpt>
      <trkpt lat="45.8405" lon="4.72164">
        <ele>330.71204</ele>
        <time>2023-07-30T14:44:42.000Z</time>
      </trkpt>
      <trkpt lat="45.84048" lon="4.72165">
        <ele>331.7608</ele>
        <time>2023-07-30T14:44:43.000Z</time>
      </trkpt>
      <trkpt lat="45.84045" lon="4.72166">
        <ele>332.97754</ele>
        <time>2023-07-30T14:44:44.000Z</time>
      </trkpt>
      <trkpt lat="45.84042" lon="4.72167">
        <ele>333.65118</ele>
        <time>2023-07-30T14:44:45.000Z</time>
      </trkpt>
      <trkpt lat="45.8404" lon="4.72167">
        <ele>333.49164</ele>
        <time>2023-07-30T14:44:46.000Z</time>
      </trkpt>
      <trkpt lat="45.84036" lon="4.72167">
        <ele>333.58466</ele>
        <time>2023-07-30T14:44:47.000Z</time>
      </trkpt>
      <trkpt lat="45.84033" lon="4.72167">
        <ele>333.68936</ele>
        <time>2023-07-30T14:44:48.000Z</time>
      </trkpt>
      <trkpt lat="45.8403" lon="4.72167">
        <ele>333.80209</ele>
        <time>2023-07-30T14:44:49.000Z</time>
      </trkpt>
      <trkpt lat="45.84027" lon="4.72167">
        <ele>333.74228</ele>
        <time>2023-07-30T14:44:50.000Z</time>
      </trkpt>
      <trkpt lat="45.84024" lon="4.72166">
        <ele>333.34824</ele>
        <time>2023-07-30T14:44:51.000Z</time>
      </trkpt>
      <trkpt lat="45.84022" lon="4.72165">
        <ele>333.26062</ele>
        <time>2023-07-30T14:44:52.000Z</time>
      </trkpt>
      <trkpt lat="45.84019" lon="4.72165">
        <ele>331.70999</ele>
        <time>2023-07-30T14:44:53.000Z</time>
      </trkpt>
      <trkpt lat="45.84017" lon="4.72165">
        <ele>330.11435</ele>
        <time>2023-07-30T14:44:54.000Z</time>
      </trkpt>
      <trkpt lat="45.84014" lon="4.72166">
        <ele>328.54123</ele>
        <time>2023-07-30T14:44:55.000Z</time>
      </trkpt>
      <trkpt lat="45.84011" lon="4.72167">
        <ele>326.98199</ele>
        <time>2023-07-30T14:44:56.000Z</time>
      </trkpt>
      <trkpt lat="45.84009" lon="4.72168">
        <ele>325.45844</ele>
        <time>2023-07-30T14:44:57.000Z</time>
      </trkpt>
      <trkpt lat="45.84006" lon="4.72168">
        <ele>324.71185</ele>
        <time>2023-07-30T14:44:58.000Z</time>
      </trkpt>
      <trkpt lat="45.84004" lon="4.72168">
        <ele>323.82813</ele>
        <time>2023-07-30T14:44:59.000Z</time>
      </trkpt>
      <trkpt lat="45.84002" lon="4.72168">
        <ele>323.0408</ele>
        <time>2023-07-30T14:45:00.000Z</time>
      </trkpt>
      <trkpt lat="45.83999" lon="4.72168">
        <ele>323.69336</ele>
        <time>2023-07-30T14:45:01.000Z</time>
      </trkpt>
      <trkpt lat="45.83996" lon="4.72168">
        <ele>323.63742</ele>
        <time>2023-07-30T14:45:02.000Z</time>
      </trkpt>
      <trkpt lat="45.83993" lon="4.72167">
        <ele>323.58795</ele>
        <time>2023-07-30T14:45:03.000Z</time>
      </trkpt>
      <trkpt lat="45.8399" lon="4.72166">
        <ele>323.71719</ele>
        <time>2023-07-30T14:45:04.000Z</time>
      </trkpt>
      <trkpt lat="45.83987" lon="4.72165">
        <ele>323.98907</ele>
        <time>2023-07-30T14:45:05.000Z</time>
      </trkpt>
      <trkpt lat="45.83984" lon="4.72165">
        <ele>324.29486</ele>
        <time>2023-07-30T14:45:06.000Z</time>
      </trkpt>
      <trkpt lat="45.83981" lon="4.72165">
        <ele>324.07837</ele>
        <time>2023-07-30T14:45:07.000Z</time>
      </trkpt>
      <trkpt lat="45.83979" lon="4.72167">
        <ele>323.92639</ele>
        <time>2023-07-30T14:45:09.000Z</time>
      </trkpt>
      <trkpt lat="45.83977" lon="4.72166">
        <ele>324.09344</ele>
        <time>2023-07-30T14:45:43.000Z</time>
      </trkpt>
      <trkpt lat="45.83974" lon="4.72166">
        <ele>323.90097</ele>
        <time>2023-07-30T14:45:45.000Z</time>
      </trkpt>
      <trkpt lat="45.83971" lon="4.72166">
        <ele>323.99603</ele>
        <time>2023-07-30T14:45:46.000Z</time>
      </trkpt>
      <trkpt lat="45.83969" lon="4.72165">
        <ele>324.0914</ele>
        <time>2023-07-30T14:45:47.000Z</time>
      </trkpt>
      <trkpt lat="45.83966" lon="4.72165">
        <ele>325.55115</ele>
        <time>2023-07-30T14:45:48.000Z</time>
      </trkpt>
      <trkpt lat="45.83963" lon="4.72164">
        <ele>327.05011</ele>
        <time>2023-07-30T14:45:49.000Z</time>
      </trkpt>
      <trkpt lat="45.8396" lon="4.72163">
        <ele>328.54489</ele>
        <time>2023-07-30T14:45:50.000Z</time>
      </trkpt>
      <trkpt lat="45.83957" lon="4.72162">
        <ele>330.01495</ele>
        <time>2023-07-30T14:45:51.000Z</time>
      </trkpt>
      <trkpt lat="45.83954" lon="4.72162">
        <ele>331.44681</ele>
        <time>2023-07-30T14:45:52.000Z</time>
      </trkpt>
      <trkpt lat="45.83951" lon="4.72161">
        <ele>332.86673</ele>
        <time>2023-07-30T14:45:53.000Z</time>
      </trkpt>
      <trkpt lat="45.83948" lon="4.72161">
        <ele>334.33002</ele>
        <time>2023-07-30T14:45:54.000Z</time>
      </trkpt>
      <trkpt lat="45.83946" lon="4.72161">
        <ele>335.77997</ele>
        <time>2023-07-30T14:45:55.000Z</time>
      </trkpt>
      <trkpt lat="45.83944" lon="4.72162">
        <ele>335.72443</ele>
        <time>2023-07-30T14:45:56.000Z</time>
      </trkpt>
      <trkpt lat="45.83943" lon="4.72164">
        <ele>335.67267</ele>
        <time>2023-07-30T14:45:57.000Z</time>
      </trkpt>
      <trkpt lat="45.83941" lon="4.72166">
        <ele>335.60504</ele>
        <time>2023-07-30T14:45:58.000Z</time>
      </trkpt>
      <trkpt lat="45.83941" lon="4.72169">
        <ele>335.33655</ele>
        <time>2023-07-30T14:45:59.000Z</time>
      </trkpt>
      <trkpt lat="45.83941" lon="4.72173">
        <ele>334.96207</ele>
        <time>2023-07-30T14:46:00.000Z</time>
      </trkpt>
      <trkpt lat="45.83942" lon="4.72177">
        <ele>334.55011</ele>
        <time>2023-07-30T14:46:01.000Z</time>
      </trkpt>
      <trkpt lat="45.83944" lon="4.72181">
        <ele>334.51852</ele>
        <time>2023-07-30T14:46:02.000Z</time>
      </trkpt>
      <trkpt lat="45.83946" lon="4.72185">
        <ele>334.39825</ele>
        <time>2023-07-30T14:46:03.000Z</time>
      </trkpt>
      <trkpt lat="45.83949" lon="4.7219">
        <ele>333.94379</ele>
        <time>2023-07-30T14:46:04.000Z</time>
      </trkpt>
      <trkpt lat="45.83951" lon="4.72194">
        <ele>333.86456</ele>
        <time>2023-07-30T14:46:05.000Z</time>
      </trkpt>
      <trkpt lat="45.83954" lon="4.72197">
        <ele>333.72699</ele>
        <time>2023-07-30T14:46:06.000Z</time>
      </trkpt>
      <trkpt lat="45.83956" lon="4.72201">
        <ele>333.62738</ele>
        <time>2023-07-30T14:46:07.000Z</time>
      </trkpt>
      <trkpt lat="45.83959" lon="4.72205">
        <ele>333.54614</ele>
        <time>2023-07-30T14:46:08.000Z</time>
      </trkpt>
      <trkpt lat="45.83961" lon="4.7221">
        <ele>333.48944</ele>
        <time>2023-07-30T14:46:09.000Z</time>
      </trkpt>
      <trkpt lat="45.83964" lon="4.72214">
        <ele>333.43781</ele>
        <time>2023-07-30T14:46:10.000Z</time>
      </trkpt>
      <trkpt lat="45.83965" lon="4.72218">
        <ele>333.39789</ele>
        <time>2023-07-30T14:46:11.000Z</time>
      </trkpt>
      <trkpt lat="45.83967" lon="4.72223">
        <ele>332.29449</ele>
        <time>2023-07-30T14:46:12.000Z</time>
      </trkpt>
      <trkpt lat="45.83969" lon="4.72228">
        <ele>331.18634</ele>
        <time>2023-07-30T14:46:13.000Z</time>
      </trkpt>
      <trkpt lat="45.83971" lon="4.72232">
        <ele>330.0899</ele>
        <time>2023-07-30T14:46:14.000Z</time>
      </trkpt>
      <trkpt lat="45.83974" lon="4.72237">
        <ele>329.00742</ele>
        <time>2023-07-30T14:46:15.000Z</time>
      </trkpt>
      <trkpt lat="45.83976" lon="4.72242">
        <ele>327.91101</ele>
        <time>2023-07-30T14:46:16.000Z</time>
      </trkpt>
      <trkpt lat="45.83978" lon="4.72246">
        <ele>326.80817</ele>
        <time>2023-07-30T14:46:17.000Z</time>
      </trkpt>
      <trkpt lat="45.83981" lon="4.72251">
        <ele>325.7049</ele>
        <time>2023-07-30T14:46:18.000Z</time>
      </trkpt>
      <trkpt lat="45.83983" lon="4.72256">
        <ele>324.62686</ele>
        <time>2023-07-30T14:46:19.000Z</time>
      </trkpt>
      <trkpt lat="45.83985" lon="4.7226">
        <ele>323.52512</ele>
        <time>2023-07-30T14:46:20.000Z</time>
      </trkpt>
      <trkpt lat="45.83987" lon="4.72265">
        <ele>322.43671</ele>
        <time>2023-07-30T14:46:21.000Z</time>
      </trkpt>
      <trkpt lat="45.83989" lon="4.72269">
        <ele>321.30267</ele>
        <time>2023-07-30T14:46:22.000Z</time>
      </trkpt>
      <trkpt lat="45.83992" lon="4.72274">
        <ele>320.21475</ele>
        <time>2023-07-30T14:46:23.000Z</time>
      </trkpt>
      <trkpt lat="45.83994" lon="4.72278">
        <ele>319.11688</ele>
        <time>2023-07-30T14:46:24.000Z</time>
      </trkpt>
      <trkpt lat="45.83996" lon="4.72282">
        <ele>318.0358</ele>
        <time>2023-07-30T14:46:25.000Z</time>
      </trkpt>
      <trkpt lat="45.83999" lon="4.72287">
        <ele>316.94513</ele>
        <time>2023-07-30T14:46:26.000Z</time>
      </trkpt>
      <trkpt lat="45.84001" lon="4.72292">
        <ele>315.82629</ele>
        <time>2023-07-30T14:46:27.000Z</time>
      </trkpt>
      <trkpt lat="45.84004" lon="4.72297">
        <ele>314.71622</ele>
        <time>2023-07-30T14:46:28.000Z</time>
      </trkpt>
      <trkpt lat="45.84007" lon="4.72302">
        <ele>313.58246</ele>
        <time>2023-07-30T14:46:29.000Z</time>
      </trkpt>
      <trkpt lat="45.8401" lon="4.72307">
        <ele>312.30939</ele>
        <time>2023-07-30T14:46:30.000Z</time>
      </trkpt>
      <trkpt lat="45.84011" lon="4.72313">
        <ele>310.92511</ele>
        <time>2023-07-30T14:46:31.000Z</time>
      </trkpt>
      <trkpt lat="45.84009" lon="4.7232">
        <ele>310.89191</ele>
        <time>2023-07-30T14:46:32.000Z</time>
      </trkpt>
      <trkpt lat="45.84007" lon="4.72325">
        <ele>310.79694</ele>
        <time>2023-07-30T14:46:33.000Z</time>
      </trkpt>
      <trkpt lat="45.84002" lon="4.7233">
        <ele>310.70197</ele>
        <time>2023-07-30T14:46:34.000Z</time>
      </trkpt>
      <trkpt lat="45.83998" lon="4.72335">
        <ele>310.60651</ele>
        <time>2023-07-30T14:46:35.000Z</time>
      </trkpt>
      <trkpt lat="45.83993" lon="4.72339">
        <ele>310.51971</ele>
        <time>2023-07-30T14:46:36.000Z</time>
      </trkpt>
      <trkpt lat="45.83989" lon="4.72343">
        <ele>310.43896</ele>
        <time>2023-07-30T14:46:37.000Z</time>
      </trkpt>
      <trkpt lat="45.83984" lon="4.72346">
        <ele>310.19138</ele>
        <time>2023-07-30T14:46:38.000Z</time>
      </trkpt>
      <trkpt lat="45.83981" lon="4.7235">
        <ele>309.90234</ele>
        <time>2023-07-30T14:46:39.000Z</time>
      </trkpt>
      <trkpt lat="45.83975" lon="4.72355">
        <ele>309.83832</ele>
        <time>2023-07-30T14:46:40.000Z</time>
      </trkpt>
      <trkpt lat="45.83968" lon="4.72361">
        <ele>309.71408</ele>
        <time>2023-07-30T14:46:41.000Z</time>
      </trkpt>
      <trkpt lat="45.83963" lon="4.72366">
        <ele>309.57446</ele>
        <time>2023-07-30T14:46:42.000Z</time>
      </trkpt>
      <trkpt lat="45.83957" lon="4.72373">
        <ele>309.39911</ele>
        <time>2023-07-30T14:46:43.000Z</time>
      </trkpt>
      <trkpt lat="45.83951" lon="4.72377">
        <ele>309.26666</ele>
        <time>2023-07-30T14:46:44.000Z</time>
      </trkpt>
      <trkpt lat="45.83945" lon="4.72382">
        <ele>309.0199</ele>
        <time>2023-07-30T14:46:45.000Z</time>
      </trkpt>
      <trkpt lat="45.83937" lon="4.72386">
        <ele>308.72101</ele>
        <time>2023-07-30T14:46:46.000Z</time>
      </trkpt>
      <trkpt lat="45.8393" lon="4.72389">
        <ele>308.4118</ele>
        <time>2023-07-30T14:46:47.000Z</time>
      </trkpt>
      <trkpt lat="45.83922" lon="4.72394">
        <ele>308.13852</ele>
        <time>2023-07-30T14:46:48.000Z</time>
      </trkpt>
      <trkpt lat="45.83915" lon="4.72398">
        <ele>307.91925</ele>
        <time>2023-07-30T14:46:49.000Z</time>
      </trkpt>
      <trkpt lat="45.83906" lon="4.72402">
        <ele>307.82037</ele>
        <time>2023-07-30T14:46:50.000Z</time>
      </trkpt>
      <trkpt lat="45.83898" lon="4.72404">
        <ele>307.7876</ele>
        <time>2023-07-30T14:46:51.000Z</time>
      </trkpt>
      <trkpt lat="45.83891" lon="4.72409">
        <ele>307.44293</ele>
        <time>2023-07-30T14:46:52.000Z</time>
      </trkpt>
      <trkpt lat="45.83884" lon="4.72413">
        <ele>307.13754</ele>
        <time>2023-07-30T14:46:53.000Z</time>
      </trkpt>
      <trkpt lat="45.83875" lon="4.72417">
        <ele>306.70526</ele>
        <time>2023-07-30T14:46:54.000Z</time>
      </trkpt>
      <trkpt lat="45.83868" lon="4.72422">
        <ele>306.21442</ele>
        <time>2023-07-30T14:46:55.000Z</time>
      </trkpt>
      <trkpt lat="45.83861" lon="4.72426">
        <ele>305.71332</ele>
        <time>2023-07-30T14:46:56.000Z</time>
      </trkpt>
      <trkpt lat="45.83857" lon="4.7243">
        <ele>305.4061</ele>
        <time>2023-07-30T14:46:57.000Z</time>
      </trkpt>
      <trkpt lat="45.83851" lon="4.72435">
        <ele>305.22119</ele>
        <time>2023-07-30T14:46:58.000Z</time>
      </trkpt>
      <trkpt lat="45.83846" lon="4.72441">
        <ele>305.06299</ele>
        <time>2023-07-30T14:46:59.000Z</time>
      </trkpt>
      <trkpt lat="45.83843" lon="4.72447">
        <ele>304.70084</ele>
        <time>2023-07-30T14:47:00.000Z</time>
      </trkpt>
      <trkpt lat="45.83841" lon="4.72453">
        <ele>304.35071</ele>
        <time>2023-07-30T14:47:01.000Z</time>
      </trkpt>
      <trkpt lat="45.8384" lon="4.72461">
        <ele>304.02115</ele>
        <time>2023-07-30T14:47:02.000Z</time>
      </trkpt>
      <trkpt lat="45.83839" lon="4.72469">
        <ele>303.70917</ele>
        <time>2023-07-30T14:47:03.000Z</time>
      </trkpt>
      <trkpt lat="45.83839" lon="4.72477">
        <ele>303.28616</ele>
        <time>2023-07-30T14:47:04.000Z</time>
      </trkpt>
      <trkpt lat="45.8384" lon="4.72484">
        <ele>304.55148</ele>
        <time>2023-07-30T14:47:05.000Z</time>
      </trkpt>
      <trkpt lat="45.83842" lon="4.72492">
        <ele>304.52399</ele>
        <time>2023-07-30T14:47:06.000Z</time>
      </trkpt>
      <trkpt lat="45.83843" lon="4.725">
        <ele>305.49994</ele>
        <time>2023-07-30T14:47:07.000Z</time>
      </trkpt>
      <trkpt lat="45.83844" lon="4.72511">
        <ele>306.50174</ele>
        <time>2023-07-30T14:47:08.000Z</time>
      </trkpt>
      <trkpt lat="45.83844" lon="4.72517">
        <ele>307.37463</ele>
        <time>2023-07-30T14:47:09.000Z</time>
      </trkpt>
      <trkpt lat="45.83844" lon="4.72524">
        <ele>308.22125</ele>
        <time>2023-07-30T14:47:10.000Z</time>
      </trkpt>
      <trkpt lat="45.83843" lon="4.72531">
        <ele>309.17627</ele>
        <time>2023-07-30T14:47:11.000Z</time>
      </trkpt>
      <trkpt lat="45.83843" lon="4.72536">
        <ele>310.21744</ele>
        <time>2023-07-30T14:47:12.000Z</time>
      </trkpt>
      <trkpt lat="45.83843" lon="4.72541">
        <ele>311.3927</ele>
        <time>2023-07-30T14:47:13.000Z</time>
      </trkpt>
      <trkpt lat="45.83841" lon="4.72549">
        <ele>312.74472</ele>
        <time>2023-07-30T14:47:14.000Z</time>
      </trkpt>
      <trkpt lat="45.83839" lon="4.72552">
        <ele>314.03546</ele>
        <time>2023-07-30T14:47:15.000Z</time>
      </trkpt>
      <trkpt lat="45.83838" lon="4.72558">
        <ele>315.23282</ele>
        <time>2023-07-30T14:47:16.000Z</time>
      </trkpt>
      <trkpt lat="45.83837" lon="4.72564">
        <ele>316.21896</ele>
        <time>2023-07-30T14:47:17.000Z</time>
      </trkpt>
      <trkpt lat="45.83837" lon="4.72567">
        <ele>317.42749</ele>
        <time>2023-07-30T14:47:18.000Z</time>
      </trkpt>
      <trkpt lat="45.83837" lon="4.72571">
        <ele>318.65225</ele>
        <time>2023-07-30T14:47:19.000Z</time>
      </trkpt>
      <trkpt lat="45.83835" lon="4.72575">
        <ele>319.89011</ele>
        <time>2023-07-30T14:47:20.000Z</time>
      </trkpt>
      <trkpt lat="45.83834" lon="4.72579">
        <ele>321.1813</ele>
        <time>2023-07-30T14:47:21.000Z</time>
      </trkpt>
      <trkpt lat="45.83833" lon="4.72582">
        <ele>322.52829</ele>
        <time>2023-07-30T14:47:22.000Z</time>
      </trkpt>
      <trkpt lat="45.83832" lon="4.72587">
        <ele>323.91333</ele>
        <time>2023-07-30T14:47:23.000Z</time>
      </trkpt>
      <trkpt lat="45.83831" lon="4.72591">
        <ele>325.36615</ele>
        <time>2023-07-30T14:47:24.000Z</time>
      </trkpt>
      <trkpt lat="45.83829" lon="4.72596">
        <ele>325.39325</ele>
        <time>2023-07-30T14:47:25.000Z</time>
      </trkpt>
      <trkpt lat="45.83827" lon="4.726">
        <ele>326.76523</ele>
        <time>2023-07-30T14:47:26.000Z</time>
      </trkpt>
      <trkpt lat="45.83825" lon="4.72604">
        <ele>326.67474</ele>
        <time>2023-07-30T14:47:27.000Z</time>
      </trkpt>
      <trkpt lat="45.83822" lon="4.72608">
        <ele>326.67624</ele>
        <time>2023-07-30T14:47:28.000Z</time>
      </trkpt>
      <trkpt lat="45.83819" lon="4.72612">
        <ele>326.76096</ele>
        <time>2023-07-30T14:47:29.000Z</time>
      </trkpt>
      <trkpt lat="45.83815" lon="4.72615">
        <ele>326.80664</ele>
        <time>2023-07-30T14:47:30.000Z</time>
      </trkpt>
      <trkpt lat="45.83812" lon="4.72616">
        <ele>326.81464</ele>
        <time>2023-07-30T14:47:31.000Z</time>
      </trkpt>
      <trkpt lat="45.83805" lon="4.72616">
        <ele>326.72482</ele>
        <time>2023-07-30T14:47:32.000Z</time>
      </trkpt>
      <trkpt lat="45.83802" lon="4.72617">
        <ele>326.58765</ele>
        <time>2023-07-30T14:47:33.000Z</time>
      </trkpt>
      <trkpt lat="45.83798" lon="4.72618">
        <ele>326.51056</ele>
        <time>2023-07-30T14:47:34.000Z</time>
      </trkpt>
      <trkpt lat="45.83795" lon="4.72619">
        <ele>326.58896</ele>
        <time>2023-07-30T14:47:35.000Z</time>
      </trkpt>
      <trkpt lat="45.83789" lon="4.72622">
        <ele>326.65533</ele>
        <time>2023-07-30T14:47:36.000Z</time>
      </trkpt>
      <trkpt lat="45.83785" lon="4.72624">
        <ele>326.78888</ele>
        <time>2023-07-30T14:47:37.000Z</time>
      </trkpt>
      <trkpt lat="45.83781" lon="4.72625">
        <ele>326.76031</ele>
        <time>2023-07-30T14:47:38.000Z</time>
      </trkpt>
      <trkpt lat="45.83777" lon="4.72626">
        <ele>326.71405</ele>
        <time>2023-07-30T14:47:39.000Z</time>
      </trkpt>
      <trkpt lat="45.83773" lon="4.72628">
        <ele>326.66269</ele>
        <time>2023-07-30T14:47:40.000Z</time>
      </trkpt>
      <trkpt lat="45.83769" lon="4.72629">
        <ele>326.61414</ele>
        <time>2023-07-30T14:47:41.000Z</time>
      </trkpt>
      <trkpt lat="45.83765" lon="4.7263">
        <ele>326.62177</ele>
        <time>2023-07-30T14:47:42.000Z</time>
      </trkpt>
      <trkpt lat="45.83757" lon="4.72633">
        <ele>326.56088</ele>
        <time>2023-07-30T14:47:43.000Z</time>
      </trkpt>
      <trkpt lat="45.83753" lon="4.72633">
        <ele>326.77237</ele>
        <time>2023-07-30T14:47:44.000Z</time>
      </trkpt>
      <trkpt lat="45.83748" lon="4.72635">
        <ele>326.84772</ele>
        <time>2023-07-30T14:47:45.000Z</time>
      </trkpt>
      <trkpt lat="45.83743" lon="4.72637">
        <ele>326.50568</ele>
        <time>2023-07-30T14:47:46.000Z</time>
      </trkpt>
      <trkpt lat="45.83738" lon="4.72639">
        <ele>326.69656</ele>
        <time>2023-07-30T14:47:47.000Z</time>
      </trkpt>
      <trkpt lat="45.83734" lon="4.72641">
        <ele>326.7431</ele>
        <time>2023-07-30T14:47:48.000Z</time>
      </trkpt>
      <trkpt lat="45.8373" lon="4.72644">
        <ele>326.7688</ele>
        <time>2023-07-30T14:47:49.000Z</time>
      </trkpt>
      <trkpt lat="45.83727" lon="4.72645">
        <ele>326.84271</ele>
        <time>2023-07-30T14:47:50.000Z</time>
      </trkpt>
      <trkpt lat="45.83722" lon="4.72649">
        <ele>326.91617</ele>
        <time>2023-07-30T14:47:51.000Z</time>
      </trkpt>
      <trkpt lat="45.83717" lon="4.72651">
        <ele>327.01703</ele>
        <time>2023-07-30T14:47:52.000Z</time>
      </trkpt>
      <trkpt lat="45.83713" lon="4.72653">
        <ele>327.0834</ele>
        <time>2023-07-30T14:47:53.000Z</time>
      </trkpt>
      <trkpt lat="45.83709" lon="4.72654">
        <ele>327.24805</ele>
        <time>2023-07-30T14:47:54.000Z</time>
      </trkpt>
      <trkpt lat="45.83705" lon="4.72655">
        <ele>327.37201</ele>
        <time>2023-07-30T14:47:55.000Z</time>
      </trkpt>
      <trkpt lat="45.83701" lon="4.72656">
        <ele>327.65933</ele>
        <time>2023-07-30T14:47:56.000Z</time>
      </trkpt>
      <trkpt lat="45.83697" lon="4.72658">
        <ele>327.89047</ele>
        <time>2023-07-30T14:47:57.000Z</time>
      </trkpt>
      <trkpt lat="45.83693" lon="4.72659">
        <ele>328.08832</ele>
        <time>2023-07-30T14:47:58.000Z</time>
      </trkpt>
      <trkpt lat="45.83688" lon="4.7266">
        <ele>328.30441</ele>
        <time>2023-07-30T14:47:59.000Z</time>
      </trkpt>
      <trkpt lat="45.83686" lon="4.72661">
        <ele>328.51031</ele>
        <time>2023-07-30T14:48:00.000Z</time>
      </trkpt>
      <trkpt lat="45.83682" lon="4.72661">
        <ele>328.73248</ele>
        <time>2023-07-30T14:48:01.000Z</time>
      </trkpt>
      <trkpt lat="45.83678" lon="4.72663">
        <ele>327.56223</ele>
        <time>2023-07-30T14:48:02.000Z</time>
      </trkpt>
      <trkpt lat="45.83674" lon="4.72663">
        <ele>326.39639</ele>
        <time>2023-07-30T14:48:03.000Z</time>
      </trkpt>
      <trkpt lat="45.83669" lon="4.72665">
        <ele>324.88287</ele>
        <time>2023-07-30T14:48:04.000Z</time>
      </trkpt>
      <trkpt lat="45.83665" lon="4.72666">
        <ele>323.36658</ele>
        <time>2023-07-30T14:48:05.000Z</time>
      </trkpt>
      <trkpt lat="45.83661" lon="4.72668">
        <ele>322.58734</ele>
        <time>2023-07-30T14:48:06.000Z</time>
      </trkpt>
      <trkpt lat="45.83657" lon="4.7267">
        <ele>321.69196</ele>
        <time>2023-07-30T14:48:07.000Z</time>
      </trkpt>
      <trkpt lat="45.83654" lon="4.72672">
        <ele>320.78851</ele>
        <time>2023-07-30T14:48:08.000Z</time>
      </trkpt>
      <trkpt lat="45.8365" lon="4.72674">
        <ele>319.92194</ele>
        <time>2023-07-30T14:48:09.000Z</time>
      </trkpt>
      <trkpt lat="45.83646" lon="4.72677">
        <ele>319.08887</ele>
        <time>2023-07-30T14:48:10.000Z</time>
      </trkpt>
      <trkpt lat="45.83642" lon="4.72679">
        <ele>318.2403</ele>
        <time>2023-07-30T14:48:11.000Z</time>
      </trkpt>
      <trkpt lat="45.83639" lon="4.72682">
        <ele>317.39584</ele>
        <time>2023-07-30T14:48:12.000Z</time>
      </trkpt>
      <trkpt lat="45.83635" lon="4.72686">
        <ele>316.44403</ele>
        <time>2023-07-30T14:48:13.000Z</time>
      </trkpt>
      <trkpt lat="45.83631" lon="4.7269">
        <ele>315.16998</ele>
        <time>2023-07-30T14:48:14.000Z</time>
      </trkpt>
      <trkpt lat="45.83628" lon="4.72693">
        <ele>314.16501</ele>
        <time>2023-07-30T14:48:15.000Z</time>
      </trkpt>
      <trkpt lat="45.83625" lon="4.72696">
        <ele>313.31589</ele>
        <time>2023-07-30T14:48:16.000Z</time>
      </trkpt>
      <trkpt lat="45.83623" lon="4.72699">
        <ele>312.42047</ele>
        <time>2023-07-30T14:48:17.000Z</time>
      </trkpt>
      <trkpt lat="45.8362" lon="4.72701">
        <ele>311.59296</ele>
        <time>2023-07-30T14:48:18.000Z</time>
      </trkpt>
      <trkpt lat="45.83617" lon="4.72703">
        <ele>310.79181</ele>
        <time>2023-07-30T14:48:19.000Z</time>
      </trkpt>
      <trkpt lat="45.83613" lon="4.72705">
        <ele>309.99579</ele>
        <time>2023-07-30T14:48:20.000Z</time>
      </trkpt>
      <trkpt lat="45.8361" lon="4.72707">
        <ele>309.19489</ele>
        <time>2023-07-30T14:48:21.000Z</time>
      </trkpt>
      <trkpt lat="45.83606" lon="4.72708">
        <ele>309.74249</ele>
        <time>2023-07-30T14:48:22.000Z</time>
      </trkpt>
      <trkpt lat="45.83603" lon="4.7271">
        <ele>310.27643</ele>
        <time>2023-07-30T14:48:23.000Z</time>
      </trkpt>
      <trkpt lat="45.83599" lon="4.72713">
        <ele>310.88605</ele>
        <time>2023-07-30T14:48:24.000Z</time>
      </trkpt>
      <trkpt lat="45.83596" lon="4.72716">
        <ele>311.26108</ele>
        <time>2023-07-30T14:48:25.000Z</time>
      </trkpt>
      <trkpt lat="45.83591" lon="4.72719">
        <ele>312.40515</ele>
        <time>2023-07-30T14:48:26.000Z</time>
      </trkpt>
      <trkpt lat="45.83588" lon="4.72721">
        <ele>313.61691</ele>
        <time>2023-07-30T14:48:27.000Z</time>
      </trkpt>
      <trkpt lat="45.83585" lon="4.72723">
        <ele>314.9455</ele>
        <time>2023-07-30T14:48:28.000Z</time>
      </trkpt>
      <trkpt lat="45.8358" lon="4.72726">
        <ele>316.52924</ele>
        <time>2023-07-30T14:48:29.000Z</time>
      </trkpt>
      <trkpt lat="45.83576" lon="4.7273">
        <ele>318.23901</ele>
        <time>2023-07-30T14:48:30.000Z</time>
      </trkpt>
      <trkpt lat="45.83571" lon="4.72733">
        <ele>319.3793</ele>
        <time>2023-07-30T14:48:31.000Z</time>
      </trkpt>
      <trkpt lat="45.83566" lon="4.72736">
        <ele>320.48779</ele>
        <time>2023-07-30T14:48:32.000Z</time>
      </trkpt>
      <trkpt lat="45.83562" lon="4.72738">
        <ele>321.71765</ele>
        <time>2023-07-30T14:48:33.000Z</time>
      </trkpt>
      <trkpt lat="45.83558" lon="4.72739">
        <ele>323.1463</ele>
        <time>2023-07-30T14:48:34.000Z</time>
      </trkpt>
      <trkpt lat="45.83553" lon="4.72741">
        <ele>324.32126</ele>
        <time>2023-07-30T14:48:35.000Z</time>
      </trkpt>
      <trkpt lat="45.83545" lon="4.72745">
        <ele>325.21338</ele>
        <time>2023-07-30T14:48:36.000Z</time>
      </trkpt>
      <trkpt lat="45.83541" lon="4.72746">
        <ele>324.88483</ele>
        <time>2023-07-30T14:48:37.000Z</time>
      </trkpt>
      <trkpt lat="45.83538" lon="4.72746">
        <ele>324.64261</ele>
        <time>2023-07-30T14:48:38.000Z</time>
      </trkpt>
      <trkpt lat="45.83533" lon="4.72748">
        <ele>324.38202</ele>
        <time>2023-07-30T14:48:39.000Z</time>
      </trkpt>
      <trkpt lat="45.83527" lon="4.7275">
        <ele>324.11218</ele>
        <time>2023-07-30T14:48:40.000Z</time>
      </trkpt>
      <trkpt lat="45.83522" lon="4.72752">
        <ele>323.79556</ele>
        <time>2023-07-30T14:48:41.000Z</time>
      </trkpt>
      <trkpt lat="45.83516" lon="4.72754">
        <ele>323.48465</ele>
        <time>2023-07-30T14:48:42.000Z</time>
      </trkpt>
      <trkpt lat="45.83512" lon="4.72754">
        <ele>323.13705</ele>
        <time>2023-07-30T14:48:43.000Z</time>
      </trkpt>
      <trkpt lat="45.83506" lon="4.72756">
        <ele>322.72028</ele>
        <time>2023-07-30T14:48:44.000Z</time>
      </trkpt>
      <trkpt lat="45.83502" lon="4.72757">
        <ele>322.57196</ele>
        <time>2023-07-30T14:48:45.000Z</time>
      </trkpt>
      <trkpt lat="45.83497" lon="4.72759">
        <ele>321.29767</ele>
        <time>2023-07-30T14:48:46.000Z</time>
      </trkpt>
      <trkpt lat="45.83493" lon="4.72761">
        <ele>320.0047</ele>
        <time>2023-07-30T14:48:47.000Z</time>
      </trkpt>
      <trkpt lat="45.83489" lon="4.72764">
        <ele>318.87512</ele>
        <time>2023-07-30T14:48:48.000Z</time>
      </trkpt>
      <trkpt lat="45.83486" lon="4.72765">
        <ele>317.4278</ele>
        <time>2023-07-30T14:48:49.000Z</time>
      </trkpt>
      <trkpt lat="45.83481" lon="4.72768">
        <ele>315.83249</ele>
        <time>2023-07-30T14:48:50.000Z</time>
      </trkpt>
      <trkpt lat="45.83477" lon="4.72768">
        <ele>314.80869</ele>
        <time>2023-07-30T14:48:51.000Z</time>
      </trkpt>
      <trkpt lat="45.83472" lon="4.7277">
        <ele>313.7294</ele>
        <time>2023-07-30T14:48:52.000Z</time>
      </trkpt>
      <trkpt lat="45.83467" lon="4.72773">
        <ele>312.58121</ele>
        <time>2023-07-30T14:48:53.000Z</time>
      </trkpt>
      <trkpt lat="45.83463" lon="4.72773">
        <ele>311.38959</ele>
        <time>2023-07-30T14:48:54.000Z</time>
      </trkpt>
      <trkpt lat="45.83458" lon="4.72774">
        <ele>310.18506</ele>
        <time>2023-07-30T14:48:55.000Z</time>
      </trkpt>
      <trkpt lat="45.83454" lon="4.72776">
        <ele>309.05811</ele>
        <time>2023-07-30T14:48:56.000Z</time>
      </trkpt>
      <trkpt lat="45.83449" lon="4.72777">
        <ele>309.20712</ele>
        <time>2023-07-30T14:48:57.000Z</time>
      </trkpt>
      <trkpt lat="45.83447" lon="4.72778">
        <ele>309.30792</ele>
        <time>2023-07-30T14:48:58.000Z</time>
      </trkpt>
      <trkpt lat="45.83443" lon="4.72779">
        <ele>309.34924</ele>
        <time>2023-07-30T14:48:59.000Z</time>
      </trkpt>
      <trkpt lat="45.8344" lon="4.7278">
        <ele>309.36853</ele>
        <time>2023-07-30T14:49:00.000Z</time>
      </trkpt>
      <trkpt lat="45.83437" lon="4.72781">
        <ele>309.37521</ele>
        <time>2023-07-30T14:49:01.000Z</time>
      </trkpt>
      <trkpt lat="45.83435" lon="4.72783">
        <ele>309.17206</ele>
        <time>2023-07-30T14:49:02.000Z</time>
      </trkpt>
      <trkpt lat="45.83433" lon="4.72784">
        <ele>309.00482</ele>
        <time>2023-07-30T14:49:04.000Z</time>
      </trkpt>
      <trkpt lat="45.83431" lon="4.72786">
        <ele>309.20224</ele>
        <time>2023-07-30T14:49:09.000Z</time>
      </trkpt>
      <trkpt lat="45.8343" lon="4.72788">
        <ele>310.57532</ele>
        <time>2023-07-30T14:50:10.000Z</time>
      </trkpt>
      <trkpt lat="45.8343" lon="4.72791">
        <ele>312.02347</ele>
        <time>2023-07-30T14:50:12.000Z</time>
      </trkpt>
      <trkpt lat="45.83431" lon="4.72797">
        <ele>313.4765</ele>
        <time>2023-07-30T14:50:14.000Z</time>
      </trkpt>
      <trkpt lat="45.83431" lon="4.72801">
        <ele>313.46744</ele>
        <time>2023-07-30T14:50:15.000Z</time>
      </trkpt>
      <trkpt lat="45.83432" lon="4.72805">
        <ele>313.54514</ele>
        <time>2023-07-30T14:50:16.000Z</time>
      </trkpt>
      <trkpt lat="45.83432" lon="4.7281">
        <ele>313.64557</ele>
        <time>2023-07-30T14:50:17.000Z</time>
      </trkpt>
      <trkpt lat="45.83432" lon="4.72816">
        <ele>313.76389</ele>
        <time>2023-07-30T14:50:18.000Z</time>
      </trkpt>
      <trkpt lat="45.83433" lon="4.72821">
        <ele>313.97861</ele>
        <time>2023-07-30T14:50:19.000Z</time>
      </trkpt>
      <trkpt lat="45.83433" lon="4.72825">
        <ele>314.28009</ele>
        <time>2023-07-30T14:50:20.000Z</time>
      </trkpt>
      <trkpt lat="45.83434" lon="4.72829">
        <ele>314.48352</ele>
        <time>2023-07-30T14:50:21.000Z</time>
      </trkpt>
      <trkpt lat="45.83434" lon="4.72834">
        <ele>314.7038</ele>
        <time>2023-07-30T14:50:22.000Z</time>
      </trkpt>
      <trkpt lat="45.83435" lon="4.72839">
        <ele>314.85474</ele>
        <time>2023-07-30T14:50:23.000Z</time>
      </trkpt>
      <trkpt lat="45.83435" lon="4.72843">
        <ele>315.0593</ele>
        <time>2023-07-30T14:50:24.000Z</time>
      </trkpt>
      <trkpt lat="45.83436" lon="4.72846">
        <ele>315.21884</ele>
        <time>2023-07-30T14:50:25.000Z</time>
      </trkpt>
      <trkpt lat="45.83437" lon="4.7285">
        <ele>315.37979</ele>
        <time>2023-07-30T14:50:26.000Z</time>
      </trkpt>
      <trkpt lat="45.83439" lon="4.72855">
        <ele>315.3085</ele>
        <time>2023-07-30T14:50:27.000Z</time>
      </trkpt>
      <trkpt lat="45.8344" lon="4.7286">
        <ele>315.20868</ele>
        <time>2023-07-30T14:50:28.000Z</time>
      </trkpt>
      <trkpt lat="45.83441" lon="4.72866">
        <ele>315.31818</ele>
        <time>2023-07-30T14:50:29.000Z</time>
      </trkpt>
      <trkpt lat="45.83443" lon="4.72871">
        <ele>315.44934</ele>
        <time>2023-07-30T14:50:30.000Z</time>
      </trkpt>
      <trkpt lat="45.83444" lon="4.72877">
        <ele>315.6965</ele>
        <time>2023-07-30T14:50:31.000Z</time>
      </trkpt>
      <trkpt lat="45.83445" lon="4.72882">
        <ele>314.71176</ele>
        <time>2023-07-30T14:50:32.000Z</time>
      </trkpt>
      <trkpt lat="45.83446" lon="4.72887">
        <ele>313.6796</ele>
        <time>2023-07-30T14:50:33.000Z</time>
      </trkpt>
      <trkpt lat="45.83447" lon="4.72891">
        <ele>312.6601</ele>
        <time>2023-07-30T14:50:34.000Z</time>
      </trkpt>
      <trkpt lat="45.83447" lon="4.72896">
        <ele>312.73355</ele>
        <time>2023-07-30T14:50:35.000Z</time>
      </trkpt>
      <trkpt lat="45.83448" lon="4.72901">
        <ele>312.57867</ele>
        <time>2023-07-30T14:50:36.000Z</time>
      </trkpt>
      <trkpt lat="45.83449" lon="4.72905">
        <ele>312.4588</ele>
        <time>2023-07-30T14:50:37.000Z</time>
      </trkpt>
      <trkpt lat="45.8345" lon="4.7291">
        <ele>312.35172</ele>
        <time>2023-07-30T14:50:38.000Z</time>
      </trkpt>
      <trkpt lat="45.83451" lon="4.72914">
        <ele>312.24069</ele>
        <time>2023-07-30T14:50:39.000Z</time>
      </trkpt>
      <trkpt lat="45.83452" lon="4.72918">
        <ele>312.10156</ele>
        <time>2023-07-30T14:50:40.000Z</time>
      </trkpt>
      <trkpt lat="45.83454" lon="4.72923">
        <ele>312.02435</ele>
        <time>2023-07-30T14:50:41.000Z</time>
      </trkpt>
      <trkpt lat="45.83455" lon="4.72928">
        <ele>311.95816</ele>
        <time>2023-07-30T14:50:42.000Z</time>
      </trkpt>
      <trkpt lat="45.83457" lon="4.72932">
        <ele>311.9632</ele>
        <time>2023-07-30T14:50:43.000Z</time>
      </trkpt>
      <trkpt lat="45.83458" lon="4.72936">
        <ele>311.87643</ele>
        <time>2023-07-30T14:50:44.000Z</time>
      </trkpt>
      <trkpt lat="45.83459" lon="4.72941">
        <ele>311.64279</ele>
        <time>2023-07-30T14:50:45.000Z</time>
      </trkpt>
      <trkpt lat="45.83461" lon="4.72945">
        <ele>311.77664</ele>
        <time>2023-07-30T14:50:46.000Z</time>
      </trkpt>
      <trkpt lat="45.83461" lon="4.72949">
        <ele>312.12119</ele>
        <time>2023-07-30T14:50:47.000Z</time>
      </trkpt>
      <trkpt lat="45.83462" lon="4.72952">
        <ele>312.56253</ele>
        <time>2023-07-30T14:50:48.000Z</time>
      </trkpt>
      <trkpt lat="45.83463" lon="4.72958">
        <ele>312.87122</ele>
        <time>2023-07-30T14:50:49.000Z</time>
      </trkpt>
      <trkpt lat="45.83464" lon="4.72963">
        <ele>313.17963</ele>
        <time>2023-07-30T14:50:50.000Z</time>
      </trkpt>
      <trkpt lat="45.83465" lon="4.72968">
        <ele>313.14185</ele>
        <time>2023-07-30T14:50:51.000Z</time>
      </trkpt>
      <trkpt lat="45.83467" lon="4.72972">
        <ele>313.13315</ele>
        <time>2023-07-30T14:50:52.000Z</time>
      </trkpt>
      <trkpt lat="45.83468" lon="4.72976">
        <ele>313.17932</ele>
        <time>2023-07-30T14:50:53.000Z</time>
      </trkpt>
      <trkpt lat="45.83469" lon="4.7298">
        <ele>313.17618</ele>
        <time>2023-07-30T14:50:54.000Z</time>
      </trkpt>
      <trkpt lat="45.83471" lon="4.72985">
        <ele>313.30728</ele>
        <time>2023-07-30T14:50:55.000Z</time>
      </trkpt>
      <trkpt lat="45.83472" lon="4.72991">
        <ele>313.62848</ele>
        <time>2023-07-30T14:50:56.000Z</time>
      </trkpt>
      <trkpt lat="45.83473" lon="4.72996">
        <ele>313.95551</ele>
        <time>2023-07-30T14:50:57.000Z</time>
      </trkpt>
      <trkpt lat="45.83474" lon="4.73">
        <ele>314.28607</ele>
        <time>2023-07-30T14:50:58.000Z</time>
      </trkpt>
      <trkpt lat="45.83475" lon="4.73004">
        <ele>314.43631</ele>
        <time>2023-07-30T14:50:59.000Z</time>
      </trkpt>
      <trkpt lat="45.83476" lon="4.73008">
        <ele>314.55353</ele>
        <time>2023-07-30T14:51:00.000Z</time>
      </trkpt>
      <trkpt lat="45.83478" lon="4.73013">
        <ele>314.54498</ele>
        <time>2023-07-30T14:51:01.000Z</time>
      </trkpt>
      <trkpt lat="45.8348" lon="4.73019">
        <ele>314.4024</ele>
        <time>2023-07-30T14:51:02.000Z</time>
      </trkpt>
      <trkpt lat="45.83483" lon="4.73023">
        <ele>314.57059</ele>
        <time>2023-07-30T14:51:03.000Z</time>
      </trkpt>
      <trkpt lat="45.83485" lon="4.73027">
        <ele>314.76651</ele>
        <time>2023-07-30T14:51:04.000Z</time>
      </trkpt>
      <trkpt lat="45.83488" lon="4.7303">
        <ele>315.10272</ele>
        <time>2023-07-30T14:51:05.000Z</time>
      </trkpt>
      <trkpt lat="45.83491" lon="4.73033">
        <ele>315.12622</ele>
        <time>2023-07-30T14:51:06.000Z</time>
      </trkpt>
      <trkpt lat="45.83494" lon="4.73036">
        <ele>315.17972</ele>
        <time>2023-07-30T14:51:07.000Z</time>
      </trkpt>
      <trkpt lat="45.83496" lon="4.73039">
        <ele>314.96057</ele>
        <time>2023-07-30T14:51:08.000Z</time>
      </trkpt>
      <trkpt lat="45.83501" lon="4.73043">
        <ele>314.83081</ele>
        <time>2023-07-30T14:51:09.000Z</time>
      </trkpt>
      <trkpt lat="45.83505" lon="4.73047">
        <ele>314.60706</ele>
        <time>2023-07-30T14:51:10.000Z</time>
      </trkpt>
      <trkpt lat="45.83507" lon="4.73051">
        <ele>314.3316</ele>
        <time>2023-07-30T14:51:11.000Z</time>
      </trkpt>
      <trkpt lat="45.83511" lon="4.73056">
        <ele>314.08786</ele>
        <time>2023-07-30T14:51:12.000Z</time>
      </trkpt>
      <trkpt lat="45.83514" lon="4.73058">
        <ele>313.8833</ele>
        <time>2023-07-30T14:51:13.000Z</time>
      </trkpt>
      <trkpt lat="45.83518" lon="4.7306">
        <ele>313.74066</ele>
        <time>2023-07-30T14:51:14.000Z</time>
      </trkpt>
      <trkpt lat="45.83522" lon="4.73063">
        <ele>313.58206</ele>
        <time>2023-07-30T14:51:15.000Z</time>
      </trkpt>
      <trkpt lat="45.83526" lon="4.73064">
        <ele>313.4184</ele>
        <time>2023-07-30T14:51:16.000Z</time>
      </trkpt>
      <trkpt lat="45.8353" lon="4.73065">
        <ele>313.26682</ele>
        <time>2023-07-30T14:51:17.000Z</time>
      </trkpt>
      <trkpt lat="45.83534" lon="4.73064">
        <ele>313.08978</ele>
        <time>2023-07-30T14:51:18.000Z</time>
      </trkpt>
      <trkpt lat="45.83539" lon="4.73065">
        <ele>313.10101</ele>
        <time>2023-07-30T14:51:19.000Z</time>
      </trkpt>
      <trkpt lat="45.83543" lon="4.73067">
        <ele>313.0997</ele>
        <time>2023-07-30T14:51:20.000Z</time>
      </trkpt>
      <trkpt lat="45.83546" lon="4.73067">
        <ele>313.09735</ele>
        <time>2023-07-30T14:51:21.000Z</time>
      </trkpt>
      <trkpt lat="45.83549" lon="4.73067">
        <ele>313.20291</ele>
        <time>2023-07-30T14:51:22.000Z</time>
      </trkpt>
      <trkpt lat="45.83553" lon="4.73066">
        <ele>313.30719</ele>
        <time>2023-07-30T14:51:23.000Z</time>
      </trkpt>
      <trkpt lat="45.83557" lon="4.73066">
        <ele>313.42645</ele>
        <time>2023-07-30T14:51:24.000Z</time>
      </trkpt>
      <trkpt lat="45.8356" lon="4.73065">
        <ele>313.53949</ele>
        <time>2023-07-30T14:51:25.000Z</time>
      </trkpt>
      <trkpt lat="45.83564" lon="4.73063">
        <ele>313.69269</ele>
        <time>2023-07-30T14:51:26.000Z</time>
      </trkpt>
      <trkpt lat="45.83568" lon="4.73062">
        <ele>313.81219</ele>
        <time>2023-07-30T14:51:27.000Z</time>
      </trkpt>
      <trkpt lat="45.83572" lon="4.73061">
        <ele>314.18692</ele>
        <time>2023-07-30T14:51:28.000Z</time>
      </trkpt>
      <trkpt lat="45.83576" lon="4.7306">
        <ele>314.37158</ele>
        <time>2023-07-30T14:51:29.000Z</time>
      </trkpt>
      <trkpt lat="45.8358" lon="4.73059">
        <ele>314.63147</ele>
        <time>2023-07-30T14:51:30.000Z</time>
      </trkpt>
      <trkpt lat="45.83583" lon="4.73059">
        <ele>314.77411</ele>
        <time>2023-07-30T14:51:31.000Z</time>
      </trkpt>
      <trkpt lat="45.83587" lon="4.73058">
        <ele>314.75095</ele>
        <time>2023-07-30T14:51:32.000Z</time>
      </trkpt>
      <trkpt lat="45.83591" lon="4.73058">
        <ele>314.98639</ele>
        <time>2023-07-30T14:51:33.000Z</time>
      </trkpt>
      <trkpt lat="45.83594" lon="4.73057">
        <ele>315.0979</ele>
        <time>2023-07-30T14:51:34.000Z</time>
      </trkpt>
      <trkpt lat="45.83596" lon="4.73057">
        <ele>315.24332</ele>
        <time>2023-07-30T14:51:35.000Z</time>
      </trkpt>
      <trkpt lat="45.836" lon="4.73055">
        <ele>315.41309</ele>
        <time>2023-07-30T14:51:36.000Z</time>
      </trkpt>
      <trkpt lat="45.83603" lon="4.73054">
        <ele>316.89594</ele>
        <time>2023-07-30T14:51:37.000Z</time>
      </trkpt>
      <trkpt lat="45.83606" lon="4.73052">
        <ele>318.39667</ele>
        <time>2023-07-30T14:51:38.000Z</time>
      </trkpt>
      <trkpt lat="45.8361" lon="4.7305">
        <ele>319.82404</ele>
        <time>2023-07-30T14:51:39.000Z</time>
      </trkpt>
      <trkpt lat="45.83614" lon="4.73049">
        <ele>321.29889</ele>
        <time>2023-07-30T14:51:40.000Z</time>
      </trkpt>
      <trkpt lat="45.83618" lon="4.73048">
        <ele>322.9505</ele>
        <time>2023-07-30T14:51:41.000Z</time>
      </trkpt>
      <trkpt lat="45.83621" lon="4.73047">
        <ele>324.77924</ele>
        <time>2023-07-30T14:51:42.000Z</time>
      </trkpt>
      <trkpt lat="45.83625" lon="4.73045">
        <ele>326.26181</ele>
        <time>2023-07-30T14:51:43.000Z</time>
      </trkpt>
      <trkpt lat="45.83629" lon="4.73043">
        <ele>327.67538</ele>
        <time>2023-07-30T14:51:44.000Z</time>
      </trkpt>
      <trkpt lat="45.83633" lon="4.7304">
        <ele>329.05435</ele>
        <time>2023-07-30T14:51:45.000Z</time>
      </trkpt>
      <trkpt lat="45.83636" lon="4.73037">
        <ele>330.52628</ele>
        <time>2023-07-30T14:51:46.000Z</time>
      </trkpt>
      <trkpt lat="45.8364" lon="4.73034">
        <ele>331.99957</ele>
        <time>2023-07-30T14:51:47.000Z</time>
      </trkpt>
      <trkpt lat="45.83643" lon="4.73032">
        <ele>333.13348</ele>
        <time>2023-07-30T14:51:48.000Z</time>
      </trkpt>
      <trkpt lat="45.83646" lon="4.73031">
        <ele>334.47253</ele>
        <time>2023-07-30T14:51:49.000Z</time>
      </trkpt>
      <trkpt lat="45.8365" lon="4.7303">
        <ele>335.79901</ele>
        <time>2023-07-30T14:51:50.000Z</time>
      </trkpt>
      <trkpt lat="45.83653" lon="4.73029">
        <ele>337.26581</ele>
        <time>2023-07-30T14:51:51.000Z</time>
      </trkpt>
      <trkpt lat="45.83657" lon="4.73027">
        <ele>338.82642</ele>
        <time>2023-07-30T14:51:52.000Z</time>
      </trkpt>
      <trkpt lat="45.83661" lon="4.73026">
        <ele>340.18921</ele>
        <time>2023-07-30T14:51:53.000Z</time>
      </trkpt>
      <trkpt lat="45.83665" lon="4.73025">
        <ele>341.62729</ele>
        <time>2023-07-30T14:51:54.000Z</time>
      </trkpt>
      <trkpt lat="45.83669" lon="4.73025">
        <ele>342.99426</ele>
        <time>2023-07-30T14:51:55.000Z</time>
      </trkpt>
      <trkpt lat="45.83673" lon="4.73026">
        <ele>344.3736</ele>
        <time>2023-07-30T14:51:56.000Z</time>
      </trkpt>
      <trkpt lat="45.83677" lon="4.73025">
        <ele>344.36597</ele>
        <time>2023-07-30T14:51:57.000Z</time>
      </trkpt>
      <trkpt lat="45.83685" lon="4.73023">
        <ele>344.3396</ele>
        <time>2023-07-30T14:51:58.000Z</time>
      </trkpt>
      <trkpt lat="45.8369" lon="4.73024">
        <ele>344.38721</ele>
        <time>2023-07-30T14:51:59.000Z</time>
      </trkpt>
      <trkpt lat="45.83695" lon="4.73023">
        <ele>344.43546</ele>
        <time>2023-07-30T14:52:00.000Z</time>
      </trkpt>
      <trkpt lat="45.837" lon="4.73023">
        <ele>344.43683</ele>
        <time>2023-07-30T14:52:01.000Z</time>
      </trkpt>
      <trkpt lat="45.83706" lon="4.73022">
        <ele>344.25995</ele>
        <time>2023-07-30T14:52:02.000Z</time>
      </trkpt>
      <trkpt lat="45.83712" lon="4.73023">
        <ele>344.1142</ele>
        <time>2023-07-30T14:52:03.000Z</time>
      </trkpt>
      <trkpt lat="45.83718" lon="4.73021">
        <ele>343.94168</ele>
        <time>2023-07-30T14:52:04.000Z</time>
      </trkpt>
      <trkpt lat="45.83724" lon="4.7302">
        <ele>343.7316</ele>
        <time>2023-07-30T14:52:05.000Z</time>
      </trkpt>
      <trkpt lat="45.83731" lon="4.73021">
        <ele>343.26837</ele>
        <time>2023-07-30T14:52:06.000Z</time>
      </trkpt>
      <trkpt lat="45.83736" lon="4.73022">
        <ele>342.84229</ele>
        <time>2023-07-30T14:52:07.000Z</time>
      </trkpt>
      <trkpt lat="45.83741" lon="4.73024">
        <ele>342.83749</ele>
        <time>2023-07-30T14:52:08.000Z</time>
      </trkpt>
      <trkpt lat="45.83745" lon="4.73029">
        <ele>342.82803</ele>
        <time>2023-07-30T14:52:09.000Z</time>
      </trkpt>
      <trkpt lat="45.83747" lon="4.73035">
        <ele>342.87518</ele>
        <time>2023-07-30T14:52:10.000Z</time>
      </trkpt>
      <trkpt lat="45.8375" lon="4.7304">
        <ele>342.95694</ele>
        <time>2023-07-30T14:52:11.000Z</time>
      </trkpt>
      <trkpt lat="45.83751" lon="4.73046">
        <ele>343.08881</ele>
        <time>2023-07-30T14:52:12.000Z</time>
      </trkpt>
      <trkpt lat="45.83752" lon="4.73052">
        <ele>342.98795</ele>
        <time>2023-07-30T14:52:13.000Z</time>
      </trkpt>
      <trkpt lat="45.83752" lon="4.73059">
        <ele>342.88037</ele>
        <time>2023-07-30T14:52:14.000Z</time>
      </trkpt>
      <trkpt lat="45.83751" lon="4.73063">
        <ele>342.76288</ele>
        <time>2023-07-30T14:52:15.000Z</time>
      </trkpt>
      <trkpt lat="45.8375" lon="4.73068">
        <ele>342.54758</ele>
        <time>2023-07-30T14:52:16.000Z</time>
      </trkpt>
      <trkpt lat="45.83749" lon="4.73072">
        <ele>342.34576</ele>
        <time>2023-07-30T14:52:17.000Z</time>
      </trkpt>
      <trkpt lat="45.83747" lon="4.73076">
        <ele>342.15155</ele>
        <time>2023-07-30T14:52:18.000Z</time>
      </trkpt>
      <trkpt lat="45.83748" lon="4.7308">
        <ele>341.94479</ele>
        <time>2023-07-30T14:52:19.000Z</time>
      </trkpt>
      <trkpt lat="45.83751" lon="4.73084">
        <ele>341.76779</ele>
        <time>2023-07-30T14:52:20.000Z</time>
      </trkpt>
      <trkpt lat="45.83752" lon="4.73089">
        <ele>341.52802</ele>
        <time>2023-07-30T14:52:21.000Z</time>
      </trkpt>
      <trkpt lat="45.83754" lon="4.73093">
        <ele>341.24326</ele>
        <time>2023-07-30T14:52:22.000Z</time>
      </trkpt>
      <trkpt lat="45.83756" lon="4.73098">
        <ele>340.94617</ele>
        <time>2023-07-30T14:52:23.000Z</time>
      </trkpt>
      <trkpt lat="45.83757" lon="4.73103">
        <ele>340.82047</ele>
        <time>2023-07-30T14:52:24.000Z</time>
      </trkpt>
      <trkpt lat="45.83759" lon="4.73108">
        <ele>340.71179</ele>
        <time>2023-07-30T14:52:25.000Z</time>
      </trkpt>
      <trkpt lat="45.83761" lon="4.73112">
        <ele>340.63809</ele>
        <time>2023-07-30T14:52:26.000Z</time>
      </trkpt>
      <trkpt lat="45.83764" lon="4.73117">
        <ele>340.52213</ele>
        <time>2023-07-30T14:52:27.000Z</time>
      </trkpt>
      <trkpt lat="45.83766" lon="4.73122">
        <ele>340.3288</ele>
        <time>2023-07-30T14:52:28.000Z</time>
      </trkpt>
      <trkpt lat="45.83769" lon="4.73126">
        <ele>340.12637</ele>
        <time>2023-07-30T14:52:29.000Z</time>
      </trkpt>
      <trkpt lat="45.83771" lon="4.73131">
        <ele>339.91904</ele>
        <time>2023-07-30T14:52:30.000Z</time>
      </trkpt>
      <trkpt lat="45.83772" lon="4.73136">
        <ele>339.64474</ele>
        <time>2023-07-30T14:52:31.000Z</time>
      </trkpt>
      <trkpt lat="45.83774" lon="4.73141">
        <ele>339.36392</ele>
        <time>2023-07-30T14:52:32.000Z</time>
      </trkpt>
      <trkpt lat="45.83775" lon="4.73147">
        <ele>339.18802</ele>
        <time>2023-07-30T14:52:33.000Z</time>
      </trkpt>
      <trkpt lat="45.83777" lon="4.73153">
        <ele>339.06494</ele>
        <time>2023-07-30T14:52:34.000Z</time>
      </trkpt>
      <trkpt lat="45.83779" lon="4.73158">
        <ele>339.11404</ele>
        <time>2023-07-30T14:52:35.000Z</time>
      </trkpt>
      <trkpt lat="45.83779" lon="4.73163">
        <ele>338.98178</ele>
        <time>2023-07-30T14:52:36.000Z</time>
      </trkpt>
      <trkpt lat="45.8378" lon="4.73167">
        <ele>338.94403</ele>
        <time>2023-07-30T14:52:37.000Z</time>
      </trkpt>
      <trkpt lat="45.83781" lon="4.73171">
        <ele>338.91391</ele>
        <time>2023-07-30T14:52:38.000Z</time>
      </trkpt>
      <trkpt lat="45.83782" lon="4.73175">
        <ele>338.86148</ele>
        <time>2023-07-30T14:52:39.000Z</time>
      </trkpt>
      <trkpt lat="45.83782" lon="4.73178">
        <ele>338.76498</ele>
        <time>2023-07-30T14:52:40.000Z</time>
      </trkpt>
      <trkpt lat="45.83783" lon="4.73181">
        <ele>338.71985</ele>
        <time>2023-07-30T14:52:41.000Z</time>
      </trkpt>
      <trkpt lat="45.83783" lon="4.73185">
        <ele>338.86792</ele>
        <time>2023-07-30T14:52:43.000Z</time>
      </trkpt>
      <trkpt lat="45.83782" lon="4.73187">
        <ele>338.88525</ele>
        <time>2023-07-30T14:52:45.000Z</time>
      </trkpt>
      <trkpt lat="45.83784" lon="4.73186">
        <ele>338.17789</ele>
        <time>2023-07-30T14:53:28.000Z</time>
      </trkpt>
      <trkpt lat="45.83785" lon="4.73184">
        <ele>337.47067</ele>
        <time>2023-07-30T14:53:32.000Z</time>
      </trkpt>
      <trkpt lat="45.83788" lon="4.73181">
        <ele>336.88373</ele>
        <time>2023-07-30T14:53:34.000Z</time>
      </trkpt>
      <trkpt lat="45.8379" lon="4.7318">
        <ele>336.34549</ele>
        <time>2023-07-30T14:53:35.000Z</time>
      </trkpt>
      <trkpt lat="45.83791" lon="4.73179">
        <ele>335.82227</ele>
        <time>2023-07-30T14:53:36.000Z</time>
      </trkpt>
      <trkpt lat="45.83793" lon="4.73177">
        <ele>335.3074</ele>
        <time>2023-07-30T14:53:37.000Z</time>
      </trkpt>
      <trkpt lat="45.83795" lon="4.73176">
        <ele>334.7583</ele>
        <time>2023-07-30T14:53:38.000Z</time>
      </trkpt>
      <trkpt lat="45.83796" lon="4.73174">
        <ele>334.24619</ele>
        <time>2023-07-30T14:53:39.000Z</time>
      </trkpt>
      <trkpt lat="45.83798" lon="4.73172">
        <ele>333.71613</ele>
        <time>2023-07-30T14:53:40.000Z</time>
      </trkpt>
      <trkpt lat="45.838" lon="4.73171">
        <ele>333.18973</ele>
        <time>2023-07-30T14:53:41.000Z</time>
      </trkpt>
      <trkpt lat="45.83802" lon="4.73169">
        <ele>332.63998</ele>
        <time>2023-07-30T14:53:42.000Z</time>
      </trkpt>
      <trkpt lat="45.83804" lon="4.73168">
        <ele>331.94275</ele>
        <time>2023-07-30T14:53:43.000Z</time>
      </trkpt>
      <trkpt lat="45.83806" lon="4.73166">
        <ele>331.42242</ele>
        <time>2023-07-30T14:53:44.000Z</time>
      </trkpt>
      <trkpt lat="45.83808" lon="4.73165">
        <ele>330.80972</ele>
        <time>2023-07-30T14:53:45.000Z</time>
      </trkpt>
      <trkpt lat="45.83811" lon="4.73163">
        <ele>330.16208</ele>
        <time>2023-07-30T14:53:46.000Z</time>
      </trkpt>
      <trkpt lat="45.83813" lon="4.7316">
        <ele>329.55292</ele>
        <time>2023-07-30T14:53:47.000Z</time>
      </trkpt>
      <trkpt lat="45.83815" lon="4.73158">
        <ele>328.90936</ele>
        <time>2023-07-30T14:53:48.000Z</time>
      </trkpt>
      <trkpt lat="45.83817" lon="4.73156">
        <ele>328.19092</ele>
        <time>2023-07-30T14:53:49.000Z</time>
      </trkpt>
      <trkpt lat="45.83819" lon="4.73154">
        <ele>327.32355</ele>
        <time>2023-07-30T14:53:50.000Z</time>
      </trkpt>
      <trkpt lat="45.83821" lon="4.73152">
        <ele>326.841</ele>
        <time>2023-07-30T14:53:51.000Z</time>
      </trkpt>
      <trkpt lat="45.83823" lon="4.7315">
        <ele>326.97672</ele>
        <time>2023-07-30T14:53:52.000Z</time>
      </trkpt>
      <trkpt lat="45.83825" lon="4.73149">
        <ele>327.13449</ele>
        <time>2023-07-30T14:53:53.000Z</time>
      </trkpt>
      <trkpt lat="45.83828" lon="4.73148">
        <ele>327.27243</ele>
        <time>2023-07-30T14:53:54.000Z</time>
      </trkpt>
      <trkpt lat="45.8383" lon="4.73146">
        <ele>327.41632</ele>
        <time>2023-07-30T14:53:55.000Z</time>
      </trkpt>
      <trkpt lat="45.83832" lon="4.73145">
        <ele>327.56021</ele>
        <time>2023-07-30T14:53:56.000Z</time>
      </trkpt>
      <trkpt lat="45.83834" lon="4.73143">
        <ele>327.73343</ele>
        <time>2023-07-30T14:53:57.000Z</time>
      </trkpt>
      <trkpt lat="45.83837" lon="4.73142">
        <ele>327.72748</ele>
        <time>2023-07-30T14:53:58.000Z</time>
      </trkpt>
      <trkpt lat="45.83839" lon="4.7314">
        <ele>327.85184</ele>
        <time>2023-07-30T14:53:59.000Z</time>
      </trkpt>
      <trkpt lat="45.83841" lon="4.73139">
        <ele>327.82343</ele>
        <time>2023-07-30T14:54:00.000Z</time>
      </trkpt>
      <trkpt lat="45.83844" lon="4.73137">
        <ele>327.8187</ele>
        <time>2023-07-30T14:54:01.000Z</time>
      </trkpt>
      <trkpt lat="45.83847" lon="4.73136">
        <ele>327.81836</ele>
        <time>2023-07-30T14:54:02.000Z</time>
      </trkpt>
      <trkpt lat="45.83849" lon="4.73134">
        <ele>327.84467</ele>
        <time>2023-07-30T14:54:03.000Z</time>
      </trkpt>
      <trkpt lat="45.83852" lon="4.73133">
        <ele>327.86395</ele>
        <time>2023-07-30T14:54:04.000Z</time>
      </trkpt>
      <trkpt lat="45.83854" lon="4.73131">
        <ele>327.92505</ele>
        <time>2023-07-30T14:54:05.000Z</time>
      </trkpt>
      <trkpt lat="45.83856" lon="4.7313">
        <ele>328.22784</ele>
        <time>2023-07-30T14:54:06.000Z</time>
      </trkpt>
      <trkpt lat="45.83859" lon="4.73128">
        <ele>328.49585</ele>
        <time>2023-07-30T14:54:07.000Z</time>
      </trkpt>
      <trkpt lat="45.83861" lon="4.73127">
        <ele>328.75342</ele>
        <time>2023-07-30T14:54:08.000Z</time>
      </trkpt>
      <trkpt lat="45.83864" lon="4.73125">
        <ele>329.05536</ele>
        <time>2023-07-30T14:54:09.000Z</time>
      </trkpt>
      <trkpt lat="45.83867" lon="4.73123">
        <ele>329.37787</ele>
        <time>2023-07-30T14:54:10.000Z</time>
      </trkpt>
      <trkpt lat="45.83869" lon="4.73121">
        <ele>329.47113</ele>
        <time>2023-07-30T14:54:11.000Z</time>
      </trkpt>
      <trkpt lat="45.83871" lon="4.73119">
        <ele>329.5531</ele>
        <time>2023-07-30T14:54:12.000Z</time>
      </trkpt>
      <trkpt lat="45.83873" lon="4.73117">
        <ele>329.66306</ele>
        <time>2023-07-30T14:54:13.000Z</time>
      </trkpt>
      <trkpt lat="45.83875" lon="4.73116">
        <ele>329.63461</ele>
        <time>2023-07-30T14:54:14.000Z</time>
      </trkpt>
      <trkpt lat="45.83877" lon="4.73114">
        <ele>329.70758</ele>
        <time>2023-07-30T14:54:15.000Z</time>
      </trkpt>
      <trkpt lat="45.83878" lon="4.73113">
        <ele>329.76456</ele>
        <time>2023-07-30T14:54:16.000Z</time>
      </trkpt>
      <trkpt lat="45.8388" lon="4.73112">
        <ele>329.76163</ele>
        <time>2023-07-30T14:54:17.000Z</time>
      </trkpt>
      <trkpt lat="45.83883" lon="4.73111">
        <ele>329.95544</ele>
        <time>2023-07-30T14:54:19.000Z</time>
      </trkpt>
      <trkpt lat="45.83886" lon="4.7311">
        <ele>329.8017</ele>
        <time>2023-07-30T14:54:21.000Z</time>
      </trkpt>
      <trkpt lat="45.83888" lon="4.73111">
        <ele>329.72763</ele>
        <time>2023-07-30T14:54:23.000Z</time>
      </trkpt>
      <trkpt lat="45.83891" lon="4.73111">
        <ele>329.6456</ele>
        <time>2023-07-30T14:54:25.000Z</time>
      </trkpt>
      <trkpt lat="45.83894" lon="4.73111">
        <ele>330.48422</ele>
        <time>2023-07-30T14:54:27.000Z</time>
      </trkpt>
      <trkpt lat="45.83897" lon="4.7311">
        <ele>331.30106</ele>
        <time>2023-07-30T14:54:29.000Z</time>
      </trkpt>
      <trkpt lat="45.83899" lon="4.7311">
        <ele>332.19632</ele>
        <time>2023-07-30T14:54:31.000Z</time>
      </trkpt>
      <trkpt lat="45.83903" lon="4.73109">
        <ele>333.15341</ele>
        <time>2023-07-30T14:54:33.000Z</time>
      </trkpt>
      <trkpt lat="45.83906" lon="4.73109">
        <ele>333.85568</ele>
        <time>2023-07-30T14:54:35.000Z</time>
      </trkpt>
      <trkpt lat="45.83908" lon="4.73108">
        <ele>334.5907</ele>
        <time>2023-07-30T14:54:36.000Z</time>
      </trkpt>
      <trkpt lat="45.8391" lon="4.73107">
        <ele>335.36588</ele>
        <time>2023-07-30T14:54:37.000Z</time>
      </trkpt>
      <trkpt lat="45.83912" lon="4.73106">
        <ele>336.25488</ele>
        <time>2023-07-30T14:54:38.000Z</time>
      </trkpt>
      <trkpt lat="45.83916" lon="4.73106">
        <ele>336.17163</ele>
        <time>2023-07-30T14:54:40.000Z</time>
      </trkpt>
      <trkpt lat="45.83919" lon="4.73106">
        <ele>336.13907</ele>
        <time>2023-07-30T14:54:42.000Z</time>
      </trkpt>
      <trkpt lat="45.83921" lon="4.73105">
        <ele>336.15234</ele>
        <time>2023-07-30T14:54:43.000Z</time>
      </trkpt>
      <trkpt lat="45.83924" lon="4.73104">
        <ele>336.11636</ele>
        <time>2023-07-30T14:54:45.000Z</time>
      </trkpt>
      <trkpt lat="45.83926" lon="4.73103">
        <ele>336.17987</ele>
        <time>2023-07-30T14:54:46.000Z</time>
      </trkpt>
      <trkpt lat="45.83928" lon="4.73103">
        <ele>336.13959</ele>
        <time>2023-07-30T14:54:47.000Z</time>
      </trkpt>
      <trkpt lat="45.8393" lon="4.73102">
        <ele>336.09265</ele>
        <time>2023-07-30T14:54:48.000Z</time>
      </trkpt>
      <trkpt lat="45.83933" lon="4.73102">
        <ele>336.07693</ele>
        <time>2023-07-30T14:54:49.000Z</time>
      </trkpt>
      <trkpt lat="45.83935" lon="4.73102">
        <ele>336.05389</ele>
        <time>2023-07-30T14:54:50.000Z</time>
      </trkpt>
      <trkpt lat="45.83938" lon="4.73102">
        <ele>336.22522</ele>
        <time>2023-07-30T14:54:51.000Z</time>
      </trkpt>
      <trkpt lat="45.8394" lon="4.73102">
        <ele>336.43329</ele>
        <time>2023-07-30T14:54:52.000Z</time>
      </trkpt>
      <trkpt lat="45.83943" lon="4.73101">
        <ele>336.60126</ele>
        <time>2023-07-30T14:54:53.000Z</time>
      </trkpt>
      <trkpt lat="45.83945" lon="4.73101">
        <ele>335.85703</ele>
        <time>2023-07-30T14:54:54.000Z</time>
      </trkpt>
      <trkpt lat="45.83948" lon="4.731">
        <ele>335.85526</ele>
        <time>2023-07-30T14:54:55.000Z</time>
      </trkpt>
      <trkpt lat="45.8395" lon="4.73099">
        <ele>335.84143</ele>
        <time>2023-07-30T14:54:56.000Z</time>
      </trkpt>
      <trkpt lat="45.83953" lon="4.73099">
        <ele>335.84967</ele>
        <time>2023-07-30T14:54:57.000Z</time>
      </trkpt>
      <trkpt lat="45.83955" lon="4.73098">
        <ele>335.95175</ele>
        <time>2023-07-30T14:54:58.000Z</time>
      </trkpt>
      <trkpt lat="45.83957" lon="4.73097">
        <ele>335.80341</ele>
        <time>2023-07-30T14:54:59.000Z</time>
      </trkpt>
      <trkpt lat="45.8396" lon="4.73096">
        <ele>335.67081</ele>
        <time>2023-07-30T14:55:00.000Z</time>
      </trkpt>
      <trkpt lat="45.83962" lon="4.73096">
        <ele>335.41708</ele>
        <time>2023-07-30T14:55:01.000Z</time>
      </trkpt>
      <trkpt lat="45.83964" lon="4.73095">
        <ele>336.12015</ele>
        <time>2023-07-30T14:55:02.000Z</time>
      </trkpt>
      <trkpt lat="45.83966" lon="4.73094">
        <ele>336.80243</ele>
        <time>2023-07-30T14:55:03.000Z</time>
      </trkpt>
      <trkpt lat="45.83969" lon="4.73093">
        <ele>337.62869</ele>
        <time>2023-07-30T14:55:04.000Z</time>
      </trkpt>
      <trkpt lat="45.83971" lon="4.73092">
        <ele>338.50711</ele>
        <time>2023-07-30T14:55:05.000Z</time>
      </trkpt>
      <trkpt lat="45.83973" lon="4.73092">
        <ele>339.36127</ele>
        <time>2023-07-30T14:55:06.000Z</time>
      </trkpt>
      <trkpt lat="45.83976" lon="4.73092">
        <ele>340.27148</ele>
        <time>2023-07-30T14:55:07.000Z</time>
      </trkpt>
      <trkpt lat="45.83978" lon="4.73091">
        <ele>341.17566</ele>
        <time>2023-07-30T14:55:08.000Z</time>
      </trkpt>
      <trkpt lat="45.83981" lon="4.7309">
        <ele>341.80237</ele>
        <time>2023-07-30T14:55:09.000Z</time>
      </trkpt>
      <trkpt lat="45.83983" lon="4.73089">
        <ele>342.48169</ele>
        <time>2023-07-30T14:55:10.000Z</time>
      </trkpt>
      <trkpt lat="45.83985" lon="4.73088">
        <ele>343.16348</ele>
        <time>2023-07-30T14:55:11.000Z</time>
      </trkpt>
      <trkpt lat="45.83987" lon="4.73087">
        <ele>343.89462</ele>
        <time>2023-07-30T14:55:12.000Z</time>
      </trkpt>
      <trkpt lat="45.8399" lon="4.73086">
        <ele>344.61737</ele>
        <time>2023-07-30T14:55:14.000Z</time>
      </trkpt>
      <trkpt lat="45.83992" lon="4.73086">
        <ele>345.31754</ele>
        <time>2023-07-30T14:55:16.000Z</time>
      </trkpt>
      <trkpt lat="45.83995" lon="4.73086">
        <ele>345.30966</ele>
        <time>2023-07-30T14:55:18.000Z</time>
      </trkpt>
      <trkpt lat="45.83998" lon="4.73086">
        <ele>345.36392</ele>
        <time>2023-07-30T14:55:20.000Z</time>
      </trkpt>
      <trkpt lat="45.84001" lon="4.73085">
        <ele>345.27521</ele>
        <time>2023-07-30T14:55:21.000Z</time>
      </trkpt>
      <trkpt lat="45.84005" lon="4.73084">
        <ele>345.0936</ele>
        <time>2023-07-30T14:55:22.000Z</time>
      </trkpt>
      <trkpt lat="45.84008" lon="4.73083">
        <ele>345.18292</ele>
        <time>2023-07-30T14:55:23.000Z</time>
      </trkpt>
      <trkpt lat="45.84012" lon="4.73082">
        <ele>345.22238</ele>
        <time>2023-07-30T14:55:24.000Z</time>
      </trkpt>
      <trkpt lat="45.84015" lon="4.73082">
        <ele>345.24908</ele>
        <time>2023-07-30T14:55:25.000Z</time>
      </trkpt>
      <trkpt lat="45.84019" lon="4.73081">
        <ele>345.21909</ele>
        <time>2023-07-30T14:55:26.000Z</time>
      </trkpt>
      <trkpt lat="45.84023" lon="4.73081">
        <ele>345.11118</ele>
        <time>2023-07-30T14:55:27.000Z</time>
      </trkpt>
      <trkpt lat="45.84028" lon="4.7308">
        <ele>344.82965</ele>
        <time>2023-07-30T14:55:28.000Z</time>
      </trkpt>
      <trkpt lat="45.84032" lon="4.73079">
        <ele>344.64691</ele>
        <time>2023-07-30T14:55:29.000Z</time>
      </trkpt>
      <trkpt lat="45.84037" lon="4.73078">
        <ele>344.49655</ele>
        <time>2023-07-30T14:55:30.000Z</time>
      </trkpt>
      <trkpt lat="45.84041" lon="4.73077">
        <ele>344.28101</ele>
        <time>2023-07-30T14:55:31.000Z</time>
      </trkpt>
      <trkpt lat="45.84045" lon="4.73075">
        <ele>344.15427</ele>
        <time>2023-07-30T14:55:32.000Z</time>
      </trkpt>
      <trkpt lat="45.84049" lon="4.73074">
        <ele>343.98489</ele>
        <time>2023-07-30T14:55:33.000Z</time>
      </trkpt>
      <trkpt lat="45.84052" lon="4.73071">
        <ele>343.79059</ele>
        <time>2023-07-30T14:55:34.000Z</time>
      </trkpt>
      <trkpt lat="45.84055" lon="4.73067">
        <ele>343.58826</ele>
        <time>2023-07-30T14:55:35.000Z</time>
      </trkpt>
      <trkpt lat="45.84057" lon="4.73063">
        <ele>343.33981</ele>
        <time>2023-07-30T14:55:36.000Z</time>
      </trkpt>
      <trkpt lat="45.84059" lon="4.73058">
        <ele>343.12726</ele>
        <time>2023-07-30T14:55:37.000Z</time>
      </trkpt>
      <trkpt lat="45.8406" lon="4.73054">
        <ele>342.948</ele>
        <time>2023-07-30T14:55:38.000Z</time>
      </trkpt>
      <trkpt lat="45.84062" lon="4.7305">
        <ele>342.7121</ele>
        <time>2023-07-30T14:55:39.000Z</time>
      </trkpt>
      <trkpt lat="45.84063" lon="4.73045">
        <ele>342.43628</ele>
        <time>2023-07-30T14:55:40.000Z</time>
      </trkpt>
      <trkpt lat="45.84064" lon="4.73041">
        <ele>342.18048</ele>
        <time>2023-07-30T14:55:41.000Z</time>
      </trkpt>
      <trkpt lat="45.84065" lon="4.73036">
        <ele>341.93597</ele>
        <time>2023-07-30T14:55:42.000Z</time>
      </trkpt>
      <trkpt lat="45.84065" lon="4.73032">
        <ele>341.79785</ele>
        <time>2023-07-30T14:55:43.000Z</time>
      </trkpt>
      <trkpt lat="45.84066" lon="4.73028">
        <ele>341.68115</ele>
        <time>2023-07-30T14:55:44.000Z</time>
      </trkpt>
      <trkpt lat="45.84066" lon="4.73024">
        <ele>341.61868</ele>
        <time>2023-07-30T14:55:45.000Z</time>
      </trkpt>
      <trkpt lat="45.84067" lon="4.7302">
        <ele>340.66885</ele>
        <time>2023-07-30T14:55:46.000Z</time>
      </trkpt>
      <trkpt lat="45.84067" lon="4.73017">
        <ele>339.7821</ele>
        <time>2023-07-30T14:55:47.000Z</time>
      </trkpt>
      <trkpt lat="45.84067" lon="4.73013">
        <ele>338.89029</ele>
        <time>2023-07-30T14:55:48.000Z</time>
      </trkpt>
      <trkpt lat="45.84066" lon="4.73009">
        <ele>338.01242</ele>
        <time>2023-07-30T14:55:49.000Z</time>
      </trkpt>
      <trkpt lat="45.84066" lon="4.73006">
        <ele>337.19064</ele>
        <time>2023-07-30T14:55:50.000Z</time>
      </trkpt>
      <trkpt lat="45.84065" lon="4.73003">
        <ele>336.3916</ele>
        <time>2023-07-30T14:55:51.000Z</time>
      </trkpt>
      <trkpt lat="45.84065" lon="4.73">
        <ele>335.48831</ele>
        <time>2023-07-30T14:55:52.000Z</time>
      </trkpt>
      <trkpt lat="45.84066" lon="4.72997">
        <ele>334.87958</ele>
        <time>2023-07-30T14:55:53.000Z</time>
      </trkpt>
      <trkpt lat="45.84068" lon="4.72996">
        <ele>334.2309</ele>
        <time>2023-07-30T14:55:54.000Z</time>
      </trkpt>
      <trkpt lat="45.8407" lon="4.72995">
        <ele>333.57632</ele>
        <time>2023-07-30T14:55:55.000Z</time>
      </trkpt>
      <trkpt lat="45.84072" lon="4.72995">
        <ele>332.77667</ele>
        <time>2023-07-30T14:55:56.000Z</time>
      </trkpt>
      <trkpt lat="45.84074" lon="4.72994">
        <ele>332.95239</ele>
        <time>2023-07-30T14:55:57.000Z</time>
      </trkpt>
      <trkpt lat="45.84077" lon="4.72993">
        <ele>332.1662</ele>
        <time>2023-07-30T14:55:58.000Z</time>
      </trkpt>
      <trkpt lat="45.84079" lon="4.72991">
        <ele>331.53912</ele>
        <time>2023-07-30T14:55:59.000Z</time>
      </trkpt>
      <trkpt lat="45.84081" lon="4.72988">
        <ele>330.8389</ele>
        <time>2023-07-30T14:56:00.000Z</time>
      </trkpt>
      <trkpt lat="45.84083" lon="4.72985">
        <ele>330.13303</ele>
        <time>2023-07-30T14:56:01.000Z</time>
      </trkpt>
      <trkpt lat="45.84084" lon="4.72982">
        <ele>329.41217</ele>
        <time>2023-07-30T14:56:02.000Z</time>
      </trkpt>
      <trkpt lat="45.84086" lon="4.72978">
        <ele>328.54617</ele>
        <time>2023-07-30T14:56:03.000Z</time>
      </trkpt>
      <trkpt lat="45.84088" lon="4.72974">
        <ele>327.66263</ele>
        <time>2023-07-30T14:56:04.000Z</time>
      </trkpt>
      <trkpt lat="45.8409" lon="4.7297">
        <ele>326.77164</ele>
        <time>2023-07-30T14:56:05.000Z</time>
      </trkpt>
      <trkpt lat="45.84091" lon="4.72966">
        <ele>326.83188</ele>
        <time>2023-07-30T14:56:06.000Z</time>
      </trkpt>
      <trkpt lat="45.84093" lon="4.72962">
        <ele>326.84735</ele>
        <time>2023-07-30T14:56:07.000Z</time>
      </trkpt>
      <trkpt lat="45.84095" lon="4.72959">
        <ele>326.888</ele>
        <time>2023-07-30T14:56:08.000Z</time>
      </trkpt>
      <trkpt lat="45.84097" lon="4.72955">
        <ele>326.79388</ele>
        <time>2023-07-30T14:56:09.000Z</time>
      </trkpt>
      <trkpt lat="45.84098" lon="4.7295">
        <ele>326.63422</ele>
        <time>2023-07-30T14:56:10.000Z</time>
      </trkpt>
      <trkpt lat="45.841" lon="4.72945">
        <ele>326.59064</ele>
        <time>2023-07-30T14:56:11.000Z</time>
      </trkpt>
      <trkpt lat="45.84102" lon="4.72941">
        <ele>326.54071</ele>
        <time>2023-07-30T14:56:12.000Z</time>
      </trkpt>
      <trkpt lat="45.84103" lon="4.72936">
        <ele>326.5025</ele>
        <time>2023-07-30T14:56:13.000Z</time>
      </trkpt>
      <trkpt lat="45.84103" lon="4.72931">
        <ele>326.49329</ele>
        <time>2023-07-30T14:56:14.000Z</time>
      </trkpt>
      <trkpt lat="45.84102" lon="4.72926">
        <ele>326.48926</ele>
        <time>2023-07-30T14:56:15.000Z</time>
      </trkpt>
      <trkpt lat="45.84101" lon="4.72923">
        <ele>326.41684</ele>
        <time>2023-07-30T14:56:16.000Z</time>
      </trkpt>
      <trkpt lat="45.84101" lon="4.72919">
        <ele>325.44458</ele>
        <time>2023-07-30T14:56:17.000Z</time>
      </trkpt>
      <trkpt lat="45.841" lon="4.72915">
        <ele>325.52271</ele>
        <time>2023-07-30T14:56:18.000Z</time>
      </trkpt>
      <trkpt lat="45.841" lon="4.72912">
        <ele>325.45215</ele>
        <time>2023-07-30T14:56:19.000Z</time>
      </trkpt>
      <trkpt lat="45.841" lon="4.72908">
        <ele>325.4371</ele>
        <time>2023-07-30T14:56:20.000Z</time>
      </trkpt>
      <trkpt lat="45.84099" lon="4.72904">
        <ele>325.41486</ele>
        <time>2023-07-30T14:56:21.000Z</time>
      </trkpt>
      <trkpt lat="45.84099" lon="4.729">
        <ele>325.23148</ele>
        <time>2023-07-30T14:56:22.000Z</time>
      </trkpt>
      <trkpt lat="45.84099" lon="4.72896">
        <ele>325.05881</ele>
        <time>2023-07-30T14:56:23.000Z</time>
      </trkpt>
      <trkpt lat="45.84099" lon="4.72892">
        <ele>324.86322</ele>
        <time>2023-07-30T14:56:24.000Z</time>
      </trkpt>
      <trkpt lat="45.84098" lon="4.72888">
        <ele>324.68323</ele>
        <time>2023-07-30T14:56:25.000Z</time>
      </trkpt>
      <trkpt lat="45.84097" lon="4.72884">
        <ele>324.49866</ele>
        <time>2023-07-30T14:56:26.000Z</time>
      </trkpt>
      <trkpt lat="45.84096" lon="4.7288">
        <ele>325.07544</ele>
        <time>2023-07-30T14:56:27.000Z</time>
      </trkpt>
      <trkpt lat="45.84095" lon="4.72876">
        <ele>325.53653</ele>
        <time>2023-07-30T14:56:28.000Z</time>
      </trkpt>
      <trkpt lat="45.84094" lon="4.72872">
        <ele>325.98358</ele>
        <time>2023-07-30T14:56:29.000Z</time>
      </trkpt>
      <trkpt lat="45.84094" lon="4.72868">
        <ele>326.42535</ele>
        <time>2023-07-30T14:56:30.000Z</time>
      </trkpt>
      <trkpt lat="45.84093" lon="4.72865">
        <ele>326.73569</ele>
        <time>2023-07-30T14:56:31.000Z</time>
      </trkpt>
      <trkpt lat="45.84093" lon="4.72861">
        <ele>327.08139</ele>
        <time>2023-07-30T14:56:32.000Z</time>
      </trkpt>
      <trkpt lat="45.84092" lon="4.72856">
        <ele>327.42334</ele>
        <time>2023-07-30T14:56:33.000Z</time>
      </trkpt>
      <trkpt lat="45.84091" lon="4.72852">
        <ele>327.75919</ele>
        <time>2023-07-30T14:56:34.000Z</time>
      </trkpt>
      <trkpt lat="45.8409" lon="4.72849">
        <ele>328.07669</ele>
        <time>2023-07-30T14:56:35.000Z</time>
      </trkpt>
      <trkpt lat="45.84089" lon="4.72845">
        <ele>328.61807</ele>
        <time>2023-07-30T14:56:36.000Z</time>
      </trkpt>
      <trkpt lat="45.84088" lon="4.72842">
        <ele>329.04199</ele>
        <time>2023-07-30T14:56:37.000Z</time>
      </trkpt>
      <trkpt lat="45.84087" lon="4.72838">
        <ele>329.42349</ele>
        <time>2023-07-30T14:56:38.000Z</time>
      </trkpt>
      <trkpt lat="45.84087" lon="4.72835">
        <ele>329.60602</ele>
        <time>2023-07-30T14:56:39.000Z</time>
      </trkpt>
      <trkpt lat="45.84087" lon="4.72832">
        <ele>329.83929</ele>
        <time>2023-07-30T14:56:40.000Z</time>
      </trkpt>
      <trkpt lat="45.84086" lon="4.72828">
        <ele>330.05835</ele>
        <time>2023-07-30T14:56:41.000Z</time>
      </trkpt>
      <trkpt lat="45.84085" lon="4.72824">
        <ele>330.457</ele>
        <time>2023-07-30T14:56:42.000Z</time>
      </trkpt>
      <trkpt lat="45.84084" lon="4.7282">
        <ele>330.84454</ele>
        <time>2023-07-30T14:56:43.000Z</time>
      </trkpt>
      <trkpt lat="45.84083" lon="4.72816">
        <ele>331.28214</ele>
        <time>2023-07-30T14:56:44.000Z</time>
      </trkpt>
      <trkpt lat="45.84082" lon="4.72812">
        <ele>330.31876</ele>
        <time>2023-07-30T14:56:45.000Z</time>
      </trkpt>
      <trkpt lat="45.84081" lon="4.72808">
        <ele>329.31854</ele>
        <time>2023-07-30T14:56:46.000Z</time>
      </trkpt>
      <trkpt lat="45.8408" lon="4.72803">
        <ele>327.55524</ele>
        <time>2023-07-30T14:56:47.000Z</time>
      </trkpt>
      <trkpt lat="45.84079" lon="4.72798">
        <ele>325.88907</ele>
        <time>2023-07-30T14:56:48.000Z</time>
      </trkpt>
      <trkpt lat="45.84078" lon="4.72794">
        <ele>325.49149</ele>
        <time>2023-07-30T14:56:49.000Z</time>
      </trkpt>
      <trkpt lat="45.84077" lon="4.72789">
        <ele>325.09537</ele>
        <time>2023-07-30T14:56:50.000Z</time>
      </trkpt>
      <trkpt lat="45.84076" lon="4.72784">
        <ele>324.67621</ele>
        <time>2023-07-30T14:56:51.000Z</time>
      </trkpt>
      <trkpt lat="45.84075" lon="4.72779">
        <ele>323.0657</ele>
        <time>2023-07-30T14:56:52.000Z</time>
      </trkpt>
      <trkpt lat="45.84074" lon="4.72774">
        <ele>321.38055</ele>
        <time>2023-07-30T14:56:53.000Z</time>
      </trkpt>
      <trkpt lat="45.84073" lon="4.7277">
        <ele>319.68356</ele>
        <time>2023-07-30T14:56:54.000Z</time>
      </trkpt>
      <trkpt lat="45.84072" lon="4.72765">
        <ele>317.98605</ele>
        <time>2023-07-30T14:56:55.000Z</time>
      </trkpt>
      <trkpt lat="45.84071" lon="4.7276">
        <ele>316.27689</ele>
        <time>2023-07-30T14:56:56.000Z</time>
      </trkpt>
      <trkpt lat="45.84071" lon="4.72755">
        <ele>315.44781</ele>
        <time>2023-07-30T14:56:57.000Z</time>
      </trkpt>
      <trkpt lat="45.8407" lon="4.7275">
        <ele>314.55157</ele>
        <time>2023-07-30T14:56:58.000Z</time>
      </trkpt>
      <trkpt lat="45.84068" lon="4.72745">
        <ele>313.82339</ele>
        <time>2023-07-30T14:56:59.000Z</time>
      </trkpt>
      <trkpt lat="45.84067" lon="4.72739">
        <ele>313.03418</ele>
        <time>2023-07-30T14:57:00.000Z</time>
      </trkpt>
      <trkpt lat="45.84067" lon="4.72733">
        <ele>311.10693</ele>
        <time>2023-07-30T14:57:01.000Z</time>
      </trkpt>
      <trkpt lat="45.84065" lon="4.72727">
        <ele>309.13708</ele>
        <time>2023-07-30T14:57:02.000Z</time>
      </trkpt>
      <trkpt lat="45.84063" lon="4.7272">
        <ele>306.92618</ele>
        <time>2023-07-30T14:57:03.000Z</time>
      </trkpt>
      <trkpt lat="45.84062" lon="4.72712">
        <ele>305.26578</ele>
        <time>2023-07-30T14:57:04.000Z</time>
      </trkpt>
      <trkpt lat="45.8406" lon="4.72704">
        <ele>304.85178</ele>
        <time>2023-07-30T14:57:05.000Z</time>
      </trkpt>
      <trkpt lat="45.84059" lon="4.72695">
        <ele>304.41888</ele>
        <time>2023-07-30T14:57:06.000Z</time>
      </trkpt>
      <trkpt lat="45.84057" lon="4.72687">
        <ele>304.52753</ele>
        <time>2023-07-30T14:57:07.000Z</time>
      </trkpt>
      <trkpt lat="45.84056" lon="4.72678">
        <ele>304.61835</ele>
        <time>2023-07-30T14:57:08.000Z</time>
      </trkpt>
      <trkpt lat="45.84054" lon="4.72669">
        <ele>303.4082</ele>
        <time>2023-07-30T14:57:09.000Z</time>
      </trkpt>
      <trkpt lat="45.84053" lon="4.7266">
        <ele>302.15884</ele>
        <time>2023-07-30T14:57:10.000Z</time>
      </trkpt>
      <trkpt lat="45.84051" lon="4.72651">
        <ele>300.91016</ele>
        <time>2023-07-30T14:57:11.000Z</time>
      </trkpt>
      <trkpt lat="45.8405" lon="4.72643">
        <ele>300.81943</ele>
        <time>2023-07-30T14:57:12.000Z</time>
      </trkpt>
      <trkpt lat="45.8405" lon="4.72632">
        <ele>300.78036</ele>
        <time>2023-07-30T14:57:13.000Z</time>
      </trkpt>
      <trkpt lat="45.84052" lon="4.72623">
        <ele>300.74271</ele>
        <time>2023-07-30T14:57:14.000Z</time>
      </trkpt>
      <trkpt lat="45.84054" lon="4.72613">
        <ele>300.72061</ele>
        <time>2023-07-30T14:57:15.000Z</time>
      </trkpt>
      <trkpt lat="45.84056" lon="4.72604">
        <ele>301.73489</ele>
        <time>2023-07-30T14:57:16.000Z</time>
      </trkpt>
      <trkpt lat="45.84059" lon="4.72594">
        <ele>301.89938</ele>
        <time>2023-07-30T14:57:17.000Z</time>
      </trkpt>
      <trkpt lat="45.84061" lon="4.72583">
        <ele>302.27203</ele>
        <time>2023-07-30T14:57:18.000Z</time>
      </trkpt>
      <trkpt lat="45.84063" lon="4.72573">
        <ele>302.70001</ele>
        <time>2023-07-30T14:57:19.000Z</time>
      </trkpt>
      <trkpt lat="45.84063" lon="4.72564">
        <ele>303.34497</ele>
        <time>2023-07-30T14:57:20.000Z</time>
      </trkpt>
      <trkpt lat="45.84063" lon="4.72554">
        <ele>304.61505</ele>
        <time>2023-07-30T14:57:21.000Z</time>
      </trkpt>
      <trkpt lat="45.84062" lon="4.72544">
        <ele>306.01459</ele>
        <time>2023-07-30T14:57:22.000Z</time>
      </trkpt>
      <trkpt lat="45.84062" lon="4.72536">
        <ele>307.6774</ele>
        <time>2023-07-30T14:57:23.000Z</time>
      </trkpt>
      <trkpt lat="45.8406" lon="4.72529">
        <ele>308.80011</ele>
        <time>2023-07-30T14:57:24.000Z</time>
      </trkpt>
      <trkpt lat="45.8406" lon="4.72524">
        <ele>310.5423</ele>
        <time>2023-07-30T14:57:25.000Z</time>
      </trkpt>
      <trkpt lat="45.8406" lon="4.72518">
        <ele>310.85773</ele>
        <time>2023-07-30T14:57:26.000Z</time>
      </trkpt>
      <trkpt lat="45.8406" lon="4.72514">
        <ele>310.65942</ele>
        <time>2023-07-30T14:57:27.000Z</time>
      </trkpt>
      <trkpt lat="45.84059" lon="4.72509">
        <ele>310.52777</ele>
        <time>2023-07-30T14:57:28.000Z</time>
      </trkpt>
      <trkpt lat="45.84059" lon="4.72504">
        <ele>310.46625</ele>
        <time>2023-07-30T14:57:29.000Z</time>
      </trkpt>
      <trkpt lat="45.84058" lon="4.72499">
        <ele>310.40118</ele>
        <time>2023-07-30T14:57:30.000Z</time>
      </trkpt>
      <trkpt lat="45.84057" lon="4.72494">
        <ele>310.36578</ele>
        <time>2023-07-30T14:57:31.000Z</time>
      </trkpt>
      <trkpt lat="45.84058" lon="4.72489">
        <ele>310.30637</ele>
        <time>2023-07-30T14:57:32.000Z</time>
      </trkpt>
      <trkpt lat="45.84057" lon="4.72484">
        <ele>310.28735</ele>
        <time>2023-07-30T14:57:33.000Z</time>
      </trkpt>
      <trkpt lat="45.84057" lon="4.72479">
        <ele>310.44199</ele>
        <time>2023-07-30T14:57:34.000Z</time>
      </trkpt>
      <trkpt lat="45.84056" lon="4.72474">
        <ele>310.57388</ele>
        <time>2023-07-30T14:57:35.000Z</time>
      </trkpt>
      <trkpt lat="45.84056" lon="4.72469">
        <ele>309.71506</ele>
        <time>2023-07-30T14:57:36.000Z</time>
      </trkpt>
      <trkpt lat="45.84055" lon="4.72464">
        <ele>308.87994</ele>
        <time>2023-07-30T14:57:37.000Z</time>
      </trkpt>
      <trkpt lat="45.84054" lon="4.72458">
        <ele>307.86884</ele>
        <time>2023-07-30T14:57:38.000Z</time>
      </trkpt>
      <trkpt lat="45.84053" lon="4.72453">
        <ele>306.87396</ele>
        <time>2023-07-30T14:57:39.000Z</time>
      </trkpt>
      <trkpt lat="45.84052" lon="4.72448">
        <ele>305.69382</ele>
        <time>2023-07-30T14:57:40.000Z</time>
      </trkpt>
      <trkpt lat="45.84051" lon="4.72442">
        <ele>305.06769</ele>
        <time>2023-07-30T14:57:41.000Z</time>
      </trkpt>
      <trkpt lat="45.8405" lon="4.72436">
        <ele>304.35114</ele>
        <time>2023-07-30T14:57:42.000Z</time>
      </trkpt>
      <trkpt lat="45.8405" lon="4.7243">
        <ele>303.64957</ele>
        <time>2023-07-30T14:57:43.000Z</time>
      </trkpt>
      <trkpt lat="45.84049" lon="4.72425">
        <ele>302.93619</ele>
        <time>2023-07-30T14:57:44.000Z</time>
      </trkpt>
      <trkpt lat="45.84048" lon="4.72419">
        <ele>301.76645</ele>
        <time>2023-07-30T14:57:45.000Z</time>
      </trkpt>
      <trkpt lat="45.84047" lon="4.72413">
        <ele>302.11975</ele>
        <time>2023-07-30T14:57:46.000Z</time>
      </trkpt>
      <trkpt lat="45.84047" lon="4.72408">
        <ele>302.49054</ele>
        <time>2023-07-30T14:57:47.000Z</time>
      </trkpt>
      <trkpt lat="45.84045" lon="4.72402">
        <ele>302.84949</ele>
        <time>2023-07-30T14:57:48.000Z</time>
      </trkpt>
      <trkpt lat="45.84044" lon="4.72397">
        <ele>303.21445</ele>
        <time>2023-07-30T14:57:49.000Z</time>
      </trkpt>
      <trkpt lat="45.84044" lon="4.72391">
        <ele>303.64578</ele>
        <time>2023-07-30T14:57:50.000Z</time>
      </trkpt>
      <trkpt lat="45.84043" lon="4.72386">
        <ele>304.0903</ele>
        <time>2023-07-30T14:57:51.000Z</time>
      </trkpt>
      <trkpt lat="45.84042" lon="4.7238">
        <ele>305.66888</ele>
        <time>2023-07-30T14:57:52.000Z</time>
      </trkpt>
      <trkpt lat="45.84041" lon="4.72375">
        <ele>307.26334</ele>
        <time>2023-07-30T14:57:53.000Z</time>
      </trkpt>
      <trkpt lat="45.84041" lon="4.7237">
        <ele>308.7189</ele>
        <time>2023-07-30T14:57:54.000Z</time>
      </trkpt>
      <trkpt lat="45.8404" lon="4.72364">
        <ele>310.40488</ele>
        <time>2023-07-30T14:57:55.000Z</time>
      </trkpt>
      <trkpt lat="45.84039" lon="4.72359">
        <ele>312.08698</ele>
        <time>2023-07-30T14:57:56.000Z</time>
      </trkpt>
      <trkpt lat="45.84039" lon="4.72353">
        <ele>313.75156</ele>
        <time>2023-07-30T14:57:57.000Z</time>
      </trkpt>
      <trkpt lat="45.84038" lon="4.72348">
        <ele>315.39856</ele>
        <time>2023-07-30T14:57:58.000Z</time>
      </trkpt>
      <trkpt lat="45.84037" lon="4.72343">
        <ele>317.02399</ele>
        <time>2023-07-30T14:57:59.000Z</time>
      </trkpt>
      <trkpt lat="45.84037" lon="4.72339">
        <ele>318.61859</ele>
        <time>2023-07-30T14:58:00.000Z</time>
      </trkpt>
      <trkpt lat="45.84035" lon="4.72337">
        <ele>319.95151</ele>
        <time>2023-07-30T14:58:28.000Z</time>
      </trkpt>
      <trkpt lat="45.84033" lon="4.72335">
        <ele>321.29083</ele>
        <time>2023-07-30T14:58:31.000Z</time>
      </trkpt>
      <trkpt lat="45.84032" lon="4.72333">
        <ele>322.61978</ele>
        <time>2023-07-30T14:58:33.000Z</time>
      </trkpt>
      <trkpt lat="45.84032" lon="4.72335">
        <ele>324.00037</ele>
        <time>2023-07-30T14:58:38.000Z</time>
      </trkpt>
      <trkpt lat="45.84032" lon="4.72331">
        <ele>325.55756</ele>
        <time>2023-07-30T14:58:52.000Z</time>
      </trkpt>
      <trkpt lat="45.84031" lon="4.72328">
        <ele>327.07184</ele>
        <time>2023-07-30T14:58:53.000Z</time>
      </trkpt>
      <trkpt lat="45.8403" lon="4.72325">
        <ele>328.55618</ele>
        <time>2023-07-30T14:58:54.000Z</time>
      </trkpt>
      <trkpt lat="45.84029" lon="4.72321">
        <ele>330.02036</ele>
        <time>2023-07-30T14:58:55.000Z</time>
      </trkpt>
      <trkpt lat="45.84027" lon="4.72318">
        <ele>331.4726</ele>
        <time>2023-07-30T14:58:56.000Z</time>
      </trkpt>
      <trkpt lat="45.84026" lon="4.72315">
        <ele>333.04916</ele>
        <time>2023-07-30T14:58:57.000Z</time>
      </trkpt>
      <trkpt lat="45.84024" lon="4.72312">
        <ele>334.61652</ele>
        <time>2023-07-30T14:58:58.000Z</time>
      </trkpt>
      <trkpt lat="45.84023" lon="4.72309">
        <ele>334.69012</ele>
        <time>2023-07-30T14:58:59.000Z</time>
      </trkpt>
      <trkpt lat="45.84021" lon="4.72305">
        <ele>334.79169</ele>
        <time>2023-07-30T14:59:00.000Z</time>
      </trkpt>
      <trkpt lat="45.84018" lon="4.72301">
        <ele>334.87506</ele>
        <time>2023-07-30T14:59:01.000Z</time>
      </trkpt>
      <trkpt lat="45.84016" lon="4.72298">
        <ele>334.75894</ele>
        <time>2023-07-30T14:59:02.000Z</time>
      </trkpt>
      <trkpt lat="45.84013" lon="4.72295">
        <ele>334.63177</ele>
        <time>2023-07-30T14:59:03.000Z</time>
      </trkpt>
      <trkpt lat="45.84011" lon="4.72292">
        <ele>334.52261</ele>
        <time>2023-07-30T14:59:04.000Z</time>
      </trkpt>
      <trkpt lat="45.84008" lon="4.72288">
        <ele>334.41513</ele>
        <time>2023-07-30T14:59:05.000Z</time>
      </trkpt>
      <trkpt lat="45.84005" lon="4.72284">
        <ele>334.29684</ele>
        <time>2023-07-30T14:59:06.000Z</time>
      </trkpt>
      <trkpt lat="45.84002" lon="4.72281">
        <ele>334.20331</ele>
        <time>2023-07-30T14:59:07.000Z</time>
      </trkpt>
      <trkpt lat="45.84" lon="4.72277">
        <ele>334.55243</ele>
        <time>2023-07-30T14:59:08.000Z</time>
      </trkpt>
      <trkpt lat="45.83997" lon="4.72272">
        <ele>335.00992</ele>
        <time>2023-07-30T14:59:09.000Z</time>
      </trkpt>
      <trkpt lat="45.83995" lon="4.72267">
        <ele>335.44769</ele>
        <time>2023-07-30T14:59:10.000Z</time>
      </trkpt>
      <trkpt lat="45.83992" lon="4.72263">
        <ele>335.46558</ele>
        <time>2023-07-30T14:59:11.000Z</time>
      </trkpt>
      <trkpt lat="45.83989" lon="4.72258">
        <ele>335.36566</ele>
        <time>2023-07-30T14:59:12.000Z</time>
      </trkpt>
      <trkpt lat="45.83987" lon="4.72253">
        <ele>335.26508</ele>
        <time>2023-07-30T14:59:13.000Z</time>
      </trkpt>
      <trkpt lat="45.83984" lon="4.72248">
        <ele>335.17352</ele>
        <time>2023-07-30T14:59:14.000Z</time>
      </trkpt>
      <trkpt lat="45.83981" lon="4.72242">
        <ele>335.08838</ele>
        <time>2023-07-30T14:59:15.000Z</time>
      </trkpt>
      <trkpt lat="45.83978" lon="4.72237">
        <ele>334.98785</ele>
        <time>2023-07-30T14:59:16.000Z</time>
      </trkpt>
      <trkpt lat="45.83975" lon="4.72232">
        <ele>334.75388</ele>
        <time>2023-07-30T14:59:17.000Z</time>
      </trkpt>
      <trkpt lat="45.83972" lon="4.72226">
        <ele>334.66458</ele>
        <time>2023-07-30T14:59:18.000Z</time>
      </trkpt>
      <trkpt lat="45.8397" lon="4.7222">
        <ele>334.98108</ele>
        <time>2023-07-30T14:59:19.000Z</time>
      </trkpt>
      <trkpt lat="45.83967" lon="4.72214">
        <ele>335.22665</ele>
        <time>2023-07-30T14:59:20.000Z</time>
      </trkpt>
      <trkpt lat="45.83964" lon="4.72209">
        <ele>335.59769</ele>
        <time>2023-07-30T14:59:21.000Z</time>
      </trkpt>
      <trkpt lat="45.83961" lon="4.72202">
        <ele>335.6087</ele>
        <time>2023-07-30T14:59:22.000Z</time>
      </trkpt>
      <trkpt lat="45.83958" lon="4.72196">
        <ele>335.66898</ele>
        <time>2023-07-30T14:59:23.000Z</time>
      </trkpt>
      <trkpt lat="45.83954" lon="4.7219">
        <ele>335.8873</ele>
        <time>2023-07-30T14:59:24.000Z</time>
      </trkpt>
      <trkpt lat="45.83951" lon="4.72184">
        <ele>336.22266</ele>
        <time>2023-07-30T14:59:25.000Z</time>
      </trkpt>
      <trkpt lat="45.83947" lon="4.72178">
        <ele>336.55743</ele>
        <time>2023-07-30T14:59:26.000Z</time>
      </trkpt>
      <trkpt lat="45.83942" lon="4.72173">
        <ele>336.51337</ele>
        <time>2023-07-30T14:59:27.000Z</time>
      </trkpt>
      <trkpt lat="45.83938" lon="4.72168">
        <ele>336.33847</ele>
        <time>2023-07-30T14:59:28.000Z</time>
      </trkpt>
      <trkpt lat="45.83934" lon="4.72164">
        <ele>336.06689</ele>
        <time>2023-07-30T14:59:29.000Z</time>
      </trkpt>
      <trkpt lat="45.83929" lon="4.72161">
        <ele>335.80362</ele>
        <time>2023-07-30T14:59:30.000Z</time>
      </trkpt>
      <trkpt lat="45.83924" lon="4.72157">
        <ele>335.88733</ele>
        <time>2023-07-30T14:59:31.000Z</time>
      </trkpt>
      <trkpt lat="45.83919" lon="4.72153">
        <ele>335.89337</ele>
        <time>2023-07-30T14:59:32.000Z</time>
      </trkpt>
      <trkpt lat="45.83914" lon="4.72148">
        <ele>335.93655</ele>
        <time>2023-07-30T14:59:33.000Z</time>
      </trkpt>
      <trkpt lat="45.83909" lon="4.72144">
        <ele>335.9483</ele>
        <time>2023-07-30T14:59:34.000Z</time>
      </trkpt>
      <trkpt lat="45.83904" lon="4.7214">
        <ele>335.97308</ele>
        <time>2023-07-30T14:59:35.000Z</time>
      </trkpt>
      <trkpt lat="45.83898" lon="4.72138">
        <ele>335.99908</ele>
        <time>2023-07-30T14:59:36.000Z</time>
      </trkpt>
      <trkpt lat="45.83892" lon="4.72135">
        <ele>336.04764</ele>
        <time>2023-07-30T14:59:37.000Z</time>
      </trkpt>
      <trkpt lat="45.83887" lon="4.72132">
        <ele>335.92767</ele>
        <time>2023-07-30T14:59:38.000Z</time>
      </trkpt>
      <trkpt lat="45.83881" lon="4.72128">
        <ele>335.8172</ele>
        <time>2023-07-30T14:59:39.000Z</time>
      </trkpt>
      <trkpt lat="45.83875" lon="4.72125">
        <ele>335.32111</ele>
        <time>2023-07-30T14:59:40.000Z</time>
      </trkpt>
      <trkpt lat="45.83871" lon="4.72121">
        <ele>334.76328</ele>
        <time>2023-07-30T14:59:41.000Z</time>
      </trkpt>
      <trkpt lat="45.83866" lon="4.72118">
        <ele>334.92181</ele>
        <time>2023-07-30T14:59:42.000Z</time>
      </trkpt>
      <trkpt lat="45.8386" lon="4.72115">
        <ele>334.99957</ele>
        <time>2023-07-30T14:59:43.000Z</time>
      </trkpt>
      <trkpt lat="45.83854" lon="4.72112">
        <ele>334.90915</ele>
        <time>2023-07-30T14:59:44.000Z</time>
      </trkpt>
      <trkpt lat="45.83848" lon="4.72108">
        <ele>334.71085</ele>
        <time>2023-07-30T14:59:45.000Z</time>
      </trkpt>
      <trkpt lat="45.83843" lon="4.72105">
        <ele>334.52881</ele>
        <time>2023-07-30T14:59:46.000Z</time>
      </trkpt>
      <trkpt lat="45.83837" lon="4.72101">
        <ele>334.72336</ele>
        <time>2023-07-30T14:59:47.000Z</time>
      </trkpt>
      <trkpt lat="45.83832" lon="4.72099">
        <ele>334.85931</ele>
        <time>2023-07-30T14:59:48.000Z</time>
      </trkpt>
      <trkpt lat="45.83826" lon="4.72095">
        <ele>334.97137</ele>
        <time>2023-07-30T14:59:49.000Z</time>
      </trkpt>
      <trkpt lat="45.83821" lon="4.72092">
        <ele>335.10693</ele>
        <time>2023-07-30T14:59:50.000Z</time>
      </trkpt>
      <trkpt lat="45.83815" lon="4.72089">
        <ele>335.24146</ele>
        <time>2023-07-30T14:59:51.000Z</time>
      </trkpt>
      <trkpt lat="45.8381" lon="4.72085">
        <ele>335.52945</ele>
        <time>2023-07-30T14:59:52.000Z</time>
      </trkpt>
      <trkpt lat="45.83804" lon="4.72081">
        <ele>335.78162</ele>
        <time>2023-07-30T14:59:53.000Z</time>
      </trkpt>
      <trkpt lat="45.83799" lon="4.72078">
        <ele>336.06525</ele>
        <time>2023-07-30T14:59:54.000Z</time>
      </trkpt>
      <trkpt lat="45.83793" lon="4.72074">
        <ele>336.33762</ele>
        <time>2023-07-30T14:59:55.000Z</time>
      </trkpt>
      <trkpt lat="45.83788" lon="4.7207">
        <ele>336.58405</ele>
        <time>2023-07-30T14:59:56.000Z</time>
      </trkpt>
      <trkpt lat="45.83782" lon="4.72066">
        <ele>336.82297</ele>
        <time>2023-07-30T14:59:57.000Z</time>
      </trkpt>
      <trkpt lat="45.83777" lon="4.72063">
        <ele>337.08743</ele>
        <time>2023-07-30T14:59:58.000Z</time>
      </trkpt>
      <trkpt lat="45.83771" lon="4.72059">
        <ele>337.34363</ele>
        <time>2023-07-30T14:59:59.000Z</time>
      </trkpt>
      <trkpt lat="45.83766" lon="4.72056">
        <ele>338.12311</ele>
        <time>2023-07-30T15:00:00.000Z</time>
      </trkpt>
      <trkpt lat="45.8376" lon="4.72053">
        <ele>338.51154</ele>
        <time>2023-07-30T15:00:01.000Z</time>
      </trkpt>
      <trkpt lat="45.83754" lon="4.7205">
        <ele>338.60959</ele>
        <time>2023-07-30T15:00:02.000Z</time>
      </trkpt>
      <trkpt lat="45.83748" lon="4.72048">
        <ele>338.74213</ele>
        <time>2023-07-30T15:00:03.000Z</time>
      </trkpt>
      <trkpt lat="45.83743" lon="4.72045">
        <ele>338.85336</ele>
        <time>2023-07-30T15:00:04.000Z</time>
      </trkpt>
      <trkpt lat="45.83737" lon="4.72042">
        <ele>338.94916</ele>
        <time>2023-07-30T15:00:05.000Z</time>
      </trkpt>
      <trkpt lat="45.83731" lon="4.7204">
        <ele>339.05457</ele>
        <time>2023-07-30T15:00:06.000Z</time>
      </trkpt>
      <trkpt lat="45.83726" lon="4.72039">
        <ele>339.1712</ele>
        <time>2023-07-30T15:00:07.000Z</time>
      </trkpt>
      <trkpt lat="45.83719" lon="4.72038">
        <ele>339.29166</ele>
        <time>2023-07-30T15:00:08.000Z</time>
      </trkpt>
      <trkpt lat="45.83713" lon="4.72037">
        <ele>339.42865</ele>
        <time>2023-07-30T15:00:09.000Z</time>
      </trkpt>
      <trkpt lat="45.83707" lon="4.72037">
        <ele>339.55481</ele>
        <time>2023-07-30T15:00:10.000Z</time>
      </trkpt>
      <trkpt lat="45.83701" lon="4.72036">
        <ele>339.70374</ele>
        <time>2023-07-30T15:00:11.000Z</time>
      </trkpt>
      <trkpt lat="45.83696" lon="4.72035">
        <ele>339.65295</ele>
        <time>2023-07-30T15:00:12.000Z</time>
      </trkpt>
      <trkpt lat="45.8369" lon="4.72035">
        <ele>339.64236</ele>
        <time>2023-07-30T15:00:13.000Z</time>
      </trkpt>
      <trkpt lat="45.83684" lon="4.72036">
        <ele>339.79987</ele>
        <time>2023-07-30T15:00:14.000Z</time>
      </trkpt>
      <trkpt lat="45.83678" lon="4.72036">
        <ele>339.95645</ele>
        <time>2023-07-30T15:00:15.000Z</time>
      </trkpt>
      <trkpt lat="45.83672" lon="4.72037">
        <ele>340.13077</ele>
        <time>2023-07-30T15:00:16.000Z</time>
      </trkpt>
      <trkpt lat="45.83666" lon="4.72038">
        <ele>340.33481</ele>
        <time>2023-07-30T15:00:17.000Z</time>
      </trkpt>
      <trkpt lat="45.8366" lon="4.72039">
        <ele>340.22458</ele>
        <time>2023-07-30T15:00:18.000Z</time>
      </trkpt>
      <trkpt lat="45.83654" lon="4.72039">
        <ele>340.17636</ele>
        <time>2023-07-30T15:00:19.000Z</time>
      </trkpt>
      <trkpt lat="45.83647" lon="4.72041">
        <ele>340.00925</ele>
        <time>2023-07-30T15:00:20.000Z</time>
      </trkpt>
      <trkpt lat="45.83641" lon="4.72041">
        <ele>340.15778</ele>
        <time>2023-07-30T15:00:21.000Z</time>
      </trkpt>
      <trkpt lat="45.83635" lon="4.72042">
        <ele>340.26001</ele>
        <time>2023-07-30T15:00:22.000Z</time>
      </trkpt>
      <trkpt lat="45.83629" lon="4.72043">
        <ele>340.35367</ele>
        <time>2023-07-30T15:00:23.000Z</time>
      </trkpt>
      <trkpt lat="45.83623" lon="4.72044">
        <ele>340.57184</ele>
        <time>2023-07-30T15:00:24.000Z</time>
      </trkpt>
      <trkpt lat="45.83617" lon="4.72045">
        <ele>340.88226</ele>
        <time>2023-07-30T15:00:25.000Z</time>
      </trkpt>
      <trkpt lat="45.8361" lon="4.72046">
        <ele>340.88687</ele>
        <time>2023-07-30T15:00:26.000Z</time>
      </trkpt>
      <trkpt lat="45.83604" lon="4.72047">
        <ele>340.91827</ele>
        <time>2023-07-30T15:00:27.000Z</time>
      </trkpt>
      <trkpt lat="45.83597" lon="4.72048">
        <ele>340.20782</ele>
        <time>2023-07-30T15:00:28.000Z</time>
      </trkpt>
      <trkpt lat="45.83591" lon="4.72048">
        <ele>339.49429</ele>
        <time>2023-07-30T15:00:29.000Z</time>
      </trkpt>
      <trkpt lat="45.83585" lon="4.72049">
        <ele>338.77542</ele>
        <time>2023-07-30T15:00:30.000Z</time>
      </trkpt>
      <trkpt lat="45.83579" lon="4.7205">
        <ele>338.02603</ele>
        <time>2023-07-30T15:00:31.000Z</time>
      </trkpt>
      <trkpt lat="45.83573" lon="4.72051">
        <ele>337.33026</ele>
        <time>2023-07-30T15:00:32.000Z</time>
      </trkpt>
      <trkpt lat="45.83567" lon="4.72051">
        <ele>336.47211</ele>
        <time>2023-07-30T15:00:33.000Z</time>
      </trkpt>
      <trkpt lat="45.83561" lon="4.72052">
        <ele>336.29382</ele>
        <time>2023-07-30T15:00:34.000Z</time>
      </trkpt>
      <trkpt lat="45.83554" lon="4.72053">
        <ele>336.25653</ele>
        <time>2023-07-30T15:00:35.000Z</time>
      </trkpt>
      <trkpt lat="45.83548" lon="4.72055">
        <ele>336.33112</ele>
        <time>2023-07-30T15:00:36.000Z</time>
      </trkpt>
      <trkpt lat="45.83541" lon="4.72057">
        <ele>336.06918</ele>
        <time>2023-07-30T15:00:37.000Z</time>
      </trkpt>
      <trkpt lat="45.83535" lon="4.72058">
        <ele>336.15753</ele>
        <time>2023-07-30T15:00:38.000Z</time>
      </trkpt>
      <trkpt lat="45.83528" lon="4.72059">
        <ele>336.18546</ele>
        <time>2023-07-30T15:00:39.000Z</time>
      </trkpt>
      <trkpt lat="45.83522" lon="4.72059">
        <ele>336.21854</ele>
        <time>2023-07-30T15:00:40.000Z</time>
      </trkpt>
      <trkpt lat="45.83516" lon="4.72059">
        <ele>336.25372</ele>
        <time>2023-07-30T15:00:41.000Z</time>
      </trkpt>
      <trkpt lat="45.83511" lon="4.7206">
        <ele>336.23636</ele>
        <time>2023-07-30T15:00:42.000Z</time>
      </trkpt>
      <trkpt lat="45.83505" lon="4.72061">
        <ele>336.21991</ele>
        <time>2023-07-30T15:00:43.000Z</time>
      </trkpt>
      <trkpt lat="45.835" lon="4.72062">
        <ele>336.08844</ele>
        <time>2023-07-30T15:00:44.000Z</time>
      </trkpt>
      <trkpt lat="45.83494" lon="4.72061">
        <ele>335.85513</ele>
        <time>2023-07-30T15:00:45.000Z</time>
      </trkpt>
      <trkpt lat="45.8349" lon="4.7206">
        <ele>335.92038</ele>
        <time>2023-07-30T15:00:46.000Z</time>
      </trkpt>
      <trkpt lat="45.83484" lon="4.7206">
        <ele>335.96014</ele>
        <time>2023-07-30T15:00:47.000Z</time>
      </trkpt>
      <trkpt lat="45.83479" lon="4.7206">
        <ele>336.72849</ele>
        <time>2023-07-30T15:00:48.000Z</time>
      </trkpt>
      <trkpt lat="45.83473" lon="4.7206">
        <ele>337.49796</ele>
        <time>2023-07-30T15:00:49.000Z</time>
      </trkpt>
      <trkpt lat="45.83469" lon="4.72059">
        <ele>338.25476</ele>
        <time>2023-07-30T15:00:50.000Z</time>
      </trkpt>
      <trkpt lat="45.83463" lon="4.72057">
        <ele>339.02231</ele>
        <time>2023-07-30T15:00:51.000Z</time>
      </trkpt>
      <trkpt lat="45.83458" lon="4.72055">
        <ele>339.75793</ele>
        <time>2023-07-30T15:00:52.000Z</time>
      </trkpt>
      <trkpt lat="45.83454" lon="4.72049">
        <ele>340.60831</ele>
        <time>2023-07-30T15:00:53.000Z</time>
      </trkpt>
      <trkpt lat="45.8345" lon="4.72043">
        <ele>340.61789</ele>
        <time>2023-07-30T15:00:54.000Z</time>
      </trkpt>
      <trkpt lat="45.83448" lon="4.72035">
        <ele>340.47034</ele>
        <time>2023-07-30T15:00:55.000Z</time>
      </trkpt>
      <trkpt lat="45.83448" lon="4.72026">
        <ele>340.22125</ele>
        <time>2023-07-30T15:00:56.000Z</time>
      </trkpt>
      <trkpt lat="45.83449" lon="4.72018">
        <ele>340.25739</ele>
        <time>2023-07-30T15:00:57.000Z</time>
      </trkpt>
      <trkpt lat="45.83451" lon="4.72009">
        <ele>340.24463</ele>
        <time>2023-07-30T15:00:58.000Z</time>
      </trkpt>
      <trkpt lat="45.83454" lon="4.72001">
        <ele>340.21021</ele>
        <time>2023-07-30T15:00:59.000Z</time>
      </trkpt>
      <trkpt lat="45.83456" lon="4.71993">
        <ele>340.13974</ele>
        <time>2023-07-30T15:01:00.000Z</time>
      </trkpt>
      <trkpt lat="45.83459" lon="4.71985">
        <ele>340.06509</ele>
        <time>2023-07-30T15:01:01.000Z</time>
      </trkpt>
      <trkpt lat="45.83462" lon="4.71977">
        <ele>340.0123</ele>
        <time>2023-07-30T15:01:02.000Z</time>
      </trkpt>
      <trkpt lat="45.83464" lon="4.71968">
        <ele>339.93622</ele>
        <time>2023-07-30T15:01:03.000Z</time>
      </trkpt>
      <trkpt lat="45.83466" lon="4.7196">
        <ele>339.86179</ele>
        <time>2023-07-30T15:01:04.000Z</time>
      </trkpt>
      <trkpt lat="45.83467" lon="4.71951">
        <ele>339.78024</ele>
        <time>2023-07-30T15:01:05.000Z</time>
      </trkpt>
      <trkpt lat="45.8347" lon="4.71941">
        <ele>339.66974</ele>
        <time>2023-07-30T15:01:06.000Z</time>
      </trkpt>
      <trkpt lat="45.83471" lon="4.71932">
        <ele>339.5416</ele>
        <time>2023-07-30T15:01:07.000Z</time>
      </trkpt>
      <trkpt lat="45.83473" lon="4.71923">
        <ele>339.38559</ele>
        <time>2023-07-30T15:01:08.000Z</time>
      </trkpt>
      <trkpt lat="45.83476" lon="4.71914">
        <ele>339.2005</ele>
        <time>2023-07-30T15:01:09.000Z</time>
      </trkpt>
      <trkpt lat="45.83478" lon="4.71904">
        <ele>339.0032</ele>
        <time>2023-07-30T15:01:10.000Z</time>
      </trkpt>
      <trkpt lat="45.8348" lon="4.71894">
        <ele>338.80649</ele>
        <time>2023-07-30T15:01:11.000Z</time>
      </trkpt>
      <trkpt lat="45.83481" lon="4.71883">
        <ele>338.65253</ele>
        <time>2023-07-30T15:01:12.000Z</time>
      </trkpt>
      <trkpt lat="45.83479" lon="4.71873">
        <ele>338.49683</ele>
        <time>2023-07-30T15:01:13.000Z</time>
      </trkpt>
      <trkpt lat="45.83476" lon="4.71863">
        <ele>338.3089</ele>
        <time>2023-07-30T15:01:14.000Z</time>
      </trkpt>
      <trkpt lat="45.83472" lon="4.71854">
        <ele>338.1228</ele>
        <time>2023-07-30T15:01:15.000Z</time>
      </trkpt>
      <trkpt lat="45.83467" lon="4.71843">
        <ele>337.92273</ele>
        <time>2023-07-30T15:01:16.000Z</time>
      </trkpt>
      <trkpt lat="45.83463" lon="4.71833">
        <ele>337.70184</ele>
        <time>2023-07-30T15:01:17.000Z</time>
      </trkpt>
      <trkpt lat="45.83459" lon="4.71821">
        <ele>337.45636</ele>
        <time>2023-07-30T15:01:18.000Z</time>
      </trkpt>
      <trkpt lat="45.83454" lon="4.7181">
        <ele>337.19598</ele>
        <time>2023-07-30T15:01:19.000Z</time>
      </trkpt>
      <trkpt lat="45.8345" lon="4.71798">
        <ele>337.11041</ele>
        <time>2023-07-30T15:01:20.000Z</time>
      </trkpt>
      <trkpt lat="45.83446" lon="4.71786">
        <ele>337.03021</ele>
        <time>2023-07-30T15:01:21.000Z</time>
      </trkpt>
      <trkpt lat="45.83441" lon="4.71773">
        <ele>336.94064</ele>
        <time>2023-07-30T15:01:22.000Z</time>
      </trkpt>
      <trkpt lat="45.83438" lon="4.71762">
        <ele>336.84479</ele>
        <time>2023-07-30T15:01:23.000Z</time>
      </trkpt>
      <trkpt lat="45.83435" lon="4.71748">
        <ele>336.7558</ele>
        <time>2023-07-30T15:01:24.000Z</time>
      </trkpt>
      <trkpt lat="45.83431" lon="4.71736">
        <ele>336.69614</ele>
        <time>2023-07-30T15:01:25.000Z</time>
      </trkpt>
      <trkpt lat="45.83429" lon="4.71725">
        <ele>336.65668</ele>
        <time>2023-07-30T15:01:26.000Z</time>
      </trkpt>
      <trkpt lat="45.83426" lon="4.71715">
        <ele>336.76654</ele>
        <time>2023-07-30T15:01:27.000Z</time>
      </trkpt>
      <trkpt lat="45.83424" lon="4.71705">
        <ele>336.91449</ele>
        <time>2023-07-30T15:01:28.000Z</time>
      </trkpt>
      <trkpt lat="45.83423" lon="4.71695">
        <ele>336.74268</ele>
        <time>2023-07-30T15:01:29.000Z</time>
      </trkpt>
      <trkpt lat="45.83421" lon="4.71688">
        <ele>336.67416</ele>
        <time>2023-07-30T15:01:30.000Z</time>
      </trkpt>
      <trkpt lat="45.8342" lon="4.71681">
        <ele>336.61414</ele>
        <time>2023-07-30T15:01:31.000Z</time>
      </trkpt>
      <trkpt lat="45.83419" lon="4.71674">
        <ele>336.52692</ele>
        <time>2023-07-30T15:01:32.000Z</time>
      </trkpt>
      <trkpt lat="45.83418" lon="4.71668">
        <ele>336.46283</ele>
        <time>2023-07-30T15:01:33.000Z</time>
      </trkpt>
      <trkpt lat="45.83416" lon="4.71663">
        <ele>336.4411</ele>
        <time>2023-07-30T15:01:34.000Z</time>
      </trkpt>
      <trkpt lat="45.83414" lon="4.71658">
        <ele>336.44104</ele>
        <time>2023-07-30T15:01:35.000Z</time>
      </trkpt>
      <trkpt lat="45.83413" lon="4.71654">
        <ele>336.46515</ele>
        <time>2023-07-30T15:01:36.000Z</time>
      </trkpt>
      <trkpt lat="45.83413" lon="4.71649">
        <ele>336.53809</ele>
        <time>2023-07-30T15:01:37.000Z</time>
      </trkpt>
      <trkpt lat="45.83412" lon="4.71645">
        <ele>336.64029</ele>
        <time>2023-07-30T15:01:38.000Z</time>
      </trkpt>
      <trkpt lat="45.83411" lon="4.71639">
        <ele>336.77979</ele>
        <time>2023-07-30T15:01:39.000Z</time>
      </trkpt>
      <trkpt lat="45.8341" lon="4.71633">
        <ele>336.78268</ele>
        <time>2023-07-30T15:01:40.000Z</time>
      </trkpt>
      <trkpt lat="45.83409" lon="4.71627">
        <ele>336.94952</ele>
        <time>2023-07-30T15:01:41.000Z</time>
      </trkpt>
      <trkpt lat="45.83409" lon="4.71622">
        <ele>337.21225</ele>
        <time>2023-07-30T15:01:42.000Z</time>
      </trkpt>
      <trkpt lat="45.83408" lon="4.71616">
        <ele>337.52454</ele>
        <time>2023-07-30T15:01:43.000Z</time>
      </trkpt>
      <trkpt lat="45.83406" lon="4.7161">
        <ele>337.51746</ele>
        <time>2023-07-30T15:01:44.000Z</time>
      </trkpt>
      <trkpt lat="45.83405" lon="4.71604">
        <ele>337.54932</ele>
        <time>2023-07-30T15:01:45.000Z</time>
      </trkpt>
      <trkpt lat="45.83403" lon="4.71599">
        <ele>337.58218</ele>
        <time>2023-07-30T15:01:46.000Z</time>
      </trkpt>
      <trkpt lat="45.83402" lon="4.71592">
        <ele>337.42834</ele>
        <time>2023-07-30T15:01:47.000Z</time>
      </trkpt>
      <trkpt lat="45.83399" lon="4.71588">
        <ele>337.30634</ele>
        <time>2023-07-30T15:01:48.000Z</time>
      </trkpt>
      <trkpt lat="45.83394" lon="4.71587">
        <ele>337.5495</ele>
        <time>2023-07-30T15:01:49.000Z</time>
      </trkpt>
      <trkpt lat="45.83391" lon="4.71587">
        <ele>337.71075</ele>
        <time>2023-07-30T15:01:50.000Z</time>
      </trkpt>
      <trkpt lat="45.83386" lon="4.71588">
        <ele>337.89642</ele>
        <time>2023-07-30T15:01:51.000Z</time>
      </trkpt>
      <trkpt lat="45.83383" lon="4.71591">
        <ele>338.11957</ele>
        <time>2023-07-30T15:01:52.000Z</time>
      </trkpt>
      <trkpt lat="45.8338" lon="4.71594">
        <ele>338.36884</ele>
        <time>2023-07-30T15:01:53.000Z</time>
      </trkpt>
      <trkpt lat="45.83377" lon="4.71599">
        <ele>338.6373</ele>
        <time>2023-07-30T15:01:54.000Z</time>
      </trkpt>
      <trkpt lat="45.83376" lon="4.71604">
        <ele>338.92657</ele>
        <time>2023-07-30T15:01:55.000Z</time>
      </trkpt>
      <trkpt lat="45.83374" lon="4.71608">
        <ele>339.22119</ele>
        <time>2023-07-30T15:01:56.000Z</time>
      </trkpt>
      <trkpt lat="45.83373" lon="4.71614">
        <ele>339.5311</ele>
        <time>2023-07-30T15:01:57.000Z</time>
      </trkpt>
      <trkpt lat="45.83371" lon="4.71619">
        <ele>339.84644</ele>
        <time>2023-07-30T15:01:58.000Z</time>
      </trkpt>
      <trkpt lat="45.83368" lon="4.71624">
        <ele>340.15546</ele>
        <time>2023-07-30T15:01:59.000Z</time>
      </trkpt>
      <trkpt lat="45.83365" lon="4.71626">
        <ele>340.43256</ele>
        <time>2023-07-30T15:02:00.000Z</time>
      </trkpt>
      <trkpt lat="45.83361" lon="4.71624">
        <ele>340.5506</ele>
        <time>2023-07-30T15:02:01.000Z</time>
      </trkpt>
      <trkpt lat="45.83361" lon="4.7161">
        <ele>340.60956</ele>
        <time>2023-07-30T15:02:02.000Z</time>
      </trkpt>
      <trkpt lat="45.83362" lon="4.71603">
        <ele>340.6601</ele>
        <time>2023-07-30T15:02:03.000Z</time>
      </trkpt>
      <trkpt lat="45.83365" lon="4.71595">
        <ele>341.03415</ele>
        <time>2023-07-30T15:02:04.000Z</time>
      </trkpt>
      <trkpt lat="45.83368" lon="4.71586">
        <ele>341.46783</ele>
        <time>2023-07-30T15:02:05.000Z</time>
      </trkpt>
      <trkpt lat="45.83371" lon="4.71578">
        <ele>341.98846</ele>
        <time>2023-07-30T15:02:06.000Z</time>
      </trkpt>
      <trkpt lat="45.83375" lon="4.71571">
        <ele>342.31918</ele>
        <time>2023-07-30T15:02:07.000Z</time>
      </trkpt>
      <trkpt lat="45.83379" lon="4.71565">
        <ele>342.6604</ele>
        <time>2023-07-30T15:02:08.000Z</time>
      </trkpt>
      <trkpt lat="45.83383" lon="4.7156">
        <ele>343.01376</ele>
        <time>2023-07-30T15:02:09.000Z</time>
      </trkpt>
      <trkpt lat="45.83388" lon="4.71556">
        <ele>343.34613</ele>
        <time>2023-07-30T15:02:10.000Z</time>
      </trkpt>
      <trkpt lat="45.83393" lon="4.71555">
        <ele>342.94284</ele>
        <time>2023-07-30T15:02:11.000Z</time>
      </trkpt>
      <trkpt lat="45.83399" lon="4.71555">
        <ele>342.50085</ele>
        <time>2023-07-30T15:02:12.000Z</time>
      </trkpt>
      <trkpt lat="45.83405" lon="4.71557">
        <ele>342.0224</ele>
        <time>2023-07-30T15:02:13.000Z</time>
      </trkpt>
      <trkpt lat="45.8341" lon="4.71561">
        <ele>341.51697</ele>
        <time>2023-07-30T15:02:14.000Z</time>
      </trkpt>
      <trkpt lat="45.83415" lon="4.71565">
        <ele>340.97217</ele>
        <time>2023-07-30T15:02:15.000Z</time>
      </trkpt>
      <trkpt lat="45.8342" lon="4.7157">
        <ele>340.42947</ele>
        <time>2023-07-30T15:02:16.000Z</time>
      </trkpt>
      <trkpt lat="45.83424" lon="4.71575">
        <ele>340.59222</ele>
        <time>2023-07-30T15:02:17.000Z</time>
      </trkpt>
      <trkpt lat="45.83428" lon="4.71581">
        <ele>340.75012</ele>
        <time>2023-07-30T15:02:18.000Z</time>
      </trkpt>
      <trkpt lat="45.83432" lon="4.71587">
        <ele>340.9169</ele>
        <time>2023-07-30T15:02:19.000Z</time>
      </trkpt>
      <trkpt lat="45.83436" lon="4.7159">
        <ele>341.10922</ele>
        <time>2023-07-30T15:02:20.000Z</time>
      </trkpt>
      <trkpt lat="45.8344" lon="4.7159">
        <ele>341.32837</ele>
        <time>2023-07-30T15:02:21.000Z</time>
      </trkpt>
      <trkpt lat="45.83444" lon="4.71587">
        <ele>341.57074</ele>
        <time>2023-07-30T15:02:22.000Z</time>
      </trkpt>
      <trkpt lat="45.83446" lon="4.71584">
        <ele>341.88947</ele>
        <time>2023-07-30T15:02:23.000Z</time>
      </trkpt>
      <trkpt lat="45.83449" lon="4.7158">
        <ele>342.19183</ele>
        <time>2023-07-30T15:02:24.000Z</time>
      </trkpt>
      <trkpt lat="45.8345" lon="4.71575">
        <ele>342.45468</ele>
        <time>2023-07-30T15:02:25.000Z</time>
      </trkpt>
      <trkpt lat="45.8345" lon="4.71569">
        <ele>342.6467</ele>
        <time>2023-07-30T15:02:26.000Z</time>
      </trkpt>
      <trkpt lat="45.8345" lon="4.71564">
        <ele>342.89584</ele>
        <time>2023-07-30T15:02:27.000Z</time>
      </trkpt>
      <trkpt lat="45.83451" lon="4.71559">
        <ele>343.13974</ele>
        <time>2023-07-30T15:02:28.000Z</time>
      </trkpt>
      <trkpt lat="45.83451" lon="4.71552">
        <ele>343.34259</ele>
        <time>2023-07-30T15:02:29.000Z</time>
      </trkpt>
      <trkpt lat="45.83451" lon="4.71546">
        <ele>343.6424</ele>
        <time>2023-07-30T15:02:30.000Z</time>
      </trkpt>
      <trkpt lat="45.83451" lon="4.7154">
        <ele>344.70929</ele>
        <time>2023-07-30T15:02:31.000Z</time>
      </trkpt>
      <trkpt lat="45.83452" lon="4.71534">
        <ele>345.58261</ele>
        <time>2023-07-30T15:02:32.000Z</time>
      </trkpt>
      <trkpt lat="45.83452" lon="4.71529">
        <ele>346.66977</ele>
        <time>2023-07-30T15:02:33.000Z</time>
      </trkpt>
      <trkpt lat="45.83452" lon="4.71525">
        <ele>346.84149</ele>
        <time>2023-07-30T15:02:34.000Z</time>
      </trkpt>
      <trkpt lat="45.83452" lon="4.7152">
        <ele>347.01788</ele>
        <time>2023-07-30T15:02:35.000Z</time>
      </trkpt>
      <trkpt lat="45.83452" lon="4.71515">
        <ele>347.16632</ele>
        <time>2023-07-30T15:02:36.000Z</time>
      </trkpt>
      <trkpt lat="45.83454" lon="4.71511">
        <ele>347.3822</ele>
        <time>2023-07-30T15:02:37.000Z</time>
      </trkpt>
      <trkpt lat="45.83455" lon="4.71506">
        <ele>347.60666</ele>
        <time>2023-07-30T15:02:38.000Z</time>
      </trkpt>
      <trkpt lat="45.83456" lon="4.71501">
        <ele>347.8226</ele>
        <time>2023-07-30T15:02:39.000Z</time>
      </trkpt>
      <trkpt lat="45.83458" lon="4.71496">
        <ele>348.10559</ele>
        <time>2023-07-30T15:02:40.000Z</time>
      </trkpt>
      <trkpt lat="45.83459" lon="4.71491">
        <ele>348.35416</ele>
        <time>2023-07-30T15:02:41.000Z</time>
      </trkpt>
      <trkpt lat="45.83456" lon="4.71488">
        <ele>348.36539</ele>
        <time>2023-07-30T15:02:42.000Z</time>
      </trkpt>
      <trkpt lat="45.83452" lon="4.71485">
        <ele>348.35663</ele>
        <time>2023-07-30T15:02:43.000Z</time>
      </trkpt>
      <trkpt lat="45.83448" lon="4.71483">
        <ele>348.34302</ele>
        <time>2023-07-30T15:02:44.000Z</time>
      </trkpt>
      <trkpt lat="45.83444" lon="4.7148">
        <ele>348.30988</ele>
        <time>2023-07-30T15:02:45.000Z</time>
      </trkpt>
      <trkpt lat="45.83439" lon="4.71477">
        <ele>348.26486</ele>
        <time>2023-07-30T15:02:46.000Z</time>
      </trkpt>
      <trkpt lat="45.83434" lon="4.71474">
        <ele>348.40326</ele>
        <time>2023-07-30T15:02:47.000Z</time>
      </trkpt>
      <trkpt lat="45.83429" lon="4.7147">
        <ele>348.49792</ele>
        <time>2023-07-30T15:02:48.000Z</time>
      </trkpt>
      <trkpt lat="45.83423" lon="4.71467">
        <ele>348.61823</ele>
        <time>2023-07-30T15:02:49.000Z</time>
      </trkpt>
      <trkpt lat="45.83418" lon="4.71462">
        <ele>348.66412</ele>
        <time>2023-07-30T15:02:50.000Z</time>
      </trkpt>
      <trkpt lat="45.83412" lon="4.71458">
        <ele>348.68405</ele>
        <time>2023-07-30T15:02:51.000Z</time>
      </trkpt>
      <trkpt lat="45.83408" lon="4.71451">
        <ele>348.90997</ele>
        <time>2023-07-30T15:02:52.000Z</time>
      </trkpt>
      <trkpt lat="45.83403" lon="4.71445">
        <ele>348.93582</ele>
        <time>2023-07-30T15:02:53.000Z</time>
      </trkpt>
      <trkpt lat="45.83399" lon="4.71439">
        <ele>349.86899</ele>
        <time>2023-07-30T15:02:54.000Z</time>
      </trkpt>
      <trkpt lat="45.83396" lon="4.71431">
        <ele>350.81885</ele>
        <time>2023-07-30T15:02:55.000Z</time>
      </trkpt>
      <trkpt lat="45.83394" lon="4.71424">
        <ele>351.77115</ele>
        <time>2023-07-30T15:02:56.000Z</time>
      </trkpt>
      <trkpt lat="45.8339" lon="4.71417">
        <ele>351.95355</ele>
        <time>2023-07-30T15:02:57.000Z</time>
      </trkpt>
      <trkpt lat="45.83385" lon="4.71411">
        <ele>352.11346</ele>
        <time>2023-07-30T15:02:58.000Z</time>
      </trkpt>
      <trkpt lat="45.83381" lon="4.71405">
        <ele>352.25494</ele>
        <time>2023-07-30T15:02:59.000Z</time>
      </trkpt>
      <trkpt lat="45.83377" lon="4.71398">
        <ele>352.30765</ele>
        <time>2023-07-30T15:03:00.000Z</time>
      </trkpt>
      <trkpt lat="45.83373" lon="4.71391">
        <ele>352.3779</ele>
        <time>2023-07-30T15:03:01.000Z</time>
      </trkpt>
      <trkpt lat="45.83369" lon="4.71385">
        <ele>352.65045</ele>
        <time>2023-07-30T15:03:02.000Z</time>
      </trkpt>
      <trkpt lat="45.83365" lon="4.71378">
        <ele>352.91318</ele>
        <time>2023-07-30T15:03:03.000Z</time>
      </trkpt>
      <trkpt lat="45.83361" lon="4.71371">
        <ele>353.20624</ele>
        <time>2023-07-30T15:03:04.000Z</time>
      </trkpt>
      <trkpt lat="45.83357" lon="4.71364">
        <ele>353.48746</ele>
        <time>2023-07-30T15:03:05.000Z</time>
      </trkpt>
      <trkpt lat="45.83353" lon="4.71358">
        <ele>353.7634</ele>
        <time>2023-07-30T15:03:06.000Z</time>
      </trkpt>
      <trkpt lat="45.83349" lon="4.71351">
        <ele>353.9025</ele>
        <time>2023-07-30T15:03:07.000Z</time>
      </trkpt>
      <trkpt lat="45.83345" lon="4.71345">
        <ele>354.07892</ele>
        <time>2023-07-30T15:03:08.000Z</time>
      </trkpt>
      <trkpt lat="45.83341" lon="4.71338">
        <ele>354.24646</ele>
        <time>2023-07-30T15:03:09.000Z</time>
      </trkpt>
      <trkpt lat="45.83337" lon="4.71332">
        <ele>354.40002</ele>
        <time>2023-07-30T15:03:10.000Z</time>
      </trkpt>
      <trkpt lat="45.83332" lon="4.71326">
        <ele>354.52759</ele>
        <time>2023-07-30T15:03:11.000Z</time>
      </trkpt>
      <trkpt lat="45.83327" lon="4.71319">
        <ele>354.6377</ele>
        <time>2023-07-30T15:03:12.000Z</time>
      </trkpt>
      <trkpt lat="45.83323" lon="4.71311">
        <ele>354.72412</ele>
        <time>2023-07-30T15:03:13.000Z</time>
      </trkpt>
      <trkpt lat="45.8332" lon="4.71303">
        <ele>354.78574</ele>
        <time>2023-07-30T15:03:14.000Z</time>
      </trkpt>
      <trkpt lat="45.83315" lon="4.71297">
        <ele>354.86191</ele>
        <time>2023-07-30T15:03:15.000Z</time>
      </trkpt>
      <trkpt lat="45.83311" lon="4.7129">
        <ele>354.94095</ele>
        <time>2023-07-30T15:03:16.000Z</time>
      </trkpt>
      <trkpt lat="45.83307" lon="4.71284">
        <ele>354.99405</ele>
        <time>2023-07-30T15:03:17.000Z</time>
      </trkpt>
      <trkpt lat="45.83304" lon="4.71276">
        <ele>355.08115</ele>
        <time>2023-07-30T15:03:18.000Z</time>
      </trkpt>
      <trkpt lat="45.83302" lon="4.71269">
        <ele>355.21375</ele>
        <time>2023-07-30T15:03:19.000Z</time>
      </trkpt>
      <trkpt lat="45.83299" lon="4.71261">
        <ele>355.36078</ele>
        <time>2023-07-30T15:03:20.000Z</time>
      </trkpt>
      <trkpt lat="45.83297" lon="4.71253">
        <ele>355.5416</ele>
        <time>2023-07-30T15:03:21.000Z</time>
      </trkpt>
      <trkpt lat="45.83296" lon="4.71245">
        <ele>355.76556</ele>
        <time>2023-07-30T15:03:22.000Z</time>
      </trkpt>
      <trkpt lat="45.83294" lon="4.71237">
        <ele>355.96429</ele>
        <time>2023-07-30T15:03:23.000Z</time>
      </trkpt>
      <trkpt lat="45.83292" lon="4.71228">
        <ele>356.06015</ele>
        <time>2023-07-30T15:03:24.000Z</time>
      </trkpt>
      <trkpt lat="45.8329" lon="4.7122">
        <ele>356.21109</ele>
        <time>2023-07-30T15:03:25.000Z</time>
      </trkpt>
      <trkpt lat="45.83289" lon="4.71211">
        <ele>355.5954</ele>
        <time>2023-07-30T15:03:26.000Z</time>
      </trkpt>
      <trkpt lat="45.83288" lon="4.71202">
        <ele>355.12466</ele>
        <time>2023-07-30T15:03:27.000Z</time>
      </trkpt>
      <trkpt lat="45.83287" lon="4.71194">
        <ele>354.60593</ele>
        <time>2023-07-30T15:03:28.000Z</time>
      </trkpt>
      <trkpt lat="45.83288" lon="4.71184">
        <ele>354.03824</ele>
        <time>2023-07-30T15:03:29.000Z</time>
      </trkpt>
      <trkpt lat="45.83287" lon="4.71175">
        <ele>353.46649</ele>
        <time>2023-07-30T15:03:30.000Z</time>
      </trkpt>
      <trkpt lat="45.83285" lon="4.71168">
        <ele>352.9234</ele>
        <time>2023-07-30T15:03:31.000Z</time>
      </trkpt>
      <trkpt lat="45.83285" lon="4.71159">
        <ele>352.41949</ele>
        <time>2023-07-30T15:03:32.000Z</time>
      </trkpt>
      <trkpt lat="45.83283" lon="4.7115">
        <ele>351.92719</ele>
        <time>2023-07-30T15:03:33.000Z</time>
      </trkpt>
      <trkpt lat="45.83282" lon="4.71142">
        <ele>351.45557</ele>
        <time>2023-07-30T15:03:34.000Z</time>
      </trkpt>
      <trkpt lat="45.83281" lon="4.71136">
        <ele>350.94562</ele>
        <time>2023-07-30T15:03:35.000Z</time>
      </trkpt>
      <trkpt lat="45.83281" lon="4.71128">
        <ele>350.43765</ele>
        <time>2023-07-30T15:03:36.000Z</time>
      </trkpt>
      <trkpt lat="45.8328" lon="4.7112">
        <ele>349.74762</ele>
        <time>2023-07-30T15:03:37.000Z</time>
      </trkpt>
      <trkpt lat="45.8328" lon="4.71111">
        <ele>348.89774</ele>
        <time>2023-07-30T15:03:38.000Z</time>
      </trkpt>
      <trkpt lat="45.83281" lon="4.71104">
        <ele>348.44897</ele>
        <time>2023-07-30T15:03:39.000Z</time>
      </trkpt>
      <trkpt lat="45.83283" lon="4.71095">
        <ele>347.82187</ele>
        <time>2023-07-30T15:03:40.000Z</time>
      </trkpt>
      <trkpt lat="45.83284" lon="4.71089">
        <ele>347.07269</ele>
        <time>2023-07-30T15:03:41.000Z</time>
      </trkpt>
      <trkpt lat="45.83286" lon="4.71081">
        <ele>346.24792</ele>
        <time>2023-07-30T15:03:42.000Z</time>
      </trkpt>
      <trkpt lat="45.83289" lon="4.71075">
        <ele>345.41635</ele>
        <time>2023-07-30T15:03:43.000Z</time>
      </trkpt>
      <trkpt lat="45.83291" lon="4.71068">
        <ele>344.71542</ele>
        <time>2023-07-30T15:03:44.000Z</time>
      </trkpt>
      <trkpt lat="45.83293" lon="4.7106">
        <ele>343.76617</ele>
        <time>2023-07-30T15:03:45.000Z</time>
      </trkpt>
      <trkpt lat="45.83295" lon="4.71053">
        <ele>344.66632</ele>
        <time>2023-07-30T15:03:46.000Z</time>
      </trkpt>
      <trkpt lat="45.83297" lon="4.71047">
        <ele>345.51566</ele>
        <time>2023-07-30T15:03:47.000Z</time>
      </trkpt>
      <trkpt lat="45.83299" lon="4.7104">
        <ele>346.37408</ele>
        <time>2023-07-30T15:03:48.000Z</time>
      </trkpt>
      <trkpt lat="45.83301" lon="4.71032">
        <ele>347.29083</ele>
        <time>2023-07-30T15:03:49.000Z</time>
      </trkpt>
      <trkpt lat="45.83303" lon="4.71025">
        <ele>348.18839</ele>
        <time>2023-07-30T15:03:50.000Z</time>
      </trkpt>
      <trkpt lat="45.83304" lon="4.71018">
        <ele>349.04987</ele>
        <time>2023-07-30T15:03:51.000Z</time>
      </trkpt>
      <trkpt lat="45.83305" lon="4.71011">
        <ele>349.88919</ele>
        <time>2023-07-30T15:03:52.000Z</time>
      </trkpt>
      <trkpt lat="45.83307" lon="4.71005">
        <ele>350.72632</ele>
        <time>2023-07-30T15:03:53.000Z</time>
      </trkpt>
      <trkpt lat="45.83308" lon="4.70999">
        <ele>351.54858</ele>
        <time>2023-07-30T15:03:54.000Z</time>
      </trkpt>
      <trkpt lat="45.8331" lon="4.70994">
        <ele>352.37155</ele>
        <time>2023-07-30T15:03:55.000Z</time>
      </trkpt>
      <trkpt lat="45.83311" lon="4.70989">
        <ele>353.18619</ele>
        <time>2023-07-30T15:03:56.000Z</time>
      </trkpt>
      <trkpt lat="45.83311" lon="4.70985">
        <ele>354.1691</ele>
        <time>2023-07-30T15:03:57.000Z</time>
      </trkpt>
      <trkpt lat="45.83313" lon="4.70981">
        <ele>355.28552</ele>
        <time>2023-07-30T15:03:58.000Z</time>
      </trkpt>
      <trkpt lat="45.83313" lon="4.70977">
        <ele>356.02631</ele>
        <time>2023-07-30T15:03:59.000Z</time>
      </trkpt>
      <trkpt lat="45.83314" lon="4.70974">
        <ele>356.9357</ele>
        <time>2023-07-30T15:04:00.000Z</time>
      </trkpt>
    </trkseg>
  </trk>
</gpx>